
Distance (Route):
Temperature : 9.6°C
Humidity : 0%
Pressure : 872.3hPa| Receiver | Frames | First received | Last received |
|---|---|---|---|
| AA1-15 | 1086 | 2026-09-03 10:47:45 | 2026-09-03 13:50:59 |
| DL1XH-15 | 282 | 2026-09-03 10:57:36 | 2026-09-03 13:02:44 |
| DO2SHX-10 | 270 | 2026-09-03 11:14:22 | 2026-09-03 12:58:07 |
| DB0DAN | 248 | 2026-09-03 10:50:10 | 2026-09-03 13:50:40 |
| DL1XH-west | 234 | 2026-09-03 11:08:01 | 2026-09-03 13:11:11 |
| DL1XH1-15 | 148 | 2026-09-03 11:10:10 | 2026-09-03 13:09:27 |
| SP3WXH-11 | 102 | 2026-09-03 11:16:14 | 2026-09-03 14:12:40 |
| AM1SDL-15 | 73 | 2026-09-03 10:56:32 | 2026-09-03 13:43:32 |
| SP3BTT-10 | 69 | 2026-09-03 11:04:21 | 2026-09-03 14:14:39 |
| EDDB2-11 | 67 | 2026-09-03 11:09:29 | 2026-09-03 13:59:11 |
| MECKS9 | 65 | 2026-09-03 10:48:14 | 2026-09-03 13:38:41 |
| SONDE2-11 | 62 | 2026-09-03 11:02:38 | 2026-09-03 13:53:56 |
| DJ2DS-15 | 56 | 2026-09-03 11:16:47 | 2026-09-03 13:05:46 |
| DF8AY | 32 | 2026-09-03 12:59:43 | 2026-09-03 13:10:25 |
| DG6HD-11 | 31 | 2026-09-03 10:57:59 | 2026-09-03 12:52:16 |
| KRY50SP | 28 | 2026-09-03 11:39:17 | 2026-09-03 14:04:19 |
| S3001 | 26 | 2026-09-03 11:06:11 | 2026-09-03 11:47:04 |
| KRY50SP-1 | 21 | 2026-09-03 13:16:29 | 2026-09-03 14:04:17 |
| DG6HD-15 | 20 | 2026-09-03 11:08:35 | 2026-09-03 11:43:05 |
| DK1YY | 15 | 2026-09-03 11:29:16 | 2026-09-03 12:43:47 |
| EDDB2-12 | 12 | 2026-09-03 13:30:30 | 2026-09-03 13:55:19 |
| DM0DOS-11 | 8 | 2026-09-03 13:04:56 | 2026-09-03 13:06:08 |
| JOZKA6-1 | 1 | 2026-09-03 13:28:41 | 2026-09-03 13:28:41 |
| Receiver | Date | Latitude | Longitude | Direction | Speed | Altitude | Climb | Temperature | Humidity | Pressure | Voltage | Killtimer | Uptime | BKT | XDATA |
|---|---|---|---|---|---|---|---|---|---|---|---|---|---|---|---|
| SP3BTT-10 | 2026-09-03 14:14:39 | 53.63673 | 15.86680 | 71° | 53km/h | 1287m | -2.3m/s | 9.6°C | 0% | 872.3hPa | 2.7V | 06:47:00 | 00:00:00 | 00:00:00 | |
| SP3BTT-10 | 2026-09-03 14:14:19 | 53.63593 | 15.86250 | 72° | 49km/h | 1335m | -1.6m/s | 9.4°C | 0% | 867.6hPa | 2.7V | 00:00:00 | 00:00:00 | 00:00:00 | |
| SP3BTT-10 | 2026-09-03 14:13:39 | 53.63493 | 15.85437 | 83° | 44km/h | 1422m | -1.8m/s | 9.2°C | 0% | 859.2hPa | 2.7V | 00:00:00 | 00:00:00 | 00:00:00 | |
| SP3BTT-10 | 2026-09-03 14:13:19 | 53.63462 | 15.85071 | 74° | 49km/h | 1460m | -1.9m/s | 9.2°C | 0% | 855.1hPa | 2.7V | 00:00:00 | 00:00:00 | 00:00:00 | |
| SP3BTT-10 | 2026-09-03 14:12:49 | 53.63343 | 15.84515 | 70° | 55km/h | 1519m | -1.9m/s | 9.0°C | 0% | 848.9hPa | 2.7V | 00:00:00 | 00:00:00 | 00:00:00 | |
| SP3WXH-11 | 2026-09-03 14:12:40 | 53.63302 | 15.84332 | 70° | 49km/h | 1538m | -2.3m/s | 9.0°C | 100.0% | 846.9hPa | 2.7V | 00:00:00 | 00:00:00 | 00:00:00 | |
| SP3BTT-10 | 2026-09-03 14:12:27 | 53.63254 | 15.84045 | 79° | 47km/h | 1565m | -2.0m/s | 8.8°C | 0% | 844.2hPa | 2.7V | 00:00:00 | 00:00:00 | 00:00:00 | |
| SP3WXH-11 | 2026-09-03 14:12:09 | 53.63219 | 15.83685 | 76° | 40km/h | 1603m | -2.5m/s | 8.6°C | 100.0% | 840.4hPa | 2.7V | 00:00:00 | 00:00:00 | 00:00:00 | |
| SP3BTT-10 | 2026-09-03 14:12:07 | 53.63214 | 15.83651 | 74° | 49km/h | 1608m | -2.2m/s | 8.5°C | 0% | 840.0hPa | 2.7V | 06:49:00 | 00:00:00 | 00:00:00 | |
| SP3WXH-11 | 2026-09-03 14:11:38 | 53.63098 | 15.83118 | 72° | 53km/h | 1666m | -2.0m/s | 8.5°C | 98.6% | 833.9hPa | 2.7V | 00:00:00 | 00:00:00 | 00:00:00 | |
| SP3BTT-10 | 2026-09-03 14:11:27 | 53.63053 | 15.82870 | 74° | 55km/h | 1687m | -1.6m/s | 8.4°C | 98.9% | 831.9hPa | 2.7V | 00:00:00 | 00:00:00 | 00:00:00 | |
| SP3WXH-11 | 2026-09-03 14:11:07 | 53.62994 | 15.82413 | 82° | 57km/h | 1725m | -1.5m/s | 8.1°C | 99.2% | 828.2hPa | 2.7V | 00:00:00 | 00:00:00 | 00:00:00 | |
| SP3BTT-10 | 2026-09-03 14:11:07 | 53.62994 | 15.82413 | 83° | 49km/h | 1725m | -1.4m/s | 8.1°C | 0% | 828.2hPa | 2.7V | 00:00:00 | 00:00:00 | 00:00:00 | |
| SP3WXH-11 | 2026-09-03 14:10:36 | 53.62959 | 15.81706 | 86° | 42km/h | 1780m | -1.9m/s | 7.8°C | 99.7% | 822.9hPa | 2.7V | 00:00:00 | 00:00:00 | 00:00:00 | |
| SP3BTT-10 | 2026-09-03 14:10:28 | 53.62949 | 15.81580 | 79° | 47km/h | 1791m | -1.2m/s | 7.7°C | 99.7% | 821.7hPa | 2.7V | 00:00:00 | 00:00:00 | 00:00:00 | |
| SP3BTT-10 | 2026-09-03 14:10:08 | 53.62880 | 15.81192 | 76° | 47km/h | 1821m | -1.8m/s | 7.5°C | 0% | 818.7hPa | 2.7V | 00:00:00 | 00:00:00 | 00:00:00 | |
| SP3WXH-11 | 2026-09-03 14:10:05 | 53.62871 | 15.81122 | 78° | 55km/h | 1825m | -1.5m/s | 7.5°C | 100.0% | 818.2hPa | 2.7V | 00:00:00 | 00:00:00 | 00:00:00 | |
| SP3WXH-11 | 2026-09-03 14:09:34 | 53.62846 | 15.80450 | 87° | 44km/h | 1873m | -1.6m/s | 7.1°C | 100.0% | 813.1hPa | 2.7V | 00:00:00 | 00:00:00 | 00:00:00 | |
| SP3BTT-10 | 2026-09-03 14:09:27 | 53.62842 | 15.80324 | 85° | 44km/h | 1885m | -1.5m/s | 7.0°C | 0% | 812.0hPa | 2.7V | 00:00:00 | 00:00:00 | 00:00:00 | |
| SP3BTT-10 | 2026-09-03 14:09:07 | 53.62795 | 15.79956 | 76° | 44km/h | 1919m | -1.2m/s | 7.0°C | 99.9% | 809.0hPa | 2.7V | 00:00:00 | 00:00:00 | 00:00:00 | |
| SP3WXH-11 | 2026-09-03 14:09:03 | 53.62784 | 15.79868 | 77° | 53km/h | 1926m | -1.6m/s | 7.1°C | 97.9% | 808.4hPa | 2.7V | 00:00:00 | 00:00:00 | 00:00:00 | |
| SP3WXH-11 | 2026-09-03 14:08:32 | 53.62763 | 15.79178 | 91° | 46km/h | 1983m | -1.9m/s | 7.1°C | 93.3% | 802.7hPa | 2.7V | 00:00:00 | 00:00:00 | 00:00:00 | |
| SP3BTT-10 | 2026-09-03 14:08:12 | 53.62772 | 15.78816 | 83° | 44km/h | 2024m | -1.4m/s | 7.4°C | 88.5% | 798.5hPa | 2.7V | 06:53:00 | 00:00:00 | 00:00:00 | |
| SP3WXH-11 | 2026-09-03 14:08:01 | 53.62750 | 15.78606 | 79° | 46km/h | 2049m | -2.2m/s | 7.3°C | 87.9% | 796.2hPa | 2.7V | 00:00:00 | 00:00:00 | 00:00:00 | |
| SP3BTT-10 | 2026-09-03 14:07:52 | 53.62735 | 15.78443 | 83° | 47km/h | 2067m | -2.0m/s | 7.3°C | 87.9% | 794.4hPa | 2.7V | 00:00:00 | 00:00:00 | 00:00:00 | |
| SP3WXH-11 | 2026-09-03 14:07:30 | 53.62744 | 15.77959 | 97° | 46km/h | 2115m | -2.3m/s | 6.9°C | 89.3% | 789.6hPa | 2.7V | 00:00:00 | 00:00:00 | 00:00:00 | |
| SP3BTT-10 | 2026-09-03 14:07:17 | 53.62756 | 15.77755 | 89° | 37km/h | 2147m | -2.5m/s | 6.6°C | 90.9% | 786.8hPa | 2.7V | 00:00:00 | 00:00:00 | 00:00:00 | |
| SP3WXH-11 | 2026-09-03 14:06:59 | 53.62742 | 15.77462 | 83° | 35km/h | 2197m | -2.3m/s | 6.2°C | 92.4% | 782.2hPa | 2.7V | 00:00:00 | 00:00:00 | 00:00:00 | |
| SP3BTT-10 | 2026-09-03 14:06:57 | 53.62741 | 15.77446 | 82° | 38km/h | 2199m | -2.5m/s | 6.2°C | 93.3% | 782.1hPa | 2.7V | 00:00:00 | 00:00:00 | 00:00:00 | |
| SP3BTT-10 | 2026-09-03 14:06:37 | 53.62706 | 15.77123 | 79° | 42km/h | 2245m | -2.8m/s | 5.9°C | 93.9% | 777.4hPa | 2.7V | 00:00:00 | 00:00:00 | 00:00:00 | |
| SP3WXH-11 | 2026-09-03 14:06:28 | 53.62683 | 15.76934 | 79° | 44km/h | 2272m | -2.8m/s | 5.7°C | 94.2% | 774.8hPa | 2.7V | 00:00:00 | 00:00:00 | 00:00:00 | |
| SP3WXH-11 | 2026-09-03 14:05:57 | 53.62662 | 15.76340 | 92° | 37km/h | 2354m | -2.7m/s | 5.1°C | 95.1% | 767.1hPa | 2.7V | 00:00:00 | 00:00:00 | 00:00:00 | |
| SP3BTT-10 | 2026-09-03 14:05:38 | 53.62634 | 15.76038 | 77° | 51km/h | 2400m | -2.7m/s | 4.8°C | 93.0% | 762.4hPa | 2.7V | 00:00:00 | 00:00:00 | 00:00:00 | |
| SP3WXH-11 | 2026-09-03 14:05:26 | 53.62601 | 15.75772 | 80° | 51km/h | 2435m | -2.5m/s | 4.7°C | 88.2% | 759.3hPa | 2.7V | 00:00:00 | 00:00:00 | 00:00:00 | |
| SP3WXH-11 | 2026-09-03 14:04:55 | 53.62586 | 15.75062 | 95° | 53km/h | 2514m | -2.5m/s | 4.4°C | 87.1% | 751.9hPa | 2.7V | 00:00:00 | 00:00:00 | 00:00:00 | |
| SP3BTT-10 | 2026-09-03 14:04:37 | 53.62606 | 15.74693 | 92° | 44km/h | 2551m | -2.2m/s | 4.1°C | 89.9% | 748.4hPa | 2.7V | 00:00:00 | 00:00:00 | 00:00:00 | |
| SP3WXH-11 | 2026-09-03 14:04:24 | 53.62583 | 15.74409 | 78° | 51km/h | 2583m | -2.4m/s | 3.8°C | 90.3% | 745.4hPa | 2.6V | 00:00:00 | 00:00:00 | 00:00:00 | |
| KRY50SP | 2026-09-03 14:04:19 | 53.62576 | 15.74341 | 82° | 57km/h | 2590m | -2.0m/s | 3.9°C | 88.9% | 744.8hPa | 2.6V | 00:00:00 | 00:00:00 | 00:00:00 | |
| KRY50SP-1 | 2026-09-03 14:04:17 | 53.62570 | 15.74270 | 83° | 58km/h | 2598m | -2.5m/s | 3.9°C | 88.3% | 744.3hPa | 2.6V | 00:00:00 | 00:00:00 | 00:00:00 | |
| KRY50SP | 2026-09-03 14:04:14 | 53.62567 | 15.74220 | 84° | 58km/h | 2602m | -2.1m/s | 3.9°C | 88.4% | 744.0hPa | 2.6V | 00:00:00 | 00:00:00 | 00:00:00 | |
| KRY50SP | 2026-09-03 14:04:08 | 53.62560 | 15.74066 | 89° | 60km/h | 2616m | -2.6m/s | 3.8°C | 88.9% | 742.6hPa | 2.6V | 00:00:00 | 00:00:00 | 00:00:00 | |
| SP3BTT-10 | 2026-09-03 14:04:02 | 53.62558 | 15.73884 | 91° | 58km/h | 2632m | -1.9m/s | 3.7°C | 0% | 741.1hPa | 2.6V | 00:00:00 | 00:00:00 | 00:00:00 | |
| SP3WXH-11 | 2026-09-03 14:03:52 | 53.62567 | 15.73627 | 97° | 58km/h | 2652m | -2.1m/s | 3.5°C | 89.5% | 739.1hPa | 2.6V | 00:00:00 | 00:00:00 | 00:00:00 | |
| SP3BTT-10 | 2026-09-03 14:03:42 | 53.62588 | 15.73396 | 99° | 47km/h | 2676m | -1.9m/s | 0°C | 0% | 0hPa | 2.6V | 00:00:00 | 00:00:00 | 00:00:00 | |
| KRY50SP | 2026-09-03 14:03:37 | 53.62594 | 15.73314 | 96° | 46km/h | 2683m | -1.9m/s | 3.3°C | 91.5% | 736.4hPa | 2.6V | 00:00:00 | 00:00:00 | 00:00:00 | |
| SP3BTT-10 | 2026-09-03 14:03:22 | 53.62591 | 15.73001 | 83° | 49km/h | 2715m | -2.2m/s | 0°C | 0% | 0hPa | 2.6V | 00:00:00 | 00:00:00 | 00:00:00 | |
| SP3WXH-11 | 2026-09-03 14:03:21 | 53.62589 | 15.72981 | 80° | 47km/h | 2718m | -2.2m/s | 3.0°C | 92.4% | 733.0hPa | 2.6V | 00:00:00 | 00:00:00 | 00:00:00 | |
| SP3WXH-11 | 2026-09-03 14:02:51 | 53.62564 | 15.72250 | 98° | 51km/h | 2782m | -2.0m/s | 2.4°C | 95.0% | 727.2hPa | 2.6V | 00:00:00 | 00:00:00 | 00:00:00 | |
| SP3BTT-10 | 2026-09-03 14:02:43 | 53.62578 | 15.72100 | 102° | 44km/h | 2797m | -2.4m/s | 0°C | 0% | 0hPa | 2.6V | 00:00:00 | 00:00:00 | 00:00:00 | |
| SP3BTT-10 | 2026-09-03 14:02:23 | 53.62586 | 15.71724 | 83° | 44km/h | 2840m | -1.8m/s | 0°C | 0% | 0hPa | 2.6V | 00:00:00 | 00:00:00 | 00:00:00 | |
| SP3WXH-11 | 2026-09-03 14:02:19 | 53.62580 | 15.71643 | 83° | 47km/h | 2848m | -2.2m/s | 2.3°C | 89.6% | 721.5hPa | 2.6V | 00:00:00 | 00:00:00 | 00:00:00 | |
| SP3WXH-11 | 2026-09-03 14:01:48 | 53.62581 | 15.70939 | 97° | 44km/h | 2914m | -1.9m/s | 1.8°C | 94.0% | 715.8hPa | 2.6V | 00:00:00 | 00:00:00 | 00:00:00 | |
| SP3BTT-10 | 2026-09-03 14:01:37 | 53.62593 | 15.70739 | 90° | 40km/h | 2937m | -2.2m/s | 0°C | 0% | 0hPa | 2.6V | 00:00:00 | 00:00:00 | 00:00:00 | |
| SP3WXH-11 | 2026-09-03 14:01:17 | 53.62556 | 15.70350 | 81° | 51km/h | 2975m | -2.3m/s | 1.3°C | 93.9% | 710.0hPa | 2.6V | 00:00:00 | 00:00:00 | 00:00:00 | |
| SP3WXH-11 | 2026-09-03 14:00:47 | 53.62570 | 15.69676 | 93° | 40km/h | 3046m | -2.2m/s | 0.8°C | 95.1% | 703.8hPa | 2.6V | 00:00:00 | 00:00:00 | 00:00:00 | |
| KRY50SP | 2026-09-03 14:00:46 | 53.62569 | 15.69694 | 99° | 42km/h | 3044m | -2.3m/s | 0.8°C | 95.2% | 704.0hPa | 2.6V | 00:00:00 | 00:00:00 | 00:00:00 | |
| KRY50SP-1 | 2026-09-03 14:00:38 | 53.62571 | 15.69558 | 85° | 42km/h | 3062m | -2.4m/s | 0.8°C | 94.0% | 702.4hPa | 2.6V | 00:00:00 | 00:00:00 | 00:00:00 | |
| KRY50SP | 2026-09-03 14:00:33 | 53.62562 | 15.69469 | 82° | 44km/h | 3075m | -2.6m/s | 0.7°C | 93.7% | 701.3hPa | 2.6V | 00:00:00 | 00:00:00 | 00:00:00 | |
| KRY50SP | 2026-09-03 14:00:21 | 53.62542 | 15.69215 | 90° | 55km/h | 3103m | -2.3m/s | 0.6°C | 93.0% | 698.9hPa | 2.6V | 00:00:00 | 00:00:00 | 00:00:00 | |
| KRY50SP-1 | 2026-09-03 14:00:20 | 53.62542 | 15.69192 | 90° | 55km/h | 3105m | -2.3m/s | 0.5°C | 93.3% | 698.8hPa | 2.6V | 00:00:00 | 00:00:00 | 00:00:00 | |
| SP3WXH-11 | 2026-09-03 14:00:15 | 53.62546 | 15.69056 | 94° | 47km/h | 3119m | -2.2m/s | 0.4°C | 94.0% | 697.8hPa | 2.6V | 00:00:00 | 00:00:00 | 00:00:00 | |
| KRY50SP-1 | 2026-09-03 14:00:14 | 53.62546 | 15.69056 | 96° | 49km/h | 3119m | -2.2m/s | 0.4°C | 94.0% | 697.8hPa | 2.6V | 00:00:00 | 00:00:00 | 00:00:00 | |
| KRY50SP | 2026-09-03 14:00:13 | 53.62547 | 15.69035 | 100° | 49km/h | 3121m | -2.4m/s | 0.4°C | 94.0% | 697.5hPa | 2.6V | 00:00:00 | 00:00:00 | 00:00:00 | |
| KRY50SP-1 | 2026-09-03 14:00:05 | 53.62561 | 15.68879 | 102° | 42km/h | 3141m | -2.7m/s | 0.2°C | 94.6% | 695.8hPa | 2.6V | 00:00:00 | 00:00:00 | 00:00:00 | |
| KRY50SP | 2026-09-03 14:00:03 | 53.62565 | 15.68844 | 102° | 40km/h | 3146m | -2.6m/s | 0.2°C | 95.0% | 695.5hPa | 2.6V | 00:00:00 | 00:00:00 | 00:00:00 | |
| SP3WXH-11 | 2026-09-03 13:59:44 | 53.62566 | 15.68527 | 80° | 38km/h | 3193m | -2.2m/s | 0.0°C | 91.9% | 691.2hPa | 2.6V | 00:00:00 | 00:00:00 | 00:00:00 | |
| KRY50SP | 2026-09-03 13:59:42 | 53.62564 | 15.68511 | 79° | 37km/h | 3195m | -2.4m/s | 0.0°C | 89.7% | 690.9hPa | 2.6V | 00:00:00 | 00:00:00 | 00:00:00 | |
| KRY50SP-1 | 2026-09-03 13:59:38 | 53.62556 | 15.68445 | 80° | 40km/h | 3204m | -2.7m/s | -0.1°C | 90.3% | 690.2hPa | 2.6V | 00:00:00 | 00:00:00 | 00:00:00 | |
| KRY50SP | 2026-09-03 13:59:36 | 53.62552 | 15.68410 | 80° | 44km/h | 3208m | -2.7m/s | -0.1°C | 90.6% | 689.7hPa | 2.6V | 00:00:00 | 00:00:00 | 00:00:00 | |
| KRY50SP | 2026-09-03 13:59:31 | 53.62541 | 15.68312 | 82° | 49km/h | 3220m | -2.4m/s | -0.2°C | 91.2% | 688.7hPa | 2.6V | 00:00:00 | 00:00:00 | 00:00:00 | |
| KRY50SP | 2026-09-03 13:59:26 | 53.62535 | 15.68205 | 87° | 53km/h | 3231m | -2.4m/s | -0.3°C | 91.5% | 687.5hPa | 2.6V | 00:00:00 | 00:00:00 | 00:00:00 | |
| KRY50SP-1 | 2026-09-03 13:59:24 | 53.62534 | 15.68160 | 88° | 53km/h | 3236m | -2.5m/s | -0.4°C | 91.2% | 687.2hPa | 2.6V | 00:00:00 | 00:00:00 | 00:00:00 | |
| KRY50SP-1 | 2026-09-03 13:59:19 | 53.62532 | 15.68027 | 90° | 51km/h | 3252m | -2.6m/s | -0.5°C | 90.8% | 685.9hPa | 2.6V | 00:00:00 | 00:00:00 | 00:00:00 | |
| KRY50SP | 2026-09-03 13:59:14 | 53.62533 | 15.67938 | 94° | 55km/h | 3263m | -2.3m/s | -0.6°C | 91.7% | 685.1hPa | 2.6V | 00:00:00 | 00:00:00 | 00:00:00 | |
| SP3WXH-11 | 2026-09-03 13:59:13 | 53.62536 | 15.67894 | 95° | 49km/h | 3267m | -3.1m/s | -0.6°C | 92.1% | 684.7hPa | 2.6V | 00:00:00 | 00:00:00 | 00:00:00 | |
| EDDB2-11 | 2026-09-03 13:59:11 | 53.62538 | 15.67852 | 96° | 51km/h | 3273m | -2.3m/s | -0.7°C | 92.2% | 684.3hPa | 2.6V | 00:00:00 | 00:00:00 | 00:00:00 | |
| KRY50SP | 2026-09-03 13:59:08 | 53.62542 | 15.67809 | 103° | 51km/h | 3277m | -2.2m/s | -0.7°C | 92.8% | 683.8hPa | 2.6V | 00:00:00 | 00:00:00 | 00:00:00 | |
| KRY50SP | 2026-09-03 13:59:03 | 53.62556 | 15.67696 | 105° | 42km/h | 3293m | -3.0m/s | -0.9°C | 93.1% | 682.7hPa | 2.6V | 00:00:00 | 00:00:00 | 00:00:00 | |
| KRY50SP | 2026-09-03 13:58:57 | 53.62566 | 15.67613 | 104° | 37km/h | 3306m | -2.8m/s | -1.0°C | 92.7% | 681.4hPa | 2.6V | 00:00:00 | 00:00:00 | 00:00:00 | |
| KRY50SP | 2026-09-03 13:58:51 | 53.62572 | 15.67523 | 93° | 37km/h | 3320m | -2.3m/s | -1.0°C | 89.8% | 680.2hPa | 2.6V | 00:00:00 | 00:00:00 | 00:00:00 | |
| SP3WXH-11 | 2026-09-03 13:58:42 | 53.62567 | 15.67355 | 83° | 44km/h | 3342m | -2.6m/s | -0.9°C | 87.2% | 678.3hPa | 2.6V | 00:00:00 | 00:00:00 | 00:00:00 | |
| KRY50SP | 2026-09-03 13:58:40 | 53.62566 | 15.67336 | 85° | 46km/h | 3345m | -2.7m/s | -1.0°C | 86.6% | 678.1hPa | 2.6V | 00:00:00 | 00:00:00 | 00:00:00 | |
| SP3BTT-10 | 2026-09-03 13:58:31 | 53.62563 | 15.67127 | 96° | 40km/h | 3370m | -2.2m/s | -0.9°C | 79.2% | 675.8hPa | 2.6V | 00:00:00 | 00:00:00 | 00:00:00 | |
| SP3WXH-11 | 2026-09-03 13:58:11 | 53.62614 | 15.66710 | 110° | 46km/h | 3426m | -2.8m/s | -1.3°C | 73.4% | 671.5hPa | 2.6V | 00:00:00 | 00:00:00 | 00:00:00 | |
| EDDB2-11 | 2026-09-03 13:58:09 | 53.62622 | 15.66674 | 108° | 46km/h | 3431m | -2.5m/s | -1.3°C | 72.3% | 670.8hPa | 2.6V | 00:00:00 | 00:00:00 | 00:00:00 | |
| SP3BTT-10 | 2026-09-03 13:57:43 | 53.62684 | 15.66255 | 93° | 47km/h | 3495m | -2.7m/s | -1.8°C | 72.5% | 665.5hPa | 2.6V | 00:00:00 | 00:00:00 | 00:00:00 | |
| SP3WXH-11 | 2026-09-03 13:57:40 | 53.62685 | 15.66202 | 90° | 40km/h | 3504m | -2.6m/s | -1.9°C | 71.0% | 664.7hPa | 2.6V | 00:00:00 | 00:00:00 | 00:00:00 | |
| EDDB2-11 | 2026-09-03 13:57:38 | 53.62685 | 15.66165 | 89° | 40km/h | 3509m | -2.8m/s | -1.9°C | 69.1% | 664.4hPa | 2.6V | 00:00:00 | 00:00:00 | 00:00:00 | |
| SP3BTT-10 | 2026-09-03 13:57:13 | 53.62741 | 15.65664 | 113° | 46km/h | 3579m | -2.4m/s | -2.0°C | 46.2% | 658.7hPa | 2.6V | 00:00:00 | 00:00:00 | 00:00:00 | |
| SP3WXH-11 | 2026-09-03 13:57:09 | 53.62756 | 15.65598 | 107° | 37km/h | 3589m | -2.9m/s | -2.1°C | 44.7% | 657.8hPa | 2.6V | 00:00:00 | 00:00:00 | 00:00:00 | |
| EDDB2-11 | 2026-09-03 13:57:07 | 53.62762 | 15.65566 | 103° | 35km/h | 3595m | -2.9m/s | -2.1°C | 44.7% | 657.5hPa | 2.6V | 00:00:00 | 00:00:00 | 00:00:00 | |
| SP3WXH-11 | 2026-09-03 13:56:38 | 53.62764 | 15.65062 | 85° | 44km/h | 3673m | -2.6m/s | -2.5°C | 44.4% | 650.7hPa | 2.6V | 00:00:00 | 00:00:00 | 00:00:00 | |
| EDDB2-11 | 2026-09-03 13:56:36 | 53.62763 | 15.65022 | 89° | 46km/h | 3678m | -2.8m/s | -2.5°C | 44.2% | 650.3hPa | 2.6V | 00:00:00 | 00:00:00 | 00:00:00 | |
| SP3BTT-10 | 2026-09-03 13:56:28 | 53.62769 | 15.64847 | 99° | 46km/h | 3700m | -2.8m/s | -2.2°C | 41.1% | 648.5hPa | 2.6V | 00:00:00 | 00:00:00 | 00:00:00 | |
| SP3WXH-11 | 2026-09-03 13:56:07 | 53.62832 | 15.64436 | 103° | 37km/h | 3757m | -2.7m/s | -2.7°C | 40.2% | 644.1hPa | 2.6V | 00:00:00 | 00:00:00 | 00:00:00 | |
| EDDB2-11 | 2026-09-03 13:56:05 | 53.62837 | 15.64404 | 100° | 38km/h | 3762m | -2.6m/s | -2.8°C | 40.4% | 643.6hPa | 2.6V | 00:00:00 | 00:00:00 | 00:00:00 | |
| SP3BTT-10 | 2026-09-03 13:55:58 | 53.62845 | 15.64290 | 91° | 51km/h | 3779m | -2.4m/s | -2.9°C | 40.5% | 642.2hPa | 2.6V | 00:00:00 | 00:00:00 | 00:00:00 | |
| SP3WXH-11 | 2026-09-03 13:55:36 | 53.62837 | 15.63873 | 97° | 53km/h | 3832m | -2.6m/s | -3.4°C | 39.4% | 637.6hPa | 2.6V | 00:00:00 | 00:00:00 | 00:00:00 | |
| EDDB2-11 | 2026-09-03 13:55:34 | 53.62841 | 15.63827 | 98° | 55km/h | 3837m | -2.8m/s | -3.5°C | 39.3% | 637.0hPa | 2.6V | 00:00:00 | 00:00:00 | 00:00:00 | |
| SP3BTT-10 | 2026-09-03 13:55:27 | 53.62860 | 15.63676 | 107° | 47km/h | 3858m | -2.9m/s | -3.6°C | 38.3% | 635.7hPa | 2.6V | 00:00:00 | 00:00:00 | 00:00:00 | |
| EDDB2-12 | 2026-09-03 13:55:19 | 53.62889 | 15.63307 | 85° | 40km/h | 3912m | -3.0m/s | -4.1°C | 38.4% | 631.2hPa | 2.6V | 00:00:00 | 00:00:00 | 00:00:00 | |
| SP3WXH-11 | 2026-09-03 13:55:05 | 53.62889 | 15.63307 | 85° | 40km/h | 3912m | -3.0m/s | -4.1°C | 38.4% | 631.2hPa | 2.6V | 00:00:00 | 00:00:00 | 00:00:00 | |
| EDDB2-11 | 2026-09-03 13:55:03 | 53.62887 | 15.63270 | 83° | 44km/h | 3918m | -2.3m/s | -4.1°C | 38.8% | 630.8hPa | 2.6V | 00:00:00 | 00:00:00 | 00:00:00 | |
| SP3BTT-10 | 2026-09-03 13:54:45 | 53.62893 | 15.62895 | 99° | 49km/h | 3965m | -2.8m/s | -4.6°C | 47.7% | 627.2hPa | 2.6V | 07:07:00 | 00:00:00 | 00:00:00 | |
| SP3WXH-11 | 2026-09-03 13:54:34 | 53.62921 | 15.62666 | 102° | 49km/h | 3997m | -3.0m/s | -4.9°C | 55.5% | 624.9hPa | 2.6V | 00:00:00 | 00:00:00 | 00:00:00 | |
| EDDB2-11 | 2026-09-03 13:54:32 | 53.62926 | 15.62626 | 100° | 46km/h | 4003m | -3.4m/s | -5.0°C | 58.4% | 624.5hPa | 2.6V | 00:00:00 | 00:00:00 | 00:00:00 | |
| KRY50SP | 2026-09-03 13:54:28 | 53.62934 | 15.62567 | 105° | 49km/h | 4012m | -2.8m/s | -5.1°C | 58.0% | 623.8hPa | 2.6V | 07:07:00 | 00:00:00 | 00:00:00 | |
| KRY50SP | 2026-09-03 13:54:21 | 53.62952 | 15.62428 | 103° | 47km/h | 4034m | -3.3m/s | -5.3°C | 68.5% | 622.0hPa | 2.6V | 00:00:00 | 00:00:00 | 00:00:00 | |
| SP3BTT-10 | 2026-09-03 13:54:15 | 53.62975 | 15.62297 | 106° | 38km/h | 4054m | -3.3m/s | -5.5°C | 74.0% | 620.4hPa | 2.6V | 00:00:00 | 00:00:00 | 00:00:00 | |
| KRY50SP | 2026-09-03 13:54:14 | 53.62975 | 15.62297 | 107° | 40km/h | 4054m | -3.3m/s | -5.5°C | 72.7% | 620.4hPa | 2.6V | 00:00:00 | 00:00:00 | 00:00:00 | |
| KRY50SP | 2026-09-03 13:54:05 | 53.63002 | 15.62147 | 106° | 37km/h | 4082m | -3.1m/s | -5.8°C | 72.8% | 618.5hPa | 2.6V | 00:00:00 | 00:00:00 | 00:00:00 | |
| SP3WXH-11 | 2026-09-03 13:54:03 | 53.63010 | 15.62102 | 108° | 37km/h | 4091m | -2.5m/s | -5.8°C | 77.4% | 617.8hPa | 2.6V | 00:00:00 | 00:00:00 | 00:00:00 | |
| EDDB2-11 | 2026-09-03 13:54:01 | 53.63016 | 15.62074 | 110° | 33km/h | 4096m | -2.7m/s | -5.9°C | 78.2% | 617.3hPa | 2.6V | 00:00:00 | 00:00:00 | 00:00:00 | |
| SONDE2-11 | 2026-09-03 13:53:56 | 53.63027 | 15.62010 | 105° | 31km/h | 4108m | -3.2m/s | -6.0°C | 88.2% | 616.3hPa | 2.6V | 00:00:00 | 00:00:00 | 00:00:00 | |
| SP3WXH-11 | 2026-09-03 13:53:32 | 53.63031 | 15.61705 | 80° | 33km/h | 4178m | -2.4m/s | -6.2°C | 88.0% | 610.9hPa | 2.6V | 00:00:00 | 00:00:00 | 00:00:00 | |
| EDDB2-11 | 2026-09-03 13:53:30 | 53.63028 | 15.61675 | 81° | 38km/h | 4183m | -2.9m/s | -6.2°C | 88.1% | 610.4hPa | 2.6V | 00:00:00 | 00:00:00 | 00:00:00 | |
| SONDE2-11 | 2026-09-03 13:53:25 | 53.63022 | 15.61573 | 89° | 42km/h | 4200m | -2.8m/s | -6.1°C | 85.0% | 609.1hPa | 2.6V | 00:00:00 | 00:00:00 | 00:00:00 | |
| SP3BTT-10 | 2026-09-03 13:53:15 | 53.63036 | 15.61413 | 106° | 31km/h | 4225m | -2.9m/s | -6.3°C | 86.1% | 607.2hPa | 2.6V | 00:00:00 | 00:00:00 | 00:00:00 | |
| SP3WXH-11 | 2026-09-03 13:53:01 | 53.63064 | 15.61220 | 94° | 27km/h | 4265m | -2.9m/s | -6.6°C | 83.0% | 604.0hPa | 2.7V | 00:00:00 | 00:00:00 | 00:00:00 | |
| EDDB2-11 | 2026-09-03 13:52:59 | 53.63065 | 15.61197 | 92° | 26km/h | 4271m | -2.6m/s | -6.7°C | 83.8% | 603.5hPa | 2.7V | 00:00:00 | 00:00:00 | 00:00:00 | |
| SONDE2-11 | 2026-09-03 13:52:54 | 53.63067 | 15.61128 | 90° | 27km/h | 4289m | -2.7m/s | -6.8°C | 84.0% | 602.2hPa | 2.7V | 00:00:00 | 00:00:00 | 00:00:00 | |
| SP3BTT-10 | 2026-09-03 13:52:45 | 53.63063 | 15.61034 | 80° | 31km/h | 4311m | -2.5m/s | -6.9°C | 84.2% | 600.5hPa | 2.7V | 00:00:00 | 00:00:00 | 00:00:00 | |
| EDDB2-12 | 2026-09-03 13:52:44 | 53.63048 | 15.60913 | 77° | 35km/h | 4336m | -2.5m/s | -7.2°C | 83.1% | 598.6hPa | 2.7V | 00:00:00 | 00:00:00 | 00:00:00 | |
| SP3WXH-11 | 2026-09-03 13:52:30 | 53.63037 | 15.60823 | 79° | 37km/h | 4351m | -2.9m/s | -7.4°C | 84.3% | 597.4hPa | 2.7V | 00:00:00 | 00:00:00 | 00:00:00 | |
| EDDB2-11 | 2026-09-03 13:52:28 | 53.63034 | 15.60790 | 81° | 38km/h | 4356m | -2.7m/s | -7.4°C | 84.1% | 597.0hPa | 2.7V | 00:00:00 | 00:00:00 | 00:00:00 | |
| SONDE2-11 | 2026-09-03 13:52:23 | 53.63031 | 15.60684 | 92° | 42km/h | 4371m | -2.6m/s | -7.5°C | 85.2% | 595.8hPa | 2.7V | 00:00:00 | 00:00:00 | 00:00:00 | |
| EDDB2-12 | 2026-09-03 13:52:13 | 53.63042 | 15.60530 | 103° | 37km/h | 4395m | -3.1m/s | -7.7°C | 84.7% | 594.0hPa | 2.7V | 00:00:00 | 00:00:00 | 00:00:00 | |
| SP3WXH-11 | 2026-09-03 13:51:59 | 53.63060 | 15.60346 | 83° | 27km/h | 4431m | -2.5m/s | -8.0°C | 84.2% | 591.2hPa | 2.7V | 00:00:00 | 00:00:00 | 00:00:00 | |
| EDDB2-11 | 2026-09-03 13:51:57 | 53.63058 | 15.60322 | 78° | 27km/h | 4437m | -2.7m/s | -8.0°C | 84.7% | 590.9hPa | 2.7V | 00:00:00 | 00:00:00 | 00:00:00 | |
| SONDE2-11 | 2026-09-03 13:51:52 | 53.63048 | 15.60250 | 76° | 29km/h | 4454m | -2.6m/s | -8.2°C | 85.1% | 589.8hPa | 2.7V | 00:00:00 | 00:00:00 | 00:00:00 | |
| EDDB2-12 | 2026-09-03 13:51:42 | 53.63030 | 15.60129 | 73° | 37km/h | 4478m | -2.5m/s | -8.3°C | 85.7% | 587.8hPa | 2.7V | 00:00:00 | 00:00:00 | 00:00:00 | |
| SP3WXH-11 | 2026-09-03 13:51:28 | 53.63007 | 15.59882 | 85° | 44km/h | 4516m | -3.0m/s | -8.7°C | 87.0% | 584.8hPa | 2.7V | 00:00:00 | 00:00:00 | 00:00:00 | |
| EDDB2-11 | 2026-09-03 13:51:26 | 53.63006 | 15.59845 | 88° | 44km/h | 4522m | -2.8m/s | -8.7°C | 87.1% | 584.4hPa | 2.7V | 00:00:00 | 00:00:00 | 00:00:00 | |
| SONDE2-11 | 2026-09-03 13:51:21 | 53.63010 | 15.59737 | 95° | 38km/h | 4537m | -2.7m/s | -8.9°C | 87.9% | 583.2hPa | 2.7V | 00:00:00 | 00:00:00 | 00:00:00 | |
| AA1-15 | 2026-09-03 13:50:59 | 53.63026 | 15.59455 | 94° | 27km/h | 4589m | -2.6m/s | -9.1°C | 88.5% | 579.4hPa | 2.7V | 07:12:37 | 03:31:33 | 00:00:00 | |
| SP3WXH-11 | 2026-09-03 13:50:57 | 53.63027 | 15.59432 | 90° | 27km/h | 4594m | -2.7m/s | -9.1°C | 86.9% | 579.0hPa | 2.7V | 00:00:00 | 00:00:00 | 00:00:00 | |
| EDDB2-11 | 2026-09-03 13:50:55 | 53.63027 | 15.59408 | 86° | 27km/h | 4600m | -2.9m/s | -9.1°C | 84.6% | 578.6hPa | 2.7V | 00:00:00 | 00:00:00 | 00:00:00 | |
| SONDE2-11 | 2026-09-03 13:50:50 | 53.63020 | 15.59340 | 79° | 27km/h | 4619m | -3.1m/s | -9.3°C | 85.8% | 577.3hPa | 2.7V | 00:00:00 | 00:00:00 | 00:00:00 | |
| DB0DAN | 2026-09-03 13:50:40 | 53.63007 | 15.59243 | 80° | 26km/h | 4645m | -2.9m/s | -9.5°C | 86.7% | 575.33hPa | 2.7V | 00:00:00 | 00:00:00 | 00:00:00 | |
| AA1-15 | 2026-09-03 13:50:30 | 53.62987 | 15.59141 | 68° | 27km/h | 4674m | -3.4m/s | -9.7°C | 88.1% | 573.2hPa | 2.7V | 07:12:37 | 03:31:04 | 00:00:00 | |
| SP3BTT-10 | 2026-09-03 13:50:29 | 53.62984 | 15.59130 | 65° | 40km/h | 4677m | -2.8m/s | -9.6°C | 86.6% | 573.0hPa | 2.6V | 00:00:00 | 00:00:00 | 00:00:00 | |
| DB0DAN | 2026-09-03 13:50:25 | 53.62970 | 15.59081 | 67° | 33km/h | 4690m | -2.8m/s | -9.7°C | 84.2% | 572.16hPa | 2.6V | 00:00:00 | 00:00:00 | 00:00:00 | |
| AA1-15 | 2026-09-03 13:50:19 | 53.62956 | 15.58990 | 82° | 38km/h | 4705m | -3.1m/s | -9.8°C | 85.3% | 570.9hPa | 2.6V | 07:12:37 | 03:30:53 | 00:00:00 | |
| AA1-15 | 2026-09-03 13:50:08 | 53.62941 | 15.58807 | 83° | 42km/h | 4744m | -3.6m/s | -10.1°C | 85.2% | 568hPa | 2.7V | 07:12:37 | 03:30:42 | 00:00:00 | |
| AA1-15 | 2026-09-03 13:49:58 | 53.62924 | 15.58626 | 83° | 46km/h | 4779m | -3.1m/s | -10.3°C | 84.8% | 565.3hPa | 2.6V | 07:12:37 | 03:30:32 | 00:00:00 | |
| DB0DAN | 2026-09-03 13:49:55 | 53.62919 | 15.58568 | 80° | 44km/h | 4788m | -3.5m/s | -10.1°C | 83% | 564.67hPa | 2.7V | 00:00:00 | 00:00:00 | 00:00:00 | |
| AA1-15 | 2026-09-03 13:49:45 | 53.62907 | 15.58381 | 92° | 42km/h | 4818m | -2.5m/s | -9.9°C | 79.2% | 562.5hPa | 2.6V | 07:12:37 | 03:30:19 | 00:00:00 | |
| DB0DAN | 2026-09-03 13:49:40 | 53.62909 | 15.58302 | 87° | 29km/h | 4831m | -2.9m/s | -9.9°C | 78.1% | 561.59hPa | 2.6V | 00:00:00 | 00:00:00 | 00:00:00 | |
| AA1-15 | 2026-09-03 13:49:34 | 53.62906 | 15.58228 | 81° | 27km/h | 4848m | -2.2m/s | -9.9°C | 78.1% | 560.4hPa | 2.6V | 07:12:37 | 03:30:08 | 00:00:00 | |
| SP3BTT-10 | 2026-09-03 13:49:29 | 53.62899 | 15.58167 | 78° | 44km/h | 4862m | -2.7m/s | -9.8°C | 76.3% | 559.3hPa | 2.7V | 07:12:00 | 00:00:00 | 00:00:00 | |
| DB0DAN | 2026-09-03 13:49:25 | 53.62889 | 15.58117 | 71° | 33km/h | 4873m | -2.7m/s | -9.9°C | 74.1% | 558.65hPa | 2.7V | 00:00:00 | 00:00:00 | 00:00:00 | |
| AA1-15 | 2026-09-03 13:49:24 | 53.62883 | 15.58090 | 68° | 35km/h | 4879m | -2.6m/s | -10°C | 77.2% | 558.2hPa | 2.7V | 07:12:37 | 03:29:57 | 00:00:00 | |
| AA1-15 | 2026-09-03 13:49:13 | 53.62848 | 15.57926 | 74° | 47km/h | 4906m | -3m/s | -10.2°C | 78% | 556.4hPa | 2.7V | 07:13:28 | 03:29:47 | 00:00:00 | |
| DB0DAN | 2026-09-03 13:49:10 | 53.62836 | 15.57870 | 68° | 44km/h | 4916m | -3.4m/s | -10.3°C | 76.2% | 555.48hPa | 2.7V | 00:00:00 | 00:00:00 | 00:00:00 | |
| AA1-15 | 2026-09-03 13:49:03 | 53.62809 | 15.57734 | 76° | 51km/h | 4940m | -3.8m/s | -10.6°C | 80.2% | 553.8hPa | 2.7V | 07:13:28 | 03:29:37 | 00:00:00 | |
| SP3BTT-10 | 2026-09-03 13:48:59 | 53.62797 | 15.57651 | 76° | 55km/h | 4955m | -3.2m/s | -10.7°C | 80.2% | 552.6hPa | 2.6V | 00:00:00 | 00:00:00 | 00:00:00 | |
| DB0DAN | 2026-09-03 13:48:55 | 53.62786 | 15.57568 | 79° | 49km/h | 4969m | -3.7m/s | -10.9°C | 79.6% | 551.69hPa | 2.6V | 00:00:00 | 00:00:00 | 00:00:00 | |
| AA1-15 | 2026-09-03 13:48:52 | 53.62777 | 15.57506 | 79° | 51km/h | 4981m | -3.9m/s | -11°C | 81.7% | 550.8hPa | 2.7V | 07:13:28 | 03:29:26 | 00:00:00 | |
| EDDB2-11 | 2026-09-03 13:48:51 | 53.62772 | 15.57465 | 75° | 47km/h | 4990m | -4.2m/s | -11.1°C | 80.1% | 550.3hPa | 2.6V | 00:00:00 | 00:00:00 | 00:00:00 | |
| SONDE2-11 | 2026-09-03 13:48:45 | 53.62756 | 15.57363 | 73° | 49km/h | 5007m | -3.1m/s | -11.2°C | 80.8% | 549.1hPa | 2.6V | 00:00:00 | 00:00:00 | 00:00:00 | |
| AA1-15 | 2026-09-03 13:48:42 | 53.62747 | 15.57302 | 78° | 53km/h | 5017m | -3.1m/s | -11.3°C | 81.9% | 548.4hPa | 2.6V | 07:13:28 | 03:29:16 | 00:00:00 | |
| DB0DAN | 2026-09-03 13:48:40 | 53.62742 | 15.57260 | 79° | 51km/h | 5024m | -4.6m/s | -11.1°C | 75.9% | 547.83hPa | 2.7V | 00:00:00 | 00:00:00 | 00:00:00 | |
| AA1-15 | 2026-09-03 13:48:31 | 53.62720 | 15.57056 | 83° | 55km/h | 5061m | -4.2m/s | -11.5°C | 81.5% | 545.1hPa | 2.6V | 07:15:10 | 03:29:05 | 00:00:00 | |
| DB0DAN | 2026-09-03 13:48:25 | 53.62704 | 15.56912 | 75° | 55km/h | 5083m | -3.4m/s | -11.7°C | 79.9% | 543.4hPa | 2.6V | 00:00:00 | 00:00:00 | 00:00:00 | |
| AA1-15 | 2026-09-03 13:48:20 | 53.62682 | 15.56801 | 73° | 51km/h | 5099m | -3.3m/s | -12°C | 82.6% | 542.4hPa | 2.7V | 07:15:10 | 03:28:54 | 00:00:00 | |
| SP3BTT-10 | 2026-09-03 13:48:14 | 53.62661 | 15.56662 | 75° | 64km/h | 5118m | -3.5m/s | -12.1°C | 84.4% | 540.8hPa | 2.7V | 00:00:00 | 00:00:00 | 00:00:00 | |
| DB0DAN | 2026-09-03 13:48:10 | 53.62646 | 15.56564 | 77° | 58km/h | 5132m | -3.4m/s | -12.1°C | 81.9% | 540.02hPa | 2.7V | 00:00:00 | 00:00:00 | 00:00:00 | |
| AA1-15 | 2026-09-03 13:48:07 | 53.62634 | 15.56489 | 77° | 62km/h | 5142m | -3.2m/s | -12°C | 79.6% | 539.2hPa | 2.6V | 07:15:10 | 03:28:41 | 00:00:00 | |
| AA1-15 | 2026-09-03 13:47:56 | 53.62605 | 15.56192 | 85° | 64km/h | 5179m | -3.9m/s | -12.1°C | 75.2% | 536.4hPa | 2.7V | 07:15:10 | 03:28:30 | 00:00:00 | |
| DB0DAN | 2026-09-03 13:47:55 | 53.62604 | 15.56164 | 86° | 64km/h | 5183m | -3.6m/s | -12.1°C | 73.5% | 536.09hPa | 2.6V | 00:00:00 | 00:00:00 | 00:00:00 | |
| SP3WXH-11 | 2026-09-03 13:47:51 | 53.62596 | 15.56023 | 82° | 66km/h | 5202m | -3.7m/s | -12.3°C | 73.0% | 534.8hPa | 2.7V | 00:00:00 | 00:00:00 | 00:00:00 | |
| EDDB2-11 | 2026-09-03 13:47:49 | 53.62593 | 15.55968 | 84° | 66km/h | 5210m | -3.7m/s | -12.2°C | 70.6% | 534.3hPa | 2.7V | 00:00:00 | 00:00:00 | 00:00:00 | |
| SONDE2-11 | 2026-09-03 13:47:43 | 53.62580 | 15.55818 | 83° | 73km/h | 5230m | -3.8m/s | -12.1°C | 62.9% | 533.0hPa | 2.7V | 00:00:00 | 00:00:00 | 00:00:00 | |
| DB0DAN | 2026-09-03 13:47:40 | 53.62574 | 15.55726 | 82° | 66km/h | 5243m | -4.4m/s | -12.2°C | 63.6% | 532.13hPa | 2.7V | 00:00:00 | 00:00:00 | 00:00:00 | |
| AA1-15 | 2026-09-03 13:47:33 | 53.62555 | 15.55516 | 80° | 73km/h | 5272m | -3.7m/s | -12.5°C | 67.9% | 530.1hPa | 2.7V | 07:15:10 | 03:28:07 | 00:00:00 | |
| DB0DAN | 2026-09-03 13:47:25 | 53.62547 | 15.55281 | 90° | 62km/h | 5301m | -4.3m/s | -12.8°C | 65.7% | 527.94hPa | 2.6V | 00:00:00 | 00:00:00 | 00:00:00 | |
| AA1-15 | 2026-09-03 13:47:22 | 53.62546 | 15.55200 | 90° | 64km/h | 5314m | -4.1m/s | -12.9°C | 70% | 527.2hPa | 2.7V | 07:15:10 | 03:27:56 | 00:00:00 | |
| AA1-15 | 2026-09-03 13:47:11 | 53.62542 | 15.54880 | 86° | 71km/h | 5356m | -4.3m/s | -13.3°C | 69.7% | 524.3hPa | 2.7V | 07:15:10 | 03:27:45 | 00:00:00 | |
| DB0DAN | 2026-09-03 13:47:10 | 53.62541 | 15.54850 | 86° | 68km/h | 5360m | -4.3m/s | -13.3°C | 66.7% | 524.01hPa | 2.7V | 00:00:00 | 00:00:00 | 00:00:00 | |
| AA1-15 | 2026-09-03 13:47:01 | 53.62527 | 15.54575 | 85° | 73km/h | 5397m | -3.9m/s | -13.8°C | 73% | 521.3hPa | 2.6V | 07:15:10 | 03:27:35 | 00:00:00 | |
| DB0DAN | 2026-09-03 13:46:55 | 53.62523 | 15.54392 | 90° | 69km/h | 5421m | -3.7m/s | -14°C | 70.7% | 519.61hPa | 2.6V | 00:00:00 | 00:00:00 | 00:00:00 | |
| AA1-15 | 2026-09-03 13:46:51 | 53.62524 | 15.54275 | 91° | 68km/h | 5437m | -4.6m/s | -14.2°C | 72.3% | 518.6hPa | 2.7V | 07:15:10 | 03:27:25 | 00:00:00 | |
| SP3WXH-11 | 2026-09-03 13:46:49 | 53.62527 | 15.54189 | 95° | 66km/h | 5449m | -3.6m/s | -14.2°C | 71.3% | 517.7hPa | 2.7V | 00:00:00 | 00:00:00 | 00:00:00 | |
| EDDB2-11 | 2026-09-03 13:46:47 | 53.62530 | 15.54130 | 94° | 73km/h | 5457m | -3.7m/s | -14.3°C | 71.2% | 517.1hPa | 2.7V | 00:00:00 | 00:00:00 | 00:00:00 | |
| AA1-15 | 2026-09-03 13:46:41 | 53.62540 | 15.53970 | 98° | 75km/h | 5476m | -3.9m/s | -14.3°C | 66% | 515.8hPa | 2.7V | 07:16:01 | 03:27:15 | 00:00:00 | |
| DB0DAN | 2026-09-03 13:46:40 | 53.62542 | 15.53939 | 98° | 69km/h | 5480m | -4.5m/s | -14.3°C | 65.8% | 515.47hPa | 2.7V | 00:00:00 | 00:00:00 | 00:00:00 | |
| AA1-15 | 2026-09-03 13:46:30 | 53.62574 | 15.53618 | 101° | 78km/h | 5521m | -2.2m/s | -14.4°C | 72.5% | 512.9hPa | 2.7V | 07:16:01 | 03:27:04 | 00:00:00 | |
| AA1-15 | 2026-09-03 13:46:19 | 53.62614 | 15.53277 | 101° | 73km/h | 5551m | -2.9m/s | -14.4°C | 79% | 510.8hPa | 2.7V | 07:16:01 | 03:26:53 | 00:00:00 | |
| AA1-15 | 2026-09-03 13:46:08 | 53.62638 | 15.52941 | 93° | 77km/h | 5578m | -2.3m/s | -14.5°C | 78.4% | 508.9hPa | 2.6V | 07:16:01 | 03:26:42 | 00:00:00 | |
| AA1-15 | 2026-09-03 13:45:58 | 53.62658 | 15.52597 | 101° | 84km/h | 5602m | -2.7m/s | -14.7°C | 78.3% | 507.3hPa | 2.6V | 07:16:52 | 03:26:32 | 00:00:00 | |
| AA1-15 | 2026-09-03 13:45:47 | 53.62718 | 15.52235 | 107° | 80km/h | 5630m | -2.9m/s | -15°C | 80.1% | 505.5hPa | 2.6V | 07:16:52 | 03:26:21 | 00:00:00 | |
| SP3WXH-11 | 2026-09-03 13:45:46 | 53.62724 | 15.52203 | 107° | 78km/h | 5633m | -2.6m/s | -15.0°C | 78.5% | 505.3hPa | 2.7V | 00:00:00 | 00:00:00 | 00:00:00 | |
| EDDB2-11 | 2026-09-03 13:45:45 | 53.62736 | 15.52139 | 108° | 78km/h | 5638m | -2.2m/s | -14.9°C | 77.5% | 504.9hPa | 2.7V | 00:00:00 | 00:00:00 | 00:00:00 | |
| AA1-15 | 2026-09-03 13:45:37 | 53.62788 | 15.51877 | 108° | 82km/h | 5658m | -2.1m/s | -15.2°C | 79.1% | 503.5hPa | 2.7V | 07:16:52 | 03:26:10 | 00:00:00 | |
| AA1-15 | 2026-09-03 13:45:26 | 53.62858 | 15.51570 | 113° | 71km/h | 5680m | -2.7m/s | -15.4°C | 79.8% | 502hPa | 2.7V | 07:16:52 | 03:26:00 | 00:00:00 | |
| DB0DAN | 2026-09-03 13:45:25 | 53.62865 | 15.51542 | 113° | 66km/h | 5683m | -2.7m/s | -15.4°C | 80.5% | 501.9hPa | 2.7V | 00:00:00 | 00:00:00 | 00:00:00 | |
| AA1-15 | 2026-09-03 13:45:15 | 53.62929 | 15.51279 | 112° | 66km/h | 5717m | -4.3m/s | -15.8°C | 82.4% | 499.6hPa | 2.7V | 07:16:52 | 03:25:49 | 00:00:00 | |
| EDDB2-11 | 2026-09-03 13:45:13 | 53.62941 | 15.51228 | 109° | 64km/h | 5725m | -3.7m/s | -15.8°C | 80.6% | 499.1hPa | 2.7V | 00:00:00 | 00:00:00 | 00:00:00 | |
| DB0DAN | 2026-09-03 13:45:10 | 53.62955 | 15.51149 | 104° | 62km/h | 5734m | -2.8m/s | -15.8°C | 80.7% | 498.5hPa | 2.7V | 00:00:00 | 00:00:00 | 00:00:00 | |
| AA1-15 | 2026-09-03 13:45:05 | 53.62979 | 15.50974 | 101° | 75km/h | 5751m | -2.5m/s | -16.1°C | 82.1% | 497.4hPa | 2.7V | 07:18:34 | 03:25:38 | 00:00:00 | |
| EDDB2-12 | 2026-09-03 13:44:59 | 53.63003 | 15.50786 | 104° | 77km/h | 5765m | -1.7m/s | -16.1°C | 82.0% | 496.5hPa | 2.6V | 00:00:00 | 00:00:00 | 00:00:00 | |
| DB0DAN | 2026-09-03 13:44:55 | 53.63019 | 15.50688 | 107° | 77km/h | 5769m | -1.1m/s | -16°C | 81.9% | 496.29hPa | 2.6V | 00:00:00 | 00:00:00 | 00:00:00 | |
| AA1-15 | 2026-09-03 13:44:54 | 53.63025 | 15.50655 | 107° | 82km/h | 5770m | -1.2m/s | -16.1°C | 77.9% | 496.1hPa | 2.7V | 07:18:34 | 03:25:28 | 00:00:00 | |
| SP3WXH-11 | 2026-09-03 13:44:45 | 53.63091 | 15.50324 | 110° | 78km/h | 5783m | -1.3m/s | -16.3°C | 82.0% | 495.3hPa | 2.7V | 00:00:00 | 00:00:00 | 00:00:00 | |
| AA1-15 | 2026-09-03 13:44:43 | 53.63098 | 15.50293 | 111° | 80km/h | 5784m | -1.4m/s | -16.4°C | 83.3% | 495.3hPa | 2.7V | 07:18:34 | 03:25:17 | 00:00:00 | |
| EDDB2-11 | 2026-09-03 13:44:43 | 53.63105 | 15.50261 | 111° | 78km/h | 5785m | -1.4m/s | -16.4°C | 82.5% | 495.1hPa | 2.6V | 00:00:00 | 00:00:00 | 00:00:00 | |
| DB0DAN | 2026-09-03 13:44:40 | 53.63120 | 15.50198 | 112° | 75km/h | 5788m | -1.5m/s | -16.3°C | 82.6% | 494.88hPa | 2.6V | 00:00:00 | 00:00:00 | 00:00:00 | |
| AA1-15 | 2026-09-03 13:44:33 | 53.63175 | 15.49975 | 114° | 80km/h | 5799m | -2.2m/s | -16.4°C | 81.1% | 494.3hPa | 2.6V | 07:18:34 | 03:25:07 | 00:00:00 | |
| SP3BTT-10 | 2026-09-03 13:44:29 | 53.63209 | 15.49853 | 116° | 82km/h | 5807m | -1.8m/s | -16.4°C | 85.1% | 493.6hPa | 2.6V | 00:00:00 | 00:00:00 | 00:00:00 | |
| EDDB2-12 | 2026-09-03 13:44:28 | 53.63225 | 15.49795 | 115° | 75km/h | 5810m | -2.2m/s | -16.5°C | 82.8% | 493.4hPa | 2.7V | 00:00:00 | 00:00:00 | 00:00:00 | |
| DB0DAN | 2026-09-03 13:44:25 | 53.63242 | 15.49737 | 116° | 71km/h | 5815m | -2.4m/s | -16.6°C | 83% | 493.12hPa | 2.7V | 00:00:00 | 00:00:00 | 00:00:00 | |
| AA1-15 | 2026-09-03 13:44:23 | 53.63259 | 15.49680 | 117° | 75km/h | 5820m | -2.3m/s | -16.6°C | 83.2% | 493hPa | 2.6V | 07:18:34 | 03:24:57 | 00:00:00 | |
| SP3WXH-11 | 2026-09-03 13:44:13 | 53.63335 | 15.49415 | 113° | 66km/h | 5842m | -2.4m/s | -16.5°C | 81.3% | 491.4hPa | 2.7V | 00:00:00 | 00:00:00 | 00:00:00 | |
| DB0DAN | 2026-09-03 13:44:10 | 53.63353 | 15.49336 | 110° | 64km/h | 5849m | -2.6m/s | -16.6°C | 81.4% | 490.99hPa | 2.7V | 00:00:00 | 00:00:00 | 00:00:00 | |
| AA1-15 | 2026-09-03 13:44:09 | 53.63364 | 15.49282 | 108° | 68km/h | 5855m | -2.8m/s | -16.6°C | 82.3% | 490.7hPa | 2.7V | 07:18:34 | 03:24:42 | 00:00:00 | |
| AA1-15 | 2026-09-03 13:43:57 | 53.63417 | 15.48960 | 105° | 80km/h | 5883m | -2.6m/s | -16.8°C | 81% | 488.9hPa | 2.7V | 07:18:34 | 03:24:31 | 00:00:00 | |
| EDDB2-12 | 2026-09-03 13:43:57 | 53.63423 | 15.48928 | 106° | 80km/h | 5885m | -2.9m/s | -16.8°C | 81.3% | 488.7hPa | 2.6V | 00:00:00 | 00:00:00 | 00:00:00 | |
| DB0DAN | 2026-09-03 13:43:55 | 53.63429 | 15.48894 | 107° | 78km/h | 5888m | -2.6m/s | -16.8°C | 81.5% | 488.52hPa | 2.6V | 00:00:00 | 00:00:00 | 00:00:00 | |
| AA1-15 | 2026-09-03 13:43:46 | 53.63493 | 15.48592 | 113° | 84km/h | 5913m | -2.9m/s | -16.9°C | 80.8% | 486.9hPa | 2.7V | 07:18:34 | 03:24:20 | 00:00:00 | |
| SP3BTT-10 | 2026-09-03 13:43:44 | 53.63511 | 15.48526 | 115° | 78km/h | 5919m | -2.9m/s | -16.9°C | 83.5% | 486.4hPa | 2.7V | 00:00:00 | 00:00:00 | 00:00:00 | |
| SP3WXH-11 | 2026-09-03 13:43:42 | 53.63528 | 15.48460 | 114° | 84km/h | 5925m | -3.2m/s | -17.0°C | 81.1% | 486.1hPa | 2.7V | 00:00:00 | 00:00:00 | 00:00:00 | |
| DB0DAN | 2026-09-03 13:43:40 | 53.63546 | 15.48394 | 114° | 82km/h | 5932m | -3m/s | -17.1°C | 81.6% | 485.65hPa | 2.7V | 00:00:00 | 00:00:00 | 00:00:00 | |
| AA1-15 | 2026-09-03 13:43:35 | 53.63590 | 15.48228 | 114° | 84km/h | 5948m | -3.4m/s | -17.1°C | 81.8% | 484.6hPa | 2.7V | 07:18:34 | 03:24:09 | 00:00:00 | |
| AM1SDL-15 | 2026-09-03 13:43:32 | 53.63616 | 15.48130 | 116° | 80km/h | 5958m | -3.3m/s | -17.1°C | 82.2% | 483.9hPa | 2.7V | 00:00:00 | 03:24:06 | 00:00:00 | |
| DB0DAN | 2026-09-03 13:43:25 | 53.63683 | 15.47914 | 119° | 75km/h | 5983m | -3.6m/s | -17.3°C | 80.2% | 482.39hPa | 2.7V | 00:00:00 | 00:00:00 | 00:00:00 | |
| AA1-15 | 2026-09-03 13:43:24 | 53.63693 | 15.47885 | 119° | 78km/h | 5986m | -3.6m/s | -17.3°C | 81.2% | 482.2hPa | 2.6V | 07:19:25 | 03:23:58 | 00:00:00 | |
| AA1-15 | 2026-09-03 13:43:14 | 53.63786 | 15.47604 | 117° | 71km/h | 6023m | -3.6m/s | -17.7°C | 80.7% | 479.8hPa | 2.6V | 07:19:25 | 03:23:48 | 00:00:00 | |
| SP3BTT-10 | 2026-09-03 13:43:14 | 53.63786 | 15.47604 | 118° | 69km/h | 6023m | -3.6m/s | -17.6°C | 83.6% | 479.8hPa | 2.7V | 07:18:00 | 00:00:00 | 00:00:00 | |
| DB0DAN | 2026-09-03 13:43:10 | 53.63816 | 15.47495 | 112° | 66km/h | 6038m | -3.6m/s | -17.8°C | 81.2% | 478.9hPa | 2.7V | 00:00:00 | 00:00:00 | 00:00:00 | |
| AA1-15 | 2026-09-03 13:43:04 | 53.63853 | 15.47325 | 109° | 71km/h | 6059m | -3.8m/s | -17.9°C | 80.9% | 477.4hPa | 2.7V | 07:19:25 | 03:23:38 | 00:00:00 | |
| DB0DAN | 2026-09-03 13:42:55 | 53.63903 | 15.47053 | 107° | 75km/h | 6092m | -3.4m/s | -18.1°C | 80.2% | 475.3hPa | 2.6V | 00:00:00 | 00:00:00 | 00:00:00 | |
| AA1-15 | 2026-09-03 13:42:54 | 53.63909 | 15.47021 | 107° | 80km/h | 6095m | -3.7m/s | -18.1°C | 81.3% | 475hPa | 2.7V | 07:19:25 | 03:23:28 | 00:00:00 | |
| AA1-15 | 2026-09-03 13:42:43 | 53.63985 | 15.46651 | 112° | 86km/h | 6134m | -3.6m/s | -18.5°C | 80.8% | 472.7hPa | 2.7V | 07:19:25 | 03:23:17 | 00:00:00 | |
| DB0DAN | 2026-09-03 13:42:40 | 53.64010 | 15.46549 | 113° | 82km/h | 6145m | -3.3m/s | -18.6°C | 81% | 471.98hPa | 2.7V | 00:00:00 | 00:00:00 | 00:00:00 | |
| AA1-15 | 2026-09-03 13:42:26 | 53.64142 | 15.46128 | 120° | 73km/h | 6192m | -3.5m/s | -18.8°C | 80.6% | 468.9hPa | 2.6V | 07:20:16 | 03:23:00 | 00:00:00 | |
| DB0DAN | 2026-09-03 13:42:25 | 53.64151 | 15.46101 | 119° | 69km/h | 6195m | -3.4m/s | -18.8°C | 80.4% | 468.81hPa | 2.7V | 00:00:00 | 00:00:00 | 00:00:00 | |
| AA1-15 | 2026-09-03 13:42:16 | 53.64220 | 15.45866 | 115° | 66km/h | 6226m | -3.2m/s | -19.1°C | 80.5% | 466.9hPa | 2.6V | 07:20:16 | 03:22:50 | 00:00:00 | |
| DB0DAN | 2026-09-03 13:42:10 | 53.64259 | 15.45715 | 111° | 62km/h | 6246m | -3.6m/s | -19.3°C | 80.8% | 465.58hPa | 2.7V | 00:00:00 | 00:00:00 | 00:00:00 | |
| AA1-15 | 2026-09-03 13:42:05 | 53.64286 | 15.45581 | 107° | 69km/h | 6264m | -3.4m/s | -19.4°C | 80.5% | 464.5hPa | 2.7V | 07:20:16 | 03:22:39 | 00:00:00 | |
| AA1-15 | 2026-09-03 13:41:55 | 53.64338 | 15.45280 | 109° | 78km/h | 6295m | -3.1m/s | -19.8°C | 80.9% | 462.5hPa | 2.7V | 07:20:16 | 03:22:29 | 00:00:00 | |
| DB0DAN | 2026-09-03 13:41:55 | 53.64338 | 15.45280 | 109° | 75km/h | 6295m | -3.1m/s | -19.8°C | 82.6% | 462.53hPa | 2.7V | 00:00:00 | 00:00:00 | 00:00:00 | |
| AA1-15 | 2026-09-03 13:41:44 | 53.64426 | 15.44938 | 117° | 78km/h | 6330m | -3.5m/s | -20°C | 81.8% | 460.3hPa | 2.6V | 07:20:16 | 03:22:18 | 00:00:00 | |
| DB0DAN | 2026-09-03 13:41:40 | 53.64462 | 15.44823 | 119° | 69km/h | 6343m | -3.2m/s | -20°C | 81.2% | 459.57hPa | 2.7V | 00:00:00 | 00:00:00 | 00:00:00 | |
| AA1-15 | 2026-09-03 13:41:33 | 53.64522 | 15.44645 | 118° | 64km/h | 6366m | -3.1m/s | -20.2°C | 79.1% | 458.1hPa | 2.6V | 07:21:07 | 03:22:07 | 00:00:00 | |
| SONDE2-11 | 2026-09-03 13:41:31 | 53.64544 | 15.44574 | 116° | 60km/h | 6375m | -3.2m/s | -20.2°C | 80.7% | 457.5hPa | 2.7V | 00:00:00 | 00:00:00 | 00:00:00 | |
| SP3BTT-10 | 2026-09-03 13:41:29 | 53.64551 | 15.44550 | 116° | 58km/h | 6378m | -3.2m/s | -20.2°C | 83.2% | 457.3hPa | 2.7V | 00:00:00 | 00:00:00 | 00:00:00 | |
| DB0DAN | 2026-09-03 13:41:25 | 53.64577 | 15.44457 | 115° | 57km/h | 6391m | -3.5m/s | -20.3°C | 78.8% | 456.55hPa | 2.7V | 00:00:00 | 00:00:00 | 00:00:00 | |
| AA1-15 | 2026-09-03 13:41:22 | 53.64596 | 15.44388 | 113° | 60km/h | 6401m | -3.3m/s | -20.4°C | 79.5% | 456hPa | 2.7V | 07:21:07 | 03:21:56 | 00:00:00 | |
| AA1-15 | 2026-09-03 13:41:12 | 53.64650 | 15.44123 | 109° | 75km/h | 6433m | -2.7m/s | -20.6°C | 78% | 454hPa | 2.7V | 07:21:07 | 03:21:46 | 00:00:00 | |
| DB0DAN | 2026-09-03 13:41:10 | 53.64663 | 15.44062 | 111° | 73km/h | 6439m | -2.6m/s | -20.6°C | 77.6% | 453.65hPa | 2.7V | 00:00:00 | 00:00:00 | 00:00:00 | |
| AA1-15 | 2026-09-03 13:41:01 | 53.64740 | 15.43799 | 121° | 73km/h | 6464m | -3m/s | -20.9°C | 79.2% | 452hPa | 2.7V | 07:21:07 | 03:21:35 | 00:00:00 | |
| SONDE2-11 | 2026-09-03 13:41:00 | 53.64759 | 15.43747 | 121° | 69km/h | 6470m | -3.7m/s | -20.9°C | 78.4% | 451.6hPa | 2.6V | 00:00:00 | 00:00:00 | 00:00:00 | |
| DB0DAN | 2026-09-03 13:40:55 | 53.64796 | 15.43648 | 123° | 64km/h | 6484m | -3.4m/s | -21°C | 78.5% | 450.8hPa | 2.6V | 00:00:00 | 00:00:00 | 00:00:00 | |
| AA1-15 | 2026-09-03 13:40:51 | 53.64832 | 15.43556 | 124° | 64km/h | 6497m | -3.1m/s | -21.1°C | 79% | 450hPa | 2.6V | 07:21:58 | 03:21:25 | 00:00:00 | |
| EDDB2-12 | 2026-09-03 13:40:50 | 53.64841 | 15.43533 | 123° | 62km/h | 6500m | -3.0m/s | -21.2°C | 79.3% | 449.9hPa | 2.6V | 00:00:00 | 00:00:00 | 00:00:00 | |
| AM1SDL-15 | 2026-09-03 13:40:44 | 53.64892 | 15.43403 | 123° | 58km/h | 6518m | -3.1m/s | -21.2°C | 82.3% | 448.7hPa | 2.6V | 00:00:00 | 03:21:18 | 00:00:00 | |
| DB0DAN | 2026-09-03 13:40:40 | 53.64924 | 15.43319 | 122° | 55km/h | 6531m | -3.1m/s | -21.4°C | 79.8% | 448.05hPa | 2.6V | 00:00:00 | 00:00:00 | 00:00:00 | |
| AA1-15 | 2026-09-03 13:40:40 | 53.64924 | 15.43319 | 122° | 58km/h | 6531m | -3.1m/s | -21.4°C | 80.4% | 448.1hPa | 2.6V | 07:21:58 | 03:21:14 | 00:00:00 | |
| AA1-15 | 2026-09-03 13:40:30 | 53.64997 | 15.43109 | 117° | 57km/h | 6561m | -3.1m/s | -21.6°C | 79.5% | 446.1hPa | 2.6V | 07:21:58 | 03:21:04 | 00:00:00 | |
| SONDE2-11 | 2026-09-03 13:40:29 | 53.65010 | 15.43066 | 115° | 55km/h | 6567m | -3.1m/s | -21.7°C | 81.0% | 445.8hPa | 2.6V | 00:00:00 | 00:00:00 | 00:00:00 | |
| DB0DAN | 2026-09-03 13:40:25 | 53.65027 | 15.43000 | 113° | 53km/h | 6576m | -3m/s | -21.7°C | 81% | 445.31hPa | 2.6V | 00:00:00 | 00:00:00 | 00:00:00 | |
| AA1-15 | 2026-09-03 13:40:19 | 53.65059 | 15.42863 | 110° | 60km/h | 6593m | -2.9m/s | -21.8°C | 80.5% | 444.2hPa | 2.6V | 07:21:58 | 03:20:53 | 00:00:00 | |
| DB0DAN | 2026-09-03 13:40:10 | 53.65111 | 15.42625 | 112° | 68km/h | 6619m | -2.9m/s | -22.1°C | 80.8% | 442.69hPa | 2.7V | 00:00:00 | 00:00:00 | 00:00:00 | |
| AA1-15 | 2026-09-03 13:40:08 | 53.65125 | 15.42568 | 114° | 73km/h | 6625m | -2.8m/s | -22.1°C | 80.9% | 442.2hPa | 2.6V | 07:21:58 | 03:20:42 | 00:00:00 | |
| AA1-15 | 2026-09-03 13:39:57 | 53.65222 | 15.42268 | 123° | 71km/h | 6656m | -2.8m/s | -22.4°C | 80.9% | 440.4hPa | 2.6V | 07:22:49 | 03:20:31 | 00:00:00 | |
| AA1-15 | 2026-09-03 13:39:47 | 53.65322 | 15.42026 | 127° | 66km/h | 6684m | -3.1m/s | -22.6°C | 82.2% | 438.7hPa | 2.6V | 07:22:49 | 03:20:21 | 00:00:00 | |
| AA1-15 | 2026-09-03 13:39:36 | 53.65417 | 15.41795 | 120° | 57km/h | 6716m | -3m/s | -22.8°C | 80.8% | 436.8hPa | 2.6V | 07:22:49 | 03:20:10 | 00:00:00 | |
| SP3WXH-11 | 2026-09-03 13:39:34 | 53.65431 | 15.41754 | 120° | 55km/h | 6722m | -3.0m/s | -22.8°C | 80.1% | 436.5hPa | 2.6V | 00:00:00 | 00:00:00 | 00:00:00 | |
| AM1SDL-15 | 2026-09-03 13:39:32 | 53.65445 | 15.41713 | 119° | 58km/h | 6728m | -2.9m/s | -22.8°C | 82.9% | 436.1hPa | 2.6V | 07:22:00 | 03:20:06 | 00:00:00 | |
| DB0DAN | 2026-09-03 13:39:25 | 53.65486 | 15.41558 | 111° | 58km/h | 6747m | -2.9m/s | -23°C | 80.8% | 435hPa | 2.6V | 00:00:00 | 00:00:00 | 00:00:00 | |
| AA1-15 | 2026-09-03 13:39:25 | 53.65486 | 15.41558 | 111° | 62km/h | 6747m | -2.9m/s | -23°C | 81.1% | 435hPa | 2.6V | 07:22:49 | 03:19:59 | 00:00:00 | |
| AA1-15 | 2026-09-03 13:39:15 | 53.65551 | 15.41294 | 115° | 71km/h | 6774m | -2.5m/s | -23.2°C | 81.1% | 433.4hPa | 2.6V | 07:22:49 | 03:19:49 | 00:00:00 | |
| DB0DAN | 2026-09-03 13:39:10 | 53.65593 | 15.41156 | 119° | 69km/h | 6787m | -2.9m/s | -23.3°C | 81.2% | 432.66hPa | 2.6V | 00:00:00 | 00:00:00 | 00:00:00 | |
| AA1-15 | 2026-09-03 13:39:04 | 53.65651 | 15.40998 | 124° | 71km/h | 6803m | -2.7m/s | -23.5°C | 82.4% | 431.6hPa | 2.6V | 07:23:40 | 03:19:38 | 00:00:00 | |
| SP3WXH-11 | 2026-09-03 13:39:03 | 53.65661 | 15.40973 | 124° | 71km/h | 6806m | -2.7m/s | -23.5°C | 81.8% | 431.4hPa | 2.6V | 00:00:00 | 00:00:00 | 00:00:00 | |
| EDDB2-11 | 2026-09-03 13:39:01 | 53.65682 | 15.40923 | 124° | 69km/h | 6811m | -2.8m/s | -23.6°C | 81.6% | 431.2hPa | 2.6V | 00:00:00 | 00:00:00 | 00:00:00 | |
| DB0DAN | 2026-09-03 13:38:55 | 53.65743 | 15.40776 | 127° | 66km/h | 6828m | -3m/s | -23.7°C | 81.6% | 430.08hPa | 2.6V | 00:00:00 | 00:00:00 | 00:00:00 | |
| AA1-15 | 2026-09-03 13:38:54 | 53.65754 | 15.40753 | 127° | 68km/h | 6831m | -2.7m/s | -23.7°C | 81.3% | 430hPa | 2.6V | 07:23:40 | 03:19:28 | 00:00:00 | |
| EDDB2-12 | 2026-09-03 13:38:46 | 53.65834 | 15.40581 | 128° | 60km/h | 6853m | -2.9m/s | -23.9°C | 80.8% | 428.7hPa | 2.5V | 00:00:00 | 00:00:00 | 00:00:00 | |
| AA1-15 | 2026-09-03 13:38:43 | 53.65863 | 15.40520 | 129° | 60km/h | 6862m | -3m/s | -24°C | 82.5% | 428.2hPa | 2.5V | 07:23:40 | 03:19:17 | 00:00:00 | |
| MECKS9 | 2026-09-03 13:38:41 | 53.65873 | 15.40500 | 130° | 60km/h | 6865m | -2.9m/s | -24.0°C | 81.9% | 427.9hPa | 2.6V | 00:00:00 | 00:00:00 | 00:00:00 | |
| DB0DAN | 2026-09-03 13:38:40 | 53.65892 | 15.40460 | 129° | 57km/h | 6870m | -3m/s | -24.1°C | 82.5% | 427.68hPa | 2.6V | 00:00:00 | 00:00:00 | 00:00:00 | |
| AA1-15 | 2026-09-03 13:38:33 | 53.65955 | 15.40323 | 126° | 57km/h | 6890m | -2.7m/s | -24.2°C | 82.7% | 426.5hPa | 2.6V | 07:23:40 | 03:19:07 | 00:00:00 | |
| AM1SDL-15 | 2026-09-03 13:38:32 | 53.65963 | 15.40304 | 125° | 57km/h | 6892m | -2.7m/s | -24.2°C | 84.9% | 426.3hPa | 2.6V | 00:00:00 | 03:19:06 | 00:00:00 | |
| EDDB2-11 | 2026-09-03 13:38:30 | 53.65978 | 15.40265 | 121° | 55km/h | 6898m | -2.7m/s | -24.3°C | 82.0% | 426.1hPa | 2.6V | 00:00:00 | 00:00:00 | 00:00:00 | |
| SP3BTT-10 | 2026-09-03 13:38:28 | 53.65992 | 15.40225 | 120° | 55km/h | 6903m | -2.9m/s | -24.3°C | 85.6% | 425.7hPa | 2.6V | 00:00:00 | 00:00:00 | 00:00:00 | |
| DB0DAN | 2026-09-03 13:38:25 | 53.66012 | 15.40162 | 118° | 53km/h | 6912m | -3m/s | -24.4°C | 82.6% | 425.26hPa | 2.6V | 00:00:00 | 00:00:00 | 00:00:00 | |
| AA1-15 | 2026-09-03 13:38:22 | 53.66032 | 15.40096 | 115° | 60km/h | 6920m | -2.7m/s | -24.5°C | 83.8% | 424.8hPa | 2.6V | 07:23:40 | 03:18:56 | 00:00:00 | |
| AA1-15 | 2026-09-03 13:38:12 | 53.66103 | 15.39845 | 117° | 69km/h | 6947m | -2.7m/s | -24.8°C | 84% | 423.2hPa | 2.6V | 07:24:31 | 03:18:46 | 00:00:00 | |
| DB0DAN | 2026-09-03 13:38:10 | 53.66119 | 15.39792 | 118° | 68km/h | 6952m | -2.6m/s | -24.8°C | 83.6% | 422.87hPa | 2.6V | 00:00:00 | 00:00:00 | 00:00:00 | |
| AA1-15 | 2026-09-03 13:38:02 | 53.66194 | 15.39583 | 125° | 73km/h | 6974m | -2.7m/s | -25°C | 84.1% | 421.6hPa | 2.6V | 07:24:31 | 03:18:36 | 00:00:00 | |
| SP3WXH-11 | 2026-09-03 13:38:01 | 53.66204 | 15.39558 | 125° | 71km/h | 6977m | -2.7m/s | -25.0°C | 83.4% | 421.4hPa | 2.6V | 00:00:00 | 00:00:00 | 00:00:00 | |
| EDDB2-11 | 2026-09-03 13:37:59 | 53.66226 | 15.39508 | 126° | 71km/h | 6982m | -2.7m/s | -25.1°C | 83.0% | 421.1hPa | 2.6V | 00:00:00 | 00:00:00 | 00:00:00 | |
| MECKS9 | 2026-09-03 13:37:56 | 53.66247 | 15.39459 | 128° | 71km/h | 6988m | -2.8m/s | -25.1°C | 82.5% | 420.8hPa | 2.6V | 00:00:00 | 00:00:00 | 00:00:00 | |
| DB0DAN | 2026-09-03 13:37:55 | 53.66269 | 15.39411 | 127° | 68km/h | 6993m | -2.8m/s | -25.1°C | 82.4% | 420.48hPa | 2.6V | 00:00:00 | 00:00:00 | 00:00:00 | |
| AA1-15 | 2026-09-03 13:37:52 | 53.66313 | 15.39315 | 129° | 71km/h | 7004m | -2.7m/s | -25.2°C | 82.1% | 419.9hPa | 2.5V | 07:24:31 | 03:18:25 | 00:00:00 | |
| EDDB2-12 | 2026-09-03 13:37:44 | 53.66392 | 15.39160 | 131° | 64km/h | 7024m | -2.8m/s | -25.3°C | 82.0% | 418.8hPa | 2.5V | 00:00:00 | 00:00:00 | 00:00:00 | |
| AA1-15 | 2026-09-03 13:37:41 | 53.66424 | 15.39100 | 133° | 64km/h | 7032m | -2.6m/s | -25.4°C | 82.8% | 418.2hPa | 2.5V | 07:24:31 | 03:18:15 | 00:00:00 | |
| DB0DAN | 2026-09-03 13:37:40 | 53.66435 | 15.39080 | 133° | 58km/h | 7035m | -3m/s | -25.5°C | 82.3% | 418.13hPa | 2.5V | 00:00:00 | 00:00:00 | 00:00:00 | |
| AA1-15 | 2026-09-03 13:37:30 | 53.66538 | 15.38896 | 133° | 57km/h | 7063m | -2.8m/s | -25.7°C | 83.5% | 416.4hPa | 2.6V | 07:24:31 | 03:18:04 | 00:00:00 | |
| SP3WXH-11 | 2026-09-03 13:37:30 | 53.66538 | 15.38896 | 132° | 55km/h | 7063m | -2.8m/s | -25.7°C | 82.3% | 416.4hPa | 2.5V | 00:00:00 | 00:00:00 | 00:00:00 | |
| EDDB2-11 | 2026-09-03 13:37:28 | 53.66557 | 15.38860 | 131° | 55km/h | 7068m | -2.7m/s | -25.7°C | 82.6% | 416.2hPa | 2.5V | 00:00:00 | 00:00:00 | 00:00:00 | |
| DB0DAN | 2026-09-03 13:37:25 | 53.66584 | 15.38808 | 129° | 51km/h | 7077m | -2.8m/s | -25.8°C | 81.7% | 415.73hPa | 2.5V | 00:00:00 | 00:00:00 | 00:00:00 | |
| AA1-15 | 2026-09-03 13:37:20 | 53.66625 | 15.38718 | 124° | 53km/h | 7090m | -2.6m/s | -25.9°C | 82.4% | 414.9hPa | 2.6V | 07:25:22 | 03:17:54 | 00:00:00 | |
| EDDB2-12 | 2026-09-03 13:37:13 | 53.66673 | 15.38578 | 117° | 57km/h | 7109m | -2.9m/s | -26.0°C | 81.4% | 413.8hPa | 2.6V | 00:00:00 | 00:00:00 | 00:00:00 | |
| SP3BTT-10 | 2026-09-03 13:37:12 | 53.66679 | 15.38556 | 117° | 68km/h | 7112m | -2.9m/s | -26.0°C | 84.9% | 413.6hPa | 2.6V | 00:00:00 | 00:00:00 | 00:00:00 | |
| DB0DAN | 2026-09-03 13:37:10 | 53.66693 | 15.38510 | 117° | 58km/h | 7118m | -2.8m/s | -26.1°C | 81.6% | 413.31hPa | 2.6V | 00:00:00 | 00:00:00 | 00:00:00 | |
| AA1-15 | 2026-09-03 13:37:09 | 53.66700 | 15.38486 | 117° | 64km/h | 7120m | -2.9m/s | -26.1°C | 82.3% | 413.2hPa | 2.5V | 07:25:22 | 03:17:43 | 00:00:00 | |
| AA1-15 | 2026-09-03 13:36:58 | 53.66792 | 15.38209 | 121° | 69km/h | 7152m | -2.9m/s | -26.3°C | 82.5% | 411.4hPa | 2.5V | 07:25:22 | 03:17:32 | 00:00:00 | |
| EDDB2-11 | 2026-09-03 13:36:57 | 53.66801 | 15.38184 | 121° | 69km/h | 7154m | -3.0m/s | -26.4°C | 80.9% | 411.2hPa | 2.6V | 00:00:00 | 00:00:00 | 00:00:00 | |
| DB0DAN | 2026-09-03 13:36:55 | 53.66820 | 15.38133 | 123° | 68km/h | 7160m | -2.8m/s | -26.4°C | 80.7% | 410.9hPa | 2.6V | 00:00:00 | 00:00:00 | 00:00:00 | |
| AA1-15 | 2026-09-03 13:36:47 | 53.66905 | 15.37937 | 129° | 69km/h | 7182m | -2.7m/s | -26.6°C | 82.1% | 409.7hPa | 2.6V | 07:25:22 | 03:17:21 | 00:00:00 | |
| AM1SDL-15 | 2026-09-03 13:36:44 | 53.66939 | 15.37870 | 132° | 62km/h | 7190m | -2.9m/s | -26.6°C | 83.7% | 409.1hPa | 2.5V | 00:00:00 | 03:17:18 | 00:00:00 | |
| SP3BTT-10 | 2026-09-03 13:36:42 | 53.66962 | 15.37828 | 133° | 58km/h | 7196m | -2.8m/s | -26.6°C | 83.2% | 408.8hPa | 2.5V | 07:25:00 | 00:00:00 | 00:00:00 | |
| DB0DAN | 2026-09-03 13:36:40 | 53.66984 | 15.37787 | 133° | 60km/h | 7201m | -2.9m/s | -26.7°C | 79.7% | 408.56hPa | 2.5V | 00:00:00 | 00:00:00 | 00:00:00 | |
| AA1-15 | 2026-09-03 13:36:37 | 53.67015 | 15.37729 | 132° | 60km/h | 7210m | -2.8m/s | -26.8°C | 81.3% | 408hPa | 2.6V | 07:26:13 | 03:17:11 | 00:00:00 | |
| AA1-15 | 2026-09-03 13:36:26 | 53.67107 | 15.37518 | 123° | 55km/h | 7242m | -2.8m/s | -27°C | 81.1% | 406.2hPa | 2.6V | 07:26:13 | 03:17:00 | 00:00:00 | |
| DB0DAN | 2026-09-03 13:36:25 | 53.67115 | 15.37499 | 122° | 53km/h | 7245m | -3m/s | -27°C | 80.1% | 406.12hPa | 2.6V | 00:00:00 | 00:00:00 | 00:00:00 | |
| AA1-15 | 2026-09-03 13:36:16 | 53.67176 | 15.37310 | 115° | 58km/h | 7270m | -2.9m/s | -27.2°C | 81.7% | 404.6hPa | 2.5V | 07:26:13 | 03:16:50 | 00:00:00 | |
| DB0DAN | 2026-09-03 13:36:10 | 53.67215 | 15.37163 | 114° | 66km/h | 7287m | -2.9m/s | -27.3°C | 79.5% | 403.72hPa | 2.6V | 00:00:00 | 00:00:00 | 00:00:00 | |
| AA1-15 | 2026-09-03 13:36:05 | 53.67256 | 15.37030 | 120° | 73km/h | 7300m | -2.8m/s | -27.4°C | 80.9% | 403hPa | 2.6V | 07:26:13 | 03:16:39 | 00:00:00 | |
| SP3WXH-11 | 2026-09-03 13:35:57 | 53.67337 | 15.36824 | 126° | 71km/h | 7323m | -2.9m/s | -27.6°C | 79.7% | 401.8hPa | 2.6V | 00:00:00 | 00:00:00 | 00:00:00 | |
| DB0DAN | 2026-09-03 13:35:55 | 53.67359 | 15.36776 | 128° | 68km/h | 7328m | -2.9m/s | -27.7°C | 79.7% | 401.37hPa | 2.6V | 00:00:00 | 00:00:00 | 00:00:00 | |
| AA1-15 | 2026-09-03 13:35:55 | 53.67370 | 15.36753 | 129° | 69km/h | 7331m | -2.8m/s | -27.7°C | 81.2% | 401.2hPa | 2.5V | 07:26:13 | 03:16:28 | 00:00:00 | |
| AA1-15 | 2026-09-03 13:35:44 | 53.67477 | 15.36539 | 130° | 60km/h | 7360m | -2.9m/s | -27.9°C | 81.3% | 399.6hPa | 2.5V | 07:27:04 | 03:16:18 | 00:00:00 | |
| AM1SDL-15 | 2026-09-03 13:35:43 | 53.67486 | 15.36519 | 131° | 58km/h | 7363m | -2.8m/s | -27.9°C | 82.7% | 399.4hPa | 2.5V | 00:00:00 | 03:16:17 | 00:00:00 | |
| DB0DAN | 2026-09-03 13:35:40 | 53.67515 | 15.36462 | 130° | 57km/h | 7371m | -2.9m/s | -28°C | 78.4% | 399.02hPa | 2.6V | 00:00:00 | 00:00:00 | 00:00:00 | |
| AA1-15 | 2026-09-03 13:35:34 | 53.67578 | 15.36328 | 125° | 55km/h | 7392m | -2.8m/s | -28.1°C | 80.1% | 397.9hPa | 2.6V | 07:27:04 | 03:16:07 | 00:00:00 | |
| AM1SDL-15 | 2026-09-03 13:35:31 | 53.67593 | 15.36289 | 123° | 57km/h | 7397m | -2.8m/s | -28.1°C | 82.2% | 397.5hPa | 2.5V | 00:00:00 | 03:16:05 | 00:00:00 | |
| SP3BTT-10 | 2026-09-03 13:35:27 | 53.67621 | 15.36207 | 119° | 68km/h | 7409m | -2.8m/s | -28.2°C | 82.0% | 396.9hPa | 2.5V | 00:00:00 | 00:00:00 | 00:00:00 | |
| DB0DAN | 2026-09-03 13:35:25 | 53.67635 | 15.36164 | 117° | 55km/h | 7415m | -2.8m/s | -28.3°C | 78.5% | 396.66hPa | 2.5V | 00:00:00 | 00:00:00 | 00:00:00 | |
| AA1-15 | 2026-09-03 13:35:22 | 53.67654 | 15.36099 | 116° | 58km/h | 7423m | -2.9m/s | -28.4°C | 80.5% | 396.2hPa | 2.6V | 07:27:04 | 03:15:56 | 00:00:00 | |
| AA1-15 | 2026-09-03 13:35:11 | 53.67726 | 15.35833 | 114° | 68km/h | 7454m | -2.7m/s | -28.6°C | 80.6% | 394.5hPa | 2.5V | 07:27:04 | 03:15:45 | 00:00:00 | |
| DB0DAN | 2026-09-03 13:35:10 | 53.67733 | 15.35807 | 114° | 66km/h | 7457m | -2.9m/s | -28.6°C | 78.4% | 394.33hPa | 2.5V | 00:00:00 | 00:00:00 | 00:00:00 | |
| AA1-15 | 2026-09-03 13:35:01 | 53.67803 | 15.35561 | 118° | 75km/h | 7482m | -2.7m/s | -28.8°C | 81.4% | 392.9hPa | 2.6V | 07:27:04 | 03:15:35 | 00:00:00 | |
| SP3BTT-10 | 2026-09-03 13:34:57 | 53.67840 | 15.35450 | 121° | 73km/h | 7493m | -2.7m/s | -28.9°C | 81.8% | 392.2hPa | 2.5V | 00:00:00 | 00:00:00 | 00:00:00 | |
| DB0DAN | 2026-09-03 13:34:55 | 53.67860 | 15.35395 | 123° | 71km/h | 7499m | -2.8m/s | -29°C | 78.7% | 391.97hPa | 2.6V | 00:00:00 | 00:00:00 | 00:00:00 | |
| AA1-15 | 2026-09-03 13:34:51 | 53.67903 | 15.35292 | 127° | 73km/h | 7510m | -2.8m/s | -29°C | 80.6% | 391.4hPa | 2.5V | 07:27:55 | 03:15:25 | 00:00:00 | |
| SONDE2-11 | 2026-09-03 13:34:47 | 53.67948 | 15.35196 | 129° | 68km/h | 7520m | -2.8m/s | -29.1°C | 77.9% | 390.8hPa | 2.5V | 00:00:00 | 00:00:00 | 00:00:00 | |
| AA1-15 | 2026-09-03 13:34:40 | 53.68021 | 15.35048 | 129° | 60km/h | 7540m | -3.1m/s | -29.3°C | 79.6% | 389.7hPa | 2.5V | 07:27:55 | 03:15:14 | 00:00:00 | |
| DB0DAN | 2026-09-03 13:34:40 | 53.68021 | 15.35048 | 129° | 58km/h | 7540m | -3.1m/s | -29.3°C | 77.3% | 389.7hPa | 2.5V | 00:00:00 | 00:00:00 | 00:00:00 | |
| AA1-15 | 2026-09-03 13:34:30 | 53.68110 | 15.34849 | 124° | 57km/h | 7570m | -3m/s | -29.5°C | 79.7% | 388.1hPa | 2.5V | 07:27:55 | 03:15:04 | 00:00:00 | |
| MECKS9 | 2026-09-03 13:34:28 | 53.68118 | 15.34830 | 124° | 57km/h | 7573m | -2.9m/s | -29.5°C | 78.0% | 387.9hPa | 2.5V | 00:00:00 | 00:00:00 | 00:00:00 | |
| DB0DAN | 2026-09-03 13:34:25 | 53.68147 | 15.34749 | 120° | 53km/h | 7584m | -3m/s | -29.6°C | 78% | 387.26hPa | 2.5V | 00:00:00 | 00:00:00 | 00:00:00 | |
| AA1-15 | 2026-09-03 13:34:20 | 53.68180 | 15.34644 | 116° | 57km/h | 7599m | -3m/s | -29.7°C | 80.6% | 386.5hPa | 2.6V | 07:27:55 | 03:14:54 | 00:00:00 | |
| AM1SDL-15 | 2026-09-03 13:34:18 | 53.68192 | 15.34600 | 115° | 62km/h | 7605m | -2.8m/s | -29.7°C | 82.1% | 386.1hPa | 2.6V | 00:00:00 | 03:14:52 | 00:00:00 | |
| SONDE2-11 | 2026-09-03 13:34:16 | 53.68204 | 15.34555 | 113° | 58km/h | 7611m | -3.1m/s | -29.9°C | 78.3% | 385.8hPa | 2.6V | 00:00:00 | 00:00:00 | 00:00:00 | |
| DB0DAN | 2026-09-03 13:34:10 | 53.68239 | 15.34409 | 112° | 62km/h | 7629m | -2.9m/s | -30°C | 78.1% | 384.9hPa | 2.6V | 00:00:00 | 00:00:00 | 00:00:00 | |
| AA1-15 | 2026-09-03 13:34:10 | 53.68239 | 15.34409 | 112° | 66km/h | 7629m | -2.9m/s | -30°C | 81.1% | 384.9hPa | 2.6V | 07:27:55 | 03:14:44 | 00:00:00 | |
| AA1-15 | 2026-09-03 13:33:59 | 53.68325 | 15.34111 | 120° | 73km/h | 7661m | -3m/s | -30.2°C | 78.6% | 383.2hPa | 2.6V | 07:28:46 | 03:14:33 | 00:00:00 | |
| SP3BTT-10 | 2026-09-03 13:33:57 | 53.68343 | 15.34057 | 121° | 58km/h | 7667m | -2.9m/s | -30.2°C | 79.9% | 382.8hPa | 2.6V | 00:00:00 | 00:00:00 | 00:00:00 | |
| DB0DAN | 2026-09-03 13:33:55 | 53.68363 | 15.34005 | 122° | 69km/h | 7673m | -2.8m/s | -30.3°C | 75.5% | 382.53hPa | 2.6V | 00:00:00 | 00:00:00 | 00:00:00 | |
| AA1-15 | 2026-09-03 13:33:48 | 53.68434 | 15.33828 | 125° | 71km/h | 7693m | -3.1m/s | -30.4°C | 77.8% | 381.4hPa | 2.5V | 07:28:46 | 03:14:22 | 00:00:00 | |
| SONDE2-11 | 2026-09-03 13:33:45 | 53.68465 | 15.33756 | 127° | 68km/h | 7702m | -3.0m/s | -30.5°C | 74.7% | 380.9hPa | 2.6V | 00:00:00 | 00:00:00 | 00:00:00 | |
| MECKS9 | 2026-09-03 13:33:44 | 53.68465 | 15.33756 | 128° | 69km/h | 7702m | -3.0m/s | -30.5°C | 74.7% | 380.9hPa | 2.6V | 07:28:00 | 00:00:00 | 00:00:00 | |
| AM1SDL-15 | 2026-09-03 13:33:42 | 53.68496 | 15.33688 | 129° | 60km/h | 7711m | -3.0m/s | -30.5°C | 78.8% | 380.4hPa | 2.6V | 00:00:00 | 03:14:16 | 00:00:00 | |
| DB0DAN | 2026-09-03 13:33:40 | 53.68516 | 15.33645 | 128° | 60km/h | 7717m | -2.8m/s | -30.6°C | 75.4% | 380.15hPa | 2.6V | 00:00:00 | 00:00:00 | 00:00:00 | |
| AA1-15 | 2026-09-03 13:33:37 | 53.68546 | 15.33583 | 129° | 60km/h | 7725m | -2.9m/s | -30.7°C | 77.5% | 379.6hPa | 2.5V | 07:28:46 | 03:14:11 | 00:00:00 | |
| AA1-15 | 2026-09-03 13:33:26 | 53.68638 | 15.33369 | 121° | 53km/h | 7758m | -3.1m/s | -31°C | 78.4% | 377.9hPa | 2.6V | 07:28:46 | 03:14:00 | 00:00:00 | |
| DB0DAN | 2026-09-03 13:33:25 | 53.68645 | 15.33350 | 120° | 51km/h | 7761m | -3m/s | -31°C | 74.5% | 377.75hPa | 2.5V | 00:00:00 | 00:00:00 | 00:00:00 | |
| AA1-15 | 2026-09-03 13:33:15 | 53.68704 | 15.33124 | 113° | 66km/h | 7791m | -3m/s | -31.2°C | 77% | 376.2hPa | 2.5V | 07:28:46 | 03:13:49 | 00:00:00 | |
| AA1-15 | 2026-09-03 13:33:04 | 53.68794 | 15.32829 | 123° | 71km/h | 7824m | -2.9m/s | -31.5°C | 77.9% | 374.4hPa | 2.5V | 07:29:37 | 03:13:38 | 00:00:00 | |
| AA1-15 | 2026-09-03 13:32:54 | 53.68907 | 15.32582 | 130° | 62km/h | 7856m | -2.8m/s | -31.8°C | 78.4% | 372.7hPa | 2.6V | 07:29:37 | 03:13:27 | 00:00:00 | |
| SP3WXH-11 | 2026-09-03 13:32:51 | 53.68927 | 15.32542 | 129° | 58km/h | 7861m | -3.0m/s | -31.9°C | 76.1% | 372.4hPa | 2.5V | 00:00:00 | 00:00:00 | 00:00:00 | |
| EDDB2-11 | 2026-09-03 13:32:49 | 53.68954 | 15.32483 | 125° | 55km/h | 7870m | -3.0m/s | -32.0°C | 75.9% | 372.0hPa | 2.5V | 00:00:00 | 00:00:00 | 00:00:00 | |
| AA1-15 | 2026-09-03 13:32:43 | 53.68991 | 15.32385 | 119° | 55km/h | 7885m | -3m/s | -32.1°C | 77.5% | 371.2hPa | 2.5V | 07:29:37 | 03:13:17 | 00:00:00 | |
| SONDE2-11 | 2026-09-03 13:32:43 | 53.68991 | 15.32385 | 118° | 53km/h | 7885m | -3.0m/s | -32.1°C | 75.3% | 371.2hPa | 2.6V | 00:00:00 | 00:00:00 | 00:00:00 | |
| AM1SDL-15 | 2026-09-03 13:32:42 | 53.68997 | 15.32364 | 118° | 57km/h | 7889m | -3.0m/s | -32.0°C | 78.8% | 371.0hPa | 2.6V | 00:00:00 | 03:13:16 | 00:00:00 | |
| DB0DAN | 2026-09-03 13:32:40 | 53.69010 | 15.32323 | 117° | 53km/h | 7895m | -3m/s | -32.1°C | 75.4% | 370.7hPa | 2.5V | 00:00:00 | 00:00:00 | 00:00:00 | |
| AA1-15 | 2026-09-03 13:32:32 | 53.69057 | 15.32150 | 113° | 58km/h | 7919m | -3m/s | -32.2°C | 78.3% | 369.4hPa | 2.6V | 07:29:37 | 03:13:06 | 00:00:00 | |
| AM1SDL-15 | 2026-09-03 13:32:30 | 53.69069 | 15.32104 | 112° | 62km/h | 7925m | -3.1m/s | -32.3°C | 78.7% | 369.0hPa | 2.6V | 00:00:00 | 03:13:04 | 00:00:00 | |
| MECKS9 | 2026-09-03 13:32:27 | 53.69080 | 15.32056 | 112° | 60km/h | 7932m | -3.3m/s | -32.4°C | 75.0% | 368.8hPa | 2.6V | 07:29:00 | 00:00:00 | 00:00:00 | |
| DB0DAN | 2026-09-03 13:32:25 | 53.69097 | 15.31983 | 111° | 60km/h | 7941m | -3.2m/s | -32.4°C | 74.4% | 368.28hPa | 2.6V | 00:00:00 | 00:00:00 | 00:00:00 | |
| AA1-15 | 2026-09-03 13:32:21 | 53.69120 | 15.31880 | 111° | 66km/h | 7953m | -3.2m/s | -32.6°C | 77.6% | 367.6hPa | 2.5V | 07:30:28 | 03:12:55 | 00:00:00 | |
| AA1-15 | 2026-09-03 13:32:11 | 53.69193 | 15.31607 | 117° | 73km/h | 7985m | -3.2m/s | -32.8°C | 77.4% | 366hPa | 2.5V | 07:30:28 | 03:12:45 | 00:00:00 | |
| DB0DAN | 2026-09-03 13:32:10 | 53.69201 | 15.31579 | 118° | 69km/h | 7988m | -3m/s | -32.8°C | 73.5% | 365.82hPa | 2.5V | 00:00:00 | 00:00:00 | 00:00:00 | |
| AA1-15 | 2026-09-03 13:32:00 | 53.69302 | 15.31323 | 127° | 69km/h | 8018m | -3m/s | -33.1°C | 76.8% | 364.3hPa | 2.6V | 07:30:28 | 03:12:34 | 00:00:00 | |
| DB0DAN | 2026-09-03 13:31:55 | 53.69355 | 15.31208 | 128° | 64km/h | 8034m | -3.1m/s | -33.2°C | 73% | 363.5hPa | 2.6V | 00:00:00 | 00:00:00 | 00:00:00 | |
| AA1-15 | 2026-09-03 13:31:49 | 53.69410 | 15.31083 | 123° | 57km/h | 8051m | -3.1m/s | -33.4°C | 76.6% | 362.5hPa | 2.6V | 07:30:28 | 03:12:23 | 00:00:00 | |
| EDDB2-11 | 2026-09-03 13:31:47 | 53.69432 | 15.31021 | 118° | 55km/h | 8060m | -3.0m/s | -33.5°C | 73.6% | 362.0hPa | 2.5V | 00:00:00 | 00:00:00 | 00:00:00 | |
| AM1SDL-15 | 2026-09-03 13:31:42 | 53.69456 | 15.30934 | 114° | 64km/h | 8073m | -3.1m/s | -33.5°C | 76.6% | 361.4hPa | 2.5V | 00:00:00 | 03:12:16 | 00:00:00 | |
| MECKS9 | 2026-09-03 13:31:41 | 53.69456 | 15.30934 | 115° | 58km/h | 8073m | -3.1m/s | -33.6°C | 72.6% | 361.5hPa | 2.5V | 07:30:00 | 00:00:00 | 00:00:00 | |
| DB0DAN | 2026-09-03 13:31:40 | 53.69468 | 15.30888 | 112° | 57km/h | 8079m | -3.2m/s | -33.6°C | 72% | 361.11hPa | 2.5V | 00:00:00 | 00:00:00 | 00:00:00 | |
| AA1-15 | 2026-09-03 13:31:38 | 53.69479 | 15.30840 | 111° | 62km/h | 8085m | -3.1m/s | -33.7°C | 74.7% | 360.8hPa | 2.6V | 07:30:28 | 03:12:12 | 00:00:00 | |
| AA1-15 | 2026-09-03 13:31:28 | 53.69537 | 15.30575 | 111° | 71km/h | 8117m | -3.2m/s | -33.9°C | 75% | 359.1hPa | 2.5V | 07:31:19 | 03:12:02 | 00:00:00 | |
| DB0DAN | 2026-09-03 13:31:25 | 53.69557 | 15.30488 | 112° | 71km/h | 8126m | -3.2m/s | -34°C | 71.7% | 358.7hPa | 2.6V | 00:00:00 | 00:00:00 | 00:00:00 | |
| AA1-15 | 2026-09-03 13:31:18 | 53.69611 | 15.30279 | 115° | 78km/h | 8149m | -3.3m/s | -34.1°C | 74% | 357.6hPa | 2.6V | 07:31:19 | 03:11:52 | 00:00:00 | |
| AA1-15 | 2026-09-03 13:31:07 | 53.69715 | 15.29955 | 123° | 78km/h | 8184m | -3.1m/s | -34.5°C | 72.3% | 355.7hPa | 2.6V | 07:31:19 | 03:11:41 | 00:00:00 | |
| AA1-15 | 2026-09-03 13:30:57 | 53.69820 | 15.29701 | 126° | 68km/h | 8216m | -3.2m/s | -34.8°C | 71% | 354hPa | 2.5V | 07:31:19 | 03:11:31 | 00:00:00 | |
| DB0DAN | 2026-09-03 13:30:55 | 53.69840 | 15.29655 | 126° | 64km/h | 8223m | -3.2m/s | -34.8°C | 66.9% | 353.79hPa | 2.6V | 00:00:00 | 00:00:00 | 00:00:00 | |
| AA1-15 | 2026-09-03 13:30:46 | 53.69921 | 15.29454 | 121° | 60km/h | 8251m | -3.1m/s | -35°C | 71.5% | 352.3hPa | 2.5V | 07:31:19 | 03:11:20 | 00:00:00 | |
| EDDB2-11 | 2026-09-03 13:30:45 | 53.69937 | 15.29410 | 119° | 60km/h | 8257m | -3.3m/s | -35.1°C | 67.4% | 352.0hPa | 2.5V | 00:00:00 | 00:00:00 | 00:00:00 | |
| DB0DAN | 2026-09-03 13:30:40 | 53.69965 | 15.29320 | 116° | 57km/h | 8270m | -3.3m/s | -35.2°C | 67.3% | 351.31hPa | 2.5V | 00:00:00 | 00:00:00 | 00:00:00 | |
| AA1-15 | 2026-09-03 13:30:35 | 53.69996 | 15.29205 | 112° | 62km/h | 8287m | -3.2m/s | -35.3°C | 71.6% | 350.6hPa | 2.5V | 07:32:10 | 03:11:09 | 00:00:00 | |
| EDDB2-12 | 2026-09-03 13:30:30 | 53.70034 | 15.29042 | 112° | 73km/h | 8306m | -3.3m/s | 0°C | -1.0% | -1.0hPa | 2.6V | 00:00:00 | 00:00:00 | 00:00:00 | |
| AM1SDL-15 | 2026-09-03 13:30:27 | 53.70048 | 15.28984 | 114° | 78km/h | 8313m | -3.1m/s | -35.7°C | 73.0% | 349.2hPa | 2.6V | 00:00:00 | 03:11:01 | 00:00:00 | |
| MECKS9 | 2026-09-03 13:30:26 | 53.70049 | 15.28984 | 114° | 77km/h | 8313m | -3.2m/s | -35.7°C | 68.8% | 349.3hPa | 2.6V | 00:00:00 | 00:00:00 | 00:00:00 | |
| DB0DAN | 2026-09-03 13:30:25 | 53.70064 | 15.28924 | 115° | 73km/h | 8319m | -3.2m/s | -35.7°C | 68.9% | 348.9hPa | 2.6V | 00:00:00 | 00:00:00 | 00:00:00 | |
| AA1-15 | 2026-09-03 13:30:25 | 53.70064 | 15.28924 | 115° | 77km/h | 8319m | -3.2m/s | -35.7°C | 71.7% | 348.9hPa | 2.6V | 07:32:10 | 03:10:59 | 00:00:00 | |
| AA1-15 | 2026-09-03 13:30:15 | 53.70160 | 15.28631 | 122° | 78km/h | 8351m | -3.2m/s | -35.9°C | 71.3% | 347.3hPa | 2.5V | 07:32:10 | 03:10:49 | 00:00:00 | |
| AA1-15 | 2026-09-03 13:30:04 | 53.70280 | 15.28345 | 128° | 69km/h | 8387m | -3.2m/s | -36.2°C | 70.7% | 345.5hPa | 2.5V | 07:32:10 | 03:10:38 | 00:00:00 | |
| AM1SDL-15 | 2026-09-03 13:30:03 | 53.70291 | 15.28322 | 129° | 64km/h | 8391m | -3.2m/s | -36.2°C | 70.6% | 345.3hPa | 2.6V | 00:00:00 | 03:10:37 | 00:00:00 | |
| KRY50SP | 2026-09-03 13:29:59 | 53.70321 | 15.28256 | 129° | 64km/h | 8400m | -3.2m/s | -36.3°C | 66.7% | 344.9hPa | 2.6V | 00:00:00 | 00:00:00 | 00:00:00 | |
| DB0DAN | 2026-09-03 13:29:55 | 53.70366 | 15.28149 | 121° | 57km/h | 8416m | -3.3m/s | -36.5°C | 67.5% | 344.06hPa | 2.6V | 00:00:00 | 00:00:00 | 00:00:00 | |
| AA1-15 | 2026-09-03 13:29:53 | 53.70381 | 15.28105 | 118° | 60km/h | 8423m | -3.2m/s | -36.5°C | 70.6% | 343.7hPa | 2.5V | 07:32:10 | 03:10:27 | 00:00:00 | |
| SP3WXH-11 | 2026-09-03 13:29:45 | 53.70437 | 15.27890 | 111° | 62km/h | 8451m | -3.1m/s | -36.8°C | 68.3% | 342.3hPa | 2.5V | 00:00:00 | 00:00:00 | 00:00:00 | |
| AA1-15 | 2026-09-03 13:29:42 | 53.70449 | 15.27839 | 111° | 64km/h | 8458m | -3.4m/s | -36.9°C | 71.7% | 342hPa | 2.5V | 07:33:01 | 03:10:16 | 00:00:00 | |
| DB0DAN | 2026-09-03 13:29:40 | 53.70460 | 15.27787 | 111° | 64km/h | 8464m | -3.2m/s | -36.9°C | 68.3% | 341.63hPa | 2.6V | 00:00:00 | 00:00:00 | 00:00:00 | |
| AA1-15 | 2026-09-03 13:29:32 | 53.70509 | 15.27558 | 111° | 75km/h | 8490m | -3.3m/s | -37.2°C | 73% | 340.4hPa | 2.5V | 07:33:01 | 03:10:06 | 00:00:00 | |
| KRY50SP | 2026-09-03 13:29:27 | 53.70546 | 15.27409 | 116° | 77km/h | 8506m | -3.1m/s | -37.3°C | 68.7% | 339.6hPa | 2.5V | 00:00:00 | 00:00:00 | 00:00:00 | |
| DB0DAN | 2026-09-03 13:29:25 | 53.70563 | 15.27350 | 117° | 73km/h | 8512m | -3m/s | -37.3°C | 67.8% | 339.32hPa | 2.5V | 00:00:00 | 00:00:00 | 00:00:00 | |
| AA1-15 | 2026-09-03 13:29:21 | 53.70601 | 15.27235 | 121° | 77km/h | 8525m | -3.2m/s | -37.4°C | 70.9% | 338.7hPa | 2.5V | 07:33:01 | 03:09:55 | 00:00:00 | |
| AA1-15 | 2026-09-03 13:29:11 | 53.70704 | 15.26976 | 125° | 68km/h | 8556m | -3.5m/s | -37.7°C | 69.9% | 337.1hPa | 2.5V | 07:33:01 | 03:09:45 | 00:00:00 | |
| DB0DAN | 2026-09-03 13:29:10 | 53.70713 | 15.26953 | 125° | 62km/h | 8559m | -3.1m/s | -37.7°C | 66.6% | 336.96hPa | 2.5V | 00:00:00 | 00:00:00 | 00:00:00 | |
| AA1-15 | 2026-09-03 13:29:00 | 53.70795 | 15.26731 | 119° | 58km/h | 8590m | -3m/s | -38°C | 70.2% | 335.5hPa | 2.5V | 07:33:01 | 03:09:34 | 00:00:00 | |
| DB0DAN | 2026-09-03 13:28:55 | 53.70829 | 15.26621 | 117° | 55km/h | 8605m | -2.9m/s | -38.1°C | 68.8% | 334.75hPa | 2.5V | 00:00:00 | 00:00:00 | 00:00:00 | |
| AA1-15 | 2026-09-03 13:28:49 | 53.70865 | 15.26487 | 112° | 58km/h | 8622m | -2.9m/s | -38.2°C | 72.4% | 333.9hPa | 2.5V | 07:33:52 | 03:09:23 | 00:00:00 | |
| AM1SDL-15 | 2026-09-03 13:28:49 | 53.70865 | 15.26487 | 112° | 66km/h | 8622m | -2.9m/s | -38.2°C | 72.7% | 333.9hPa | 2.6V | 00:00:00 | 03:09:23 | 00:00:00 | |
| MECKS9 | 2026-09-03 13:28:43 | 53.70895 | 15.26337 | 109° | 68km/h | 8640m | -3.0m/s | -38.5°C | 68.3% | 333.0hPa | 2.6V | 00:00:00 | 00:00:00 | 00:00:00 | |
| JOZKA6-1 | 2026-09-03 13:28:41 | 53.70900 | 15.26309 | 109° | 69km/h | 8643m | -2.9m/s | 0°C | 0% | 0hPa | 2.6V | 00:00:00 | 00:00:00 | 00:00:00 | |
| DB0DAN | 2026-09-03 13:28:40 | 53.70912 | 15.26252 | 109° | 69km/h | 8649m | -3.1m/s | -38.5°C | 68.1% | 332.69hPa | 2.6V | 00:00:00 | 00:00:00 | 00:00:00 | |
| AA1-15 | 2026-09-03 13:28:39 | 53.70918 | 15.26223 | 110° | 73km/h | 8651m | -3.1m/s | -38.6°C | 71.5% | 332.4hPa | 2.5V | 07:33:52 | 03:09:13 | 00:00:00 | |
| AA1-15 | 2026-09-03 13:28:29 | 53.70992 | 15.25928 | 116° | 77km/h | 8682m | -3.1m/s | -38.8°C | 71.4% | 331hPa | 2.6V | 07:33:52 | 03:09:03 | 00:00:00 | |
| DB0DAN | 2026-09-03 13:28:25 | 53.71027 | 15.25812 | 118° | 73km/h | 8694m | -3.2m/s | -38.9°C | 68% | 330.36hPa | 2.6V | 00:00:00 | 00:00:00 | 00:00:00 | |
| AA1-15 | 2026-09-03 13:28:18 | 53.71094 | 15.25622 | 123° | 71km/h | 8718m | -3.3m/s | -39.1°C | 71.5% | 329.3hPa | 2.6V | 07:33:52 | 03:08:52 | 00:00:00 | |
| AM1SDL-15 | 2026-09-03 13:28:13 | 53.71143 | 15.25501 | 125° | 62km/h | 8735m | -3.3m/s | -39.2°C | 73.0% | 328.4hPa | 2.6V | 07:33:00 | 03:08:47 | 00:00:00 | |
| DB0DAN | 2026-09-03 13:28:10 | 53.71171 | 15.25434 | 125° | 60km/h | 8744m | -3.4m/s | -39.3°C | 68.2% | 327.95hPa | 2.6V | 00:00:00 | 00:00:00 | 00:00:00 | |
| AA1-15 | 2026-09-03 13:28:08 | 53.71189 | 15.25391 | 125° | 62km/h | 8751m | -3.6m/s | -39.4°C | 71.1% | 327.7hPa | 2.6V | 07:33:52 | 03:08:42 | 00:00:00 | |
| AA1-15 | 2026-09-03 13:27:58 | 53.71268 | 15.25184 | 119° | 55km/h | 8785m | -3.3m/s | -39.7°C | 71.4% | 326hPa | 2.5V | 07:34:43 | 03:08:32 | 00:00:00 | |
| DB0DAN | 2026-09-03 13:27:55 | 53.71286 | 15.25122 | 114° | 53km/h | 8795m | -3.3m/s | -39.8°C | 68.1% | 325.59hPa | 2.6V | 00:00:00 | 00:00:00 | 00:00:00 | |
| AA1-15 | 2026-09-03 13:27:47 | 53.71327 | 15.24942 | 109° | 58km/h | 8820m | -3.1m/s | -40.1°C | 71.9% | 324.3hPa | 2.5V | 07:34:43 | 03:08:21 | 00:00:00 | |
| DB0DAN | 2026-09-03 13:27:40 | 53.71358 | 15.24771 | 106° | 60km/h | 8843m | -3m/s | -40.2°C | 69.8% | 323.3hPa | 2.6V | 00:00:00 | 00:00:00 | 00:00:00 | |
| AA1-15 | 2026-09-03 13:27:37 | 53.71371 | 15.24691 | 106° | 68km/h | 8852m | -3m/s | -40.3°C | 72.7% | 322.8hPa | 2.5V | 07:34:43 | 03:08:11 | 00:00:00 | |
| AA1-15 | 2026-09-03 13:27:26 | 53.71444 | 15.24378 | 119° | 73km/h | 8885m | -2.9m/s | -40.5°C | 72.3% | 321.3hPa | 2.5V | 07:34:43 | 03:08:00 | 00:00:00 | |
| DB0DAN | 2026-09-03 13:27:25 | 53.71453 | 15.24351 | 119° | 68km/h | 8888m | -3m/s | -40.6°C | 68.9% | 321.13hPa | 2.6V | 00:00:00 | 00:00:00 | 00:00:00 | |
| AA1-15 | 2026-09-03 13:27:15 | 53.71542 | 15.24109 | 124° | 62km/h | 8918m | -3m/s | -40.9°C | 72.9% | 319.7hPa | 2.5V | 07:35:34 | 03:07:49 | 00:00:00 | |
| AM1SDL-15 | 2026-09-03 13:27:13 | 53.71559 | 15.24066 | 124° | 57km/h | 8924m | -3.1m/s | -40.8°C | 75.1% | 319.4hPa | 2.6V | 00:00:00 | 03:07:47 | 00:00:00 | |
| DB0DAN | 2026-09-03 13:27:10 | 53.71585 | 15.24003 | 123° | 57km/h | 8933m | -3.3m/s | -40.9°C | 69.2% | 318.93hPa | 2.5V | 00:00:00 | 00:00:00 | 00:00:00 | |
| AA1-15 | 2026-09-03 13:27:04 | 53.71629 | 15.23882 | 118° | 51km/h | 8952m | -3.1m/s | -41.1°C | 72.6% | 318.1hPa | 2.6V | 07:35:34 | 03:07:38 | 00:00:00 | |
| AM1SDL-15 | 2026-09-03 13:27:01 | 53.71646 | 15.23823 | 115° | 53km/h | 8962m | -3.1m/s | -41.1°C | 73.2% | 317.6hPa | 2.5V | 00:00:00 | 03:07:35 | 00:00:00 | |
| MECKS9 | 2026-09-03 13:26:59 | 53.71651 | 15.23803 | 114° | 51km/h | 8965m | -3.3m/s | -41.2°C | 68.6% | 317.5hPa | 2.5V | 00:00:00 | 00:00:00 | 00:00:00 | |
| DB0DAN | 2026-09-03 13:26:55 | 53.71673 | 15.23698 | 108° | 51km/h | 8981m | -3.1m/s | -41.3°C | 70.3% | 316.79hPa | 2.5V | 00:00:00 | 00:00:00 | 00:00:00 | |
| AA1-15 | 2026-09-03 13:26:54 | 53.71677 | 15.23677 | 107° | 53km/h | 8984m | -3.4m/s | -41.3°C | 73.7% | 316.6hPa | 2.5V | 07:35:34 | 03:07:28 | 00:00:00 | |
| AA1-15 | 2026-09-03 13:26:43 | 53.71716 | 15.23425 | 103° | 62km/h | 9020m | -3.3m/s | -41.7°C | 74.2% | 314.9hPa | 2.5V | 07:35:34 | 03:07:17 | 00:00:00 | |
| DB0DAN | 2026-09-03 13:26:40 | 53.71727 | 15.23345 | 105° | 64km/h | 9030m | -3.2m/s | -41.8°C | 70.7% | 314.51hPa | 2.5V | 00:00:00 | 00:00:00 | 00:00:00 | |
| AA1-15 | 2026-09-03 13:26:33 | 53.71769 | 15.23148 | 113° | 71km/h | 9051m | -3.2m/s | -42°C | 76% | 313.5hPa | 2.5V | 07:35:34 | 03:07:07 | 00:00:00 | |
| SONDE2-11 | 2026-09-03 13:26:30 | 53.71790 | 15.23064 | 114° | 71km/h | 9060m | -3.0m/s | -42.1°C | 72.6% | 313.0hPa | 2.6V | 00:00:00 | 00:00:00 | 00:00:00 | |
| DB0DAN | 2026-09-03 13:26:25 | 53.71830 | 15.22925 | 118° | 68km/h | 9075m | -2.8m/s | -42.2°C | 69.5% | 312.36hPa | 2.6V | 00:00:00 | 00:00:00 | 00:00:00 | |
| AA1-15 | 2026-09-03 13:26:22 | 53.71856 | 15.22847 | 120° | 68km/h | 9083m | -2.7m/s | -42.2°C | 75.5% | 312hPa | 2.5V | 07:36:25 | 03:06:56 | 00:00:00 | |
| AA1-15 | 2026-09-03 13:26:12 | 53.71931 | 15.22624 | 118° | 57km/h | 9110m | -3.3m/s | -42.6°C | 77.3% | 310.8hPa | 2.5V | 07:36:25 | 03:06:46 | 00:00:00 | |
| DB0DAN | 2026-09-03 13:26:10 | 53.71944 | 15.22582 | 116° | 51km/h | 9116m | -2.9m/s | -42.7°C | 73.3% | 310.43hPa | 2.5V | 00:00:00 | 00:00:00 | 00:00:00 | |
| AA1-15 | 2026-09-03 13:26:01 | 53.71988 | 15.22395 | 110° | 53km/h | 9146m | -3.4m/s | -42.9°C | 78.6% | 309hPa | 2.5V | 07:36:25 | 03:06:35 | 00:00:00 | |
| AA1-15 | 2026-09-03 13:25:50 | 53.72032 | 15.22161 | 107° | 53km/h | 9187m | -3.6m/s | -43.2°C | 77.5% | 307.2hPa | 2.6V | 07:36:25 | 03:06:24 | 00:00:00 | |
| AM1SDL-15 | 2026-09-03 13:25:49 | 53.72035 | 15.22140 | 107° | 53km/h | 9191m | -3.7m/s | -43.2°C | 79.0% | 307.0hPa | 2.6V | 00:00:00 | 03:06:23 | 00:00:00 | |
| DB0DAN | 2026-09-03 13:25:40 | 53.72064 | 15.21942 | 99° | 51km/h | 9222m | -3.4m/s | -43.5°C | 73.1% | 305.59hPa | 2.6V | 00:00:00 | 00:00:00 | 00:00:00 | |
| AA1-15 | 2026-09-03 13:25:39 | 53.72066 | 15.21919 | 99° | 55km/h | 9226m | -3.4m/s | -43.6°C | 78.6% | 305.4hPa | 2.6V | 07:36:25 | 03:06:13 | 00:00:00 | |
| AA1-15 | 2026-09-03 13:25:29 | 53.72092 | 15.21653 | 103° | 69km/h | 9258m | -3.3m/s | -43.9°C | 80.7% | 303.9hPa | 2.5V | 07:37:16 | 03:06:03 | 00:00:00 | |
| SONDE2-11 | 2026-09-03 13:25:28 | 53.72096 | 15.21624 | 104° | 69km/h | 9261m | -3.0m/s | -44.0°C | 77.1% | 303.8hPa | 2.5V | 00:00:00 | 00:00:00 | 00:00:00 | |
| DB0DAN | 2026-09-03 13:25:25 | 53.72112 | 15.21540 | 112° | 64km/h | 9270m | -3.4m/s | -44.2°C | 76.1% | 303.42hPa | 2.5V | 00:00:00 | 00:00:00 | 00:00:00 | |
| AA1-15 | 2026-09-03 13:25:19 | 53.72152 | 15.21394 | 115° | 60km/h | 9290m | -3.2m/s | -44.3°C | 79.9% | 302.5hPa | 2.5V | 07:37:16 | 03:05:53 | 00:00:00 | |
| MECKS9 | 2026-09-03 13:25:18 | 53.72152 | 15.21394 | 116° | 60km/h | 9291m | -3.2m/s | -44.3°C | 75.7% | 302.5hPa | 2.6V | 07:37:00 | 00:00:00 | 00:00:00 | |
| DB0DAN | 2026-09-03 13:25:10 | 53.72208 | 15.21193 | 114° | 51km/h | 9318m | -3.2m/s | -44.4°C | 75.2% | 301.24hPa | 2.6V | 00:00:00 | 00:00:00 | 00:00:00 | |
| AA1-15 | 2026-09-03 13:25:09 | 53.72213 | 15.21172 | 114° | 53km/h | 9321m | -3.4m/s | -44.3°C | 79.1% | 301.1hPa | 2.6V | 07:37:16 | 03:05:43 | 00:00:00 | |
| AA1-15 | 2026-09-03 13:24:59 | 53.72254 | 15.20975 | 100° | 47km/h | 9354m | -3m/s | -44.7°C | 76.3% | 299.6hPa | 2.6V | 07:37:16 | 03:05:33 | 00:00:00 | |
| SONDE2-11 | 2026-09-03 13:24:57 | 53.72258 | 15.20934 | 96° | 49km/h | 9360m | -2.9m/s | -44.8°C | 72.1% | 299.2hPa | 2.5V | 00:00:00 | 00:00:00 | 00:00:00 | |
| DB0DAN | 2026-09-03 13:24:55 | 53.72260 | 15.20888 | 93° | 53km/h | 9366m | -3.2m/s | -44.8°C | 72.1% | 299.13hPa | 2.5V | 00:00:00 | 00:00:00 | 00:00:00 | |
| AA1-15 | 2026-09-03 13:24:48 | 53.72270 | 15.20702 | 100° | 68km/h | 9388m | -3.1m/s | -45.1°C | 75.9% | 298.1hPa | 2.5V | 07:37:16 | 03:05:22 | 00:00:00 | |
| AA1-15 | 2026-09-03 13:24:38 | 53.72320 | 15.20429 | 115° | 58km/h | 9419m | -3.2m/s | -45.2°C | 74% | 296.7hPa | 2.6V | 07:38:07 | 03:05:12 | 00:00:00 | |
| AA1-15 | 2026-09-03 13:24:27 | 53.72374 | 15.20207 | 108° | 47km/h | 9453m | -3.1m/s | -45.6°C | 74.3% | 295.2hPa | 2.6V | 07:38:07 | 03:05:01 | 00:00:00 | |
| DB0DAN | 2026-09-03 13:24:25 | 53.72381 | 15.20169 | 104° | 44km/h | 9459m | -3m/s | -45.6°C | 68.8% | 294.92hPa | 2.6V | 00:00:00 | 00:00:00 | 00:00:00 | |
| AA1-15 | 2026-09-03 13:24:17 | 53.72394 | 15.20004 | 95° | 55km/h | 9483m | -2.9m/s | -45.9°C | 76% | 293.9hPa | 2.5V | 07:38:07 | 03:04:51 | 00:00:00 | |
| AA1-15 | 2026-09-03 13:24:06 | 53.72408 | 15.19721 | 96° | 64km/h | 9516m | -3m/s | -46.3°C | 74.1% | 292.5hPa | 2.5V | 07:38:07 | 03:04:40 | 00:00:00 | |
| SP3WXH-11 | 2026-09-03 13:24:03 | 53.72415 | 15.19637 | 98° | 68km/h | 9524m | -3.0m/s | -46.4°C | 67.9% | 292.0hPa | 2.6V | 00:00:00 | 00:00:00 | 00:00:00 | |
| EDDB2-11 | 2026-09-03 13:24:01 | 53.72421 | 15.19580 | 101° | 68km/h | 9530m | -3.1m/s | -46.4°C | 67.4% | 291.8hPa | 2.6V | 00:00:00 | 00:00:00 | 00:00:00 | |
| MECKS9 | 2026-09-03 13:24:00 | 53.72421 | 15.19580 | 103° | 69km/h | 9530m | -3.1m/s | -46.4°C | 67.4% | 291.8hPa | 2.6V | 07:38:00 | 00:00:00 | 00:00:00 | |
| DB0DAN | 2026-09-03 13:23:55 | 53.72451 | 15.19410 | 110° | 66km/h | 9549m | -3m/s | -46.5°C | 66.3% | 290.98hPa | 2.6V | 00:00:00 | 00:00:00 | 00:00:00 | |
| AA1-15 | 2026-09-03 13:23:55 | 53.72451 | 15.19410 | 110° | 68km/h | 9549m | -3m/s | -46.5°C | 72.8% | 291hPa | 2.6V | 07:38:07 | 03:04:29 | 00:00:00 | |
| AA1-15 | 2026-09-03 13:23:45 | 53.72512 | 15.19176 | 114° | 51km/h | 9578m | -3.1m/s | -46.7°C | 72.1% | 289.7hPa | 2.5V | 07:38:58 | 03:04:19 | 00:00:00 | |
| DB0DAN | 2026-09-03 13:23:40 | 53.72534 | 15.19078 | 107° | 46km/h | 9594m | -3.1m/s | -46.8°C | 65.6% | 288.97hPa | 2.5V | 00:00:00 | 00:00:00 | 00:00:00 | |
| AA1-15 | 2026-09-03 13:23:34 | 53.72548 | 15.18955 | 96° | 53km/h | 9612m | -3m/s | -47°C | 72.2% | 288.2hPa | 2.5V | 07:38:58 | 03:04:08 | 00:00:00 | |
| SP3WXH-11 | 2026-09-03 13:23:32 | 53.72551 | 15.18908 | 94° | 57km/h | 9618m | -3.0m/s | -47.2°C | 67.1% | 287.9hPa | 2.6V | 00:00:00 | 00:00:00 | 00:00:00 | |
| EDDB2-11 | 2026-09-03 13:23:30 | 53.72553 | 15.18859 | 94° | 58km/h | 9624m | -3.2m/s | -47.3°C | 67.6% | 287.7hPa | 2.6V | 00:00:00 | 00:00:00 | 00:00:00 | |
| KRY50SP | 2026-09-03 13:23:28 | 53.72556 | 15.18807 | 96° | 62km/h | 9631m | -3.0m/s | -47.3°C | 67.3% | 287.4hPa | 2.6V | 07:38:00 | 00:00:00 | 00:00:00 | |
| DB0DAN | 2026-09-03 13:23:25 | 53.72561 | 15.18725 | 97° | 62km/h | 9640m | -3.1m/s | -47.5°C | 67.4% | 286.98hPa | 2.6V | 00:00:00 | 00:00:00 | 00:00:00 | |
| AA1-15 | 2026-09-03 13:23:23 | 53.72566 | 15.18669 | 100° | 69km/h | 9646m | -3.3m/s | -47.5°C | 73% | 286.8hPa | 2.6V | 07:38:58 | 03:03:57 | 00:00:00 | |
| AA1-15 | 2026-09-03 13:23:13 | 53.72620 | 15.18388 | 115° | 66km/h | 9678m | -3.3m/s | -47.7°C | 71.4% | 285.3hPa | 2.5V | 07:38:58 | 03:03:47 | 00:00:00 | |
| KRY50SP | 2026-09-03 13:23:13 | 53.72619 | 15.18388 | 116° | 66km/h | 9678m | -3.3m/s | -47.7°C | 64.2% | 285.3hPa | 2.5V | 07:38:00 | 00:00:00 | 00:00:00 | |
| DB0DAN | 2026-09-03 13:23:10 | 53.72641 | 15.18315 | 116° | 57km/h | 9688m | -3.3m/s | -47.8°C | 64.5% | 284.87hPa | 2.5V | 00:00:00 | 00:00:00 | 00:00:00 | |
| AA1-15 | 2026-09-03 13:23:03 | 53.72683 | 15.18168 | 115° | 51km/h | 9711m | -3.4m/s | -48°C | 69.5% | 283.9hPa | 2.5V | 07:38:58 | 03:03:37 | 00:00:00 | |
| SP3WXH-11 | 2026-09-03 13:23:01 | 53.72693 | 15.18129 | 113° | 49km/h | 9718m | -3.6m/s | -48.1°C | 63.7% | 283.6hPa | 2.5V | 00:00:00 | 00:00:00 | 00:00:00 | |
| EDDB2-11 | 2026-09-03 13:22:59 | 53.72703 | 15.18089 | 110° | 47km/h | 9725m | -3.6m/s | -48.1°C | 63.8% | 283.2hPa | 2.5V | 00:00:00 | 00:00:00 | 00:00:00 | |
| SONDE2-11 | 2026-09-03 13:22:53 | 53.72722 | 15.17969 | 99° | 49km/h | 9747m | -3.7m/s | -48.4°C | 64.0% | 282.3hPa | 2.5V | 00:00:00 | 00:00:00 | 00:00:00 | |
| AA1-15 | 2026-09-03 13:22:53 | 53.72722 | 15.17969 | 100° | 51km/h | 9747m | -3.7m/s | -48.4°C | 69.3% | 282.3hPa | 2.6V | 07:39:49 | 03:03:27 | 00:00:00 | |
| AA1-15 | 2026-09-03 13:22:42 | 53.72747 | 15.17685 | 102° | 69km/h | 9785m | -3.5m/s | -48.8°C | 68.5% | 280.7hPa | 2.5V | 07:39:49 | 03:03:16 | 00:00:00 | |
| DB0DAN | 2026-09-03 13:22:40 | 53.72755 | 15.17627 | 104° | 68km/h | 9792m | -3.3m/s | -48.9°C | 61.3% | 280.34hPa | 2.6V | 00:00:00 | 00:00:00 | 00:00:00 | |
| AA1-15 | 2026-09-03 13:22:32 | 53.72803 | 15.17400 | 114° | 69km/h | 9819m | -3.5m/s | -49.1°C | 68.6% | 279.2hPa | 2.6V | 07:39:49 | 03:03:06 | 00:00:00 | |
| SP3WXH-11 | 2026-09-03 13:22:30 | 53.72818 | 15.17347 | 116° | 68km/h | 9826m | -3.4m/s | -49.1°C | 62.4% | 278.9hPa | 2.6V | 00:00:00 | 00:00:00 | 00:00:00 | |
| EDDB2-11 | 2026-09-03 13:22:28 | 53.72834 | 15.17296 | 117° | 66km/h | 9833m | -3.5m/s | -49.1°C | 62.0% | 278.6hPa | 2.6V | 00:00:00 | 00:00:00 | 00:00:00 | |
| DB0DAN | 2026-09-03 13:22:25 | 53.72857 | 15.17223 | 120° | 60km/h | 9843m | -3.4m/s | -49.3°C | 62.6% | 278.14hPa | 2.6V | 00:00:00 | 00:00:00 | 00:00:00 | |
| AA1-15 | 2026-09-03 13:22:22 | 53.72888 | 15.17135 | 121° | 57km/h | 9857m | -3.3m/s | -49.4°C | 69.7% | 277.5hPa | 2.5V | 07:39:49 | 03:02:55 | 00:00:00 | |
| AA1-15 | 2026-09-03 13:22:11 | 53.72935 | 15.16938 | 101° | 53km/h | 9890m | -3.5m/s | -49.8°C | 69.8% | 276.2hPa | 2.6V | 07:39:49 | 03:02:45 | 00:00:00 | |
| DB0DAN | 2026-09-03 13:22:10 | 53.72937 | 15.16916 | 100° | 51km/h | 9894m | -3.4m/s | -49.7°C | 63.7% | 276hPa | 2.5V | 00:00:00 | 00:00:00 | 00:00:00 | |
| AA1-15 | 2026-09-03 13:22:00 | 53.72971 | 15.16653 | 105° | 69km/h | 9927m | -3.6m/s | -50.2°C | 70.6% | 274.6hPa | 2.5V | 07:40:40 | 03:02:34 | 00:00:00 | |
| SP3WXH-11 | 2026-09-03 13:21:59 | 53.72976 | 15.16624 | 106° | 69km/h | 9930m | -3.6m/s | -50.2°C | 63.1% | 274.4hPa | 2.5V | 00:00:00 | 00:00:00 | 00:00:00 | |
| EDDB2-11 | 2026-09-03 13:21:57 | 53.72987 | 15.16566 | 108° | 71km/h | 9937m | -3.6m/s | -50.2°C | 61.7% | 274.1hPa | 2.5V | 00:00:00 | 00:00:00 | 00:00:00 | |
| DB0DAN | 2026-09-03 13:21:55 | 53.72999 | 15.16509 | 111° | 69km/h | 9944m | -4m/s | -50.2°C | 61.7% | 273.75hPa | 2.5V | 00:00:00 | 00:00:00 | 00:00:00 | |
| AA1-15 | 2026-09-03 13:21:50 | 53.73037 | 15.16371 | 119° | 68km/h | 9961m | -3.5m/s | -50.5°C | 70.2% | 273hPa | 2.6V | 07:40:40 | 03:02:24 | 00:00:00 | |
| AA1-15 | 2026-09-03 13:21:40 | 53.73104 | 15.16137 | 107° | 58km/h | 9995m | -3.5m/s | -50.9°C | 67.5% | 271.6hPa | 2.5V | 07:40:40 | 03:02:14 | 00:00:00 | |
| DB0DAN | 2026-09-03 13:21:40 | 53.73104 | 15.16137 | 107° | 55km/h | 9995m | -3.5m/s | -50.9°C | 63.5% | 271.64hPa | 2.5V | 00:00:00 | 00:00:00 | 00:00:00 | |
| AA1-15 | 2026-09-03 13:21:30 | 53.73140 | 15.15883 | 100° | 66km/h | 10028m | -3.6m/s | -50.9°C | 60.4% | 270.2hPa | 2.6V | 07:40:40 | 03:02:04 | 00:00:00 | |
| AA1-15 | 2026-09-03 13:21:19 | 53.73174 | 15.15549 | 101° | 77km/h | 10068m | -3.3m/s | -50.7°C | 47.5% | 268.7hPa | 2.5V | 07:41:31 | 03:01:53 | 00:00:00 | |
| DB0DAN | 2026-09-03 13:21:10 | 53.73202 | 15.15251 | 98° | 80km/h | 10097m | -4m/s | -50.5°C | 32.6% | 267.4hPa | 2.6V | 00:00:00 | 00:00:00 | 00:00:00 | |
| AA1-15 | 2026-09-03 13:21:08 | 53.73209 | 15.15181 | 99° | 88km/h | 10105m | -3.7m/s | -50.5°C | 37.4% | 267.2hPa | 2.6V | 07:41:31 | 03:01:42 | 00:00:00 | |
| AA1-15 | 2026-09-03 13:20:58 | 53.73259 | 15.14798 | 105° | 97km/h | 10139m | -3.8m/s | -50.5°C | 35.8% | 265.7hPa | 2.5V | 07:41:31 | 03:01:32 | 00:00:00 | |
| AA1-15 | 2026-09-03 13:20:47 | 53.73353 | 15.14382 | 117° | 88km/h | 10175m | -3.5m/s | -50.7°C | 35.6% | 264.2hPa | 2.6V | 07:41:31 | 03:01:21 | 00:00:00 | |
| DB0DAN | 2026-09-03 13:20:40 | 53.73416 | 15.14166 | 113° | 68km/h | 10201m | -3.4m/s | -50.7°C | 29.3% | 263.26hPa | 2.6V | 00:00:00 | 00:00:00 | 00:00:00 | |
| AA1-15 | 2026-09-03 13:20:37 | 53.73435 | 15.14079 | 108° | 71km/h | 10211m | -3.2m/s | -50.7°C | 35.6% | 262.8hPa | 2.5V | 07:41:31 | 03:01:11 | 00:00:00 | |
| AA1-15 | 2026-09-03 13:20:27 | 53.73481 | 15.13744 | 103° | 91km/h | 10243m | -3.2m/s | -50.9°C | 36% | 261.6hPa | 2.6V | 07:42:22 | 03:01:01 | 00:00:00 | |
| KRY50SP-1 | 2026-09-03 13:20:26 | 53.73480 | 15.13744 | 104° | 91km/h | 10243m | -3.2m/s | -50.9°C | 29.5% | 261.6hPa | 2.5V | 07:42:00 | 00:00:00 | 00:00:00 | |
| DB0DAN | 2026-09-03 13:20:25 | 53.73492 | 15.13668 | 105° | 88km/h | 10249m | -2.9m/s | -51°C | 29.5% | 261.28hPa | 2.5V | 00:00:00 | 00:00:00 | 00:00:00 | |
| AA1-15 | 2026-09-03 13:20:16 | 53.73564 | 15.13328 | 115° | 95km/h | 10277m | -3.5m/s | -51.2°C | 36.8% | 260.1hPa | 2.5V | 07:42:22 | 03:00:50 | 00:00:00 | |
| KRY50SP-1 | 2026-09-03 13:20:14 | 53.73574 | 15.13292 | 117° | 91km/h | 10280m | -3.5m/s | -51.3°C | 30.6% | 260.0hPa | 2.5V | 07:42:00 | 00:00:00 | 00:00:00 | |
| DB0DAN | 2026-09-03 13:20:10 | 53.73626 | 15.13125 | 118° | 82km/h | 10298m | -3.6m/s | -51.4°C | 30.3% | 259.28hPa | 2.5V | 00:00:00 | 00:00:00 | 00:00:00 | |
| AA1-15 | 2026-09-03 13:20:05 | 53.73678 | 15.12973 | 121° | 77km/h | 10314m | -3.3m/s | -51.6°C | 36.8% | 258.7hPa | 2.6V | 07:42:22 | 03:00:39 | 00:00:00 | |
| KRY50SP-1 | 2026-09-03 13:19:57 | 53.73742 | 15.12752 | 109° | 73km/h | 10341m | -3.5m/s | -51.6°C | 30.9% | 257.6hPa | 2.5V | 07:42:00 | 00:00:00 | 00:00:00 | |
| DB0DAN | 2026-09-03 13:19:55 | 53.73754 | 15.12690 | 108° | 73km/h | 10347m | -3.1m/s | -51.7°C | 30.9% | 257.37hPa | 2.5V | 00:00:00 | 00:00:00 | 00:00:00 | |
| AA1-15 | 2026-09-03 13:19:55 | 53.73754 | 15.12690 | 108° | 77km/h | 10347m | -3.1m/s | -51.7°C | 36.8% | 257.4hPa | 2.5V | 07:42:22 | 03:00:29 | 00:00:00 | |
| AA1-15 | 2026-09-03 13:19:44 | 53.73823 | 15.12302 | 110° | 97km/h | 10381m | -3.3m/s | -51.9°C | 36.7% | 255.9hPa | 2.6V | 07:42:22 | 03:00:18 | 00:00:00 | |
| DB0DAN | 2026-09-03 13:19:40 | 53.73862 | 15.12155 | 117° | 91km/h | 10393m | -3.5m/s | -52°C | 30.1% | 255.39hPa | 2.5V | 00:00:00 | 00:00:00 | 00:00:00 | |
| AA1-15 | 2026-09-03 13:19:34 | 53.73933 | 15.11958 | 125° | 84km/h | 10413m | -3.2m/s | -52°C | 36.8% | 254.6hPa | 2.5V | 07:43:13 | 03:00:08 | 00:00:00 | |
| MECKS9 | 2026-09-03 13:19:33 | 53.73932 | 15.11958 | 125° | 84km/h | 10413m | -3.2m/s | -52.0°C | 29.8% | 254.6hPa | 2.6V | 07:43:00 | 00:00:00 | 00:00:00 | |
| AM1SDL-15 | 2026-09-03 13:19:28 | 53.73994 | 15.11791 | 118° | 73km/h | 10433m | -3.8m/s | -52.1°C | 35.1% | 253.8hPa | 2.6V | 00:00:00 | 03:00:02 | 00:00:00 | |
| DB0DAN | 2026-09-03 13:19:25 | 53.74018 | 15.11711 | 114° | 66km/h | 10443m | -3.6m/s | -52.2°C | 30.6% | 253.48hPa | 2.6V | 00:00:00 | 00:00:00 | 00:00:00 | |
| AA1-15 | 2026-09-03 13:19:23 | 53.74033 | 15.11656 | 112° | 73km/h | 10449m | -3.2m/s | -52.3°C | 37.5% | 253.3hPa | 2.6V | 07:43:13 | 02:59:57 | 00:00:00 | |
| AA1-15 | 2026-09-03 13:19:12 | 53.74099 | 15.11305 | 107° | 86km/h | 10487m | -3.8m/s | -52.6°C | 38.6% | 251.8hPa | 2.5V | 07:43:13 | 02:59:46 | 00:00:00 | |
| DB0DAN | 2026-09-03 13:19:10 | 53.74112 | 15.11236 | 108° | 80km/h | 10495m | -3.1m/s | -52.6°C | 32% | 251.59hPa | 2.6V | 00:00:00 | 00:00:00 | 00:00:00 | |
| AA1-15 | 2026-09-03 13:19:01 | 53.74186 | 15.10912 | 116° | 93km/h | 10523m | -3.3m/s | -52.9°C | 39.4% | 250.4hPa | 2.5V | 07:43:13 | 02:59:35 | 00:00:00 | |
| KRY50SP-1 | 2026-09-03 13:19:00 | 53.74186 | 15.10912 | 117° | 93km/h | 10523m | -3.3m/s | -52.9°C | 32.2% | 250.4hPa | 2.6V | 00:00:00 | 00:00:00 | 00:00:00 | |
| DB0DAN | 2026-09-03 13:18:55 | 53.74254 | 15.10708 | 123° | 84km/h | 10543m | -3.5m/s | -53°C | 32.4% | 249.61hPa | 2.6V | 00:00:00 | 00:00:00 | 00:00:00 | |
| SP3WXH-11 | 2026-09-03 13:18:53 | 53.74278 | 15.10645 | 122° | 88km/h | 10550m | -3.7m/s | -53.1°C | 32.5% | 249.3hPa | 2.5V | 00:00:00 | 00:00:00 | 00:00:00 | |
| EDDB2-11 | 2026-09-03 13:18:51 | 53.74315 | 15.10558 | 124° | 78km/h | 10561m | -3.8m/s | -53.2°C | 33.0% | 248.9hPa | 2.5V | 00:00:00 | 00:00:00 | 00:00:00 | |
| AA1-15 | 2026-09-03 13:18:51 | 53.74315 | 15.10558 | 125° | 80km/h | 10561m | -3.8m/s | -53.2°C | 40% | 248.9hPa | 2.6V | 07:43:13 | 02:59:24 | 00:00:00 | |
| SONDE2-11 | 2026-09-03 13:18:45 | 53.74377 | 15.10400 | 120° | 66km/h | 10582m | -3.4m/s | -53.4°C | 33.3% | 248.1hPa | 2.5V | 00:00:00 | 00:00:00 | 00:00:00 | |
| KRY50SP-1 | 2026-09-03 13:18:42 | 53.74385 | 15.10375 | 119° | 66km/h | 10585m | -4.2m/s | -53.4°C | 33.5% | 248.0hPa | 2.5V | 07:44:00 | 00:00:00 | 00:00:00 | |
| DB0DAN | 2026-09-03 13:18:40 | 53.74408 | 15.10297 | 114° | 62km/h | 10597m | -4m/s | -53.5°C | 33.5% | 247.56hPa | 2.5V | 00:00:00 | 00:00:00 | 00:00:00 | |
| AA1-15 | 2026-09-03 13:18:39 | 53.74415 | 15.10271 | 111° | 69km/h | 10601m | -4m/s | -53.5°C | 40.5% | 247.5hPa | 2.5V | 07:44:04 | 02:59:13 | 00:00:00 | |
| AA1-15 | 2026-09-03 13:18:29 | 53.74476 | 15.09963 | 110° | 86km/h | 10635m | -3.2m/s | -53.9°C | 40.8% | 246.2hPa | 2.6V | 07:44:04 | 02:59:03 | 00:00:00 | |
| AA1-15 | 2026-09-03 13:18:18 | 53.74573 | 15.09564 | 118° | 93km/h | 10673m | -4.1m/s | -54.1°C | 40% | 244.6hPa | 2.5V | 07:44:04 | 02:58:52 | 00:00:00 | |
| AM1SDL-15 | 2026-09-03 13:18:16 | 53.74596 | 15.09497 | 123° | 77km/h | 10681m | -3.0m/s | -54.1°C | 39.2% | 244.3hPa | 2.5V | 00:00:00 | 02:58:50 | 00:00:00 | |
| KRY50SP-1 | 2026-09-03 13:18:13 | 53.74620 | 15.09434 | 125° | 88km/h | 10687m | -3.5m/s | -54.2°C | 33.6% | 244.1hPa | 2.5V | 07:44:00 | 00:00:00 | 00:00:00 | |
| DB0DAN | 2026-09-03 13:18:10 | 53.74668 | 15.09314 | 125° | 77km/h | 10701m | -3.4m/s | -54.4°C | 33.4% | 243.55hPa | 2.5V | 00:00:00 | 00:00:00 | 00:00:00 | |
| AA1-15 | 2026-09-03 13:18:07 | 53.74701 | 15.09231 | 122° | 77km/h | 10712m | -3.7m/s | -54.4°C | 38.9% | 243.2hPa | 2.6V | 07:44:04 | 02:58:41 | 00:00:00 | |
| AA1-15 | 2026-09-03 13:17:56 | 53.74796 | 15.08931 | 111° | 69km/h | 10754m | -3.7m/s | -54.2°C | 37.2% | 241.7hPa | 2.5V | 07:44:04 | 02:58:30 | 00:00:00 | |
| DB0DAN | 2026-09-03 13:17:55 | 53.74802 | 15.08903 | 110° | 66km/h | 10757m | -3.9m/s | -54.2°C | 31% | 241.54hPa | 2.5V | 00:00:00 | 00:00:00 | 00:00:00 | |
| AA1-15 | 2026-09-03 13:17:46 | 53.74853 | 15.08633 | 105° | 82km/h | 10791m | -3.6m/s | -54.3°C | 37.2% | 240.3hPa | 2.6V | 07:44:55 | 02:58:20 | 00:00:00 | |
| KRY50SP-1 | 2026-09-03 13:17:45 | 53.74853 | 15.08633 | 106° | 82km/h | 10791m | -3.6m/s | -54.3°C | 30.8% | 240.3hPa | 2.6V | 00:00:00 | 00:00:00 | 00:00:00 | |
| SONDE2-11 | 2026-09-03 13:17:43 | 53.74875 | 15.08492 | 106° | 86km/h | 10807m | -3.9m/s | -54.4°C | 30.8% | 239.7hPa | 2.6V | 00:00:00 | 00:00:00 | 00:00:00 | |
| DB0DAN | 2026-09-03 13:17:40 | 53.74889 | 15.08419 | 109° | 89km/h | 10814m | -3.2m/s | -54.5°C | 30.4% | 239.43hPa | 2.6V | 00:00:00 | 00:00:00 | 00:00:00 | |
| AA1-15 | 2026-09-03 13:17:36 | 53.74923 | 15.08266 | 113° | 99km/h | 10829m | -4.1m/s | -54.5°C | 36.8% | 238.9hPa | 2.5V | 07:44:55 | 02:58:10 | 00:00:00 | |
| KRY50SP-1 | 2026-09-03 13:17:33 | 53.74943 | 15.08190 | 116° | 97km/h | 10837m | -4.0m/s | -54.5°C | 29.5% | 238.6hPa | 2.5V | 00:00:00 | 00:00:00 | 00:00:00 | |
| KRY50SP-1 | 2026-09-03 13:17:27 | 53.75012 | 15.07981 | 123° | 86km/h | 10861m | -3.6m/s | -54.6°C | 30.5% | 237.8hPa | 2.5V | 00:00:00 | 00:00:00 | 00:00:00 | |
| DB0DAN | 2026-09-03 13:17:25 | 53.75043 | 15.07890 | 119° | 73km/h | 10872m | -3.7m/s | -54.7°C | 30.7% | 237.37hPa | 2.5V | 00:00:00 | 00:00:00 | 00:00:00 | |
| AA1-15 | 2026-09-03 13:17:25 | 53.75043 | 15.07890 | 119° | 77km/h | 10872m | -3.7m/s | -54.7°C | 36.8% | 237.4hPa | 2.5V | 07:44:55 | 02:57:59 | 00:00:00 | |
| AA1-15 | 2026-09-03 13:17:15 | 53.75117 | 15.07591 | 108° | 80km/h | 10909m | -3.7m/s | -54.7°C | 36.8% | 236.1hPa | 2.6V | 07:44:55 | 02:57:49 | 00:00:00 | |
| AM1SDL-15 | 2026-09-03 13:17:14 | 53.75123 | 15.07558 | 108° | 88km/h | 10913m | -3.5m/s | -54.7°C | 36.3% | 236.0hPa | 2.6V | 00:00:00 | 02:57:48 | 00:00:00 | |
| MECKS9 | 2026-09-03 13:17:12 | 53.75129 | 15.07524 | 108° | 84km/h | 10916m | -3.5m/s | -54.8°C | 30.5% | 235.8hPa | 2.6V | 07:44:00 | 00:00:00 | 00:00:00 | |
| KRY50SP-1 | 2026-09-03 13:17:11 | 53.75136 | 15.07490 | 108° | 84km/h | 10920m | -3.6m/s | -54.8°C | 30.6% | 235.7hPa | 2.6V | 00:00:00 | 00:00:00 | 00:00:00 | |
| DB0DAN | 2026-09-03 13:17:10 | 53.75148 | 15.07421 | 107° | 82km/h | 10927m | -3.8m/s | -54.8°C | 30.6% | 235.37hPa | 2.6V | 00:00:00 | 00:00:00 | 00:00:00 | |
| AA1-15 | 2026-09-03 13:17:04 | 53.75188 | 15.07203 | 108° | 91km/h | 10948m | -2.9m/s | -54.9°C | 37% | 234.6hPa | 2.5V | 07:45:46 | 02:57:38 | 00:00:00 | |
| AM1SDL-15 | 2026-09-03 13:17:02 | 53.75202 | 15.07129 | 108° | 95km/h | 10955m | -3.5m/s | -54.8°C | 36.0% | 234.3hPa | 2.6V | 00:00:00 | 02:57:36 | 00:00:00 | |
| MECKS9 | 2026-09-03 13:17:01 | 53.75202 | 15.07129 | 109° | 91km/h | 10955m | -3.5m/s | -54.9°C | 30.5% | 234.4hPa | 2.6V | 00:00:00 | 00:00:00 | 00:00:00 | |
| KRY50SP-1 | 2026-09-03 13:16:59 | 53.75216 | 15.07053 | 108° | 95km/h | 10962m | -3.5m/s | -54.9°C | 30.7% | 234.1hPa | 2.6V | 07:45:00 | 00:00:00 | 00:00:00 | |
| DB0DAN | 2026-09-03 13:16:55 | 53.75251 | 15.06860 | 107° | 93km/h | 10980m | -3.8m/s | -55°C | 30.7% | 233.47hPa | 2.6V | 00:00:00 | 00:00:00 | 00:00:00 | |
| AA1-15 | 2026-09-03 13:16:54 | 53.75259 | 15.06821 | 108° | 95km/h | 10984m | -3.4m/s | -55.1°C | 37.2% | 233.3hPa | 2.6V | 07:45:46 | 02:57:28 | 00:00:00 | |
| SP3WXH-11 | 2026-09-03 13:16:49 | 53.75297 | 15.06625 | 108° | 100km/h | 11001m | -3.4m/s | -55.2°C | 30.8% | 232.7hPa | 2.5V | 00:00:00 | 00:00:00 | 00:00:00 | |
| EDDB2-11 | 2026-09-03 13:16:46 | 53.75322 | 15.06502 | 109° | 102km/h | 11012m | -3.5m/s | -55.2°C | 30.8% | 232.3hPa | 2.5V | 00:00:00 | 00:00:00 | 00:00:00 | |
| AA1-15 | 2026-09-03 13:16:44 | 53.75349 | 15.06377 | 111° | 104km/h | 11022m | -3.4m/s | -55.3°C | 37.4% | 231.9hPa | 2.5V | 07:45:46 | 02:57:17 | 00:00:00 | |
| KRY50SP-1 | 2026-09-03 13:16:43 | 53.75340 | 15.06419 | 111° | 104km/h | 11019m | -3.4m/s | -55.3°C | 30.9% | 232.0hPa | 2.6V | 07:45:00 | 00:00:00 | 00:00:00 | |
| DB0DAN | 2026-09-03 13:16:40 | 53.75377 | 15.06253 | 112° | 99km/h | 11033m | -3.5m/s | -55.4°C | 31.1% | 231.54hPa | 2.6V | 00:00:00 | 00:00:00 | 00:00:00 | |
| AA1-15 | 2026-09-03 13:16:33 | 53.75447 | 15.05963 | 114° | 106km/h | 11059m | -3.1m/s | -55.5°C | 37.5% | 230.6hPa | 2.6V | 07:45:46 | 02:57:07 | 00:00:00 | |
| KRY50SP-1 | 2026-09-03 13:16:29 | 53.75480 | 15.05838 | 116° | 110km/h | 11069m | -3.5m/s | -55.5°C | 30.9% | 230.2hPa | 2.6V | 07:45:00 | 00:00:00 | 00:00:00 | |
| MECKS9 | 2026-09-03 13:16:28 | 53.75492 | 15.05796 | 117° | 106km/h | 11073m | -3.3m/s | -55.6°C | 30.9% | 230.1hPa | 2.6V | 00:00:00 | 00:00:00 | 00:00:00 | |
| DB0DAN | 2026-09-03 13:16:25 | 53.75542 | 15.05631 | 119° | 104km/h | 11087m | -3.4m/s | -55.7°C | 31.5% | 229.54hPa | 2.6V | 00:00:00 | 00:00:00 | 00:00:00 | |
| AA1-15 | 2026-09-03 13:16:22 | 53.75580 | 15.05506 | 118° | 110km/h | 11098m | -3.4m/s | -55.8°C | 37.7% | 229.2hPa | 2.5V | 07:45:46 | 02:56:56 | 00:00:00 | |
| AA1-15 | 2026-09-03 13:16:12 | 53.75718 | 15.05098 | 124° | 108km/h | 11133m | -3.2m/s | -56°C | 37.4% | 227.9hPa | 2.6V | 07:46:37 | 02:56:46 | 00:00:00 | |
| DB0DAN | 2026-09-03 13:16:10 | 53.75749 | 15.05022 | 125° | 100km/h | 11140m | -3.7m/s | -56°C | 30.2% | 227.58hPa | 2.5V | 00:00:00 | 00:00:00 | 00:00:00 | |
| AA1-15 | 2026-09-03 13:16:02 | 53.75867 | 15.04749 | 125° | 91km/h | 11168m | -3.2m/s | -56.1°C | 36.7% | 226.6hPa | 2.5V | 07:46:37 | 02:56:36 | 00:00:00 | |
| AA1-15 | 2026-09-03 13:15:51 | 53.75988 | 15.04358 | 115° | 104km/h | 11204m | -3.5m/s | -56.2°C | 36.2% | 225.3hPa | 2.5V | 07:46:37 | 02:56:25 | 00:00:00 | |
| SP3WXH-11 | 2026-09-03 13:15:47 | 53.76036 | 15.04194 | 118° | 110km/h | 11217m | -3.1m/s | -56.3°C | 29.6% | 224.8hPa | 2.6V | 00:00:00 | 00:00:00 | 00:00:00 | |
| EDDB2-11 | 2026-09-03 13:15:44 | 53.76078 | 15.04069 | 119° | 113km/h | 11227m | -3.6m/s | -56.4°C | 29.5% | 224.4hPa | 2.6V | 00:00:00 | 00:00:00 | 00:00:00 | |
| AA1-15 | 2026-09-03 13:15:41 | 53.76121 | 15.03944 | 120° | 115km/h | 11238m | -3.7m/s | -56.4°C | 35.2% | 224hPa | 2.6V | 07:46:37 | 02:56:15 | 00:00:00 | |
| DB0DAN | 2026-09-03 13:15:40 | 53.76136 | 15.03902 | 122° | 108km/h | 11242m | -3.6m/s | -56.4°C | 29.2% | 223.93hPa | 2.5V | 00:00:00 | 00:00:00 | 00:00:00 | |
| AA1-15 | 2026-09-03 13:15:31 | 53.76280 | 15.03531 | 124° | 117km/h | 11274m | -3.8m/s | -56.4°C | 33.2% | 222.8hPa | 2.5V | 07:46:37 | 02:56:05 | 00:00:00 | |
| AA1-15 | 2026-09-03 13:15:21 | 53.76476 | 15.03093 | 130° | 117km/h | 11315m | -3.7m/s | -56.7°C | 28.7% | 221.4hPa | 2.5V | 07:47:28 | 02:55:54 | 00:00:00 | |
| AA1-15 | 2026-09-03 13:15:10 | 53.76685 | 15.02691 | 131° | 110km/h | 11356m | -3.6m/s | -56.3°C | 20.8% | 220.1hPa | 2.5V | 07:47:28 | 02:55:43 | 00:00:00 | |
| AA1-15 | 2026-09-03 13:14:58 | 53.76885 | 15.02327 | 133° | 104km/h | 11396m | -3.8m/s | -55.5°C | 15.7% | 218.7hPa | 2.6V | 07:47:28 | 02:55:32 | 00:00:00 | |
| DB0DAN | 2026-09-03 13:14:55 | 53.76937 | 15.02233 | 133° | 93km/h | 11406m | -3.3m/s | -55.5°C | 11.4% | 218.23hPa | 2.5V | 00:00:00 | 00:00:00 | 00:00:00 | |
| AA1-15 | 2026-09-03 13:14:47 | 53.77054 | 15.01982 | 125° | 91km/h | 11436m | -3.6m/s | -55.1°C | 12.7% | 217.3hPa | 2.6V | 07:47:28 | 02:55:21 | 00:00:00 | |
| SP3WXH-11 | 2026-09-03 13:14:45 | 53.77081 | 15.01917 | 123° | 93km/h | 11442m | -3.6m/s | -55.1°C | 10.0% | 217.0hPa | 2.6V | 00:00:00 | 00:00:00 | 00:00:00 | |
| EDDB2-11 | 2026-09-03 13:14:42 | 53.77120 | 15.01811 | 120° | 102km/h | 11453m | -3.9m/s | -55.0°C | 9.8% | 216.5hPa | 2.6V | 00:00:00 | 00:00:00 | 00:00:00 | |
| DB0DAN | 2026-09-03 13:14:40 | 53.77147 | 15.01734 | 121° | 100km/h | 11460m | -3.5m/s | -55°C | 9.6% | 216.36hPa | 2.6V | 00:00:00 | 00:00:00 | 00:00:00 | |
| AA1-15 | 2026-09-03 13:14:37 | 53.77189 | 15.01614 | 121° | 110km/h | 11471m | -3.6m/s | -54.8°C | 11.4% | 215.9hPa | 2.5V | 07:47:28 | 02:55:11 | 00:00:00 | |
| AA1-15 | 2026-09-03 13:14:27 | 53.77341 | 15.01196 | 127° | 119km/h | 11511m | -3.8m/s | -53.9°C | 10.7% | 214.6hPa | 2.5V | 07:48:19 | 02:55:01 | 00:00:00 | |
| DB0DAN | 2026-09-03 13:14:25 | 53.77378 | 15.01119 | 131° | 110km/h | 11518m | -3.8m/s | -53.8°C | 8.3% | 214.38hPa | 2.5V | 00:00:00 | 00:00:00 | 00:00:00 | |
| AA1-15 | 2026-09-03 13:14:16 | 53.77539 | 15.00808 | 131° | 99km/h | 11553m | -3.7m/s | -53.5°C | 10.6% | 213.2hPa | 2.5V | 07:48:19 | 02:54:50 | 00:00:00 | |
| AA1-15 | 2026-09-03 13:14:05 | 53.77720 | 15.00459 | 133° | 100km/h | 11599m | -4m/s | -53.2°C | 9.9% | 211.8hPa | 2.6V | 07:48:19 | 02:54:39 | 00:00:00 | |
| MECKS9 | 2026-09-03 13:14:04 | 53.77719 | 15.00459 | 134° | 100km/h | 11600m | -4.0m/s | -53.2°C | 7.6% | 211.8hPa | 2.6V | 00:00:00 | 00:00:00 | 00:00:00 | |
| AM1SDL-15 | 2026-09-03 13:14:02 | 53.77771 | 15.00365 | 134° | 97km/h | 11611m | -3.3m/s | -53.1°C | 10.5% | 211.3hPa | 2.6V | 00:00:00 | 02:54:36 | 00:00:00 | |
| DB0DAN | 2026-09-03 13:13:55 | 53.77894 | 15.00158 | 136° | 93km/h | 11635m | -3.8m/s | -52.9°C | 7.1% | 210.46hPa | 2.6V | 00:00:00 | 00:00:00 | 00:00:00 | |
| AA1-15 | 2026-09-03 13:13:55 | 53.77894 | 15.00158 | 136° | 97km/h | 11635m | -3.8m/s | -52.9°C | 9.4% | 210.5hPa | 2.6V | 07:48:19 | 02:54:29 | 00:00:00 | |
| AA1-15 | 2026-09-03 13:13:44 | 53.78081 | 14.99848 | 134° | 84km/h | 11674m | -3.8m/s | -52.8°C | 9% | 209.1hPa | 2.5V | 07:48:19 | 02:54:18 | 00:00:00 | |
| AA1-15 | 2026-09-03 13:13:34 | 53.78217 | 14.99585 | 128° | 78km/h | 11715m | -4.6m/s | -52.9°C | 8.8% | 207.7hPa | 2.5V | 07:49:10 | 02:54:08 | 00:00:00 | |
| AA1-15 | 2026-09-03 13:13:23 | 53.78338 | 14.99290 | 120° | 78km/h | 11763m | -4.1m/s | -53.3°C | 8.6% | 206.2hPa | 2.5V | 07:49:10 | 02:53:57 | 00:00:00 | |
| AA1-15 | 2026-09-03 13:13:12 | 53.78436 | 14.98971 | 113° | 84km/h | 11810m | -4.7m/s | -53.4°C | 8.1% | 204.7hPa | 2.6V | 07:49:10 | 02:53:46 | 00:00:00 | |
| AA1-15 | 2026-09-03 13:13:02 | 53.78542 | 14.98620 | 125° | 95km/h | 11853m | -3.5m/s | -53°C | 7.6% | 203.5hPa | 2.6V | 07:49:10 | 02:53:36 | 00:00:00 | |
| AA1-15 | 2026-09-03 13:12:52 | 53.78677 | 14.98326 | 128° | 78km/h | 11894m | -3.9m/s | -52.6°C | 7.2% | 202.2hPa | 2.5V | 07:49:10 | 02:53:26 | 00:00:00 | |
| AA1-15 | 2026-09-03 13:12:42 | 53.78775 | 14.98070 | 116° | 73km/h | 11933m | -4m/s | -52.5°C | 6.9% | 201hPa | 2.5V | 07:50:01 | 02:53:16 | 00:00:00 | |
| DB0DAN | 2026-09-03 13:12:40 | 53.78792 | 14.98015 | 115° | 71km/h | 11940m | -3.5m/s | -52.5°C | 5.4% | 200.67hPa | 2.5V | 00:00:00 | 00:00:00 | 00:00:00 | |
| AA1-15 | 2026-09-03 13:12:31 | 53.78860 | 14.97717 | 110° | 88km/h | 11976m | -3.8m/s | -52.5°C | 6.6% | 199.6hPa | 2.5V | 07:50:01 | 02:53:05 | 00:00:00 | |
| AA1-15 | 2026-09-03 13:12:21 | 53.78940 | 14.97352 | 113° | 95km/h | 12018m | -3.8m/s | -52.7°C | 6.3% | 198.3hPa | 2.6V | 07:50:01 | 02:52:55 | 00:00:00 | |
| AA1-15 | 2026-09-03 13:12:10 | 53.79053 | 14.96929 | 118° | 102km/h | 12065m | -3.9m/s | -52.2°C | 5.9% | 197hPa | 2.6V | 07:50:01 | 02:52:44 | 00:00:00 | |
| DB0DAN | 2026-09-03 13:12:10 | 53.79053 | 14.96929 | 118° | 97km/h | 12065m | -3.9m/s | -52.2°C | 4.8% | 196.98hPa | 2.6V | 00:00:00 | 00:00:00 | 00:00:00 | |
| AA1-15 | 2026-09-03 13:11:59 | 53.79198 | 14.96552 | 125° | 84km/h | 12108m | -3.8m/s | -51.8°C | 5.7% | 195.7hPa | 2.6V | 07:50:01 | 02:52:33 | 00:00:00 | |
| AA1-15 | 2026-09-03 13:11:49 | 53.79293 | 14.96251 | 112° | 86km/h | 12145m | -3.8m/s | -51.6°C | 5.6% | 194.6hPa | 2.6V | 07:50:52 | 02:52:23 | 00:00:00 | |
| AA1-15 | 2026-09-03 13:11:39 | 53.79393 | 14.95835 | 114° | 104km/h | 12187m | -3.9m/s | -51°C | 5.5% | 193.3hPa | 2.5V | 07:50:52 | 02:52:12 | 00:00:00 | |
| AA1-15 | 2026-09-03 13:11:28 | 53.79523 | 14.95374 | 118° | 113km/h | 12231m | -4m/s | -50.9°C | 5.1% | 192hPa | 2.5V | 07:50:52 | 02:52:01 | 00:00:00 | |
| AA1-15 | 2026-09-03 13:11:18 | 53.79656 | 14.95043 | 125° | 91km/h | 12264m | -3.7m/s | -50.6°C | 5.3% | 191.1hPa | 2.5V | 07:50:52 | 02:51:52 | 00:00:00 | |
| DL1XH-west | 2026-09-03 13:11:11 | 53.79732 | 14.94812 | 113° | 91km/h | 12291m | -3.6m/s | -50.4°C | 5.2% | 190.2hPa | 2.5V | 07:52:34 | 02:51:45 | 00:00:00 | |
| AA1-15 | 2026-09-03 13:11:07 | 53.79766 | 14.94660 | 109° | 100km/h | 12306m | -3.9m/s | -50.6°C | 5.2% | 189.8hPa | 2.5V | 07:51:43 | 02:51:41 | 00:00:00 | |
| AA1-15 | 2026-09-03 13:10:56 | 53.79870 | 14.94178 | 111° | 115km/h | 12349m | -3.9m/s | -50.8°C | 5.3% | 188.6hPa | 2.5V | 07:51:43 | 02:51:30 | 00:00:00 | |
| DL1XH-west | 2026-09-03 13:10:47 | 53.79980 | 14.93757 | 119° | 120km/h | 12386m | -3.8m/s | -50.5°C | 5.2% | 187.5hPa | 2.6V | 07:52:34 | 02:51:21 | 00:00:00 | |
| AA1-15 | 2026-09-03 13:10:46 | 53.80010 | 14.93670 | 122° | 115km/h | 12393m | -3.8m/s | -50.3°C | 5.1% | 187.3hPa | 2.5V | 07:51:43 | 02:51:19 | 00:00:00 | |
| AA1-15 | 2026-09-03 13:10:36 | 53.80163 | 14.93303 | 126° | 99km/h | 12435m | -4.2m/s | -50.2°C | 5% | 186.1hPa | 2.6V | 07:51:43 | 02:51:09 | 00:00:00 | |
| DF8AY | 2026-09-03 13:10:25 | 53.80279 | 14.92971 | 113° | 91km/h | 12474m | -3.9m/s | 0°C | 0% | 184.7hPa | 2.6V | 07:51:43 | 02:50:59 | 00:00:00 | |
| AA1-15 | 2026-09-03 13:10:14 | 53.80387 | 14.92522 | 116° | 113km/h | 12518m | -3.8m/s | -49.4°C | 4.3% | 183.8hPa | 2.5V | 07:52:34 | 02:50:48 | 00:00:00 | |
| DF8AY | 2026-09-03 13:10:12 | 53.80412 | 14.92435 | 117° | 113km/h | 12525m | -3.8m/s | 0°C | 0% | 183.5hPa | 2.6V | 07:52:34 | 02:50:46 | 00:00:00 | |
| AA1-15 | 2026-09-03 13:10:04 | 53.80540 | 14.92062 | 122° | 111km/h | 12561m | -3.9m/s | -49.4°C | 4.4% | 182.6hPa | 2.5V | 07:52:34 | 02:50:37 | 00:00:00 | |
| DF8AY | 2026-09-03 13:10:01 | 53.80646 | 14.91781 | 124° | 111km/h | 12588m | -4m/s | 0°C | 0% | 0hPa | 2.6V | 07:52:34 | 02:50:30 | 00:00:00 | |
| AA1-15 | 2026-09-03 13:09:54 | 53.80677 | 14.91703 | 125° | 110km/h | 12596m | -4m/s | -49.1°C | 4.3% | 181.5hPa | 2.5V | 07:52:34 | 02:50:28 | 00:00:00 | |
| DL1XH-west | 2026-09-03 13:09:51 | 53.80725 | 14.91591 | 127° | 106km/h | 12608m | -4.1m/s | -49.1°C | 4.3% | 181.2hPa | 2.6V | 07:52:34 | 02:50:25 | 00:00:00 | |
| DF8AY | 2026-09-03 13:09:46 | 53.80806 | 14.91423 | 130° | 99km/h | 12629m | -4m/s | 0°C | 0% | 0hPa | 2.5V | 07:52:34 | 02:50:20 | 00:00:00 | |
| AA1-15 | 2026-09-03 13:09:43 | 53.80853 | 14.91329 | 131° | 95km/h | 12641m | -4.1m/s | -49.1°C | 4.3% | 180.3hPa | 2.5V | 07:52:34 | 02:50:17 | 00:00:00 | |
| DF8AY | 2026-09-03 13:09:36 | 53.80970 | 14.91099 | 128° | 82km/h | 12675m | -4.2m/s | 0°C | 0% | 0hPa | 2.5V | 07:52:34 | 02:50:09 | 00:00:00 | |
| DL1XH-west | 2026-09-03 13:09:33 | 53.80994 | 14.91044 | 124° | 80km/h | 12683m | -4.3m/s | -49.1°C | 4.3% | 179.1hPa | 2.6V | 07:52:34 | 02:50:07 | 00:00:00 | |
| AA1-15 | 2026-09-03 13:09:32 | 53.81005 | 14.91016 | 123° | 80km/h | 12687m | -4.2m/s | -49.1°C | 4.2% | 179hPa | 2.6V | 07:52:34 | 02:50:06 | 00:00:00 | |
| EDDB2-11 | 2026-09-03 13:09:32 | 53.81005 | 14.91016 | 122° | 78km/h | 12687m | -4.2m/s | -49.1°C | 3.6% | 179.0hPa | 2.5V | 00:00:00 | 00:00:00 | 00:00:00 | |
| DL1XH1-15 | 2026-09-03 13:09:27 | 53.81073 | 14.90796 | 115° | 89km/h | 12716m | -4.2m/s | -49.2°C | 5.8% | 178.3hPa | 2.5V | 07:52:35 | 02:49:59 | 00:00:00 | |
| DF8AY | 2026-09-03 13:09:23 | 53.81094 | 14.90724 | 116° | 95km/h | 12724m | -4.1m/s | 0°C | 0% | 0hPa | 2.5V | 18:12:15 | 02:49:57 | 00:00:00 | |
| AA1-15 | 2026-09-03 13:09:22 | 53.81104 | 14.90687 | 117° | 99km/h | 12728m | -3.9m/s | -49.3°C | 4.3% | 177.9hPa | 2.6V | 07:53:25 | 02:49:56 | 00:00:00 | |
| DL1XH1-15 | 2026-09-03 13:09:17 | 53.81199 | 14.90424 | 125° | 106km/h | 12755m | -3.9m/s | -49.3°C | 6% | 177.2hPa | 2.6V | 07:52:45 | 02:49:49 | 00:00:00 | |
| DF8AY | 2026-09-03 13:09:13 | 53.81230 | 14.90352 | 127° | 102km/h | 12763m | -4.1m/s | 0°C | 0% | 0hPa | 2.5V | 18:12:15 | 02:49:47 | 00:00:00 | |
| DL1XH-west | 2026-09-03 13:09:12 | 53.81245 | 14.90317 | 129° | 102km/h | 12767m | -4m/s | -49.4°C | 4.4% | 176.8hPa | 2.5V | 07:53:25 | 02:49:46 | 00:00:00 | |
| AA1-15 | 2026-09-03 13:09:11 | 53.81261 | 14.90284 | 130° | 100km/h | 12771m | -3.9m/s | -49.4°C | 4.4% | 176.8hPa | 2.6V | 07:53:25 | 02:49:45 | 00:00:00 | |
| DF8AY | 2026-09-03 13:09:03 | 53.81402 | 14.90028 | 133° | 82km/h | 12809m | -4.2m/s | 0°C | 0% | 0hPa | 2.5V | 18:12:15 | 02:49:36 | 00:00:00 | |
| DL1XH-west | 2026-09-03 13:09:01 | 53.81416 | 14.90002 | 132° | 80km/h | 12813m | -4.1m/s | -49.4°C | 4.5% | 175.6hPa | 2.5V | 07:53:25 | 02:49:35 | 00:00:00 | |
| AA1-15 | 2026-09-03 13:09:00 | 53.81429 | 14.89976 | 130° | 78km/h | 12817m | -4.1m/s | -49.4°C | 4.5% | 175.5hPa | 2.6V | 07:53:25 | 02:49:34 | 00:00:00 | |
| DF8AY | 2026-09-03 13:08:53 | 53.81511 | 14.89751 | 116° | 84km/h | 12850m | -4.1m/s | 0°C | 0% | 0hPa | 2.6V | 18:12:15 | 02:49:26 | 00:00:00 | |
| DL1XH-west | 2026-09-03 13:08:51 | 53.81520 | 14.89718 | 115° | 88km/h | 12854m | -4.2m/s | -49.5°C | 4.5% | 174.5hPa | 2.6V | 07:53:25 | 02:49:25 | 00:00:00 | |
| AA1-15 | 2026-09-03 13:08:49 | 53.81539 | 14.89648 | 115° | 93km/h | 12863m | -4.2m/s | -49.5°C | 4.4% | 174.3hPa | 2.5V | 07:53:25 | 02:49:23 | 00:00:00 | |
| DL1XH1-15 | 2026-09-03 13:08:47 | 53.81585 | 14.89498 | 119° | 102km/h | 12879m | -3.9m/s | -49.5°C | 5.9% | 173.8hPa | 2.5V | 07:53:15 | 02:49:19 | 00:00:00 | |
| DL1XH-west | 2026-09-03 13:08:41 | 53.81640 | 14.89347 | 125° | 106km/h | 12895m | -4.1m/s | -49.6°C | 4.4% | 173.4hPa | 2.6V | 07:53:25 | 02:49:15 | 00:00:00 | |
| AA1-15 | 2026-09-03 13:08:39 | 53.81671 | 14.89274 | 127° | 104km/h | 12904m | -4.2m/s | -49.6°C | 4.5% | 173.2hPa | 2.5V | 07:53:25 | 02:49:13 | 00:00:00 | |
| DL1XH-west | 2026-09-03 13:08:30 | 53.81813 | 14.88989 | 131° | 88km/h | 12940m | -3.9m/s | -49.9°C | 4.6% | 172.2hPa | 2.6V | 07:54:16 | 02:49:04 | 00:00:00 | |
| AA1-15 | 2026-09-03 13:08:28 | 53.81841 | 14.88934 | 130° | 84km/h | 12948m | -4.1m/s | -49.9°C | 4.6% | 172hPa | 2.5V | 07:54:16 | 02:49:02 | 00:00:00 | |
| DL1XH-west | 2026-09-03 13:08:19 | 53.81964 | 14.88684 | 130° | 84km/h | 12985m | -4.1m/s | -50.1°C | 4.6% | 171.1hPa | 2.6V | 07:54:16 | 02:48:53 | 00:00:00 | |
| AA1-15 | 2026-09-03 13:08:18 | 53.81977 | 14.88656 | 129° | 82km/h | 12989m | -4.1m/s | -50.1°C | 4.6% | 170.9hPa | 2.6V | 07:54:16 | 02:48:52 | 00:00:00 | |
| DL1XH-west | 2026-09-03 13:08:09 | 53.82086 | 14.88417 | 124° | 75km/h | 13026m | -4.3m/s | -49.9°C | 4.5% | 169.9hPa | 2.5V | 07:54:16 | 02:48:43 | 00:00:00 | |
| AA1-15 | 2026-09-03 13:08:08 | 53.82106 | 14.88364 | 121° | 73km/h | 13034m | -4m/s | -50°C | 4.5% | 169.8hPa | 2.6V | 07:54:16 | 02:48:41 | 00:00:00 | |
| DL1XH1-15 | 2026-09-03 13:08:02 | 53.82179 | 14.88079 | 106° | 78km/h | 13075m | -4.2m/s | -50.4°C | 6.3% | 168.7hPa | 2.5V | 07:54:03 | 02:48:31 | 00:00:00 | |
| DL1XH-west | 2026-09-03 13:07:58 | 53.82173 | 14.88111 | 107° | 77km/h | 13071m | -4.1m/s | -50.4°C | 4.6% | 168.8hPa | 2.5V | 07:54:16 | 02:48:32 | 00:00:00 | |
| AA1-15 | 2026-09-03 13:07:56 | 53.82184 | 14.88046 | 105° | 80km/h | 13080m | -4.2m/s | -50.5°C | 4.6% | 168.6hPa | 2.6V | 07:54:16 | 02:48:30 | 00:00:00 | |
| DF8AY | 2026-09-03 13:07:55 | 53.82189 | 14.88013 | 105° | 82km/h | 13084m | -4.2m/s | 0°C | 0% | 0hPa | 2.6V | 18:12:15 | 02:48:29 | 00:00:00 | |
| SONDE2-11 | 2026-09-03 13:07:53 | 53.82206 | 14.87907 | 104° | 88km/h | 13096m | -4.0m/s | -50.6°C | 3.8% | 168.1hPa | 2.5V | 00:00:00 | 00:00:00 | 00:00:00 | |
| DL1XH1-15 | 2026-09-03 13:07:52 | 53.82242 | 14.87714 | 110° | 100km/h | 13116m | -4m/s | -50.5°C | 6.4% | 167.6hPa | 2.5V | 07:54:13 | 02:48:21 | 00:00:00 | |
| DL1XH-west | 2026-09-03 13:07:47 | 53.82242 | 14.87714 | 111° | 100km/h | 13116m | -4m/s | -50.5°C | 4.6% | 167.6hPa | 2.5V | 07:54:16 | 02:48:21 | 00:00:00 | |
| AA1-15 | 2026-09-03 13:07:45 | 53.82260 | 14.87634 | 113° | 102km/h | 13124m | -4m/s | -50.6°C | 4.6% | 167.4hPa | 2.6V | 07:54:16 | 02:48:19 | 00:00:00 | |
| DL1XH1-15 | 2026-09-03 13:07:42 | 53.82352 | 14.87316 | 119° | 100km/h | 13157m | -4m/s | -50.1°C | 6.2% | 166.6hPa | 2.5V | 07:54:23 | 02:48:11 | 00:00:00 | |
| DL1XH-west | 2026-09-03 13:07:36 | 53.82365 | 14.87280 | 120° | 99km/h | 13161m | -3.8m/s | -50°C | 4.5% | 166.4hPa | 2.5V | 07:56:49 | 02:48:10 | 00:00:00 | |
| AA1-15 | 2026-09-03 13:07:34 | 53.82390 | 14.87210 | 123° | 93km/h | 13169m | -3.8m/s | -50°C | 4.5% | 166.3hPa | 2.5V | 07:55:07 | 02:48:08 | 00:00:00 | |
| DL1XH1-15 | 2026-09-03 13:07:32 | 53.82480 | 14.86989 | 125° | 89km/h | 13196m | -4.2m/s | -50°C | 6.3% | 165.5hPa | 2.6V | 07:54:33 | 02:48:01 | 00:00:00 | |
| DL1XH-west | 2026-09-03 13:07:26 | 53.82493 | 14.86957 | 126° | 91km/h | 13201m | -4.2m/s | -50°C | 4.5% | 165.5hPa | 2.6V | 07:56:49 | 02:48:00 | 00:00:00 | |
| AA1-15 | 2026-09-03 13:07:24 | 53.82520 | 14.86895 | 126° | 91km/h | 13209m | -4.2m/s | -50°C | 4.5% | 165.2hPa | 2.5V | 07:55:07 | 02:47:58 | 00:00:00 | |
| DL1XH1-15 | 2026-09-03 13:07:22 | 53.82618 | 14.86680 | 127° | 91km/h | 13239m | -4.3m/s | -49.8°C | 6.2% | 164.5hPa | 2.5V | 07:54:43 | 02:47:51 | 00:00:00 | |
| DF8AY | 2026-09-03 13:07:19 | 53.82589 | 14.86741 | 128° | 91km/h | 13230m | -4.1m/s | 0°C | 0% | 0hPa | 2.5V | 18:12:15 | 02:47:53 | 00:00:00 | |
| DL1XH-west | 2026-09-03 13:07:16 | 53.82632 | 14.86649 | 128° | 93km/h | 13243m | -4.1m/s | -49.8°C | 4.5% | 164.3hPa | 2.6V | 07:56:49 | 02:47:50 | 00:00:00 | |
| AA1-15 | 2026-09-03 13:07:13 | 53.82676 | 14.86555 | 129° | 93km/h | 13255m | -4.2m/s | -49.7°C | 4.5% | 164.1hPa | 2.5V | 07:55:07 | 02:47:47 | 00:00:00 | |
| DL1XH-west | 2026-09-03 13:07:05 | 53.82795 | 14.86315 | 132° | 88km/h | 13288m | -4.1m/s | -49.6°C | 4.4% | 163.3hPa | 2.5V | 07:56:49 | 02:47:39 | 00:00:00 | |
| AA1-15 | 2026-09-03 13:07:02 | 53.82839 | 14.86234 | 133° | 86km/h | 13300m | -4m/s | -49.5°C | 4.4% | 162.9hPa | 2.6V | 07:55:07 | 02:47:36 | 00:00:00 | |
| DL1XH-west | 2026-09-03 13:06:54 | 53.82948 | 14.86034 | 132° | 75km/h | 13333m | -4.2m/s | -49.6°C | 4.4% | 162.2hPa | 2.5V | 07:56:49 | 02:47:28 | 00:00:00 | |
| AA1-15 | 2026-09-03 13:06:51 | 53.82985 | 14.85964 | 132° | 73km/h | 13345m | -4.1m/s | -49.7°C | 4.5% | 161.9hPa | 2.6V | 07:55:58 | 02:47:25 | 00:00:00 | |
| SONDE2-11 | 2026-09-03 13:06:50 | 53.82998 | 14.85941 | 132° | 71km/h | 13349m | -4.2m/s | -49.7°C | 3.7% | 161.8hPa | 2.6V | 00:00:00 | 00:00:00 | 00:00:00 | |
| AA1-15 | 2026-09-03 13:06:41 | 53.83100 | 14.85739 | 125° | 66km/h | 13387m | -4.1m/s | -49.9°C | 4.6% | 160.8hPa | 2.6V | 07:55:58 | 02:47:15 | 00:00:00 | |
| AA1-15 | 2026-09-03 13:06:30 | 53.83188 | 14.85464 | 114° | 68km/h | 13434m | -4.2m/s | -49.8°C | 4.5% | 159.7hPa | 2.6V | 07:55:58 | 02:47:04 | 00:00:00 | |
| DL1XH-west | 2026-09-03 13:06:21 | 53.83247 | 14.85225 | 111° | 68km/h | 13472m | -4.2m/s | -50°C | 4.5% | 158.8hPa | 2.5V | 07:56:49 | 02:46:55 | 00:00:00 | |
| AA1-15 | 2026-09-03 13:06:20 | 53.83253 | 14.85199 | 111° | 68km/h | 13476m | -4.1m/s | -49.9°C | 4.5% | 158.6hPa | 2.6V | 07:55:58 | 02:46:54 | 00:00:00 | |
| DL1XH-west | 2026-09-03 13:06:11 | 53.83302 | 14.84958 | 107° | 66km/h | 13514m | -4.3m/s | -50.2°C | 4.6% | 157.8hPa | 2.6V | 07:56:49 | 02:46:45 | 00:00:00 | |
| AA1-15 | 2026-09-03 13:06:10 | 53.83306 | 14.84930 | 106° | 68km/h | 13518m | -4.3m/s | -50.2°C | 4.6% | 157.6hPa | 2.5V | 07:55:58 | 02:46:44 | 00:00:00 | |
| DM0DOS-11 | 2026-09-03 13:06:08 | 53.83320 | 14.84846 | 104° | 69km/h | 13531m | -4.2m/s | -50.2°C | 0% | 0hPa | 2.6V | 07:55:53 | 02:46:41 | 00:00:00 | |
| MECKS9 | 2026-09-03 13:06:05 | 53.83325 | 14.84818 | 106° | 69km/h | 13535m | -4.1m/s | -50.2°C | 3.7% | 157.2hPa | 2.6V | 07:55:00 | 00:00:00 | 00:00:00 | |
| DM0DOS-11 | 2026-09-03 13:06:01 | 53.83363 | 14.84563 | 101° | 69km/h | 13573m | -4.2m/s | -50.4°C | 0% | 0hPa | 2.6V | 07:56:03 | 02:46:31 | 00:00:00 | |
| AA1-15 | 2026-09-03 13:06:00 | 53.83351 | 14.84649 | 104° | 68km/h | 13560m | -4.3m/s | -50.3°C | 4.6% | 156.6hPa | 2.5V | 07:56:49 | 02:46:34 | 00:00:00 | |
| AA1-15 | 2026-09-03 13:05:50 | 53.83389 | 14.84340 | 101° | 82km/h | 13603m | -4.4m/s | -50.4°C | 4.6% | 155.6hPa | 2.6V | 07:56:49 | 02:46:24 | 00:00:00 | |
| AM1SDL-15 | 2026-09-03 13:05:49 | 53.83393 | 14.84305 | 102° | 84km/h | 13608m | -4.2m/s | -50.4°C | 6.4% | 155.4hPa | 2.5V | 00:00:00 | 02:46:23 | 00:00:00 | |
| DM0DOS-11 | 2026-09-03 13:05:48 | 53.83405 | 14.84201 | 101° | 84km/h | 13620m | -4.2m/s | -50.5°C | 0% | 0hPa | 2.5V | 07:56:14 | 02:46:20 | 00:00:00 | |
| DL1XH1-15 | 2026-09-03 13:05:47 | 53.83413 | 14.84130 | 100° | 84km/h | 13629m | -4.4m/s | -50.5°C | 6.4% | 154.9hPa | 2.6V | 07:56:16 | 02:46:18 | 00:00:00 | |
| DJ2DS-15 | 2026-09-03 13:05:46 | 53.83405 | 14.84201 | 101° | 82km/h | 13621m | -4.3m/s | -50.5°C | 3.8% | 155.1hPa | 2.5V | 00:00:00 | 00:00:00 | 00:00:00 | |
| DM0DOS-11 | 2026-09-03 13:05:41 | 53.83446 | 14.83841 | 101° | 89km/h | 13664m | -4.4m/s | -50.1°C | 0% | 0hPa | 2.5V | 07:56:24 | 02:46:10 | 00:00:00 | |
| DL1XH-west | 2026-09-03 13:05:40 | 53.83429 | 14.83988 | 101° | 86km/h | 13647m | -4.3m/s | -50.4°C | 4.6% | 154.5hPa | 2.6V | 07:56:49 | 02:46:14 | 00:00:00 | |
| AA1-15 | 2026-09-03 13:05:39 | 53.83433 | 14.83951 | 101° | 88km/h | 13651m | -4.2m/s | -50.4°C | 4.5% | 154.4hPa | 2.6V | 07:56:49 | 02:46:13 | 00:00:00 | |
| DL1XH-west | 2026-09-03 13:05:29 | 53.83484 | 14.83578 | 106° | 93km/h | 13694m | -4.3m/s | -49.9°C | 4.4% | 153.4hPa | 2.6V | 07:56:49 | 02:46:03 | 00:00:00 | |
| DM0DOS-11 | 2026-09-03 13:05:29 | 53.83504 | 14.83463 | 106° | 93km/h | 13707m | -4.4m/s | -49.9°C | 0% | 0hPa | 2.5V | 07:56:34 | 02:46:00 | 00:00:00 | |
| DL1XH1-15 | 2026-09-03 13:05:27 | 53.83526 | 14.83350 | 109° | 93km/h | 13720m | -4.3m/s | -49.7°C | 6.1% | 152.8hPa | 2.6V | 07:56:37 | 02:45:57 | 00:00:00 | |
| EDDB2-11 | 2026-09-03 13:05:24 | 53.83526 | 14.83350 | 109° | 93km/h | 13720m | -4.3m/s | -49.7°C | 3.6% | 152.8hPa | 2.6V | 00:00:00 | 00:00:00 | 00:00:00 | |
| SP3BTT-10 | 2026-09-03 13:05:22 | 53.83534 | 14.83312 | 111° | 89km/h | 13725m | -4.3m/s | -49.6°C | 6.1% | 152.7hPa | 2.6V | 07:56:00 | 00:00:00 | 00:00:00 | |
| DM0DOS-11 | 2026-09-03 13:05:21 | 53.83587 | 14.83092 | 114° | 91km/h | 13751m | -4.3m/s | 0°C | 0% | 0hPa | 2.6V | 07:56:44 | 02:45:50 | 00:00:00 | |
| AA1-15 | 2026-09-03 13:05:19 | 53.83559 | 14.83200 | 112° | 93km/h | 13738m | -4.4m/s | -49.7°C | 4.4% | 152.4hPa | 2.5V | 07:56:49 | 02:45:53 | 00:00:00 | |
| DL1XH-west | 2026-09-03 13:05:18 | 53.83568 | 14.83164 | 113° | 93km/h | 13742m | -4.5m/s | -49.7°C | 4.4% | 152.3hPa | 2.6V | 07:56:49 | 02:45:52 | 00:00:00 | |
| SONDE2-11 | 2026-09-03 13:05:17 | 53.83577 | 14.83127 | 113° | 91km/h | 13747m | -4.5m/s | -49.7°C | 3.6% | 152.2hPa | 2.6V | 00:00:00 | 00:00:00 | 00:00:00 | |
| DL1XH1-15 | 2026-09-03 13:05:17 | 53.83628 | 14.82956 | 119° | 86km/h | 13768m | -4.3m/s | -49.7°C | 6.1% | 151.7hPa | 2.6V | 07:56:48 | 02:45:46 | 00:00:00 | |
| DM0DOS-11 | 2026-09-03 13:05:09 | 53.83692 | 14.82779 | 122° | 77km/h | 13795m | -4.4m/s | 0°C | 0% | 0hPa | 2.6V | 00:00:00 | 02:45:40 | 00:00:00 | |
| AA1-15 | 2026-09-03 13:05:09 | 53.83660 | 14.82864 | 122° | 80km/h | 13782m | -4.5m/s | -49.6°C | 4.4% | 151.4hPa | 2.5V | 07:57:40 | 02:45:43 | 00:00:00 | |
| DL1XH-west | 2026-09-03 13:05:08 | 53.83671 | 14.82835 | 122° | 78km/h | 13786m | -4.5m/s | -49.6°C | 4.3% | 151.3hPa | 2.5V | 07:57:40 | 02:45:42 | 00:00:00 | |
| DL1XH1-15 | 2026-09-03 13:05:07 | 53.83732 | 14.82672 | 122° | 71km/h | 13813m | -4.3m/s | -49.4°C | 5.9% | 150.6hPa | 2.5V | 07:56:58 | 02:45:36 | 00:00:00 | |
| DL1XH-west | 2026-09-03 13:04:58 | 53.83768 | 14.82573 | 120° | 66km/h | 13830m | -4.4m/s | -49.3°C | 4.3% | 150.2hPa | 2.5V | 07:57:40 | 02:45:32 | 00:00:00 | |
| DL1XH1-15 | 2026-09-03 13:04:57 | 53.83813 | 14.82429 | 116° | 62km/h | 13857m | -4.4m/s | -49.3°C | 6.1% | 149.6hPa | 2.5V | 07:57:08 | 02:45:26 | 00:00:00 | |
| DM0DOS-11 | 2026-09-03 13:04:56 | 53.83820 | 14.82406 | 115° | 60km/h | 13861m | -4.5m/s | 0°C | 0% | 0hPa | 2.5V | 00:00:00 | 02:45:25 | 00:00:00 | |
| EDDB2-11 | 2026-09-03 13:04:53 | 53.83813 | 14.82429 | 116° | 60km/h | 13857m | -4.4m/s | -49.3°C | 3.6% | 149.6hPa | 2.6V | 00:00:00 | 00:00:00 | 00:00:00 | |
| SP3WXH-11 | 2026-09-03 13:04:51 | 53.83820 | 14.82406 | 115° | 60km/h | 13861m | -4.5m/s | -49.3°C | 3.5% | 149.5hPa | 2.6V | 00:00:00 | 00:00:00 | 00:00:00 | |
| DL1XH1-15 | 2026-09-03 13:04:47 | 53.83860 | 14.82177 | 99° | 71km/h | 13903m | -4.5m/s | -49.6°C | 5.9% | 148.6hPa | 2.6V | 07:57:18 | 02:45:16 | 00:00:00 | |
| DL1XH-west | 2026-09-03 13:04:47 | 53.83842 | 14.82311 | 107° | 60km/h | 13880m | -4.7m/s | -49.4°C | 4.2% | 149.1hPa | 2.6V | 07:57:40 | 02:45:21 | 00:00:00 | |
| SONDE2-11 | 2026-09-03 13:04:46 | 53.83846 | 14.82287 | 105° | 60km/h | 13884m | -4.7m/s | -49.4°C | 3.5% | 149.0hPa | 2.5V | 00:00:00 | 00:00:00 | 00:00:00 | |
| DL1XH-west | 2026-09-03 13:04:37 | 53.83881 | 14.82007 | 105° | 88km/h | 13924m | -4.3m/s | -49.6°C | 4.2% | 148.1hPa | 2.5V | 07:57:40 | 02:45:11 | 00:00:00 | |
| AA1-15 | 2026-09-03 13:04:27 | 53.83963 | 14.81655 | 116° | 88km/h | 13969m | -4.4m/s | -49.7°C | 4.3% | 147.1hPa | 2.6V | 07:57:40 | 02:45:01 | 00:00:00 | |
| DL1XH-west | 2026-09-03 13:04:17 | 53.84060 | 14.81307 | 113° | 93km/h | 14014m | -4.4m/s | -49.7°C | 4.3% | 146.1hPa | 2.5V | 07:58:31 | 02:44:51 | 00:00:00 | |
| AA1-15 | 2026-09-03 13:04:16 | 53.84069 | 14.81270 | 113° | 93km/h | 14018m | -4.4m/s | -49.7°C | 4.3% | 145.9hPa | 2.6V | 07:58:31 | 02:44:50 | 00:00:00 | |
| AA1-15 | 2026-09-03 13:04:06 | 53.84173 | 14.80908 | 120° | 93km/h | 14063m | -4.5m/s | -50°C | 4.3% | 145hPa | 2.5V | 07:58:31 | 02:44:40 | 00:00:00 | |
| DL1XH1-15 | 2026-09-03 13:03:57 | 53.84352 | 14.80426 | 124° | 97km/h | 14125m | -4.5m/s | -50°C | 6.1% | 143.6hPa | 2.6V | 07:58:08 | 02:44:26 | 00:00:00 | |
| AA1-15 | 2026-09-03 13:03:56 | 53.84298 | 14.80562 | 124° | 95km/h | 14107m | -4.5m/s | -50°C | 4.3% | 144hPa | 2.5V | 07:58:31 | 02:44:30 | 00:00:00 | |
| DF8AY | 2026-09-03 13:03:53 | 53.84353 | 14.80426 | 124° | 97km/h | 14125m | -4.6m/s | -50°C | 4.4% | 143.6hPa | 2.6V | 07:58:31 | 02:44:26 | 00:00:00 | |
| DL1XH-west | 2026-09-03 13:03:46 | 53.84438 | 14.80227 | 128° | 95km/h | 14152m | -4.3m/s | -50°C | 4.4% | 143hPa | 2.5V | 07:58:31 | 02:44:20 | 00:00:00 | |
| AA1-15 | 2026-09-03 13:03:45 | 53.84453 | 14.80195 | 129° | 93km/h | 14156m | -4.3m/s | -50°C | 4.4% | 142.9hPa | 2.5V | 07:58:31 | 02:44:19 | 00:00:00 | |
| SONDE2-11 | 2026-09-03 13:03:44 | 53.84468 | 14.80165 | 130° | 91km/h | 14160m | -4.2m/s | -50.0°C | 3.6% | 142.8hPa | 2.5V | 00:00:00 | 00:00:00 | 00:00:00 | |
| DF8AY | 2026-09-03 13:03:40 | 53.84526 | 14.80051 | 132° | 84km/h | 14178m | -4.6m/s | -50°C | 4.4% | 142.5hPa | 2.5V | 07:58:31 | 02:44:14 | 00:00:00 | |
| DL1XH1-15 | 2026-09-03 13:03:37 | 53.84637 | 14.79848 | 132° | 77km/h | 14214m | -4.4m/s | -50°C | 6.1% | 141.6hPa | 2.5V | 07:58:28 | 02:44:06 | 00:00:00 | |
| AA1-15 | 2026-09-03 13:03:35 | 53.84597 | 14.79922 | 133° | 80km/h | 14200m | -4.5m/s | -50°C | 4.4% | 141.9hPa | 2.6V | 07:58:31 | 02:44:09 | 00:00:00 | |
| DL1XH1-15 | 2026-09-03 13:03:27 | 53.84765 | 14.79613 | 134° | 73km/h | 14259m | -4.5m/s | -49.8°C | 6.1% | 140.7hPa | 2.5V | 07:58:38 | 02:43:56 | 00:00:00 | |
| DF8AY | 2026-09-03 13:03:26 | 53.84713 | 14.79706 | 133° | 75km/h | 14241m | -4.4m/s | -50°C | 4.4% | 141hPa | 2.6V | 07:59:22 | 02:44:00 | 00:00:00 | |
| AA1-15 | 2026-09-03 13:03:25 | 53.84726 | 14.79682 | 134° | 75km/h | 14245m | -4.6m/s | -50°C | 4.4% | 141hPa | 2.6V | 07:59:22 | 02:43:59 | 00:00:00 | |
| SP3BTT-10 | 2026-09-03 13:03:20 | 53.84791 | 14.79568 | 134° | 64km/h | 14268m | -4.5m/s | -49.7°C | 6.2% | 140.4hPa | 2.6V | 00:00:00 | 00:00:00 | 00:00:00 | |
| EDDB2-11 | 2026-09-03 13:03:19 | 53.84804 | 14.79546 | 133° | 71km/h | 14273m | -4.6m/s | -49.8°C | 3.6% | 140.4hPa | 2.6V | 00:00:00 | 00:00:00 | 00:00:00 | |
| SP3WXH-11 | 2026-09-03 13:03:18 | 53.84816 | 14.79524 | 133° | 71km/h | 14277m | -4.5m/s | -49.8°C | 3.6% | 140.3hPa | 2.6V | 00:00:00 | 00:00:00 | 00:00:00 | |
| DL1XH1-15 | 2026-09-03 13:03:17 | 53.84887 | 14.79394 | 131° | 66km/h | 14305m | -4.5m/s | -49.8°C | 5.9% | 139.7hPa | 2.6V | 07:58:48 | 02:43:46 | 00:00:00 | |
| DL1XH-west | 2026-09-03 13:03:15 | 53.84852 | 14.79458 | 133° | 69km/h | 14291m | -4.6m/s | -49.8°C | 4.3% | 140hPa | 2.5V | 07:59:22 | 02:43:49 | 00:00:00 | |
| AA1-15 | 2026-09-03 13:03:14 | 53.84864 | 14.79437 | 133° | 68km/h | 14295m | -4.7m/s | -49.8°C | 4.3% | 139.9hPa | 2.6V | 07:59:22 | 02:43:48 | 00:00:00 | |
| SONDE2-11 | 2026-09-03 13:03:13 | 53.84876 | 14.79415 | 132° | 66km/h | 14300m | -4.5m/s | -49.8°C | 3.5% | 139.8hPa | 2.6V | 00:00:00 | 00:00:00 | 00:00:00 | |
| DL1XH1-15 | 2026-09-03 13:03:07 | 53.84999 | 14.79187 | 133° | 68km/h | 14350m | -4.5m/s | -50°C | 6.2% | 138.7hPa | 2.6V | 07:58:58 | 02:43:36 | 00:00:00 | |
| DF8AY | 2026-09-03 13:03:05 | 53.84964 | 14.79250 | 133° | 66km/h | 14336m | -4.6m/s | -49.9°C | 4.4% | 139hPa | 2.5V | 07:59:22 | 02:43:39 | 00:00:00 | |
| DL1XH-west | 2026-09-03 13:03:04 | 53.84976 | 14.79229 | 134° | 68km/h | 14341m | -4.5m/s | -49.9°C | 4.4% | 138.9hPa | 2.6V | 07:59:22 | 02:43:38 | 00:00:00 | |
| DL1XH1-15 | 2026-09-03 13:02:57 | 53.85107 | 14.78986 | 127° | 55km/h | 14395m | -4.6m/s | -50°C | 6.3% | 137.8hPa | 2.6V | 07:59:08 | 02:43:26 | 00:00:00 | |
| DL1XH-west | 2026-09-03 13:02:53 | 53.85098 | 14.79005 | 129° | 57km/h | 14391m | -4.6m/s | -50.1°C | 4.4% | 137.9hPa | 2.5V | 07:59:22 | 02:43:27 | 00:00:00 | |
| DF8AY | 2026-09-03 13:02:53 | 53.85130 | 14.78931 | 124° | 51km/h | 14409m | -4.7m/s | -50°C | 4.5% | 137.5hPa | 2.5V | 07:59:22 | 02:43:23 | 00:00:00 | |
| EDDB2-11 | 2026-09-03 13:02:48 | 53.85137 | 14.78913 | 120° | 49km/h | 14414m | -4.8m/s | -50.0°C | 3.6% | 137.4hPa | 2.5V | 00:00:00 | 00:00:00 | 00:00:00 | |
| DL1XH1-15 | 2026-09-03 13:02:47 | 53.85166 | 14.78790 | 104° | 58km/h | 14443m | -4.7m/s | -50.3°C | 6.3% | 136.8hPa | 2.5V | 07:59:18 | 02:43:16 | 00:00:00 | |
| DJ2DS-15 | 2026-09-03 13:02:46 | 53.85162 | 14.78813 | 105° | 55km/h | 14438m | -4.8m/s | -50.2°C | 3.6% | 136.9hPa | 2.6V | 00:00:00 | 00:00:00 | 00:00:00 | |
| DL1XH-15 | 2026-09-03 13:02:44 | 53.85177 | 14.78711 | 102° | 69km/h | 14457m | -4.7m/s | -50.4°C | 6.2% | 136.5hPa | 2.6V | 07:59:21 | 02:43:13 | 00:00:00 | |
| AA1-15 | 2026-09-03 13:02:43 | 53.85162 | 14.78813 | 106° | 55km/h | 14438m | -4.8m/s | -50.2°C | 4.5% | 136.9hPa | 2.5V | 07:59:22 | 02:43:17 | 00:00:00 | |
| DL1XH-west | 2026-09-03 13:02:43 | 53.85166 | 14.78790 | 104° | 58km/h | 14443m | -4.7m/s | -50.3°C | 4.5% | 136.8hPa | 2.5V | 07:59:22 | 02:43:16 | 00:00:00 | |
| DF8AY | 2026-09-03 13:02:39 | 53.85177 | 14.78711 | 102° | 69km/h | 14457m | -4.7m/s | -50.4°C | 4.5% | 136.5hPa | 2.6V | 07:59:22 | 02:43:13 | 00:00:00 | |
| DL1XH1-15 | 2026-09-03 13:02:37 | 53.85217 | 14.78488 | 113° | 84km/h | 14490m | -4.8m/s | -50.2°C | 6.1% | 135.8hPa | 2.5V | 07:59:28 | 02:43:06 | 00:00:00 | |
| AA1-15 | 2026-09-03 13:02:32 | 53.85217 | 14.78488 | 114° | 84km/h | 14490m | -4.8m/s | -50.3°C | 4.5% | 135.8hPa | 2.5V | 08:00:13 | 02:43:06 | 00:00:00 | |
| DL1XH-west | 2026-09-03 13:02:31 | 53.85226 | 14.78456 | 116° | 84km/h | 14495m | -4.6m/s | -50.3°C | 4.4% | 135.7hPa | 2.6V | 08:00:13 | 02:43:05 | 00:00:00 | |
| DF8AY | 2026-09-03 13:02:29 | 53.85245 | 14.78393 | 120° | 82km/h | 14504m | -4.7m/s | -50.2°C | 4.4% | 135.5hPa | 2.6V | 08:00:13 | 02:43:03 | 00:00:00 | |
| DL1XH1-15 | 2026-09-03 13:02:27 | 53.85333 | 14.78168 | 127° | 75km/h | 14540m | -4.5m/s | -50.3°C | 6.2% | 134.8hPa | 2.6V | 07:59:39 | 02:42:55 | 00:00:00 | |
| DL1XH-west | 2026-09-03 13:02:21 | 53.85333 | 14.78168 | 128° | 75km/h | 14540m | -4.5m/s | -50.3°C | 4.5% | 134.8hPa | 2.6V | 08:00:13 | 02:42:55 | 00:00:00 | |
| DF8AY | 2026-09-03 13:02:18 | 53.85368 | 14.78094 | 130° | 71km/h | 14553m | -4.6m/s | -50.2°C | 4.5% | 134.4hPa | 2.6V | 08:00:13 | 02:42:52 | 00:00:00 | |
| EDDB2-11 | 2026-09-03 13:02:17 | 53.85380 | 14.78071 | 130° | 69km/h | 14558m | -4.6m/s | -50.1°C | 3.6% | 134.4hPa | 2.5V | 00:00:00 | 00:00:00 | 00:00:00 | |
| DL1XH1-15 | 2026-09-03 13:02:16 | 53.85445 | 14.77927 | 119° | 51km/h | 14589m | -4.7m/s | -50.2°C | 6.3% | 133.7hPa | 2.5V | 07:59:50 | 02:42:44 | 00:00:00 | |
| DL1XH-west | 2026-09-03 13:02:11 | 53.85438 | 14.77946 | 122° | 53km/h | 14585m | -4.3m/s | -50.2°C | 4.5% | 133.8hPa | 2.5V | 08:00:13 | 02:42:45 | 00:00:00 | |
| AA1-15 | 2026-09-03 13:02:11 | 53.85445 | 14.77927 | 119° | 51km/h | 14589m | -4.7m/s | -50.2°C | 4.6% | 133.8hPa | 2.5V | 08:00:13 | 02:42:44 | 00:00:00 | |
| DF8AY | 2026-09-03 13:02:08 | 53.85456 | 14.77888 | 114° | 51km/h | 14598m | -4.6m/s | -50.3°C | 4.6% | 133.5hPa | 2.6V | 08:00:13 | 02:42:42 | 00:00:00 | |
| DL1XH1-15 | 2026-09-03 13:02:01 | 53.85482 | 14.77724 | 101° | 68km/h | 14629m | -4.3m/s | -50.6°C | 6.4% | 132.9hPa | 2.6V | 07:59:59 | 02:42:35 | 00:00:00 | |
| DL1XH-west | 2026-09-03 13:02:00 | 53.85486 | 14.77695 | 103° | 71km/h | 14634m | -4.2m/s | -50.7°C | 4.6% | 132.8hPa | 2.5V | 08:00:13 | 02:42:34 | 00:00:00 | |
| AA1-15 | 2026-09-03 13:02:00 | 53.85490 | 14.77665 | 104° | 73km/h | 14638m | -4.1m/s | -50.7°C | 4.7% | 132.7hPa | 2.5V | 08:00:13 | 02:42:33 | 00:00:00 | |
| DF8AY | 2026-09-03 13:01:57 | 53.85500 | 14.77602 | 105° | 77km/h | 14646m | -4.2m/s | -50.8°C | 4.6% | 132.6hPa | 2.6V | 08:00:13 | 02:42:31 | 00:00:00 | |
| DL1XH1-15 | 2026-09-03 13:01:56 | 53.85531 | 14.77412 | 104° | 77km/h | 14672m | -4.2m/s | -50.7°C | 6.2% | 132hPa | 2.6V | 08:00:09 | 02:42:25 | 00:00:00 | |
| DL1XH-west | 2026-09-03 13:01:49 | 53.85540 | 14.77349 | 103° | 75km/h | 14680m | -4.4m/s | -50.8°C | 4.5% | 131.8hPa | 2.5V | 08:00:13 | 02:42:23 | 00:00:00 | |
| DF8AY | 2026-09-03 13:01:49 | 53.85548 | 14.77286 | 102° | 73km/h | 14689m | -4.3m/s | -50.8°C | 4.6% | 131.7hPa | 2.5V | 08:00:13 | 02:42:21 | 00:00:00 | |
| EDDB2-11 | 2026-09-03 13:01:46 | 53.85552 | 14.77256 | 101° | 73km/h | 14693m | -4.1m/s | -50.8°C | 3.6% | 131.6hPa | 2.5V | 00:00:00 | 00:00:00 | 00:00:00 | |
| SP3WXH-11 | 2026-09-03 13:01:45 | 53.85559 | 14.77194 | 100° | 71km/h | 14702m | -4.2m/s | -50.9°C | 3.6% | 131.4hPa | 2.5V | 00:00:00 | 00:00:00 | 00:00:00 | |
| AA1-15 | 2026-09-03 13:01:38 | 53.85582 | 14.76983 | 99° | 71km/h | 14732m | -4.1m/s | -51.1°C | 4.7% | 130.8hPa | 2.5V | 08:01:04 | 02:42:11 | 00:00:00 | |
| DL1XH-west | 2026-09-03 13:01:38 | 53.85579 | 14.77013 | 100° | 71km/h | 14727m | -4.5m/s | -51.1°C | 4.7% | 130.9hPa | 2.5V | 08:01:04 | 02:42:12 | 00:00:00 | |
| DF8AY | 2026-09-03 13:01:36 | 53.85585 | 14.76953 | 99° | 71km/h | 14736m | -4.2m/s | -51.1°C | 4.8% | 130.8hPa | 2.5V | 08:01:04 | 02:42:10 | 00:00:00 | |
| SP3BTT-10 | 2026-09-03 13:01:35 | 53.85588 | 14.76923 | 99° | 86km/h | 14740m | -4.3m/s | -51.1°C | 6.5% | 130.6hPa | 2.6V | 08:00:00 | 00:00:00 | 00:00:00 | |
| DJ2DS-15 | 2026-09-03 13:01:34 | 53.85594 | 14.76861 | 99° | 75km/h | 14749m | -4.4m/s | -51.2°C | 3.7% | 130.5hPa | 2.6V | 00:00:00 | 00:00:00 | 00:00:00 | |
| DL1XH-15 | 2026-09-03 13:01:30 | 53.85610 | 14.76728 | 102° | 84km/h | 14765m | -4.2m/s | -51.2°C | 6.2% | 130.1hPa | 2.6V | 08:00:31 | 02:42:03 | 00:00:00 | |
| DF8AY | 2026-09-03 13:01:30 | 53.85631 | 14.76586 | 107° | 88km/h | 14783m | -4.2m/s | -51.2°C | 4.5% | 129.8hPa | 2.6V | 08:01:04 | 02:41:59 | 00:00:00 | |
| DL1XH-west | 2026-09-03 13:01:28 | 53.85614 | 14.76693 | 104° | 86km/h | 14770m | -4.5m/s | -51.2°C | 4.6% | 130.1hPa | 2.6V | 08:01:04 | 02:42:02 | 00:00:00 | |
| MECKS9 | 2026-09-03 13:01:26 | 53.85620 | 14.76657 | 105° | 86km/h | 14775m | -4.3m/s | -51.2°C | 3.6% | 130.0hPa | 2.5V | 08:01:00 | 00:00:00 | 00:00:00 | |
| DL1XH1-15 | 2026-09-03 13:01:25 | 53.85661 | 14.76448 | 113° | 84km/h | 14800m | -4.1m/s | -51.2°C | 6.5% | 129.4hPa | 2.5V | 08:00:39 | 02:41:55 | 00:00:00 | |
| DL1XH-15 | 2026-09-03 13:01:24 | 53.85678 | 14.76383 | 115° | 82km/h | 14808m | -4.1m/s | -51.3°C | 6.6% | 129.3hPa | 2.6V | 08:00:41 | 02:41:53 | 00:00:00 | |
| DF8AY | 2026-09-03 13:01:20 | 53.85716 | 14.76255 | 117° | 86km/h | 14825m | -4.2m/s | -51.1°C | 4.6% | 129hPa | 2.5V | 08:01:04 | 02:41:49 | 00:00:00 | |
| AA1-15 | 2026-09-03 13:01:18 | 53.85687 | 14.76351 | 116° | 82km/h | 14812m | -4.4m/s | -51.3°C | 4.7% | 129.2hPa | 2.6V | 08:01:04 | 02:41:52 | 00:00:00 | |
| DL1XH-west | 2026-09-03 13:01:17 | 53.85696 | 14.76319 | 116° | 84km/h | 14817m | -4.5m/s | -51.2°C | 4.7% | 129.1hPa | 2.6V | 08:01:04 | 02:41:51 | 00:00:00 | |
| EDDB2-11 | 2026-09-03 13:01:15 | 53.85716 | 14.76255 | 116° | 86km/h | 14825m | -4.2m/s | -51.1°C | 3.8% | 129.0hPa | 2.6V | 00:00:00 | 00:00:00 | 00:00:00 | |
| SP3WXH-11 | 2026-09-03 13:01:14 | 53.85735 | 14.76189 | 116° | 88km/h | 14834m | -4.7m/s | -51.1°C | 3.8% | 128.8hPa | 2.6V | 00:00:00 | 00:00:00 | 00:00:00 | |
| DL1XH-15 | 2026-09-03 13:01:08 | 53.85783 | 14.76015 | 112° | 91km/h | 14857m | -4.3m/s | -51.1°C | 6.6% | 128.3hPa | 2.6V | 08:00:52 | 02:41:42 | 00:00:00 | |
| AA1-15 | 2026-09-03 13:01:07 | 53.85792 | 14.75979 | 111° | 91km/h | 14861m | -4.2m/s | -51.1°C | 4.5% | 128.2hPa | 2.6V | 08:01:04 | 02:41:41 | 00:00:00 | |
| DL1XH-west | 2026-09-03 13:01:06 | 53.85800 | 14.75942 | 110° | 91km/h | 14865m | -4.2m/s | -51.1°C | 4.5% | 128.1hPa | 2.6V | 08:01:04 | 02:41:40 | 00:00:00 | |
| DF8AY | 2026-09-03 13:01:04 | 53.85816 | 14.75869 | 110° | 91km/h | 14874m | -4.3m/s | -51.1°C | 4.6% | 128hPa | 2.5V | 08:01:04 | 02:41:38 | 00:00:00 | |
| AA1-15 | 2026-09-03 13:00:57 | 53.85873 | 14.75614 | 112° | 91km/h | 14904m | -4.1m/s | -50.4°C | 4.4% | 127.4hPa | 2.6V | 08:01:04 | 02:41:31 | 00:00:00 | |
| DL1XH-west | 2026-09-03 13:00:55 | 53.85891 | 14.75542 | 113° | 91km/h | 14912m | -4.3m/s | -50.3°C | 4.4% | 127.2hPa | 2.6V | 08:01:55 | 02:41:29 | 00:00:00 | |
| DF8AY | 2026-09-03 13:00:54 | 53.85900 | 14.75507 | 114° | 91km/h | 14917m | -4.4m/s | 0°C | 0% | 127.2hPa | 2.5V | 18:12:15 | 02:41:28 | 00:00:00 | |
| AA1-15 | 2026-09-03 13:00:46 | 53.85977 | 14.75233 | 117° | 88km/h | 14951m | -4.2m/s | -49.3°C | 4.2% | 126.5hPa | 2.6V | 08:01:55 | 02:41:20 | 00:00:00 | |
| DL1XH1-15 | 2026-09-03 13:00:45 | 53.86029 | 14.75066 | 118° | 89km/h | 14973m | -4.6m/s | -48.7°C | 5.8% | 126hPa | 2.6V | 08:01:19 | 02:41:15 | 00:00:00 | |
| DL1XH-west | 2026-09-03 13:00:45 | 53.85988 | 14.75200 | 117° | 88km/h | 14955m | -4.4m/s | -49.2°C | 4.1% | 126.5hPa | 2.6V | 08:01:55 | 02:41:19 | 00:00:00 | |
| EDDB2-11 | 2026-09-03 13:00:44 | 53.85998 | 14.75166 | 117° | 88km/h | 14960m | -4.6m/s | -49.0°C | 3.3% | 126.3hPa | 2.6V | 00:00:00 | 00:00:00 | 00:00:00 | |
| DF8AY | 2026-09-03 13:00:43 | 53.86019 | 14.75099 | 118° | 89km/h | 14969m | -4.3m/s | 0°C | 0% | 0hPa | 2.6V | 18:12:15 | 02:41:16 | 00:00:00 | |
| SP3WXH-11 | 2026-09-03 13:00:43 | 53.86019 | 14.75099 | 117° | 88km/h | 14969m | -4.3m/s | -48.8°C | 3.3% | 126.2hPa | 2.6V | 00:00:00 | 00:00:00 | 00:00:00 | |
| DL1XH-15 | 2026-09-03 13:00:42 | 53.86073 | 14.74934 | 120° | 88km/h | 14991m | -4.3m/s | -48.8°C | 5.8% | 125.7hPa | 2.6V | 08:01:23 | 02:41:11 | 00:00:00 | |
| AA1-15 | 2026-09-03 13:00:35 | 53.86096 | 14.74870 | 122° | 88km/h | 15000m | -4.5m/s | -48.7°C | 4% | 125.6hPa | 2.6V | 08:01:55 | 02:41:09 | 00:00:00 | |
| DL1XH-west | 2026-09-03 13:00:34 | 53.86108 | 14.74838 | 122° | 88km/h | 15004m | -4.4m/s | -48.7°C | 4% | 125.5hPa | 2.6V | 08:01:55 | 02:41:08 | 00:00:00 | |
| DF8AY | 2026-09-03 13:00:32 | 53.86131 | 14.74774 | 122° | 89km/h | 15013m | -4.3m/s | 0°C | 0% | 0hPa | 2.5V | 18:12:15 | 02:41:06 | 00:00:00 | |
| DL1XH-15 | 2026-09-03 13:00:32 | 53.86190 | 14.74610 | 122° | 89km/h | 15035m | -4.5m/s | -48.7°C | 5.8% | 124.9hPa | 2.6V | 08:01:33 | 02:41:01 | 00:00:00 | |
| DL1XH1-15 | 2026-09-03 13:00:31 | 53.86143 | 14.74741 | 121° | 89km/h | 15017m | -4.5m/s | -48.7°C | 5.8% | 125.2hPa | 2.6V | 08:01:29 | 02:41:05 | 00:00:00 | |
| DL1XH1-15 | 2026-09-03 13:00:25 | 53.86266 | 14.74424 | 126° | 88km/h | 15062m | -4.7m/s | -48.8°C | 5.8% | 124.4hPa | 2.5V | 08:01:39 | 02:40:55 | 00:00:00 | |
| AA1-15 | 2026-09-03 13:00:24 | 53.86227 | 14.74515 | 124° | 88km/h | 15048m | -4.5m/s | -48.8°C | 4.1% | 124.6hPa | 2.6V | 08:01:55 | 02:40:58 | 00:00:00 | |
| DL1XH-15 | 2026-09-03 13:00:22 | 53.86320 | 14.74310 | 129° | 84km/h | 15081m | -4.9m/s | -48.7°C | 5.7% | 124hPa | 2.6V | 08:01:43 | 02:40:51 | 00:00:00 | |
| DF8AY | 2026-09-03 13:00:21 | 53.86333 | 14.74283 | 130° | 82km/h | 15085m | -4.6m/s | 0°C | 0% | 0hPa | 2.6V | 18:12:15 | 02:40:50 | 00:00:00 | |
| DL1XH1-15 | 2026-09-03 13:00:15 | 53.86397 | 14.74158 | 131° | 73km/h | 15108m | -4.6m/s | -48.6°C | 5.6% | 123.5hPa | 2.6V | 08:01:49 | 02:40:45 | 00:00:00 | |
| AA1-15 | 2026-09-03 13:00:14 | 53.86359 | 14.74231 | 131° | 78km/h | 15095m | -4.6m/s | -48.5°C | 4% | 123.7hPa | 2.6V | 08:01:55 | 02:40:48 | 00:00:00 | |
| DL1XH-west | 2026-09-03 13:00:13 | 53.86372 | 14.74206 | 131° | 77km/h | 15099m | -4.5m/s | -48.6°C | 3.9% | 123.6hPa | 2.6V | 08:01:55 | 02:40:47 | 00:00:00 | |
| SP3WXH-11 | 2026-09-03 13:00:12 | 53.86397 | 14.74158 | 131° | 71km/h | 15108m | -4.6m/s | -48.6°C | 3.2% | 123.5hPa | 2.6V | 00:00:00 | 00:00:00 | 00:00:00 | |
| DL1XH-15 | 2026-09-03 13:00:07 | 53.86458 | 14.74048 | 134° | 69km/h | 15131m | -4.9m/s | -48.7°C | 5.8% | 123hPa | 2.6V | 08:01:54 | 02:40:40 | 00:00:00 | |
| DF8AY | 2026-09-03 13:00:06 | 53.86458 | 14.74048 | 134° | 69km/h | 15131m | -4.9m/s | 0°C | 0% | 0hPa | 2.6V | 18:12:15 | 02:40:40 | 00:00:00 | |
| AA1-15 | 2026-09-03 13:00:04 | 53.86482 | 14.74007 | 134° | 66km/h | 15141m | -4.8m/s | -48.6°C | 4.1% | 122.9hPa | 2.5V | 08:02:46 | 02:40:38 | 00:00:00 | |
| DL1XH-west | 2026-09-03 13:00:03 | 53.86493 | 14.73986 | 133° | 66km/h | 15146m | -4.9m/s | -48.5°C | 4.1% | 122.8hPa | 2.5V | 08:02:46 | 02:40:37 | 00:00:00 | |
| AA1-15 | 2026-09-03 12:59:53 | 53.86588 | 14.73792 | 130° | 55km/h | 15194m | -4.9m/s | -48.6°C | 3.9% | 121.9hPa | 2.6V | 08:02:46 | 02:40:27 | 00:00:00 | |
| DL1XH-west | 2026-09-03 12:59:52 | 53.86597 | 14.73773 | 130° | 55km/h | 15199m | -5m/s | -48.6°C | 3.9% | 121.8hPa | 2.6V | 08:02:46 | 02:40:26 | 00:00:00 | |
| SP3BTT-10 | 2026-09-03 12:59:49 | 53.86625 | 14.73719 | 134° | 53km/h | 15214m | -4.7m/s | -48.6°C | 5.6% | 121.5hPa | 2.6V | 00:00:00 | 00:00:00 | 00:00:00 | |
| DL1XH-15 | 2026-09-03 12:59:47 | 53.86657 | 14.73665 | 135° | 60km/h | 15228m | -4.9m/s | -48.7°C | 5.6% | 121.2hPa | 2.6V | 08:02:14 | 02:40:20 | 00:00:00 | |
| DF8AY | 2026-09-03 12:59:43 | 53.86720 | 14.73562 | 134° | 55km/h | 15258m | -5.1m/s | 0°C | 0% | 0hPa | 2.6V | 18:12:15 | 02:40:14 | 00:00:00 | |
| AA1-15 | 2026-09-03 12:59:42 | 53.86700 | 14.73595 | 136° | 57km/h | 15248m | -5.2m/s | -48.7°C | 3.9% | 120.9hPa | 2.6V | 08:02:46 | 02:40:16 | 00:00:00 | |
| EDDB2-11 | 2026-09-03 12:59:42 | 53.86700 | 14.73595 | 135° | 57km/h | 15248m | -5.2m/s | -48.7°C | 3.1% | 120.9hPa | 2.6V | 00:00:00 | 00:00:00 | 00:00:00 | |
| DL1XH1-15 | 2026-09-03 12:59:41 | 53.86747 | 14.73512 | 129° | 51km/h | 15273m | -5.1m/s | -48.9°C | 5.6% | 120.4hPa | 2.6V | 08:02:23 | 02:40:11 | 00:00:00 | |
| DL1XH-west | 2026-09-03 12:59:41 | 53.86710 | 14.73578 | 135° | 57km/h | 15253m | -5m/s | -48.7°C | 4% | 120.8hPa | 2.6V | 08:02:46 | 02:40:15 | 00:00:00 | |
| AA1-15 | 2026-09-03 12:59:32 | 53.86785 | 14.73422 | 122° | 51km/h | 15299m | -5m/s | -49.2°C | 4.1% | 120hPa | 2.7V | 08:02:46 | 02:40:06 | 00:00:00 | |
| DL1XH-west | 2026-09-03 12:59:31 | 53.86792 | 14.73403 | 121° | 51km/h | 15303m | -5m/s | -49.2°C | 4% | 119.9hPa | 2.6V | 08:02:46 | 02:40:05 | 00:00:00 | |
| AA1-15 | 2026-09-03 12:59:22 | 53.86851 | 14.73228 | 118° | 53km/h | 15350m | -5.3m/s | -49.5°C | 4.1% | 119hPa | 2.6V | 08:02:46 | 02:39:56 | 00:00:00 | |
| DL1XH1-15 | 2026-09-03 12:59:21 | 53.86881 | 14.73125 | 114° | 55km/h | 15376m | -5.4m/s | -49.8°C | 5.9% | 118.6hPa | 2.6V | 08:02:43 | 02:39:51 | 00:00:00 | |
| DL1XH-west | 2026-09-03 12:59:20 | 53.86863 | 14.73188 | 117° | 53km/h | 15360m | -5m/s | -49.6°C | 4.1% | 118.8hPa | 2.5V | 08:02:46 | 02:39:54 | 00:00:00 | |
| AA1-15 | 2026-09-03 12:59:11 | 53.86916 | 14.72998 | 117° | 53km/h | 15407m | -5.2m/s | -49.9°C | 4.1% | 118hPa | 2.6V | 08:03:37 | 02:39:45 | 00:00:00 | |
| DL1XH1-15 | 2026-09-03 12:59:10 | 53.86940 | 14.72922 | 118° | 49km/h | 15428m | -5m/s | -49.9°C | 5.9% | 117.6hPa | 2.5V | 08:02:53 | 02:39:41 | 00:00:00 | |
| DL1XH-west | 2026-09-03 12:59:10 | 53.86922 | 14.72979 | 118° | 51km/h | 15412m | -5.2m/s | -49.9°C | 4.2% | 117.9hPa | 2.6V | 08:03:37 | 02:39:44 | 00:00:00 | |
| SP3WXH-11 | 2026-09-03 12:59:10 | 53.86928 | 14.72960 | 118° | 49km/h | 15418m | -5.3m/s | -50.0°C | 3.3% | 117.8hPa | 2.6V | 00:00:00 | 00:00:00 | 00:00:00 | |
| DJ2DS-15 | 2026-09-03 12:59:09 | 53.86928 | 14.72960 | 118° | 49km/h | 15418m | -5.3m/s | -50.0°C | 3.3% | 117.8hPa | 2.6V | 00:00:00 | 00:00:00 | 00:00:00 | |
| SONDE2-11 | 2026-09-03 12:59:05 | 53.86958 | 14.72868 | 118° | 47km/h | 15444m | -5.3m/s | -50.0°C | 3.3% | 117.3hPa | 2.6V | 00:00:00 | 00:00:00 | 00:00:00 | |
| SP3BTT-10 | 2026-09-03 12:59:04 | 53.86958 | 14.72868 | 119° | 44km/h | 15444m | -5.3m/s | -49.9°C | 6.0% | 117.3hPa | 2.6V | 00:00:00 | 00:00:00 | 00:00:00 | |
| DL1XH1-15 | 2026-09-03 12:59:01 | 53.87000 | 14.72745 | 122° | 46km/h | 15480m | -5.2m/s | -50°C | 6.1% | 116.7hPa | 2.6V | 08:03:03 | 02:39:31 | 00:00:00 | |
| AA1-15 | 2026-09-03 12:59:00 | 53.86982 | 14.72796 | 120° | 47km/h | 15465m | -5.1m/s | -50.1°C | 4.3% | 117hPa | 2.5V | 08:03:37 | 02:39:34 | 00:00:00 | |
| DL1XH-west | 2026-09-03 12:58:59 | 53.86988 | 14.72779 | 121° | 47km/h | 15470m | -5.3m/s | -50.1°C | 4.3% | 116.8hPa | 2.5V | 08:03:37 | 02:39:33 | 00:00:00 | |
| AA1-15 | 2026-09-03 12:58:50 | 53.87041 | 14.72632 | 117° | 44km/h | 15518m | -5.2m/s | -49.8°C | 4.2% | 116hPa | 2.5V | 08:03:37 | 02:39:24 | 00:00:00 | |
| DL1XH1-15 | 2026-09-03 12:58:50 | 53.87055 | 14.72580 | 113° | 46km/h | 15534m | -5.2m/s | -49.8°C | 5.9% | 115.7hPa | 2.6V | 08:03:13 | 02:39:21 | 00:00:00 | |
| DL1XH-west | 2026-09-03 12:58:48 | 53.87051 | 14.72598 | 114° | 46km/h | 15529m | -5.1m/s | -49.8°C | 4.2% | 115.8hPa | 2.6V | 08:03:37 | 02:39:22 | 00:00:00 | |
| AA1-15 | 2026-09-03 12:58:40 | 53.87084 | 14.72457 | 112° | 44km/h | 15570m | -5.3m/s | -49.5°C | 4.1% | 115.1hPa | 2.5V | 08:03:37 | 02:39:14 | 00:00:00 | |
| SP3WXH-11 | 2026-09-03 12:58:39 | 53.87092 | 14.72422 | 109° | 44km/h | 15580m | -5.1m/s | -49.5°C | 3.3% | 114.9hPa | 2.6V | 00:00:00 | 00:00:00 | 00:00:00 | |
| DL1XH-15 | 2026-09-03 12:58:37 | 53.87099 | 14.72386 | 107° | 44km/h | 15591m | -5m/s | -49.6°C | 5.9% | 114.7hPa | 2.6V | 08:03:24 | 02:39:10 | 00:00:00 | |
| DL1XH-west | 2026-09-03 12:58:37 | 53.87096 | 14.72404 | 108° | 44km/h | 15586m | -5.1m/s | -49.5°C | 4.1% | 114.8hPa | 2.6V | 08:03:37 | 02:39:11 | 00:00:00 | |
| DJ2DS-15 | 2026-09-03 12:58:37 | 53.87095 | 14.72404 | 109° | 49km/h | 15586m | -5.0m/s | -49.5°C | 5.9% | 114.8hPa | 2.6V | 00:00:00 | 02:39:11 | 00:00:00 | |
| SONDE2-11 | 2026-09-03 12:58:34 | 53.87109 | 14.72332 | 105° | 44km/h | 15606m | -5.1m/s | -49.6°C | 3.3% | 114.4hPa | 2.6V | 00:00:00 | 00:00:00 | 00:00:00 | |
| DL1XH1-15 | 2026-09-03 12:58:31 | 53.87116 | 14.72274 | 100° | 49km/h | 15621m | -5.2m/s | -49.8°C | 5.8% | 114.2hPa | 2.6V | 08:03:30 | 02:39:04 | 00:00:00 | |
| AA1-15 | 2026-09-03 12:58:30 | 53.87116 | 14.72274 | 100° | 49km/h | 15621m | -5.2m/s | -49.8°C | 4.1% | 114.2hPa | 2.6V | 08:03:37 | 02:39:04 | 00:00:00 | |
| DL1XH-15 | 2026-09-03 12:58:27 | 53.87123 | 14.72187 | 95° | 53km/h | 15642m | -5m/s | -50°C | 5.8% | 113.8hPa | 2.6V | 08:03:34 | 02:39:00 | 00:00:00 | |
| DL1XH-west | 2026-09-03 12:58:26 | 53.87123 | 14.72187 | 96° | 53km/h | 15642m | -5m/s | -50°C | 4.1% | 113.8hPa | 2.6V | 08:03:37 | 02:39:00 | 00:00:00 | |
| AA1-15 | 2026-09-03 12:58:19 | 53.87137 | 14.72033 | 103° | 51km/h | 15677m | -4.9m/s | -50.3°C | 4.3% | 113.2hPa | 2.6V | 08:04:28 | 02:38:53 | 00:00:00 | |
| DL1XH-15 | 2026-09-03 12:58:17 | 53.87146 | 14.71971 | 104° | 49km/h | 15692m | -5.1m/s | -50.2°C | 6.2% | 112.9hPa | 2.6V | 08:03:44 | 02:38:50 | 00:00:00 | |
| DL1XH-west | 2026-09-03 12:58:15 | 53.87149 | 14.71951 | 103° | 49km/h | 15698m | -5m/s | -50.2°C | 4.2% | 112.8hPa | 2.7V | 08:04:28 | 02:38:49 | 00:00:00 | |
| AA1-15 | 2026-09-03 12:58:08 | 53.87163 | 14.71819 | 102° | 40km/h | 15733m | -5.2m/s | -49.8°C | 4.1% | 112.2hPa | 2.6V | 08:04:28 | 02:38:42 | 00:00:00 | |
| DL1XH-15 | 2026-09-03 12:58:07 | 53.87169 | 14.71787 | 107° | 38km/h | 15744m | -5.4m/s | -49.9°C | 5.8% | 112hPa | 2.6V | 08:03:54 | 02:38:40 | 00:00:00 | |
| DO2SHX-10 | 2026-09-03 12:58:07 | 53.87166 | 14.71803 | 105° | 38km/h | 15738m | -5.3m/s | -49.8°C | 5.9% | 112.1hPa | 2.6V | 00:00:00 | 02:38:41 | 00:00:00 | |
| DL1XH1-15 | 2026-09-03 12:58:05 | 53.87195 | 14.71695 | 123° | 44km/h | 15775m | -5.1m/s | -49.6°C | 5.7% | 111.5hPa | 2.6V | 08:04:00 | 02:38:34 | 00:00:00 | |
| DL1XH-west | 2026-09-03 12:58:04 | 53.87175 | 14.71756 | 113° | 38km/h | 15754m | -5.1m/s | -49.7°C | 4% | 111.8hPa | 2.7V | 08:04:28 | 02:38:38 | 00:00:00 | |
| AA1-15 | 2026-09-03 12:57:58 | 53.87208 | 14.71663 | 125° | 46km/h | 15785m | -4.9m/s | -49.6°C | 4.1% | 111.3hPa | 2.7V | 08:04:28 | 02:38:32 | 00:00:00 | |
| DL1XH-15 | 2026-09-03 12:57:57 | 53.87222 | 14.71631 | 124° | 47km/h | 15795m | -4.9m/s | -49.6°C | 5.8% | 111.2hPa | 2.6V | 08:04:04 | 02:38:30 | 00:00:00 | |
| DL1XH-west | 2026-09-03 12:57:54 | 53.87235 | 14.71597 | 125° | 47km/h | 15804m | -4.9m/s | -49.9°C | 4.2% | 111hPa | 2.6V | 08:04:28 | 02:38:28 | 00:00:00 | |
| DL1XH1-15 | 2026-09-03 12:57:53 | 53.87262 | 14.71531 | 122° | 46km/h | 15824m | -5m/s | -50°C | 6% | 110.6hPa | 2.6V | 08:04:10 | 02:38:24 | 00:00:00 | |
| AA1-15 | 2026-09-03 12:57:48 | 53.87274 | 14.71497 | 122° | 46km/h | 15834m | -5.1m/s | -50.1°C | 4.2% | 110.5hPa | 2.6V | 08:04:28 | 02:38:22 | 00:00:00 | |
| DO2SHX-10 | 2026-09-03 12:57:48 | 53.87274 | 14.71497 | 123° | 42km/h | 15835m | -5.0m/s | -50.0°C | 6.0% | 110.5hPa | 2.6V | 00:00:00 | 02:38:22 | 00:00:00 | |
| DL1XH-15 | 2026-09-03 12:57:47 | 53.87287 | 14.71463 | 120° | 47km/h | 15844m | -5m/s | -50.1°C | 6.1% | 110.3hPa | 2.6V | 08:04:14 | 02:38:20 | 00:00:00 | |
| DL1XH-west | 2026-09-03 12:57:43 | 53.87304 | 14.71411 | 119° | 46km/h | 15859m | -5m/s | -50.2°C | 4.2% | 110.1hPa | 2.6V | 08:04:28 | 02:38:17 | 00:00:00 | |
| DL1XH1-15 | 2026-09-03 12:57:41 | 53.87321 | 14.71360 | 119° | 44km/h | 15873m | -4.8m/s | -50°C | 6% | 109.8hPa | 2.6V | 08:04:20 | 02:38:14 | 00:00:00 | |
| EDDB2-11 | 2026-09-03 12:57:38 | 53.87332 | 14.71328 | 120° | 40km/h | 15883m | -5.0m/s | -49.8°C | 3.3% | 109.7hPa | 2.7V | 00:00:00 | 00:00:00 | 00:00:00 | |
| DL1XH-15 | 2026-09-03 12:57:37 | 53.87342 | 14.71298 | 118° | 38km/h | 15893m | -5.2m/s | -49.8°C | 5.9% | 109.5hPa | 2.7V | 08:04:24 | 02:38:10 | 00:00:00 | |
| DJ2DS-15 | 2026-09-03 12:57:37 | 53.87337 | 14.71313 | 120° | 44km/h | 15889m | -4.8m/s | -49.8°C | 5.9% | 109.5hPa | 2.6V | 08:04:00 | 02:38:11 | 00:00:00 | |
| AA1-15 | 2026-09-03 12:57:37 | 53.87337 | 14.71313 | 120° | 40km/h | 15888m | -4.9m/s | -49.9°C | 4.1% | 109.6hPa | 2.6V | 08:04:28 | 02:38:11 | 00:00:00 | |
| MECKS9 | 2026-09-03 12:57:36 | 53.87337 | 14.71313 | 121° | 40km/h | 15889m | -4.9m/s | -49.9°C | 3.3% | 109.6hPa | 2.7V | 08:04:00 | 00:00:00 | 00:00:00 | |
| DL1XH1-15 | 2026-09-03 12:57:35 | 53.87362 | 14.71202 | 101° | 44km/h | 15924m | -4.8m/s | -50°C | 6.1% | 109hPa | 2.7V | 08:04:30 | 02:38:04 | 00:00:00 | |
| DL1XH-west | 2026-09-03 12:57:33 | 53.87354 | 14.71253 | 109° | 40km/h | 15909m | -5.1m/s | -49.9°C | 4.1% | 109.2hPa | 2.6V | 08:04:28 | 02:38:07 | 00:00:00 | |
| DO2SHX-10 | 2026-09-03 12:57:31 | 53.87359 | 14.71219 | 104° | 44km/h | 15919m | -5.0m/s | -49.8°C | 5.9% | 109.0hPa | 2.6V | 00:00:00 | 02:38:05 | 00:00:00 | |
| DL1XH-15 | 2026-09-03 12:57:27 | 53.87369 | 14.71125 | 99° | 46km/h | 15944m | -4.9m/s | -50°C | 6% | 108.7hPa | 2.6V | 08:04:34 | 02:38:00 | 00:00:00 | |
| AA1-15 | 2026-09-03 12:57:27 | 53.87367 | 14.71145 | 99° | 46km/h | 15939m | -4.9m/s | -50°C | 4.2% | 108.7hPa | 2.6V | 08:05:19 | 02:38:01 | 00:00:00 | |
| DO2SHX-10 | 2026-09-03 12:57:26 | 53.87369 | 14.71125 | 100° | 46km/h | 15944m | -4.9m/s | -49.9°C | 6.0% | 108.6hPa | 2.6V | 08:04:00 | 02:38:00 | 00:00:00 | |
| DL1XH1-15 | 2026-09-03 12:57:25 | 53.87381 | 14.71010 | 101° | 46km/h | 15974m | -5.1m/s | -50.1°C | 6% | 108.2hPa | 2.7V | 08:04:40 | 02:37:54 | 00:00:00 | |
| DL1XH-west | 2026-09-03 12:57:22 | 53.87377 | 14.71048 | 101° | 46km/h | 15963m | -5m/s | -50°C | 4.1% | 108.4hPa | 2.6V | 08:05:19 | 02:37:56 | 00:00:00 | |
| DJ2DS-15 | 2026-09-03 12:57:21 | 53.87379 | 14.71029 | 101° | 44km/h | 15968m | -5.2m/s | -50.0°C | 3.3% | 108.2hPa | 2.6V | 00:00:00 | 00:00:00 | 00:00:00 | |
| DO2SHX-10 | 2026-09-03 12:57:20 | 53.87381 | 14.71010 | 102° | 47km/h | 15974m | -5.1m/s | -50.0°C | 6.0% | 108.1hPa | 2.6V | 00:00:00 | 02:37:54 | 00:00:00 | |
| SP3BTT-10 | 2026-09-03 12:57:19 | 53.87383 | 14.70991 | 101° | 62km/h | 15979m | -4.8m/s | -50.0°C | 6.0% | 108.1hPa | 2.6V | 00:00:00 | 00:00:00 | 00:00:00 | |
| DL1XH-15 | 2026-09-03 12:57:17 | 53.87390 | 14.70932 | 99° | 47km/h | 15993m | -4.8m/s | -49.9°C | 5.9% | 107.8hPa | 2.6V | 08:04:44 | 02:37:50 | 00:00:00 | |
| AA1-15 | 2026-09-03 12:57:17 | 53.87388 | 14.70952 | 100° | 47km/h | 15989m | -5m/s | -50.1°C | 4.2% | 107.9hPa | 2.6V | 08:05:19 | 02:37:51 | 00:00:00 | |
| DJ2DS-15 | 2026-09-03 12:57:17 | 53.87388 | 14.70952 | 100° | 44km/h | 15989m | -5.0m/s | -50.0°C | 6.0% | 107.9hPa | 2.7V | 00:00:00 | 02:37:51 | 00:00:00 | |
| DL1XH1-15 | 2026-09-03 12:57:15 | 53.87400 | 14.70812 | 98° | 46km/h | 16023m | -4.9m/s | -50.1°C | 5.9% | 107.3hPa | 2.7V | 08:04:50 | 02:37:44 | 00:00:00 | |
| DL1XH-west | 2026-09-03 12:57:12 | 53.87397 | 14.70851 | 98° | 47km/h | 16013m | -5m/s | -50°C | 4.2% | 107.5hPa | 2.6V | 08:05:19 | 02:37:46 | 00:00:00 | |
| DO2SHX-10 | 2026-09-03 12:57:12 | 53.87397 | 14.70851 | 99° | 47km/h | 16014m | -4.9m/s | -50.0°C | 6.0% | 107.5hPa | 2.6V | 00:00:00 | 02:37:46 | 00:00:00 | |
| DO2SHX-10 | 2026-09-03 12:57:09 | 53.87402 | 14.70792 | 99° | 44km/h | 16029m | -5.0m/s | -50.0°C | 5.9% | 107.2hPa | 2.6V | 00:00:00 | 02:37:43 | 00:00:00 | |
| DL1XH-15 | 2026-09-03 12:57:07 | 53.87408 | 14.70737 | 100° | 42km/h | 16043m | -5m/s | -50°C | 5.8% | 107hPa | 2.6V | 08:04:54 | 02:37:40 | 00:00:00 | |
| AA1-15 | 2026-09-03 12:57:06 | 53.87408 | 14.70737 | 101° | 42km/h | 16043m | -5m/s | -50.1°C | 4.1% | 107hPa | 2.6V | 08:05:19 | 02:37:40 | 00:00:00 | |
| DO2SHX-10 | 2026-09-03 12:57:06 | 53.87408 | 14.70737 | 101° | 42km/h | 16043m | -5.0m/s | -50.0°C | 5.8% | 107.0hPa | 2.6V | 00:00:00 | 02:37:40 | 00:00:00 | |
| DL1XH1-15 | 2026-09-03 12:57:05 | 53.87423 | 14.70636 | 110° | 38km/h | 16074m | -4.9m/s | -50.3°C | 6.1% | 106.5hPa | 2.6V | 08:05:00 | 02:37:34 | 00:00:00 | |
| DL1XH-west | 2026-09-03 12:57:01 | 53.87420 | 14.70652 | 107° | 40km/h | 16069m | -5.1m/s | -50.2°C | 4.2% | 106.6hPa | 2.6V | 08:05:19 | 02:37:35 | 00:00:00 | |
| DO2SHX-10 | 2026-09-03 12:57:00 | 53.87423 | 14.70636 | 111° | 38km/h | 16075m | -4.8m/s | -50.3°C | 6.1% | 106.5hPa | 2.6V | 00:00:00 | 02:37:34 | 00:00:00 | |
| DL1XH-15 | 2026-09-03 12:56:57 | 53.87441 | 14.70578 | 124° | 38km/h | 16095m | -5.2m/s | -50.3°C | 6.1% | 106.2hPa | 2.6V | 08:05:04 | 02:37:30 | 00:00:00 | |
| AA1-15 | 2026-09-03 12:56:56 | 53.87441 | 14.70578 | 125° | 38km/h | 16095m | -5.2m/s | -50.3°C | 4.2% | 106.2hPa | 2.6V | 08:05:19 | 02:37:30 | 00:00:00 | |
| DL1XH1-15 | 2026-09-03 12:56:55 | 53.87477 | 14.70499 | 126° | 38km/h | 16126m | -5.3m/s | -50.3°C | 6.1% | 105.7hPa | 2.6V | 08:05:10 | 02:37:24 | 00:00:00 | |
| DL1XH-west | 2026-09-03 12:56:51 | 53.87471 | 14.70512 | 128° | 38km/h | 16121m | -5.1m/s | -50.3°C | 4.2% | 105.7hPa | 2.6V | 08:05:19 | 02:37:25 | 00:00:00 | |
| DO2SHX-10 | 2026-09-03 12:56:50 | 53.87477 | 14.70499 | 127° | 38km/h | 16127m | -5.2m/s | -50.2°C | 6.1% | 105.6hPa | 2.6V | 00:00:00 | 02:37:24 | 00:00:00 | |
| DL1XH-15 | 2026-09-03 12:56:47 | 53.87498 | 14.70445 | 123° | 38km/h | 16147m | -5.1m/s | -50.2°C | 6.1% | 105.3hPa | 2.6V | 08:05:14 | 02:37:20 | 00:00:00 | |
| AA1-15 | 2026-09-03 12:56:46 | 53.87498 | 14.70445 | 124° | 38km/h | 16147m | -5.1m/s | -50.2°C | 4.2% | 105.3hPa | 2.6V | 08:05:19 | 02:37:20 | 00:00:00 | |
| DJ2DS-15 | 2026-09-03 12:56:45 | 53.87504 | 14.70431 | 124° | 37km/h | 16152m | -5.0m/s | -50.2°C | 3.4% | 105.2hPa | 2.6V | 00:00:00 | 00:00:00 | 00:00:00 | |
| DL1XH-west | 2026-09-03 12:56:41 | 53.87525 | 14.70383 | 128° | 33km/h | 16174m | -5.5m/s | -49.7°C | 4.1% | 104.9hPa | 2.6V | 08:05:19 | 02:37:15 | 00:00:00 | |
| AA1-15 | 2026-09-03 12:56:35 | 53.87544 | 14.70309 | 94° | 35km/h | 16206m | -5.4m/s | -49.7°C | 4.2% | 104.4hPa | 2.5V | 08:06:10 | 02:37:09 | 00:00:00 | |
| DL1XH-west | 2026-09-03 12:56:31 | 53.87544 | 14.70240 | 88° | 47km/h | 16228m | -5.5m/s | -49.9°C | 4.1% | 104hPa | 2.6V | 08:06:10 | 02:37:05 | 00:00:00 | |
| DL1XH1-15 | 2026-09-03 12:56:30 | 53.87543 | 14.70219 | 89° | 51km/h | 16234m | -5.7m/s | -50°C | 5.9% | 104hPa | 2.6V | 08:05:30 | 02:37:04 | 00:00:00 | |
| DO2SHX-10 | 2026-09-03 12:56:29 | 53.87543 | 14.70196 | 91° | 58km/h | 16239m | -5.5m/s | -50.0°C | 5.8% | 103.8hPa | 2.6V | 08:05:00 | 02:37:03 | 00:00:00 | |
| DO2SHX-10 | 2026-09-03 12:56:26 | 53.87546 | 14.70118 | 96° | 69km/h | 16256m | -5.7m/s | -50.1°C | 5.7% | 103.5hPa | 2.6V | 00:00:00 | 02:37:00 | 00:00:00 | |
| DL1XH1-15 | 2026-09-03 12:56:25 | 53.87572 | 14.69936 | 113° | 75km/h | 16292m | -6.2m/s | -50.1°C | 5.7% | 103hPa | 2.6V | 08:05:40 | 02:36:54 | 00:00:00 | |
| AA1-15 | 2026-09-03 12:56:24 | 53.87551 | 14.70059 | 100° | 73km/h | 16267m | -6m/s | -50.2°C | 4.1% | 103.4hPa | 2.6V | 08:06:10 | 02:36:58 | 00:00:00 | |
| DO2SHX-10 | 2026-09-03 12:56:23 | 53.87554 | 14.70029 | 103° | 75km/h | 16274m | -6.0m/s | -50.2°C | 5.7% | 103.2hPa | 2.7V | 00:00:00 | 02:36:57 | 00:00:00 | |
| DL1XH-15 | 2026-09-03 12:56:21 | 53.87606 | 14.69836 | 125° | 57km/h | 16314m | -5.1m/s | -50.1°C | 6.1% | 102.7hPa | 2.7V | 08:05:44 | 02:36:50 | 00:00:00 | |
| DL1XH-west | 2026-09-03 12:56:20 | 53.87572 | 14.69936 | 113° | 75km/h | 16292m | -6.2m/s | -50.1°C | 4% | 103hPa | 2.6V | 08:06:10 | 02:36:54 | 00:00:00 | |
| SP3BTT-10 | 2026-09-03 12:56:19 | 53.87580 | 14.69908 | 117° | 49km/h | 16298m | -5.9m/s | -50.0°C | 5.8% | 102.8hPa | 2.6V | 00:00:00 | 00:00:00 | 00:00:00 | |
| DJ2DS-15 | 2026-09-03 12:56:17 | 53.87597 | 14.69857 | 124° | 51km/h | 16309m | -5.0m/s | -50.0°C | 5.9% | 102.7hPa | 2.6V | 00:00:00 | 02:36:51 | 00:00:00 | |
| DL1XH1-15 | 2026-09-03 12:56:15 | 53.87641 | 14.69745 | 108° | 33km/h | 16347m | -6.1m/s | -50°C | 6% | 102.2hPa | 2.6V | 08:05:50 | 02:36:44 | 00:00:00 | |
| AA1-15 | 2026-09-03 12:56:13 | 53.87628 | 14.69786 | 124° | 42km/h | 16330m | -5.5m/s | -50.2°C | 4.2% | 102.4hPa | 2.6V | 08:06:10 | 02:36:47 | 00:00:00 | |
| DL1XH-west | 2026-09-03 12:56:10 | 53.87641 | 14.69745 | 109° | 33km/h | 16347m | -6.1m/s | -50°C | 4.2% | 102.2hPa | 2.6V | 08:06:10 | 02:36:44 | 00:00:00 | |
| DO2SHX-10 | 2026-09-03 12:56:08 | 53.87644 | 14.69716 | 95° | 40km/h | 16360m | -6.0m/s | -50.0°C | 6.0% | 101.9hPa | 2.7V | 00:00:00 | 02:36:42 | 00:00:00 | |
| DL1XH-15 | 2026-09-03 12:56:07 | 53.87645 | 14.69681 | 87° | 46km/h | 16371m | -5.7m/s | -50°C | 6% | 101.8hPa | 2.7V | 08:05:54 | 02:36:40 | 00:00:00 | |
| MECKS9 | 2026-09-03 12:56:07 | 53.87645 | 14.69700 | 91° | 40km/h | 16366m | -6.1m/s | -50.0°C | 3.3% | 101.8hPa | 2.7V | 00:00:00 | 00:00:00 | 00:00:00 | |
| DL1XH1-15 | 2026-09-03 12:56:05 | 53.87649 | 14.69521 | 98° | 75km/h | 16404m | -5.8m/s | -50.1°C | 5.9% | 101.2hPa | 2.7V | 08:06:00 | 02:36:34 | 00:00:00 | |
| AA1-15 | 2026-09-03 12:56:03 | 53.87644 | 14.69611 | 91° | 64km/h | 16388m | -5.3m/s | -50.1°C | 4.2% | 101.5hPa | 2.5V | 08:06:10 | 02:36:37 | 00:00:00 | |
| DL1XH-west | 2026-09-03 12:55:59 | 53.87652 | 14.69489 | 101° | 77km/h | 16410m | -6.1m/s | -50.1°C | 4.1% | 101.1hPa | 2.6V | 08:06:10 | 02:36:33 | 00:00:00 | |
| SONDE2-11 | 2026-09-03 12:55:58 | 53.87702 | 14.69276 | 124° | 73km/h | 16452m | -5.8m/s | -50.3°C | 3.3% | 100.5hPa | 2.6V | 00:00:00 | 00:00:00 | 00:00:00 | |
| DL1XH-15 | 2026-09-03 12:55:56 | 53.87667 | 14.69393 | 109° | 78km/h | 16428m | -5.9m/s | -50.2°C | 5.8% | 100.9hPa | 2.6V | 08:06:04 | 02:36:30 | 00:00:00 | |
| DL1XH1-15 | 2026-09-03 12:55:55 | 53.87725 | 14.69228 | 130° | 69km/h | 16464m | -6.2m/s | -50.3°C | 6.1% | 100.3hPa | 2.6V | 08:06:10 | 02:36:24 | 00:00:00 | |
| AA1-15 | 2026-09-03 12:55:52 | 53.87702 | 14.69276 | 124° | 73km/h | 16452m | -5.8m/s | -50.3°C | 4.2% | 100.5hPa | 2.6V | 08:06:10 | 02:36:26 | 00:00:00 | |
| DL1XH-15 | 2026-09-03 12:55:51 | 53.87769 | 14.69151 | 136° | 53km/h | 16489m | -6.3m/s | -50.3°C | 6.3% | 99.9hPa | 2.6V | 08:06:14 | 02:36:20 | 00:00:00 | |
| DL1XH-west | 2026-09-03 12:55:48 | 53.87747 | 14.69186 | 135° | 64km/h | 16477m | -6.2m/s | -50.3°C | 4.3% | 100.1hPa | 2.6V | 08:07:01 | 02:36:22 | 00:00:00 | |
| AA1-15 | 2026-09-03 12:55:42 | 53.87799 | 14.69095 | 120° | 37km/h | 16513m | -6m/s | -50.4°C | 4.4% | 99.6hPa | 2.6V | 08:07:01 | 02:36:16 | 00:00:00 | |
| DL1XH-15 | 2026-09-03 12:55:41 | 53.87809 | 14.68997 | 89° | 47km/h | 16550m | -6.7m/s | -50.3°C | 6% | 99hPa | 2.6V | 08:06:24 | 02:36:10 | 00:00:00 | |
| DL1XH1-15 | 2026-09-03 12:55:41 | 53.87806 | 14.69067 | 104° | 37km/h | 16525m | -5.9m/s | -50.4°C | 6.3% | 99.4hPa | 2.5V | 08:06:20 | 02:36:14 | 00:00:00 | |
| DL1XH-west | 2026-09-03 12:55:37 | 53.87809 | 14.68997 | 90° | 47km/h | 16550m | -6.7m/s | -50.3°C | 4.2% | 99hPa | 2.6V | 08:07:01 | 02:36:10 | 00:00:00 | |
| DJ2DS-15 | 2026-09-03 12:55:37 | 53.87809 | 14.69017 | 92° | 60km/h | 16544m | -6.4m/s | -50.3°C | 6.0% | 99.1hPa | 2.6V | 00:00:00 | 02:36:11 | 00:00:00 | |
| DL1XH1-15 | 2026-09-03 12:55:35 | 53.87819 | 14.68839 | 106° | 73km/h | 16587m | -5.8m/s | -50.1°C | 5.7% | 98.4hPa | 2.6V | 08:06:30 | 02:36:04 | 00:00:00 | |
| AA1-15 | 2026-09-03 12:55:32 | 53.87812 | 14.68899 | 97° | 68km/h | 16576m | -5.9m/s | -50.3°C | 4.1% | 98.6hPa | 2.6V | 08:07:01 | 02:36:06 | 00:00:00 | |
| DL1XH-15 | 2026-09-03 12:55:31 | 53.87852 | 14.68725 | 124° | 73km/h | 16611m | -6m/s | -49.8°C | 5.7% | 98.1hPa | 2.6V | 08:06:34 | 02:36:00 | 00:00:00 | |
| DL1XH-west | 2026-09-03 12:55:27 | 53.87842 | 14.68751 | 120° | 75km/h | 16605m | -6.1m/s | -49.9°C | 4% | 98.2hPa | 2.7V | 08:07:01 | 02:36:01 | 00:00:00 | |
| DO2SHX-10 | 2026-09-03 12:55:26 | 53.87852 | 14.68725 | 125° | 73km/h | 16611m | -6.0m/s | -49.8°C | 5.7% | 98.1hPa | 2.7V | 00:00:00 | 02:36:00 | 00:00:00 | |
| DO2SHX-10 | 2026-09-03 12:55:23 | 53.87884 | 14.68656 | 134° | 44km/h | 16629m | -6.1m/s | -49.8°C | 5.9% | 97.7hPa | 2.7V | 00:00:00 | 02:35:57 | 00:00:00 | |
| MECKS9 | 2026-09-03 12:55:22 | 53.87884 | 14.68656 | 134° | 62km/h | 16629m | -6.2m/s | -49.8°C | 3.3% | 97.8hPa | 2.6V | 00:00:00 | 00:00:00 | 00:00:00 | |
| DL1XH1-15 | 2026-09-03 12:55:21 | 53.87912 | 14.68607 | 130° | 44km/h | 16646m | -5.5m/s | -49.9°C | 6.1% | 97.5hPa | 2.6V | 08:06:40 | 02:35:54 | 00:00:00 | |
| DL1XH-15 | 2026-09-03 12:55:21 | 53.87930 | 14.68553 | 105° | 33km/h | 16669m | -5.9m/s | -50.1°C | 6.2% | 97.2hPa | 2.6V | 08:06:44 | 02:35:50 | 00:00:00 | |
| AA1-15 | 2026-09-03 12:55:21 | 53.87904 | 14.68621 | 134° | 49km/h | 16641m | -5.9m/s | -49.9°C | 4.2% | 97.6hPa | 2.6V | 08:07:01 | 02:35:55 | 00:00:00 | |
| DL1XH-west | 2026-09-03 12:55:16 | 53.87930 | 14.68553 | 106° | 33km/h | 16669m | -5.9m/s | -50.1°C | 4.2% | 97.2hPa | 2.6V | 08:07:01 | 02:35:50 | 00:00:00 | |
| DL1XH1-15 | 2026-09-03 12:55:15 | 53.87931 | 14.68456 | 84° | 51km/h | 16705m | -6.1m/s | -50.4°C | 6% | 96.7hPa | 2.5V | 08:06:50 | 02:35:44 | 00:00:00 | |
| AA1-15 | 2026-09-03 12:55:11 | 53.87932 | 14.68476 | 85° | 46km/h | 16699m | -5.9m/s | -50.3°C | 4.2% | 96.8hPa | 2.6V | 08:07:01 | 02:35:45 | 00:00:00 | |
| DL1XH-west | 2026-09-03 12:55:06 | 53.87929 | 14.68352 | 92° | 69km/h | 16730m | -6.2m/s | -50.5°C | 4.2% | 96.3hPa | 2.7V | 08:07:01 | 02:35:40 | 00:00:00 | |
| AA1-15 | 2026-09-03 12:55:01 | 53.87945 | 14.68196 | 109° | 77km/h | 16760m | -5.8m/s | -50.4°C | 4.2% | 95.9hPa | 2.7V | 08:07:01 | 02:35:35 | 00:00:00 | |
| DL1XH-west | 2026-09-03 12:54:56 | 53.87987 | 14.68058 | 126° | 69km/h | 16788m | -6.1m/s | -50.5°C | 4.2% | 95.4hPa | 2.7V | 08:07:52 | 02:35:30 | 00:00:00 | |
| DL1XH1-15 | 2026-09-03 12:54:53 | 53.88047 | 14.67941 | 134° | 49km/h | 16825m | -6.2m/s | -50.5°C | 6.4% | 94.9hPa | 2.6V | 08:07:10 | 02:35:24 | 00:00:00 | |
| DL1XH-15 | 2026-09-03 12:54:51 | 53.88074 | 14.67888 | 122° | 35km/h | 16850m | -6m/s | -50.3°C | 6.3% | 94.5hPa | 2.6V | 08:07:14 | 02:35:20 | 00:00:00 | |
| AA1-15 | 2026-09-03 12:54:50 | 53.88047 | 14.67941 | 134° | 49km/h | 16825m | -6.2m/s | -50.5°C | 4.3% | 94.9hPa | 2.6V | 08:07:52 | 02:35:24 | 00:00:00 | |
| DL1XH-west | 2026-09-03 12:54:46 | 53.88082 | 14.67862 | 108° | 33km/h | 16862m | -6.1m/s | -50.3°C | 4.2% | 94.4hPa | 2.7V | 08:07:52 | 02:35:18 | 00:00:00 | |
| DL1XH1-15 | 2026-09-03 12:54:45 | 53.88086 | 14.67796 | 91° | 49km/h | 16886m | -6m/s | -49.8°C | 5.9% | 94hPa | 2.6V | 08:07:20 | 02:35:14 | 00:00:00 | |
| AA1-15 | 2026-09-03 12:54:40 | 53.88086 | 14.67796 | 91° | 49km/h | 16886m | -6m/s | -49.8°C | 4.1% | 94hPa | 2.6V | 08:07:52 | 02:35:14 | 00:00:00 | |
| DO2SHX-10 | 2026-09-03 12:54:39 | 53.88086 | 14.67774 | 93° | 58km/h | 16892m | -6.0m/s | -49.8°C | 5.9% | 93.9hPa | 2.6V | 00:00:00 | 02:35:13 | 00:00:00 | |
| DL1XH-15 | 2026-09-03 12:54:36 | 53.88091 | 14.67697 | 98° | 68km/h | 16910m | -6m/s | -49.8°C | 5.8% | 93.7hPa | 2.6V | 08:07:24 | 02:35:10 | 00:00:00 | |
| DL1XH-west | 2026-09-03 12:54:34 | 53.88112 | 14.67578 | 115° | 77km/h | 16933m | -5.9m/s | -49.8°C | 4% | 93.3hPa | 2.7V | 08:07:52 | 02:35:06 | 00:00:00 | |
| DL1XH1-15 | 2026-09-03 12:54:34 | 53.88131 | 14.67521 | 123° | 77km/h | 16945m | -6.1m/s | -49.8°C | 5.6% | 93.2hPa | 2.7V | 08:07:30 | 02:35:04 | 00:00:00 | |
| AA1-15 | 2026-09-03 12:54:29 | 53.88142 | 14.67495 | 127° | 75km/h | 16951m | -6.2m/s | -49.8°C | 4% | 93.1hPa | 2.6V | 08:07:52 | 02:35:03 | 00:00:00 | |
| MECKS9 | 2026-09-03 12:54:28 | 53.88142 | 14.67495 | 128° | 75km/h | 16952m | -6.2m/s | -49.8°C | 3.1% | 93.1hPa | 2.6V | 00:00:00 | 00:00:00 | 00:00:00 | |
| DO2SHX-10 | 2026-09-03 12:54:27 | 53.88165 | 14.67448 | 134° | 66km/h | 16964m | -5.9m/s | -49.7°C | 5.7% | 92.8hPa | 2.6V | 00:00:00 | 02:35:01 | 00:00:00 | |
| DL1XH-15 | 2026-09-03 12:54:26 | 53.88188 | 14.67412 | 138° | 57km/h | 16975m | -6m/s | -49.7°C | 5.8% | 92.7hPa | 2.7V | 08:07:35 | 02:34:59 | 00:00:00 | |
| DL1XH1-15 | 2026-09-03 12:54:25 | 53.88227 | 14.67347 | 121° | 33km/h | 17004m | -6m/s | -49.9°C | 5.9% | 92.3hPa | 2.6V | 08:07:40 | 02:34:54 | 00:00:00 | |
| DL1XH-west | 2026-09-03 12:54:23 | 53.88208 | 14.67383 | 138° | 46km/h | 16987m | -5.7m/s | -49.7°C | 4.2% | 92.6hPa | 2.6V | 08:07:52 | 02:34:57 | 00:00:00 | |
| AA1-15 | 2026-09-03 12:54:19 | 53.88231 | 14.67334 | 114° | 33km/h | 17010m | -5.9m/s | -49.9°C | 4.1% | 92.2hPa | 2.6V | 08:07:52 | 02:34:53 | 00:00:00 | |
| DJ2DS-15 | 2026-09-03 12:54:17 | 53.88235 | 14.67307 | 101° | 58km/h | 17022m | -5.9m/s | -50.0°C | 5.9% | 92.0hPa | 2.7V | 00:00:00 | 02:34:51 | 00:00:00 | |
| DL1XH-15 | 2026-09-03 12:54:16 | 53.88238 | 14.67274 | 93° | 42km/h | 17033m | -5.9m/s | -50.2°C | 5.9% | 91.9hPa | 2.7V | 08:07:45 | 02:34:49 | 00:00:00 | |
| DO2SHX-10 | 2026-09-03 12:54:15 | 53.88238 | 14.67274 | 94° | 47km/h | 17034m | -5.9m/s | -50.2°C | 5.9% | 91.8hPa | 2.7V | 00:00:00 | 02:34:49 | 00:00:00 | |
| DL1XH1-15 | 2026-09-03 12:54:13 | 53.88242 | 14.67161 | 95° | 62km/h | 17062m | -5.9m/s | -50.5°C | 5.8% | 91.5hPa | 2.7V | 08:07:50 | 02:34:44 | 00:00:00 | |
| DL1XH-west | 2026-09-03 12:54:13 | 53.88239 | 14.67234 | 93° | 51km/h | 17045m | -5.8m/s | -50.4°C | 4.2% | 91.8hPa | 2.6V | 08:07:52 | 02:34:47 | 00:00:00 | |
| AA1-15 | 2026-09-03 12:54:08 | 53.88246 | 14.67107 | 100° | 66km/h | 17074m | -5.9m/s | -50.6°C | 4.2% | 91.3hPa | 2.6V | 08:07:52 | 02:34:42 | 00:00:00 | |
| DL1XH-15 | 2026-09-03 12:54:06 | 53.88260 | 14.67024 | 110° | 69km/h | 17091m | -5.7m/s | -50.8°C | 6% | 91.1hPa | 2.7V | 08:07:55 | 02:34:39 | 00:00:00 | |
| DO2SHX-10 | 2026-09-03 12:54:06 | 53.88254 | 14.67051 | 107° | 69km/h | 17086m | -5.5m/s | -50.7°C | 5.9% | 91.1hPa | 2.7V | 00:00:00 | 02:34:40 | 00:00:00 | |
| DL1XH1-15 | 2026-09-03 12:54:05 | 53.88301 | 14.66898 | 126° | 64km/h | 17118m | -5.5m/s | -50.8°C | 6.2% | 90.7hPa | 2.7V | 08:08:00 | 02:34:34 | 00:00:00 | |
| DL1XH-west | 2026-09-03 12:54:03 | 53.88291 | 14.66920 | 123° | 66km/h | 17113m | -5.6m/s | -50.9°C | 4.3% | 90.8hPa | 2.6V | 08:08:43 | 02:34:35 | 00:00:00 | |
| DO2SHX-10 | 2026-09-03 12:54:03 | 53.88274 | 14.66970 | 118° | 68km/h | 17102m | -5.5m/s | -50.8°C | 6.1% | 90.9hPa | 2.7V | 00:00:00 | 02:34:37 | 00:00:00 | |
| EDDB2-11 | 2026-09-03 12:54:01 | 53.88301 | 14.66898 | 126° | 64km/h | 17118m | -5.5m/s | -50.8°C | 3.4% | 90.7hPa | 2.7V | 00:00:00 | 00:00:00 | 00:00:00 | |
| DL1XH-15 | 2026-09-03 12:54:00 | 53.88350 | 14.66808 | 138° | 51km/h | 17146m | -5.7m/s | -50.8°C | 6% | 90.3hPa | 2.7V | 08:08:05 | 02:34:29 | 00:00:00 | |
| AA1-15 | 2026-09-03 12:53:58 | 53.88320 | 14.66857 | 133° | 58km/h | 17129m | -5.7m/s | -50.9°C | 4.3% | 90.6hPa | 2.6V | 08:08:43 | 02:34:32 | 00:00:00 | |
| DJ2DS-15 | 2026-09-03 12:53:57 | 53.88330 | 14.66840 | 135° | 40km/h | 17135m | -5.8m/s | -50.8°C | 6.1% | 90.4hPa | 2.7V | 00:00:00 | 02:34:31 | 00:00:00 | |
| MECKS9 | 2026-09-03 12:53:55 | 53.88340 | 14.66823 | 138° | 53km/h | 17140m | -5.8m/s | -50.9°C | 3.3% | 90.4hPa | 2.7V | 00:00:00 | 00:00:00 | 00:00:00 | |
| DO2SHX-10 | 2026-09-03 12:53:54 | 53.88360 | 14.66794 | 141° | 44km/h | 17152m | -5.6m/s | -50.8°C | 6.0% | 90.2hPa | 2.7V | 00:00:00 | 02:34:28 | 00:00:00 | |
| DL1XH1-15 | 2026-09-03 12:53:53 | 53.88392 | 14.66751 | 139° | 33km/h | 17174m | -5.8m/s | -50.9°C | 6.1% | 89.9hPa | 2.7V | 08:08:10 | 02:34:24 | 00:00:00 | |
| DL1XH-west | 2026-09-03 12:53:51 | 53.88386 | 14.66761 | 141° | 37km/h | 17168m | -5.8m/s | -50.9°C | 4.3% | 90hPa | 2.7V | 08:08:43 | 02:34:25 | 00:00:00 | |
| AA1-15 | 2026-09-03 12:53:48 | 53.88403 | 14.66733 | 126° | 27km/h | 17185m | -5.7m/s | -50.9°C | 4.4% | 89.8hPa | 2.6V | 08:08:43 | 02:34:22 | 00:00:00 | |
| DO2SHX-10 | 2026-09-03 12:53:48 | 53.88403 | 14.66733 | 126° | 26km/h | 17185m | -5.7m/s | -50.9°C | 6.2% | 89.7hPa | 2.7V | 00:00:00 | 02:34:22 | 00:00:00 | |
| DL1XH-15 | 2026-09-03 12:53:46 | 53.88409 | 14.66701 | 96° | 29km/h | 17202m | -5.8m/s | -51.3°C | 6.4% | 89.5hPa | 2.7V | 08:08:15 | 02:34:19 | 00:00:00 | |
| DL1XH1-15 | 2026-09-03 12:53:45 | 53.88408 | 14.66617 | 88° | 51km/h | 17230m | -5.6m/s | -51.5°C | 6.2% | 89.1hPa | 2.7V | 08:08:20 | 02:34:14 | 00:00:00 | |
| DL1XH-west | 2026-09-03 12:53:40 | 53.88408 | 14.66617 | 89° | 51km/h | 17230m | -5.6m/s | -51.5°C | 4.4% | 89.1hPa | 2.7V | 08:08:43 | 02:34:14 | 00:00:00 | |
| AA1-15 | 2026-09-03 12:53:37 | 53.88409 | 14.66545 | 94° | 60km/h | 17247m | -5.8m/s | -51.5°C | 4.4% | 88.9hPa | 2.6V | 08:08:43 | 02:34:11 | 00:00:00 | |
| DJ2DS-15 | 2026-09-03 12:53:37 | 53.88409 | 14.66545 | 94° | 66km/h | 17247m | -5.7m/s | -51.5°C | 6.2% | 88.8hPa | 2.6V | 00:00:00 | 02:34:11 | 00:00:00 | |
| DO2SHX-10 | 2026-09-03 12:53:36 | 53.88410 | 14.66519 | 97° | 64km/h | 17253m | -5.7m/s | -51.5°C | 6.3% | 88.8hPa | 2.7V | 00:00:00 | 02:34:10 | 00:00:00 | |
| DL1XH1-15 | 2026-09-03 12:53:33 | 53.88435 | 14.66356 | 111° | 68km/h | 17286m | -5.5m/s | -51.5°C | 6.3% | 88.3hPa | 2.7V | 08:08:30 | 02:34:04 | 00:00:00 | |
| DL1XH-west | 2026-09-03 12:53:30 | 53.88435 | 14.66356 | 111° | 68km/h | 17286m | -5.5m/s | -51.5°C | 4.5% | 88.3hPa | 2.7V | 08:08:43 | 02:34:04 | 00:00:00 | |
| AA1-15 | 2026-09-03 12:53:26 | 53.88463 | 14.66250 | 117° | 68km/h | 17308m | -5.6m/s | -51.4°C | 4.4% | 88hPa | 2.6V | 08:08:43 | 02:34:00 | 00:00:00 | |
| DL1XH-15 | 2026-09-03 12:53:26 | 53.88470 | 14.66224 | 118° | 68km/h | 17314m | -5.6m/s | -51.4°C | 6.1% | 88hPa | 2.7V | 08:08:35 | 02:33:59 | 00:00:00 | |
| DO2SHX-10 | 2026-09-03 12:53:24 | 53.88479 | 14.66199 | 121° | 68km/h | 17320m | -6.0m/s | -51.3°C | 6.0% | 87.8hPa | 2.7V | 00:00:00 | 02:33:58 | 00:00:00 | |
| DO2SHX-10 | 2026-09-03 12:53:21 | 53.88506 | 14.66126 | 125° | 60km/h | 17337m | -5.2m/s | -51.3°C | 6.1% | 87.6hPa | 2.6V | 00:00:00 | 02:33:55 | 00:00:00 | |
| DL1XH-15 | 2026-09-03 12:53:20 | 53.88559 | 14.66007 | 129° | 53km/h | 17368m | -5.1m/s | -51.7°C | 6.4% | 87.2hPa | 2.6V | 08:08:45 | 02:33:49 | 00:00:00 | |
| DL1XH-west | 2026-09-03 12:53:19 | 53.88524 | 14.66083 | 127° | 60km/h | 17347m | -5.4m/s | -51.5°C | 4.3% | 87.5hPa | 2.7V | 08:08:43 | 02:33:53 | 00:00:00 | |
| AA1-15 | 2026-09-03 12:53:15 | 53.88559 | 14.66007 | 129° | 53km/h | 17368m | -5.1m/s | -51.7°C | 4.5% | 87.2hPa | 2.6V | 08:09:34 | 02:33:49 | 00:00:00 | |
| DL1XH-west | 2026-09-03 12:53:08 | 53.88621 | 14.65893 | 134° | 53km/h | 17405m | -5.4m/s | -51.6°C | 4.5% | 86.8hPa | 2.7V | 08:09:34 | 02:33:42 | 00:00:00 | |
| DO2SHX-10 | 2026-09-03 12:53:08 | 53.88621 | 14.65893 | 135° | 53km/h | 17405m | -5.3m/s | -51.6°C | 6.3% | 86.7hPa | 2.7V | 00:00:00 | 02:33:42 | 00:00:00 | |
| DL1XH-15 | 2026-09-03 12:53:06 | 53.88659 | 14.65826 | 133° | 57km/h | 17426m | -5.2m/s | -51.6°C | 6.3% | 86.5hPa | 2.7V | 08:08:56 | 02:33:38 | 00:00:00 | |
| DL1XH1-15 | 2026-09-03 12:53:06 | 53.88700 | 14.65755 | 135° | 58km/h | 17447m | -5.3m/s | -51.7°C | 6.4% | 86.2hPa | 2.6V | 08:09:00 | 02:33:34 | 00:00:00 | |
| AA1-15 | 2026-09-03 12:53:04 | 53.88659 | 14.65826 | 134° | 57km/h | 17426m | -5.2m/s | -51.7°C | 4.4% | 86.5hPa | 2.7V | 08:09:34 | 02:33:38 | 00:00:00 | |
| DL1XH-west | 2026-09-03 12:52:57 | 53.88733 | 14.65705 | 140° | 58km/h | 17463m | -5.4m/s | -51.8°C | 4.5% | 86hPa | 2.7V | 08:09:34 | 02:33:31 | 00:00:00 | |
| DO2SHX-10 | 2026-09-03 12:52:56 | 53.88744 | 14.65689 | 142° | 55km/h | 17469m | -5.5m/s | -51.8°C | 6.4% | 85.8hPa | 2.6V | 00:00:00 | 02:33:30 | 00:00:00 | |
| DL1XH-15 | 2026-09-03 12:52:55 | 53.88766 | 14.65660 | 143° | 53km/h | 17479m | -5.4m/s | -51.8°C | 6.4% | 85.8hPa | 2.6V | 08:09:06 | 02:33:28 | 00:00:00 | |
| AA1-15 | 2026-09-03 12:52:54 | 53.88766 | 14.65660 | 144° | 53km/h | 17480m | -5.4m/s | -51.8°C | 4.5% | 85.8hPa | 2.6V | 08:09:34 | 02:33:28 | 00:00:00 | |
| DL1XH1-15 | 2026-09-03 12:52:53 | 53.88807 | 14.65613 | 147° | 46km/h | 17501m | -5.4m/s | -51.8°C | 6.4% | 85.5hPa | 2.6V | 08:09:10 | 02:33:24 | 00:00:00 | |
| DO2SHX-10 | 2026-09-03 12:52:53 | 53.88777 | 14.65647 | 146° | 49km/h | 17485m | -5.2m/s | -51.8°C | 6.4% | 85.6hPa | 2.7V | 00:00:00 | 02:33:27 | 00:00:00 | |
| DO2SHX-10 | 2026-09-03 12:52:50 | 53.88807 | 14.65614 | 148° | 44km/h | 17501m | -5.3m/s | -51.8°C | 6.4% | 85.4hPa | 2.7V | 00:00:00 | 02:33:24 | 00:00:00 | |
| DO2SHX-10 | 2026-09-03 12:52:47 | 53.88835 | 14.65585 | 151° | 40km/h | 17517m | -5.1m/s | -51.7°C | 6.2% | 85.2hPa | 2.7V | 08:09:00 | 02:33:21 | 00:00:00 | |
| DL1XH-15 | 2026-09-03 12:52:46 | 53.88861 | 14.65560 | 150° | 38km/h | 17533m | -5.6m/s | -51.7°C | 6.1% | 85hPa | 2.6V | 08:09:16 | 02:33:18 | 00:00:00 | |
| DL1XH-west | 2026-09-03 12:52:46 | 53.88844 | 14.65577 | 150° | 40km/h | 17522m | -5.3m/s | -51.7°C | 4.4% | 85.2hPa | 2.7V | 08:09:34 | 02:33:20 | 00:00:00 | |
| DL1XH1-15 | 2026-09-03 12:52:45 | 53.88898 | 14.65526 | 150° | 44km/h | 17554m | -5.3m/s | -51.8°C | 6.3% | 84.8hPa | 2.7V | 08:09:20 | 02:33:14 | 00:00:00 | |
| AA1-15 | 2026-09-03 12:52:43 | 53.88870 | 14.65552 | 151° | 40km/h | 17538m | -5.4m/s | -51.6°C | 4.4% | 85hPa | 2.6V | 08:09:34 | 02:33:17 | 00:00:00 | |
| DL1XH-west | 2026-09-03 12:52:36 | 53.88935 | 14.65491 | 152° | 40km/h | 17576m | -5.2m/s | -51.9°C | 4.5% | 84.5hPa | 2.6V | 08:09:34 | 02:33:10 | 00:00:00 | |
| DL1XH-15 | 2026-09-03 12:52:35 | 53.88953 | 14.65476 | 153° | 38km/h | 17586m | -5.6m/s | -51.9°C | 6.5% | 84.3hPa | 2.7V | 08:09:26 | 02:33:08 | 00:00:00 | |
| DO2SHX-10 | 2026-09-03 12:52:34 | 53.88953 | 14.65475 | 154° | 37km/h | 17587m | -5.5m/s | -51.9°C | 6.5% | 84.3hPa | 2.6V | 00:00:00 | 02:33:08 | 00:00:00 | |
| DL1XH1-15 | 2026-09-03 12:52:33 | 53.88983 | 14.65454 | 159° | 27km/h | 17609m | -5.8m/s | -51.8°C | 6.4% | 84hPa | 2.6V | 08:09:30 | 02:33:04 | 00:00:00 | |
| AA1-15 | 2026-09-03 12:52:33 | 53.88961 | 14.65469 | 155° | 37km/h | 17592m | -5.3m/s | -51.9°C | 4.6% | 84.3hPa | 2.7V | 08:09:34 | 02:33:07 | 00:00:00 | |
| DO2SHX-10 | 2026-09-03 12:52:31 | 53.88976 | 14.65458 | 159° | 27km/h | 17603m | -5.4m/s | -51.7°C | 6.4% | 84.1hPa | 2.7V | 00:00:00 | 02:33:05 | 00:00:00 | |
| DO2SHX-10 | 2026-09-03 12:52:28 | 53.88994 | 14.65447 | 159° | 15km/h | 17621m | -6.1m/s | -51.8°C | 6.4% | 83.8hPa | 2.7V | 00:00:00 | 02:33:02 | 00:00:00 | |
| DL1XH-15 | 2026-09-03 12:52:26 | 53.89006 | 14.65432 | 102° | 13km/h | 17645m | -5.9m/s | -52°C | 6.6% | 83.6hPa | 2.6V | 08:09:36 | 02:32:58 | 00:00:00 | |
| DL1XH-west | 2026-09-03 12:52:25 | 53.89004 | 14.65436 | 126° | 13km/h | 17639m | -6m/s | -52°C | 4.6% | 83.6hPa | 2.6V | 08:10:25 | 02:32:59 | 00:00:00 | |
| AA1-15 | 2026-09-03 12:52:22 | 53.89005 | 14.65417 | 82° | 22km/h | 17657m | -5.9m/s | -52.2°C | 4.6% | 83.4hPa | 2.7V | 08:10:25 | 02:32:56 | 00:00:00 | |
| DO2SHX-10 | 2026-09-03 12:52:21 | 53.89004 | 14.65407 | 80° | 31km/h | 17663m | -5.7m/s | -52.2°C | 6.5% | 83.3hPa | 2.7V | 00:00:00 | 02:32:55 | 00:00:00 | |
| DO2SHX-10 | 2026-09-03 12:52:18 | 53.89000 | 14.65364 | 82° | 44km/h | 17680m | -5.9m/s | -52.3°C | 6.5% | 83.1hPa | 2.7V | 08:09:00 | 02:32:52 | 00:00:00 | |
| DJ2DS-15 | 2026-09-03 12:52:17 | 53.88999 | 14.65346 | 84° | 42km/h | 17686m | -6.1m/s | -52.4°C | 6.5% | 83.0hPa | 2.7V | 00:00:00 | 02:32:51 | 00:00:00 | |
| DG6HD-11 | 2026-09-03 12:52:16 | 53.88998 | 14.65326 | 88° | 33km/h | 17692m | -6.1m/s | -52.4°C | 6.5% | 82.9hPa | 2.7V | 08:09:00 | 00:00:00 | 00:00:00 | |
| DL1XH-15 | 2026-09-03 12:52:15 | 53.89002 | 14.65259 | 104° | 57km/h | 17711m | -6.2m/s | -52.4°C | 6.4% | 82.7hPa | 2.6V | 08:09:47 | 02:32:47 | 00:00:00 | |
| DL1XH-west | 2026-09-03 12:52:15 | 53.88998 | 14.65305 | 93° | 53km/h | 17698m | -6.2m/s | -52.5°C | 4.6% | 82.9hPa | 2.6V | 08:10:25 | 02:32:49 | 00:00:00 | |
| AA1-15 | 2026-09-03 12:52:11 | 53.89012 | 14.65213 | 118° | 58km/h | 17723m | -5.9m/s | -52.3°C | 4.5% | 82.6hPa | 2.7V | 08:10:25 | 02:32:45 | 00:00:00 | |
| DO2SHX-10 | 2026-09-03 12:52:09 | 53.89028 | 14.65173 | 131° | 55km/h | 17734m | -5.6m/s | -52.1°C | 6.3% | 82.4hPa | 2.6V | 00:00:00 | 02:32:43 | 00:00:00 | |
| DO2SHX-10 | 2026-09-03 12:52:06 | 53.89058 | 14.65129 | 147° | 46km/h | 17752m | -6.0m/s | -52.0°C | 6.5% | 82.2hPa | 2.6V | 00:00:00 | 02:32:40 | 00:00:00 | |
| DL1XH1-15 | 2026-09-03 12:52:05 | 53.89107 | 14.65088 | 157° | 24km/h | 17788m | -5.8m/s | -52°C | 6.8% | 81.8hPa | 2.6V | 08:10:00 | 02:32:34 | 00:00:00 | |
| DL1XH-west | 2026-09-03 12:52:04 | 53.89077 | 14.65109 | 154° | 40km/h | 17764m | -6m/s | -52°C | 4.6% | 82.1hPa | 2.7V | 08:10:25 | 02:32:38 | 00:00:00 | |
| AA1-15 | 2026-09-03 12:52:01 | 53.89101 | 14.65092 | 159° | 27km/h | 17782m | -5.8m/s | -52°C | 4.6% | 81.8hPa | 2.6V | 08:10:25 | 02:32:35 | 00:00:00 | |
| DL1XH-west | 2026-09-03 12:51:54 | 53.89119 | 14.65062 | 77° | 15km/h | 17823m | -6.1m/s | -52.1°C | 4.6% | 81.3hPa | 2.6V | 08:10:25 | 02:32:28 | 00:00:00 | |
| DL1XH1-15 | 2026-09-03 12:51:53 | 53.89109 | 14.65023 | 68° | 35km/h | 17848m | -6.6m/s | -52.1°C | 6.3% | 81hPa | 2.6V | 08:10:10 | 02:32:24 | 00:00:00 | |
| AA1-15 | 2026-09-03 12:51:50 | 53.89109 | 14.65023 | 68° | 35km/h | 17848m | -6.6m/s | -52.1°C | 4.5% | 81hPa | 2.6V | 08:10:25 | 02:32:24 | 00:00:00 | |
| DO2SHX-10 | 2026-09-03 12:51:50 | 53.89109 | 14.65023 | 69° | 40km/h | 17848m | -6.6m/s | -52.0°C | 6.3% | 80.9hPa | 2.7V | 00:00:00 | 02:32:24 | 00:00:00 | |
| DO2SHX-10 | 2026-09-03 12:51:47 | 53.89101 | 14.64972 | 81° | 53km/h | 17868m | -6.6m/s | -52.2°C | 6.3% | 80.7hPa | 2.7V | 08:10:00 | 02:32:21 | 00:00:00 | |
| DG6HD-11 | 2026-09-03 12:51:46 | 53.89099 | 14.64950 | 87° | 44km/h | 17874m | -6.3m/s | -52.2°C | 6.3% | 80.6hPa | 2.7V | 00:00:00 | 00:00:00 | 00:00:00 | |
| DL1XH1-15 | 2026-09-03 12:51:45 | 53.89124 | 14.64815 | 126° | 55km/h | 17912m | -6.3m/s | -51.9°C | 6.3% | 80.2hPa | 2.7V | 08:10:20 | 02:32:14 | 00:00:00 | |
| DL1XH-west | 2026-09-03 12:51:43 | 53.89105 | 14.64880 | 107° | 58km/h | 17893m | -6.4m/s | -52.2°C | 4.5% | 80.4hPa | 2.6V | 08:10:25 | 02:32:17 | 00:00:00 | |
| MECKS9 | 2026-09-03 12:51:42 | 53.89110 | 14.64857 | 115° | 58km/h | 17899m | -6.3m/s | -52.1°C | 3.4% | 80.4hPa | 2.6V | 08:10:00 | 00:00:00 | 00:00:00 | |
| DO2SHX-10 | 2026-09-03 12:51:40 | 53.89124 | 14.64815 | 127° | 51km/h | 17912m | -6.2m/s | -51.9°C | 6.3% | 80.1hPa | 2.6V | 00:00:00 | 02:32:14 | 00:00:00 | |
| AA1-15 | 2026-09-03 12:51:40 | 53.89124 | 14.64815 | 127° | 55km/h | 17912m | -6.3m/s | -51.9°C | 4.5% | 80.2hPa | 2.7V | 08:10:25 | 02:32:14 | 00:00:00 | |
| DO2SHX-10 | 2026-09-03 12:51:34 | 53.89169 | 14.64749 | 149° | 16km/h | 17948m | -5.9m/s | -51.6°C | 6.5% | 79.7hPa | 2.6V | 00:00:00 | 02:32:08 | 00:00:00 | |
| DL1XH1-15 | 2026-09-03 12:51:33 | 53.89176 | 14.64733 | 62° | 11km/h | 17972m | -6.1m/s | -51.8°C | 6.3% | 79.4hPa | 2.6V | 08:10:30 | 02:32:04 | 00:00:00 | |
| DL1XH-west | 2026-09-03 12:51:32 | 53.89176 | 14.64741 | 126° | 11km/h | 17960m | -5.9m/s | -51.6°C | 4.5% | 79.6hPa | 2.6V | 08:11:16 | 02:32:06 | 00:00:00 | |
| AA1-15 | 2026-09-03 12:51:29 | 53.89174 | 14.64728 | 52° | 16km/h | 17978m | -6.3m/s | -51.9°C | 4.5% | 79.4hPa | 2.7V | 08:11:16 | 02:32:03 | 00:00:00 | |
| DL1XH-west | 2026-09-03 12:51:22 | 53.89145 | 14.64639 | 76° | 49km/h | 18023m | -6.1m/s | -52.4°C | 4.6% | 78.8hPa | 2.7V | 08:11:16 | 02:31:56 | 00:00:00 | |
| AA1-15 | 2026-09-03 12:51:18 | 53.89145 | 14.64547 | 102° | 57km/h | 18047m | -6m/s | -52.3°C | 4.6% | 78.5hPa | 2.7V | 08:11:16 | 02:31:52 | 00:00:00 | |
| DO2SHX-10 | 2026-09-03 12:51:18 | 53.89145 | 14.64547 | 102° | 57km/h | 18047m | -6.0m/s | -52.2°C | 6.3% | 78.5hPa | 2.7V | 08:10:00 | 02:31:52 | 00:00:00 | |
| DJ2DS-15 | 2026-09-03 12:51:17 | 53.89148 | 14.64524 | 109° | 31km/h | 18053m | -6.2m/s | -52.3°C | 6.3% | 78.4hPa | 2.7V | 00:00:00 | 02:31:51 | 00:00:00 | |
| DG6HD-11 | 2026-09-03 12:51:16 | 53.89153 | 14.64501 | 114° | 42km/h | 18059m | -6.5m/s | -52.3°C | 6.3% | 78.3hPa | 2.7V | 00:00:00 | 00:00:00 | 00:00:00 | |
| DO2SHX-10 | 2026-09-03 12:51:15 | 53.89159 | 14.64480 | 120° | 53km/h | 18066m | -6.3m/s | -52.4°C | 6.3% | 78.3hPa | 2.7V | 00:00:00 | 02:31:49 | 00:00:00 | |
| DL1XH1-15 | 2026-09-03 12:51:12 | 53.89219 | 14.64384 | 152° | 22km/h | 18117m | -6.1m/s | -52.5°C | 6.7% | 77.7hPa | 2.7V | 08:10:53 | 02:31:41 | 00:00:00 | |
| DL1XH-west | 2026-09-03 12:51:11 | 53.89191 | 14.64415 | 140° | 44km/h | 18092m | -6.5m/s | -52.5°C | 4.6% | 78hPa | 2.6V | 08:11:16 | 02:31:45 | 00:00:00 | |
| AA1-15 | 2026-09-03 12:51:07 | 53.89219 | 14.64384 | 153° | 22km/h | 18117m | -6.1m/s | -52.5°C | 4.7% | 77.7hPa | 2.7V | 08:11:16 | 02:31:41 | 00:00:00 | |
| DL1XH-west | 2026-09-03 12:51:01 | 53.89225 | 14.64361 | 55° | 16km/h | 18155m | -6.4m/s | -52.7°C | 4.7% | 77.2hPa | 2.6V | 08:11:16 | 02:31:35 | 00:00:00 | |
| DO2SHX-10 | 2026-09-03 12:51:00 | 53.89222 | 14.64354 | 53° | 29km/h | 18162m | -6.4m/s | -52.6°C | 6.8% | 77.1hPa | 2.6V | 00:00:00 | 02:31:34 | 00:00:00 | |
| DL1XH1-15 | 2026-09-03 12:50:59 | 53.89210 | 14.64324 | 57° | 37km/h | 18181m | -6.7m/s | -52.9°C | 6.8% | 77hPa | 2.7V | 08:11:03 | 02:31:31 | 00:00:00 | |
| AA1-15 | 2026-09-03 12:50:56 | 53.89205 | 14.64310 | 61° | 40km/h | 18187m | -6.7m/s | -53°C | 4.8% | 76.9hPa | 2.6V | 08:11:16 | 02:31:30 | 00:00:00 | |
| EDDB2-11 | 2026-09-03 12:50:54 | 53.89195 | 14.64275 | 71° | 49km/h | 18201m | -6.6m/s | -53.1°C | 3.6% | 76.7hPa | 2.7V | 00:00:00 | 00:00:00 | 00:00:00 | |
| DO2SHX-10 | 2026-09-03 12:50:53 | 53.89192 | 14.64253 | 77° | 55km/h | 18208m | -6.5m/s | -53.0°C | 6.7% | 76.5hPa | 2.7V | 00:00:00 | 02:31:27 | 00:00:00 | |
| DL1XH1-15 | 2026-09-03 12:50:52 | 53.89197 | 14.64100 | 107° | 64km/h | 18248m | -7.1m/s | 0°C | 0% | 0hPa | 2.7V | 08:11:13 | 02:31:21 | 00:00:00 | |
| DL1XH-west | 2026-09-03 12:50:50 | 53.89188 | 14.64180 | 93° | 62km/h | 18227m | -6.7m/s | -52.8°C | 4.7% | 76.3hPa | 2.6V | 08:11:16 | 02:31:24 | 00:00:00 | |
| DO2SHX-10 | 2026-09-03 12:50:50 | 53.89188 | 14.64180 | 93° | 62km/h | 18228m | -6.7m/s | -52.8°C | 6.6% | 76.3hPa | 2.6V | 08:11:00 | 02:31:24 | 00:00:00 | |
| DO2SHX-10 | 2026-09-03 12:50:47 | 53.89197 | 14.64100 | 108° | 60km/h | 18248m | -7.0m/s | -52.6°C | 6.6% | 76.0hPa | 2.7V | 00:00:00 | 02:31:21 | 00:00:00 | |
| DL1XH-15 | 2026-09-03 12:50:46 | 53.89234 | 14.63988 | 127° | 31km/h | 18288m | -6m/s | -52.4°C | 6.9% | 75.7hPa | 2.7V | 08:11:19 | 02:31:15 | 00:00:00 | |
| AA1-15 | 2026-09-03 12:50:46 | 53.89202 | 14.64075 | 113° | 62km/h | 18255m | -7.2m/s | -52.6°C | 4.6% | 76hPa | 2.7V | 08:11:16 | 02:31:20 | 00:00:00 | |
| DL1XH-west | 2026-09-03 12:50:40 | 53.89238 | 14.63978 | 126° | 26km/h | 18294m | -6m/s | -52.4°C | 4.8% | 75.6hPa | 2.7V | 08:12:07 | 02:31:14 | 00:00:00 | |
| DL1XH1-15 | 2026-09-03 12:50:39 | 53.89244 | 14.63956 | 89° | 15km/h | 18314m | -6.8m/s | 0°C | 0% | 0hPa | 2.6V | 00:00:00 | 02:31:11 | 00:00:00 | |
| AA1-15 | 2026-09-03 12:50:35 | 53.89241 | 14.63942 | 63° | 20km/h | 18328m | -7.3m/s | -51.7°C | 4.6% | 75.2hPa | 2.7V | 08:12:07 | 02:31:09 | 00:00:00 | |
| DO2SHX-10 | 2026-09-03 12:50:34 | 53.89238 | 14.63933 | 60° | 33km/h | 18335m | -7.3m/s | -51.6°C | 6.5% | 75.0hPa | 2.6V | 00:00:00 | 02:31:08 | 00:00:00 | |
| DL1XH1-15 | 2026-09-03 12:50:32 | 53.89210 | 14.63798 | 80° | 68km/h | 18381m | -6.5m/s | 0°C | 0% | 0hPa | 2.6V | 00:00:00 | 02:31:01 | 00:00:00 | |
| DL1XH-west | 2026-09-03 12:50:29 | 53.89217 | 14.63851 | 74° | 58km/h | 18368m | -6.2m/s | -51.8°C | 4.6% | 74.7hPa | 2.7V | 08:12:07 | 02:31:03 | 00:00:00 | |
| DL1XH-15 | 2026-09-03 12:50:27 | 53.89206 | 14.63675 | 94° | 75km/h | 18409m | -7.3m/s | -51.7°C | 6.4% | 74.2hPa | 2.7V | 08:11:37 | 02:30:57 | 00:00:00 | |
| AA1-15 | 2026-09-03 12:50:24 | 53.89205 | 14.63707 | 90° | 75km/h | 18402m | -7.2m/s | -51.8°C | 4.5% | 74.4hPa | 2.7V | 08:12:07 | 02:30:58 | 00:00:00 | |
| DO2SHX-10 | 2026-09-03 12:50:23 | 53.89206 | 14.63675 | 95° | 73km/h | 18409m | -7.3m/s | -51.6°C | 6.4% | 74.2hPa | 2.7V | 00:00:00 | 02:30:57 | 00:00:00 | |
| SP3WXH-11 | 2026-09-03 12:50:22 | 53.89208 | 14.63643 | 98° | 75km/h | 18416m | -7.2m/s | -51.6°C | 3.4% | 74.2hPa | 2.7V | 00:00:00 | 00:00:00 | 00:00:00 | |
| DL1XH1-15 | 2026-09-03 12:50:19 | 53.89238 | 14.63497 | 119° | 69km/h | 18452m | -7.1m/s | 0°C | 0% | 0hPa | 2.7V | 00:00:00 | 02:30:51 | 00:00:00 | |
| DL1XH-west | 2026-09-03 12:50:19 | 53.89223 | 14.63552 | 112° | 73km/h | 18438m | -7m/s | -51.6°C | 4.5% | 73.9hPa | 2.7V | 08:12:07 | 02:30:53 | 00:00:00 | |
| AA1-15 | 2026-09-03 12:50:13 | 53.89276 | 14.63410 | 134° | 57km/h | 18480m | -7.4m/s | -51.6°C | 4.5% | 73.4hPa | 2.7V | 08:12:07 | 02:30:47 | 00:00:00 | |
| DL1XH1-15 | 2026-09-03 12:50:13 | 53.89318 | 14.63340 | 115° | 22km/h | 18524m | -7.1m/s | 0°C | 0% | 0hPa | 2.7V | 00:00:00 | 02:30:41 | 00:00:00 | |
| DL1XH-west | 2026-09-03 12:50:09 | 53.89315 | 14.63348 | 130° | 26km/h | 18517m | -7.1m/s | -51°C | 4.5% | 73hPa | 2.7V | 08:12:07 | 02:30:42 | 00:00:00 | |
| DJ2DS-15 | 2026-09-03 12:50:08 | 53.89315 | 14.63348 | 129° | 26km/h | 18517m | -7.1m/s | -51.0°C | 3.5% | 73.0hPa | 2.7V | 00:00:00 | 00:00:00 | 00:00:00 | |
| DL1XH-15 | 2026-09-03 12:50:06 | 53.89309 | 14.63264 | 70° | 46km/h | 18567m | -7.2m/s | -51°C | 6.3% | 72.5hPa | 2.7V | 08:11:59 | 02:30:35 | 00:00:00 | |
| AA1-15 | 2026-09-03 12:50:03 | 53.89316 | 14.63297 | 69° | 35km/h | 18552m | -7.2m/s | -51°C | 4.4% | 72.6hPa | 2.6V | 08:12:07 | 02:30:37 | 00:00:00 | |
| DL1XH-west | 2026-09-03 12:49:57 | 53.89297 | 14.63172 | 87° | 62km/h | 18595m | -7.1m/s | 0°C | 0% | 72.1hPa | 2.6V | 08:12:07 | 02:30:31 | 00:00:00 | |
| AA1-15 | 2026-09-03 12:49:53 | 53.89304 | 14.63064 | 104° | 64km/h | 18622m | -6.8m/s | -51°C | 4.4% | 71.9hPa | 2.6V | 08:12:07 | 02:30:27 | 00:00:00 | |
| DL1XH-15 | 2026-09-03 12:49:52 | 53.89313 | 14.63014 | 110° | 60km/h | 18636m | -6.6m/s | -51°C | 6.3% | 71.7hPa | 2.7V | 08:12:09 | 02:30:25 | 00:00:00 | |
| EDDB2-11 | 2026-09-03 12:49:52 | 53.89313 | 14.63014 | 110° | 60km/h | 18636m | -6.6m/s | -51.0°C | 3.4% | 71.7hPa | 2.7V | 00:00:00 | 00:00:00 | 00:00:00 | |
| SP3WXH-11 | 2026-09-03 12:49:51 | 53.89318 | 14.62990 | 112° | 58km/h | 18642m | -6.7m/s | -51.0°C | 3.4% | 71.7hPa | 2.7V | 00:00:00 | 00:00:00 | 00:00:00 | |
| DL1XH-west | 2026-09-03 12:49:46 | 53.89386 | 14.62781 | 118° | 58km/h | 18710m | -6.8m/s | 0°C | 0% | 0hPa | 2.7V | 18:12:15 | 02:30:14 | 00:00:00 | |
| DL1XH-15 | 2026-09-03 12:49:46 | 53.89379 | 14.62803 | 119° | 57km/h | 18703m | -7m/s | -50.4°C | 6.6% | 71hPa | 2.7V | 08:12:19 | 02:30:15 | 00:00:00 | |
| AA1-15 | 2026-09-03 12:49:42 | 53.89372 | 14.62824 | 121° | 57km/h | 18696m | -7.1m/s | -50.5°C | 4.4% | 71hPa | 2.6V | 08:12:58 | 02:30:16 | 00:00:00 | |
| DL1XH1-15 | 2026-09-03 12:49:39 | 53.89419 | 14.62638 | 108° | 62km/h | 18750m | -6.7m/s | 0°C | 0% | 0hPa | 2.7V | 00:00:00 | 02:30:08 | 00:00:00 | |
| DL1XH-15 | 2026-09-03 12:49:37 | 53.89435 | 14.62564 | 113° | 62km/h | 18770m | -6.6m/s | -49.7°C | 6.3% | 70.2hPa | 2.6V | 08:12:29 | 02:30:05 | 00:00:00 | |
| DL1XH-west | 2026-09-03 12:49:33 | 53.89424 | 14.62613 | 109° | 62km/h | 18757m | -6.6m/s | 0°C | 0% | 0hPa | 2.7V | 18:12:15 | 02:30:07 | 00:00:00 | |
| AA1-15 | 2026-09-03 12:49:32 | 53.89429 | 14.62588 | 111° | 62km/h | 18764m | -6.7m/s | -49.9°C | 4.4% | 70.3hPa | 2.7V | 08:12:58 | 02:30:06 | 00:00:00 | |
| DL1XH-west | 2026-09-03 12:49:23 | 53.89503 | 14.62415 | 146° | 47km/h | 18825m | -7.2m/s | 0°C | 0% | 0hPa | 2.6V | 18:12:15 | 02:29:57 | 00:00:00 | |
| DL1XH-15 | 2026-09-03 12:49:22 | 53.89521 | 14.62397 | 154° | 38km/h | 18840m | -7.4m/s | -48.8°C | 5.8% | 69.5hPa | 2.7V | 08:12:39 | 02:29:55 | 00:00:00 | |
| AA1-15 | 2026-09-03 12:49:22 | 53.89512 | 14.62405 | 150° | 42km/h | 18833m | -7.3m/s | -48.9°C | 4.1% | 69.6hPa | 2.7V | 08:12:58 | 02:29:56 | 00:00:00 | |
| AA1-15 | 2026-09-03 12:49:12 | 53.89543 | 14.62378 | 21° | 18km/h | 18904m | -7.4m/s | -49°C | 4.1% | 68.8hPa | 2.7V | 08:12:58 | 02:29:46 | 00:00:00 | |
| DL1XH-west | 2026-09-03 12:49:11 | 53.89538 | 14.62375 | 26° | 24km/h | 18911m | -7.3m/s | 0°C | 0% | 0hPa | 2.7V | 18:12:15 | 02:29:45 | 00:00:00 | |
| MECKS9 | 2026-09-03 12:49:06 | 53.89512 | 14.62335 | 60° | 42km/h | 18941m | -7.1m/s | -49.5°C | 3.2% | 68.4hPa | 2.6V | 08:12:00 | 00:00:00 | 00:00:00 | |
| DL1XH-15 | 2026-09-03 12:49:03 | 53.89532 | 14.62154 | 142° | 35km/h | 19013m | -7m/s | -49.1°C | 5.6% | 67.7hPa | 2.6V | 08:13:03 | 02:29:31 | 00:00:00 | |
| AA1-15 | 2026-09-03 12:49:01 | 53.89507 | 14.62214 | 109° | 49km/h | 18983m | -7.2m/s | -49.1°C | 4% | 68hPa | 2.7V | 08:13:49 | 02:29:35 | 00:00:00 | |
| DL1XH-west | 2026-09-03 12:49:00 | 53.89512 | 14.62195 | 118° | 47km/h | 18991m | -7.4m/s | 0°C | 0% | 0hPa | 2.7V | 18:12:15 | 02:29:34 | 00:00:00 | |
| DO2SHX-10 | 2026-09-03 12:48:58 | 53.89525 | 14.62164 | 134° | 40km/h | 19006m | -7.4m/s | -49.1°C | 5.6% | 67.7hPa | 2.6V | 00:00:00 | 02:29:32 | 00:00:00 | |
| DJ2DS-15 | 2026-09-03 12:48:57 | 53.89532 | 14.62153 | 143° | 31km/h | 19013m | -7.0m/s | -49.0°C | 5.6% | 67.6hPa | 2.6V | 00:00:00 | 02:29:31 | 00:00:00 | |
| MECKS9 | 2026-09-03 12:48:55 | 53.89538 | 14.62146 | 152° | 29km/h | 19020m | -7.1m/s | -49.1°C | 3.1% | 67.6hPa | 2.6V | 00:00:00 | 00:00:00 | 00:00:00 | |
| DO2SHX-10 | 2026-09-03 12:48:54 | 53.89549 | 14.62139 | 169° | 15km/h | 19034m | -6.6m/s | -49.0°C | 5.8% | 67.4hPa | 2.6V | 00:00:00 | 02:29:28 | 00:00:00 | |
| DL1XH-15 | 2026-09-03 12:48:52 | 53.89538 | 14.62116 | 48° | 31km/h | 19088m | -6.8m/s | -49.6°C | 6.1% | 66.9hPa | 2.6V | 08:13:14 | 02:29:20 | 00:00:00 | |
| AA1-15 | 2026-09-03 12:48:51 | 53.89555 | 14.62138 | 6° | 2km/h | 19054m | -7m/s | -49.1°C | 4.1% | 67.3hPa | 2.6V | 08:13:49 | 02:29:25 | 00:00:00 | |
| SP3WXH-11 | 2026-09-03 12:48:49 | 53.89548 | 14.62132 | 35° | 20km/h | 19075m | -6.9m/s | -49.4°C | 3.3% | 67.0hPa | 2.6V | 00:00:00 | 00:00:00 | 00:00:00 | |
| DO2SHX-10 | 2026-09-03 12:48:48 | 53.89548 | 14.62132 | 36° | 42km/h | 19075m | -6.8m/s | -49.4°C | 6.1% | 67.0hPa | 2.6V | 00:00:00 | 02:29:22 | 00:00:00 | |
| DG6HD-11 | 2026-09-03 12:48:45 | 53.89533 | 14.62105 | 55° | 37km/h | 19095m | -6.8m/s | -49.5°C | 6.1% | 66.8hPa | 2.6V | 00:00:00 | 00:00:00 | 00:00:00 | |
| DL1XH-15 | 2026-09-03 12:48:41 | 53.89513 | 14.61921 | 101° | 57km/h | 19158m | -7.1m/s | -49.4°C | 5.8% | 66.2hPa | 2.6V | 08:13:24 | 02:29:10 | 00:00:00 | |
| AA1-15 | 2026-09-03 12:48:40 | 53.89510 | 14.61969 | 90° | 55km/h | 19144m | -7.1m/s | -49.4°C | 4.2% | 66.3hPa | 2.6V | 08:13:49 | 02:29:12 | 00:00:00 | |
| DL1XH-west | 2026-09-03 12:48:39 | 53.89511 | 14.61992 | 85° | 55km/h | 19137m | -7m/s | 0°C | 0% | 0hPa | 2.7V | 18:12:15 | 02:29:13 | 00:00:00 | |
| DJ2DS-15 | 2026-09-03 12:48:37 | 53.89511 | 14.61945 | 96° | 35km/h | 19151m | -6.9m/s | -49.3°C | 5.8% | 66.2hPa | 2.6V | 08:13:00 | 02:29:11 | 00:00:00 | |
| DL1XH-15 | 2026-09-03 12:48:31 | 53.89583 | 14.61761 | 156° | 31km/h | 19228m | -7m/s | -49.3°C | 6% | 65.5hPa | 2.6V | 08:13:34 | 02:29:00 | 00:00:00 | |
| AA1-15 | 2026-09-03 12:48:30 | 53.89551 | 14.61800 | 135° | 47km/h | 19200m | -6.8m/s | -49.4°C | 4.2% | 65.8hPa | 2.6V | 08:13:49 | 02:29:04 | 00:00:00 | |
| AA1-15 | 2026-09-03 12:48:19 | 53.89606 | 14.61747 | 44° | 7km/h | 19277m | -7.1m/s | -49.2°C | 4.1% | 65hPa | 2.7V | 08:13:49 | 02:28:53 | 00:00:00 | |
| AA1-15 | 2026-09-03 12:48:08 | 53.89558 | 14.61613 | 75° | 49km/h | 19360m | -7m/s | -49.6°C | 4.1% | 64.2hPa | 2.7V | 08:14:40 | 02:28:41 | 00:00:00 | |
| DL1XH-15 | 2026-09-03 12:48:06 | 53.89562 | 14.61483 | 111° | 53km/h | 19402m | -7.3m/s | -49.5°C | 5.7% | 63.8hPa | 2.7V | 08:13:59 | 02:28:35 | 00:00:00 | |
| AA1-15 | 2026-09-03 12:47:58 | 53.89581 | 14.61428 | 131° | 47km/h | 19424m | -7.2m/s | -49.6°C | 4.1% | 63.6hPa | 2.7V | 08:14:40 | 02:28:32 | 00:00:00 | |
| AA1-15 | 2026-09-03 12:47:47 | 53.89639 | 14.61376 | 59° | 9km/h | 19505m | -6.9m/s | -49.9°C | 4.3% | 62.8hPa | 2.7V | 08:14:40 | 02:28:21 | 00:00:00 | |
| SP3WXH-11 | 2026-09-03 12:47:47 | 53.89637 | 14.61372 | 57° | 15km/h | 19512m | -6.9m/s | -50.1°C | 3.3% | 62.7hPa | 2.6V | 00:00:00 | 00:00:00 | 00:00:00 | |
| DJ2DS-15 | 2026-09-03 12:47:44 | 53.89632 | 14.61356 | 62° | 27km/h | 19526m | -6.8m/s | -50.4°C | 3.3% | -1.0hPa | 2.6V | 00:00:00 | 00:00:00 | 00:00:00 | |
| AA1-15 | 2026-09-03 12:47:36 | 53.89615 | 14.61186 | 100° | 60km/h | 19590m | -7.1m/s | -50.5°C | 4.3% | 61.9hPa | 2.6V | 08:14:40 | 02:28:09 | 00:00:00 | |
| DL1XH-15 | 2026-09-03 12:47:26 | 53.89724 | 14.60960 | 164° | 44km/h | 19679m | -7.9m/s | -50.7°C | 6.4% | 61.1hPa | 2.6V | 08:14:37 | 02:27:57 | 00:00:00 | |
| AA1-15 | 2026-09-03 12:47:26 | 53.89689 | 14.60987 | 147° | 58km/h | 19656m | -7.7m/s | -50.7°C | 4.4% | 61.3hPa | 2.7V | 08:14:40 | 02:28:00 | 00:00:00 | |
| AA1-15 | 2026-09-03 12:47:16 | 53.89763 | 14.60951 | 85° | 7km/h | 19733m | -8.1m/s | -50.7°C | 4.5% | 60.6hPa | 2.6V | 08:15:31 | 02:27:50 | 00:00:00 | |
| SP3WXH-11 | 2026-09-03 12:47:16 | 53.89762 | 14.60947 | 71° | 15km/h | 19741m | -7.8m/s | -50.8°C | 3.3% | 60.5hPa | 2.7V | 00:00:00 | 00:00:00 | 00:00:00 | |
| DG6HD-11 | 2026-09-03 12:47:15 | 53.89762 | 14.60947 | 72° | 35km/h | 19741m | -7.7m/s | -50.7°C | 6.3% | 60.5hPa | 2.7V | 00:00:00 | 00:00:00 | 00:00:00 | |
| DL1XH-15 | 2026-09-03 12:47:14 | 53.89759 | 14.60927 | 79° | 31km/h | 19756m | -7.7m/s | -50.8°C | 6.2% | 60.4hPa | 2.7V | 08:14:47 | 02:27:47 | 00:00:00 | |
| DJ2DS-15 | 2026-09-03 12:47:14 | 53.89761 | 14.60938 | 74° | 46km/h | 19749m | -7.7m/s | -50.8°C | 6.3% | 60.4hPa | 2.7V | 00:00:00 | 02:27:48 | 00:00:00 | |
| SONDE2-11 | 2026-09-03 12:47:11 | 53.89759 | 14.60876 | 98° | 49km/h | 19778m | -7.5m/s | 0°C | -1.0% | -1.0hPa | 2.7V | 00:00:00 | 00:00:00 | 00:00:00 | |
| DL1XH-15 | 2026-09-03 12:47:08 | 53.89811 | 14.60738 | 145° | 57km/h | 19832m | -7.4m/s | -50.3°C | 5.9% | 59.7hPa | 2.7V | 08:14:57 | 02:27:37 | 00:00:00 | |
| AA1-15 | 2026-09-03 12:47:05 | 53.89789 | 14.60769 | 132° | 58km/h | 19817m | -7.6m/s | -50.3°C | 4.2% | 59.9hPa | 2.7V | 08:15:31 | 02:27:39 | 00:00:00 | |
| AA1-15 | 2026-09-03 12:46:55 | 53.89905 | 14.60717 | 216° | 18km/h | 19906m | -7.7m/s | -50.6°C | 4.3% | 59hPa | 2.7V | 08:15:31 | 02:27:27 | 00:00:00 | |
| EDDB2-11 | 2026-09-03 12:46:46 | 53.89898 | 14.60720 | 51° | 22km/h | 19969m | -7.4m/s | -51.2°C | 3.3% | 58.5hPa | 2.7V | 00:00:00 | 00:00:00 | 00:00:00 | |
| SP3WXH-11 | 2026-09-03 12:46:45 | 53.89894 | 14.60711 | 60° | 27km/h | 19976m | -7.5m/s | -51.2°C | 3.2% | 58.4hPa | 2.7V | 00:00:00 | 00:00:00 | 00:00:00 | |
| AA1-15 | 2026-09-03 12:46:43 | 53.89891 | 14.60699 | 67° | 31km/h | 19984m | -7.6m/s | -51.3°C | 4.4% | 58.3hPa | 2.7V | 08:15:31 | 02:27:17 | 00:00:00 | |
| MECKS9 | 2026-09-03 12:46:42 | 53.89891 | 14.60699 | 68° | 31km/h | 19984m | -7.6m/s | -51.3°C | 3.2% | 58.3hPa | 2.6V | 00:00:00 | 00:00:00 | 00:00:00 | |
| SONDE2-11 | 2026-09-03 12:46:39 | 53.89883 | 14.60637 | 88° | 40km/h | 20015m | -7.7m/s | 0°C | -1.0% | -1.0hPa | 2.6V | 00:00:00 | 00:00:00 | 00:00:00 | |
| DJ2DS-15 | 2026-09-03 12:46:32 | 53.89903 | 14.60514 | 118° | 44km/h | 20066m | -7.3m/s | 0°C | -1.0% | -1.0hPa | 2.6V | 00:00:00 | 00:00:00 | 00:00:00 | |
| AA1-15 | 2026-09-03 12:46:32 | 53.89903 | 14.60514 | 118° | 44km/h | 20066m | -7.3m/s | -51.8°C | 4.6% | 57.6hPa | 2.7V | 08:15:31 | 02:27:06 | 00:00:00 | |
| DL1XH-15 | 2026-09-03 12:46:26 | 53.89981 | 14.60356 | 147° | 42km/h | 20145m | -7.8m/s | -51.4°C | 6.3% | 56.9hPa | 2.6V | 08:30:00 | 02:26:56 | 00:00:00 | |
| AA1-15 | 2026-09-03 12:46:22 | 53.89981 | 14.60356 | 148° | 42km/h | 20145m | -7.8m/s | -51.4°C | 4.5% | 56.9hPa | 2.6V | 08:16:22 | 02:26:56 | 00:00:00 | |
| AA1-15 | 2026-09-03 12:46:11 | 53.90040 | 14.60353 | 243° | 9km/h | 20229m | -7.9m/s | -51.3°C | 4.6% | 56.1hPa | 2.7V | 08:16:22 | 02:26:45 | 00:00:00 | |
| AA1-15 | 2026-09-03 12:46:01 | 53.90000 | 14.60331 | 51° | 35km/h | 20309m | -8.1m/s | -51.5°C | 4.5% | 55.5hPa | 2.7V | 08:16:22 | 02:26:35 | 00:00:00 | |
| AA1-15 | 2026-09-03 12:45:50 | 53.90013 | 14.60153 | 130° | 46km/h | 20395m | -7.9m/s | -50.7°C | 4.4% | 54.7hPa | 2.6V | 08:16:22 | 02:26:24 | 00:00:00 | |
| AA1-15 | 2026-09-03 12:45:40 | 53.90106 | 14.60089 | 197° | 31km/h | 20476m | -8.1m/s | -50.3°C | 4.4% | 54.1hPa | 2.6V | 08:16:22 | 02:26:14 | 00:00:00 | |
| AA1-15 | 2026-09-03 12:45:30 | 53.90111 | 14.60120 | 33° | 22km/h | 20558m | -8.2m/s | -50.1°C | 4.3% | 53.4hPa | 2.7V | 08:17:13 | 02:26:04 | 00:00:00 | |
| AA1-15 | 2026-09-03 12:45:19 | 53.90110 | 14.59937 | 133° | 46km/h | 20656m | -7.9m/s | -50.1°C | 4.3% | 52.6hPa | 2.7V | 08:17:13 | 02:25:52 | 00:00:00 | |
| AA1-15 | 2026-09-03 12:45:07 | 53.90202 | 14.59913 | 241° | 20km/h | 20749m | -8.2m/s | -49.7°C | 4.3% | 51.8hPa | 2.6V | 08:17:13 | 02:25:41 | 00:00:00 | |
| AA1-15 | 2026-09-03 12:44:56 | 53.90155 | 14.59872 | 76° | 47km/h | 20843m | -8.8m/s | -50.2°C | 4.2% | 51.1hPa | 2.6V | 08:17:13 | 02:25:30 | 00:00:00 | |
| AA1-15 | 2026-09-03 12:44:45 | 53.90215 | 14.59734 | 200° | 24km/h | 20938m | -8.3m/s | -50.1°C | 4.3% | 50.4hPa | 2.7V | 08:18:04 | 02:25:19 | 00:00:00 | |
| AA1-15 | 2026-09-03 12:44:35 | 53.90176 | 14.59741 | 37° | 44km/h | 21023m | -8.6m/s | -50.9°C | 4.4% | 49.6hPa | 2.6V | 08:18:04 | 02:25:09 | 00:00:00 | |
| AA1-15 | 2026-09-03 12:44:25 | 53.90158 | 14.59549 | 125° | 38km/h | 21109m | -8.4m/s | -50.9°C | 4.4% | 49hPa | 2.7V | 08:18:04 | 02:24:59 | 00:00:00 | |
| AA1-15 | 2026-09-03 12:44:14 | 53.90183 | 14.59555 | 339° | 26km/h | 21204m | -8.5m/s | -50.5°C | 4.4% | 48.3hPa | 2.7V | 08:18:04 | 02:24:48 | 00:00:00 | |
| AA1-15 | 2026-09-03 12:44:04 | 53.90125 | 14.59448 | 94° | 47km/h | 21290m | -8.5m/s | -50.6°C | 4.4% | 47.7hPa | 2.6V | 08:18:04 | 02:24:38 | 00:00:00 | |
| AA1-15 | 2026-09-03 12:43:53 | 53.90209 | 14.59341 | 203° | 35km/h | 21388m | -9.1m/s | -50.7°C | 4.5% | 47hPa | 2.6V | 08:18:55 | 02:24:27 | 00:00:00 | |
| DK1YY | 2026-09-03 12:43:47 | 53.90212 | 14.59390 | 351° | 24km/h | 21451m | -8.9m/s | -50.7°C | 3.2% | 46.5hPa | 2.6V | 00:00:00 | 00:00:00 | 00:00:00 | |
| AA1-15 | 2026-09-03 12:43:42 | 53.90184 | 14.59368 | 51° | 38km/h | 21488m | -9.4m/s | -51°C | 4.4% | 46.3hPa | 2.6V | 08:18:55 | 02:24:16 | 00:00:00 | |
| AA1-15 | 2026-09-03 12:43:32 | 53.90215 | 14.59203 | 155° | 44km/h | 21579m | -9.3m/s | -51.1°C | 4.4% | 45.6hPa | 2.7V | 08:18:55 | 02:24:06 | 00:00:00 | |
| AA1-15 | 2026-09-03 12:43:22 | 53.90247 | 14.59256 | 352° | 29km/h | 21680m | -8.9m/s | -51.6°C | 4.6% | 44.9hPa | 2.7V | 08:18:55 | 02:23:55 | 00:00:00 | |
| AA1-15 | 2026-09-03 12:43:11 | 53.90214 | 14.59099 | 132° | 42km/h | 21781m | -8.8m/s | -51.1°C | 4.4% | 44.2hPa | 2.6V | 08:18:55 | 02:23:44 | 00:00:00 | |
| AA1-15 | 2026-09-03 12:43:00 | 53.90252 | 14.59115 | 331° | 24km/h | 21874m | -9.1m/s | -51.1°C | 4.6% | 43.6hPa | 2.6V | 08:19:46 | 02:23:34 | 00:00:00 | |
| AA1-15 | 2026-09-03 12:42:49 | 53.90188 | 14.58984 | 97° | 57km/h | 21976m | -9.5m/s | -51.1°C | 4.5% | 42.9hPa | 2.7V | 08:19:46 | 02:23:23 | 00:00:00 | |
| DK1YY | 2026-09-03 12:42:45 | 53.90221 | 14.58880 | 141° | 53km/h | 22025m | -9.4m/s | -50.8°C | 3.3% | 42.6hPa | 2.7V | 00:00:00 | 00:00:00 | 00:00:00 | |
| AA1-15 | 2026-09-03 12:42:38 | 53.90280 | 14.58862 | 209° | 29km/h | 22080m | -9.7m/s | -50.4°C | 4.5% | 42.2hPa | 2.7V | 08:19:46 | 02:23:12 | 00:00:00 | |
| AA1-15 | 2026-09-03 12:42:27 | 53.90232 | 14.58876 | 53° | 49km/h | 22188m | -9.8m/s | -50.6°C | 4.4% | 41.5hPa | 2.7V | 08:19:46 | 02:23:01 | 00:00:00 | |
| AA1-15 | 2026-09-03 12:42:17 | 53.90271 | 14.58716 | 180° | 31km/h | 22287m | -10.3m/s | -49.9°C | 4.4% | 40.9hPa | 2.6V | 08:19:46 | 02:22:51 | 00:00:00 | |
| AA1-15 | 2026-09-03 12:42:06 | 53.90215 | 14.58680 | 55° | 68km/h | 22397m | -10.7m/s | -50.3°C | 4.4% | 40.2hPa | 2.6V | 08:20:37 | 02:22:40 | 00:00:00 | |
| AA1-15 | 2026-09-03 12:41:55 | 53.90249 | 14.58422 | 166° | 42km/h | 22508m | -10.4m/s | -49.8°C | 4.3% | 39.5hPa | 2.7V | 08:20:37 | 02:22:29 | 00:00:00 | |
| AA1-15 | 2026-09-03 12:41:45 | 53.90242 | 14.58403 | 60° | 47km/h | 22609m | -10.1m/s | -49.9°C | 4.2% | 38.9hPa | 2.7V | 08:20:37 | 02:22:19 | 00:00:00 | |
| AA1-15 | 2026-09-03 12:41:34 | 53.90311 | 14.58200 | 186° | 53km/h | 22722m | -10.6m/s | -49.9°C | 4.3% | 38.2hPa | 2.6V | 08:20:37 | 02:22:08 | 00:00:00 | |
| AM1SDL-15 | 2026-09-03 12:41:30 | 53.90343 | 14.58243 | 260° | 42km/h | 22764m | -11.3m/s | -50.3°C | 6.1% | 37.9hPa | 2.6V | 00:00:00 | 02:22:04 | 00:00:00 | |
| MECKS9 | 2026-09-03 12:41:29 | 53.90343 | 14.58243 | 260° | 37km/h | 22764m | -11.3m/s | -50.3°C | 3.2% | 38.0hPa | 2.6V | 08:20:00 | 00:00:00 | 00:00:00 | |
| MECKS9 | 2026-09-03 12:41:18 | 53.90290 | 14.58189 | 117° | 47km/h | 22882m | -10.9m/s | -51.1°C | 3.2% | 37.3hPa | 2.6V | 00:00:00 | 00:00:00 | 00:00:00 | |
| DG6HD-11 | 2026-09-03 12:41:15 | 53.90326 | 14.58156 | 192° | 47km/h | 22925m | -10.7m/s | -51.1°C | 6.4% | 37.0hPa | 2.6V | 00:00:00 | 00:00:00 | 00:00:00 | |
| AA1-15 | 2026-09-03 12:41:14 | 53.90341 | 14.58173 | 232° | 37km/h | 22946m | -11.9m/s | -51.1°C | 4.5% | 36.9hPa | 2.6V | 08:21:28 | 02:21:47 | 00:00:00 | |
| AA1-15 | 2026-09-03 12:41:03 | 53.90266 | 14.58177 | 62° | 69km/h | 23060m | -12.4m/s | -50.8°C | 4.5% | 36.3hPa | 2.6V | 08:21:28 | 02:21:37 | 00:00:00 | |
| AA1-15 | 2026-09-03 12:40:53 | 53.90329 | 14.57992 | 204° | 33km/h | 23176m | -12m/s | -50.8°C | 4.6% | 35.6hPa | 2.6V | 08:21:28 | 02:21:27 | 00:00:00 | |
| AA1-15 | 2026-09-03 12:40:42 | 53.90299 | 14.57899 | 107° | 64km/h | 23296m | -11m/s | -50.2°C | 4.3% | 35hPa | 2.7V | 08:21:28 | 02:21:16 | 00:00:00 | |
| AA1-15 | 2026-09-03 12:40:32 | 53.90395 | 14.57881 | 270° | 46km/h | 23413m | -12.2m/s | -50.2°C | 4.4% | 34.3hPa | 2.6V | 08:21:28 | 02:21:06 | 00:00:00 | |
| AA1-15 | 2026-09-03 12:40:21 | 53.90326 | 14.57823 | 112° | 64km/h | 23543m | -13.2m/s | -50.2°C | 4.3% | 33.7hPa | 2.6V | 08:22:19 | 02:20:55 | 00:00:00 | |
| AA1-15 | 2026-09-03 12:40:11 | 53.90388 | 14.57822 | 10° | 35km/h | 23689m | -11.9m/s | -49.9°C | 4.3% | 32.9hPa | 2.6V | 08:22:19 | 02:20:43 | 00:00:00 | |
| AA1-15 | 2026-09-03 12:39:59 | 53.90407 | 14.57662 | 175° | 55km/h | 23807m | -13.2m/s | -49.9°C | 4.2% | 32.3hPa | 2.6V | 08:22:19 | 02:20:33 | 00:00:00 | |
| AA1-15 | 2026-09-03 12:39:48 | 53.90402 | 14.57771 | 32° | 44km/h | 23943m | -12.1m/s | -50.2°C | 4.4% | 31.7hPa | 2.6V | 08:22:19 | 02:20:22 | 00:00:00 | |
| AA1-15 | 2026-09-03 12:39:38 | 53.90458 | 14.57663 | 213° | 55km/h | 24069m | -11m/s | -49.8°C | 4.3% | 31.1hPa | 2.6V | 08:23:10 | 02:20:12 | 00:00:00 | |
| AA1-15 | 2026-09-03 12:39:27 | 53.90425 | 14.57707 | 83° | 55km/h | 24208m | -13.1m/s | -49.4°C | 4.2% | 30.4hPa | 2.6V | 08:23:10 | 02:20:01 | 00:00:00 | |
| AA1-15 | 2026-09-03 12:39:16 | 53.90527 | 14.57652 | 267° | 38km/h | 24349m | -11.9m/s | -49.5°C | 4.2% | 29.8hPa | 2.7V | 08:23:10 | 02:19:50 | 00:00:00 | |
| AA1-15 | 2026-09-03 12:39:06 | 53.90501 | 14.57549 | 140° | 68km/h | 24494m | -13m/s | -50.1°C | 4.3% | 29.2hPa | 2.6V | 08:23:10 | 02:19:39 | 00:00:00 | |
| AA1-15 | 2026-09-03 12:38:55 | 53.90588 | 14.57627 | 322° | 42km/h | 24626m | -12.8m/s | -50.2°C | 4.4% | 28.6hPa | 2.7V | 08:23:10 | 02:19:29 | 00:00:00 | |
| AA1-15 | 2026-09-03 12:38:44 | 53.90578 | 14.57489 | 173° | 57km/h | 24772m | -12.6m/s | -50°C | 4.3% | 27.9hPa | 2.6V | 08:24:01 | 02:19:18 | 00:00:00 | |
| AA1-15 | 2026-09-03 12:38:34 | 53.90583 | 14.57570 | 40° | 49km/h | 24906m | -13.1m/s | -49.5°C | 4.3% | 27.4hPa | 2.7V | 08:24:01 | 02:19:08 | 00:00:00 | |
| AA1-15 | 2026-09-03 12:38:23 | 53.90665 | 14.57421 | 219° | 60km/h | 25055m | -14.2m/s | -49.3°C | 4.2% | 26.8hPa | 2.6V | 08:24:01 | 02:18:57 | 00:00:00 | |
| AA1-15 | 2026-09-03 12:38:13 | 53.90614 | 14.57486 | 62° | 57km/h | 25193m | -12.6m/s | -49.5°C | 4.2% | 26.2hPa | 2.6V | 08:24:01 | 02:18:47 | 00:00:00 | |
| AA1-15 | 2026-09-03 12:38:03 | 53.90665 | 14.57452 | 304° | 49km/h | 25338m | -13.5m/s | -49.8°C | 4.4% | 25.7hPa | 2.6V | 08:24:01 | 02:18:36 | 00:00:00 | |
| AA1-15 | 2026-09-03 12:37:52 | 53.90546 | 14.57339 | 97° | 69km/h | 25481m | -13.9m/s | -49.7°C | 4.3% | 25.1hPa | 2.6V | 08:24:52 | 02:18:26 | 00:00:00 | |
| AA1-15 | 2026-09-03 12:37:42 | 53.90572 | 14.57310 | 27° | 57km/h | 25650m | -14.3m/s | -49.4°C | 4.4% | 24.5hPa | 2.7V | 08:24:52 | 02:18:14 | 00:00:00 | |
| AA1-15 | 2026-09-03 12:37:31 | 53.90604 | 14.57073 | 162° | 78km/h | 25780m | -13.3m/s | -49.1°C | 4.3% | 24hPa | 2.6V | 08:24:52 | 02:18:05 | 00:00:00 | |
| AA1-15 | 2026-09-03 12:37:21 | 53.90649 | 14.57149 | 32° | 42km/h | 25923m | -13.4m/s | -48.4°C | 4.2% | 23.4hPa | 2.6V | 08:24:52 | 02:17:55 | 00:00:00 | |
| AA1-15 | 2026-09-03 12:37:10 | 53.90748 | 14.57014 | 223° | 68km/h | 26084m | -13.8m/s | -47.9°C | 4% | 22.9hPa | 2.7V | 08:24:52 | 02:17:44 | 00:00:00 | |
| AA1-15 | 2026-09-03 12:37:00 | 53.90726 | 14.57053 | 107° | 58km/h | 26230m | -15.2m/s | -48.2°C | 4.1% | 22.4hPa | 2.7V | 08:25:43 | 02:17:34 | 00:00:00 | |
| AA1-15 | 2026-09-03 12:36:49 | 53.90842 | 14.57123 | 301° | 60km/h | 26395m | -14.5m/s | -47.7°C | 4% | 21.8hPa | 2.7V | 08:25:43 | 02:17:23 | 00:00:00 | |
| AA1-15 | 2026-09-03 12:36:38 | 53.90813 | 14.57034 | 181° | 58km/h | 26552m | -15.3m/s | -47.7°C | 4% | 21.3hPa | 2.6V | 08:25:43 | 02:17:12 | 00:00:00 | |
| AA1-15 | 2026-09-03 12:36:27 | 53.90782 | 14.57161 | 51° | 58km/h | 26722m | -15m/s | -47.3°C | 3.9% | 20.7hPa | 2.6V | 08:25:43 | 02:17:01 | 00:00:00 | |
| AA1-15 | 2026-09-03 12:36:16 | 53.90875 | 14.57114 | 278° | 62km/h | 26892m | -14.7m/s | -47°C | 3.9% | 20.2hPa | 2.6V | 08:26:34 | 02:16:50 | 00:00:00 | |
| AA1-15 | 2026-09-03 12:36:06 | 53.90789 | 14.57050 | 129° | 66km/h | 27049m | -16.3m/s | -47.2°C | 3.9% | 19.7hPa | 2.6V | 08:26:34 | 02:16:40 | 00:00:00 | |
| AA1-15 | 2026-09-03 12:35:55 | 53.90828 | 14.57137 | 17° | 68km/h | 27228m | -17.2m/s | -47°C | 4% | 19.2hPa | 2.6V | 08:26:34 | 02:16:29 | 00:00:00 | |
| AA1-15 | 2026-09-03 12:35:45 | 53.90846 | 14.56920 | 196° | 51km/h | 27395m | -17.3m/s | -46.5°C | 3.9% | 18.7hPa | 2.7V | 08:26:34 | 02:16:19 | 00:00:00 | |
| AA1-15 | 2026-09-03 12:35:34 | 53.90772 | 14.56864 | 93° | 84km/h | 27577m | -17.4m/s | -45.9°C | 3.7% | 18.2hPa | 2.6V | 08:26:34 | 02:16:08 | 00:00:00 | |
| AA1-15 | 2026-09-03 12:35:23 | 53.90820 | 14.56824 | 360° | 60km/h | 27768m | -19.1m/s | -45.9°C | 3.7% | 17.6hPa | 2.6V | 08:27:25 | 02:15:57 | 00:00:00 | |
| AA1-15 | 2026-09-03 12:35:12 | 53.90843 | 14.56610 | 201° | 60km/h | 27965m | -18.2m/s | -45.9°C | 3.7% | 17.1hPa | 2.6V | 08:27:25 | 02:15:46 | 00:00:00 | |
| AA1-15 | 2026-09-03 12:35:02 | 53.90787 | 14.56617 | 82° | 77km/h | 28145m | -19.9m/s | -46°C | 3.7% | 16.7hPa | 2.6V | 08:27:25 | 02:15:36 | 00:00:00 | |
| AA1-15 | 2026-09-03 12:34:52 | 53.90872 | 14.56592 | 299° | 57km/h | 28327m | -19m/s | -46.3°C | 3.8% | 16.2hPa | 2.7V | 08:27:25 | 02:15:26 | 00:00:00 | |
| EDDB2-11 | 2026-09-03 12:34:52 | 53.90851 | 14.56622 | 345° | 58km/h | 28363m | -17.8m/s | 0°C | -1.0% | -1.0hPa | 2.7V | 00:00:00 | 00:00:00 | 00:00:00 | |
| SP3WXH-11 | 2026-09-03 12:34:51 | 53.90851 | 14.56622 | 345° | 58km/h | 28363m | -17.8m/s | -46.5°C | 2.9% | 16.1hPa | 2.7V | 00:00:00 | 00:00:00 | 00:00:00 | |
| AA1-15 | 2026-09-03 12:34:42 | 53.90841 | 14.56458 | 153° | 73km/h | 28509m | -20.3m/s | -46.6°C | 3.8% | 15.8hPa | 2.7V | 08:27:25 | 02:15:16 | 00:00:00 | |
| AA1-15 | 2026-09-03 12:34:32 | 53.90841 | 14.56532 | 34° | 78km/h | 28699m | -20m/s | -46.4°C | 3.9% | 15.3hPa | 2.7V | 08:28:16 | 02:15:06 | 00:00:00 | |
| AA1-15 | 2026-09-03 12:34:21 | 53.90881 | 14.56348 | 272° | 46km/h | 28909m | -20.5m/s | -46.2°C | 3.9% | 14.9hPa | 2.7V | 08:28:16 | 02:14:55 | 00:00:00 | |
| AA1-15 | 2026-09-03 12:34:10 | 53.90788 | 14.56174 | 122° | 93km/h | 29122m | -20.4m/s | -46.2°C | 3.8% | 14.4hPa | 2.7V | 08:28:16 | 02:14:44 | 00:00:00 | |
| AA1-15 | 2026-09-03 12:34:00 | 53.90813 | 14.56168 | 24° | 75km/h | 29321m | -22m/s | -46.3°C | 3.9% | 14hPa | 2.6V | 08:28:16 | 02:14:34 | 00:00:00 | |
| AA1-15 | 2026-09-03 12:33:50 | 53.90850 | 14.55946 | 212° | 62km/h | 29526m | -19.3m/s | -45°C | 3.7% | 13.5hPa | 2.6V | 08:28:16 | 02:14:24 | 00:00:00 | |
| SP3WXH-11 | 2026-09-03 12:33:49 | 53.90865 | 14.55984 | 266° | 53km/h | 29565m | -19.6m/s | -44.4°C | 2.9% | 13.4hPa | 2.6V | 00:00:00 | 00:00:00 | 00:00:00 | |
| AA1-15 | 2026-09-03 12:33:40 | 53.90785 | 14.55918 | 111° | 75km/h | 29750m | -23.1m/s | -44.4°C | 3.4% | 13.1hPa | 2.6V | 08:29:07 | 02:14:13 | 00:00:00 | |
| AA1-15 | 2026-09-03 12:33:29 | 53.90839 | 14.56009 | 332° | 80km/h | 29959m | -22m/s | -44.5°C | 3.5% | 12.7hPa | 2.7V | 08:29:07 | 02:14:03 | 00:00:00 | |
| AA1-15 | 2026-09-03 12:33:19 | 53.90786 | 14.55839 | 184° | 47km/h | 30169m | -24.4m/s | -44.7°C | 3.7% | 12.3hPa | 2.7V | 08:29:07 | 02:13:53 | 00:00:00 | |
| AA1-15 | 2026-09-03 12:33:06 | 53.90681 | 14.55757 | 109° | 91km/h | 30457m | -21.6m/s | -43.7°C | 3.5% | 11.7hPa | 2.6V | 08:29:07 | 02:13:40 | 00:00:00 | |
| AA1-15 | 2026-09-03 12:32:55 | 53.90685 | 14.55770 | 27° | 93km/h | 30701m | -23.5m/s | -42.2°C | 3.3% | 11.3hPa | 2.6V | 08:29:07 | 02:13:29 | 00:00:00 | |
| AA1-15 | 2026-09-03 12:32:45 | 53.90701 | 14.55526 | 218° | 38km/h | 30929m | -23.2m/s | -41.5°C | 3.2% | 10.9hPa | 2.7V | 08:29:58 | 02:13:19 | 00:00:00 | |
| AA1-15 | 2026-09-03 12:32:34 | 53.90624 | 14.55383 | 118° | 95km/h | 31185m | -26.5m/s | -40.4°C | 2.9% | 10.6hPa | 2.7V | 08:29:58 | 02:13:08 | 00:00:00 | |
| AA1-15 | 2026-09-03 12:32:23 | 53.90670 | 14.55460 | 353° | 64km/h | 31441m | -22.7m/s | -39.8°C | 2.8% | 10.2hPa | 2.7V | 08:29:58 | 02:12:57 | 00:00:00 | |
| AA1-15 | 2026-09-03 12:32:12 | 53.90646 | 14.55257 | 155° | 40km/h | 31676m | -18.7m/s | -40.7°C | 2.9% | 9.8hPa | 2.7V | 08:29:58 | 02:12:46 | 00:00:00 | |
| AA1-15 | 2026-09-03 12:32:01 | 53.90742 | 14.55305 | 159° | 31km/h | 31901m | -19.5m/s | -41.7°C | 3.3% | 9.5hPa | 2.7V | 18:12:15 | 02:12:35 | 00:00:00 | |
| AA1-15 | 2026-09-03 12:31:51 | 53.90806 | 14.55068 | 95° | 71km/h | 32130m | -23.5m/s | -41.1°C | 3.3% | 9.2hPa | 2.7V | 18:12:15 | 02:12:25 | 00:00:00 | |
| SP3WXH-11 | 2026-09-03 12:31:44 | 53.90799 | 14.54955 | 109° | 31km/h | 32444m | -74.8m/s | -38.6°C | 2.4% | 9.0hPa | 2.7V | 00:00:00 | 00:00:00 | 00:00:00 | |
| AA1-15 | 2026-09-03 12:31:41 | 53.90817 | 14.54903 | 119° | 38km/h | 32726m | -65.6m/s | -37.4°C | 2.5% | 8.6hPa | 2.7V | 18:12:15 | 02:12:14 | 00:00:00 | |
| AA1-15 | 2026-09-03 12:31:30 | 53.90843 | 14.54776 | 106° | 33km/h | 33155m | -3.7m/s | -36.1°C | 2.5% | 7.9hPa | 2.7V | 18:12:15 | 02:12:04 | 00:00:00 | |
| AA1-15 | 2026-09-03 12:31:19 | 53.90884 | 14.54712 | 103° | 18km/h | 33099m | 5.9m/s | -36.3°C | 2.5% | 8hPa | 2.7V | 18:12:15 | 02:11:53 | 00:00:00 | |
| AA1-15 | 2026-09-03 12:31:09 | 53.90936 | 14.54623 | 143° | 24km/h | 33042m | 6.3m/s | -36.7°C | 2.6% | 8hPa | 2.6V | 18:12:15 | 02:11:43 | 00:00:00 | |
| AA1-15 | 2026-09-03 12:30:58 | 53.90974 | 14.54511 | 130° | 40km/h | 32979m | 5.7m/s | -37°C | 2.6% | 8.1hPa | 2.7V | 18:12:15 | 02:11:32 | 00:00:00 | |
| AA1-15 | 2026-09-03 12:30:47 | 53.91003 | 14.54403 | 114° | 33km/h | 32915m | 5.7m/s | -37.6°C | 2.7% | 8.2hPa | 2.6V | 18:12:15 | 02:11:21 | 00:00:00 | |
| AA1-15 | 2026-09-03 12:30:37 | 53.91039 | 14.54282 | 98° | 18km/h | 32859m | 5.1m/s | -38°C | 2.7% | 8.2hPa | 2.7V | 18:12:15 | 02:11:11 | 00:00:00 | |
| AA1-15 | 2026-09-03 12:30:26 | 53.91052 | 14.54133 | 96° | 24km/h | 32798m | 5m/s | -38.4°C | 2.7% | 8.3hPa | 2.7V | 18:12:15 | 02:11:00 | 00:00:00 | |
| AA1-15 | 2026-09-03 12:30:17 | 53.91048 | 14.54007 | 108° | 33km/h | 32740m | 4.8m/s | -38.7°C | 2.7% | 8.4hPa | 2.6V | 18:12:15 | 02:10:50 | 00:00:00 | |
| AA1-15 | 2026-09-03 12:30:06 | 53.91041 | 14.53849 | 86° | 27km/h | 32670m | 5.4m/s | -39.2°C | 2.8% | 8.5hPa | 2.6V | 18:12:15 | 02:10:38 | 00:00:00 | |
| AA1-15 | 2026-09-03 12:29:55 | 53.91046 | 14.53741 | 79° | 33km/h | 32617m | 5.8m/s | -39.3°C | 2.8% | 8.5hPa | 2.6V | 18:12:15 | 02:10:29 | 00:00:00 | |
| AA1-15 | 2026-09-03 12:29:44 | 53.91053 | 14.53614 | 104° | 26km/h | 32553m | 5.6m/s | -39.6°C | 3% | 8.6hPa | 2.6V | 18:12:15 | 02:10:18 | 00:00:00 | |
| AA1-15 | 2026-09-03 12:29:33 | 53.91041 | 14.53469 | 120° | 20km/h | 32486m | 6m/s | -40.1°C | 3.1% | 8.7hPa | 2.7V | 18:12:15 | 02:10:06 | 00:00:00 | |
| AA1-15 | 2026-09-03 12:29:22 | 53.91032 | 14.53356 | 63° | 26km/h | 32422m | 5.3m/s | -40.5°C | 3.1% | 8.8hPa | 2.7V | 18:12:15 | 02:09:55 | 00:00:00 | |
| AA1-15 | 2026-09-03 12:29:10 | 53.91032 | 14.53245 | 55° | 29km/h | 32359m | 6.7m/s | -40.2°C | 3% | 8.9hPa | 2.7V | 18:12:15 | 02:09:44 | 00:00:00 | |
| AA1-15 | 2026-09-03 12:29:00 | 53.91015 | 14.53164 | 96° | 20km/h | 32301m | 6m/s | -40.3°C | 3% | 9hPa | 2.7V | 18:12:15 | 02:09:34 | 00:00:00 | |
| AA1-15 | 2026-09-03 12:28:49 | 53.90996 | 14.53095 | 88° | 7km/h | 32239m | 5.5m/s | -40.7°C | 3.1% | 9.1hPa | 2.7V | 18:12:15 | 02:09:23 | 00:00:00 | |
| DK1YY | 2026-09-03 12:28:46 | 53.90997 | 14.53075 | 94° | 22km/h | 32222m | 5.0m/s | -40.7°C | 2.7% | 9.1hPa | 2.7V | 00:00:00 | 00:00:00 | 00:00:00 | |
| AA1-15 | 2026-09-03 12:28:39 | 53.90980 | 14.53020 | 47° | 26km/h | 32181m | 5.9m/s | -41.2°C | 3.1% | 9.1hPa | 2.7V | 18:12:15 | 02:09:13 | 00:00:00 | |
| AA1-15 | 2026-09-03 12:28:28 | 53.90952 | 14.52959 | 55° | 29km/h | 32120m | 4.8m/s | -41.7°C | 3.3% | 9.2hPa | 2.6V | 18:12:15 | 02:09:02 | 00:00:00 | |
| AA1-15 | 2026-09-03 12:28:18 | 53.90915 | 14.52903 | 63° | 16km/h | 32065m | 5.8m/s | -41.5°C | 3.3% | 9.2hPa | 2.6V | 18:12:15 | 02:08:52 | 00:00:00 | |
| AA1-15 | 2026-09-03 12:28:08 | 53.90880 | 14.52843 | 32° | 20km/h | 32007m | 4.8m/s | -41.6°C | 3.3% | 9.4hPa | 2.7V | 18:12:15 | 02:08:42 | 00:00:00 | |
| AA1-15 | 2026-09-03 12:27:57 | 53.90864 | 14.52786 | 24° | 16km/h | 31947m | 5.1m/s | -41.7°C | 3.3% | 9.4hPa | 2.6V | 18:12:15 | 02:08:31 | 00:00:00 | |
| AA1-15 | 2026-09-03 12:27:47 | 53.90827 | 14.52713 | 96° | 16km/h | 31889m | 7.1m/s | -41.2°C | 3.2% | 9.5hPa | 2.6V | 18:12:15 | 02:08:21 | 00:00:00 | |
| DK1YY | 2026-09-03 12:27:44 | 53.90830 | 14.52692 | 94° | 11km/h | 31872m | 5.1m/s | -41.3°C | 2.9% | 9.5hPa | 2.7V | 00:00:00 | 00:00:00 | 00:00:00 | |
| AA1-15 | 2026-09-03 12:27:36 | 53.90803 | 14.52655 | 58° | 24km/h | 31825m | 5.2m/s | -41.3°C | 3.3% | 9.6hPa | 2.7V | 18:12:15 | 02:08:10 | 00:00:00 | |
| AA1-15 | 2026-09-03 12:27:25 | 53.90783 | 14.52608 | 9° | 20km/h | 31760m | 6.2m/s | -41.2°C | 3.3% | 9.7hPa | 2.7V | 18:12:15 | 02:07:59 | 00:00:00 | |
| AA1-15 | 2026-09-03 12:27:14 | 53.90765 | 14.52589 | 292° | 5km/h | 31697m | 4.9m/s | -40.3°C | 3.1% | 9.8hPa | 2.6V | 18:12:15 | 02:07:48 | 00:00:00 | |
| AA1-15 | 2026-09-03 12:27:03 | 53.90748 | 14.52581 | 320° | 4km/h | 31631m | 7m/s | -39.8°C | 3% | 9.9hPa | 2.6V | 18:12:15 | 02:07:37 | 00:00:00 | |
| AA1-15 | 2026-09-03 12:26:52 | 53.90749 | 14.52566 | 341° | 9km/h | 31562m | 7m/s | -39.6°C | 3% | 10hPa | 2.6V | 18:12:15 | 02:07:26 | 00:00:00 | |
| AA1-15 | 2026-09-03 12:26:42 | 53.90748 | 14.52566 | 152° | 5km/h | 31500m | 5.2m/s | -39.6°C | 3% | 10.1hPa | 2.7V | 18:12:15 | 02:07:16 | 00:00:00 | |
| AA1-15 | 2026-09-03 12:26:32 | 53.90751 | 14.52574 | 57° | 4km/h | 31439m | 7.4m/s | -39.4°C | 2.8% | 10.2hPa | 2.7V | 18:12:15 | 02:07:06 | 00:00:00 | |
| AA1-15 | 2026-09-03 12:26:21 | 53.90755 | 14.52537 | 142° | 16km/h | 31369m | 6m/s | -39.7°C | 2.9% | 10.3hPa | 2.7V | 18:12:15 | 02:06:55 | 00:00:00 | |
| AA1-15 | 2026-09-03 12:26:11 | 53.90762 | 14.52470 | 80° | 15km/h | 31306m | 6.4m/s | -39.2°C | 2.8% | 10.4hPa | 2.7V | 18:12:15 | 02:06:45 | 00:00:00 | |
| AA1-15 | 2026-09-03 12:26:01 | 53.90780 | 14.52394 | 75° | 24km/h | 31238m | 6.9m/s | -39.9°C | 2.9% | 10.5hPa | 2.6V | 18:12:15 | 02:06:34 | 00:00:00 | |
| AA1-15 | 2026-09-03 12:25:50 | 53.90784 | 14.52298 | 120° | 33km/h | 31174m | 6.2m/s | -40.4°C | 3% | 10.6hPa | 2.7V | 18:12:15 | 02:06:24 | 00:00:00 | |
| AA1-15 | 2026-09-03 12:25:39 | 53.90798 | 14.52147 | 101° | 35km/h | 31105m | 7.1m/s | -40.8°C | 3.1% | 10.7hPa | 2.6V | 18:12:15 | 02:06:13 | 00:00:00 | |
| AA1-15 | 2026-09-03 12:25:29 | 53.90804 | 14.51993 | 85° | 29km/h | 31042m | 6.2m/s | -40.9°C | 3.1% | 10.8hPa | 2.7V | 18:12:15 | 02:06:03 | 00:00:00 | |
| AA1-15 | 2026-09-03 12:25:19 | 53.90790 | 14.51841 | 69° | 37km/h | 30980m | 5.3m/s | -40.8°C | 3.1% | 10.9hPa | 2.6V | 18:12:15 | 02:05:53 | 00:00:00 | |
| AA1-15 | 2026-09-03 12:25:09 | 53.90755 | 14.51687 | 71° | 42km/h | 30918m | 6.2m/s | -40.6°C | 3% | 11hPa | 2.6V | 18:12:15 | 02:05:43 | 00:00:00 | |
| AA1-15 | 2026-09-03 12:24:59 | 53.90706 | 14.51514 | 70° | 44km/h | 30853m | 5.8m/s | -41°C | 3.1% | 0hPa | 2.6V | 18:12:15 | 02:05:32 | 00:00:00 | |
| AA1-15 | 2026-09-03 12:24:48 | 53.90661 | 14.51362 | 45° | 42km/h | 30792m | 6.9m/s | -41.4°C | 3.2% | 0hPa | 2.6V | 18:12:15 | 02:05:22 | 00:00:00 | |
| AA1-15 | 2026-09-03 12:24:38 | 53.90617 | 14.51215 | 51° | 33km/h | 30721m | 7m/s | -40.7°C | 3.1% | 0hPa | 2.6V | 18:12:15 | 02:05:10 | 00:00:00 | |
| AA1-15 | 2026-09-03 12:24:26 | 53.90568 | 14.51115 | 70° | 18km/h | 30661m | 5.7m/s | -41.4°C | 3.1% | 0hPa | 2.7V | 18:12:15 | 02:05:00 | 00:00:00 | |
| AA1-15 | 2026-09-03 12:24:16 | 53.90547 | 14.51023 | 65° | 31km/h | 30603m | 5.2m/s | -41.1°C | 3.1% | 0hPa | 2.6V | 18:12:15 | 02:04:50 | 00:00:00 | |
| AA1-15 | 2026-09-03 12:24:05 | 53.90538 | 14.50925 | 63° | 29km/h | 30532m | 6.8m/s | -42°C | 3.2% | 0hPa | 2.7V | 18:12:15 | 02:04:38 | 00:00:00 | |
| AA1-15 | 2026-09-03 12:23:53 | 53.90520 | 14.50795 | 64° | 29km/h | 30469m | 5.4m/s | -42.3°C | 3.3% | 0hPa | 2.7V | 18:12:15 | 02:04:27 | 00:00:00 | |
| AA1-15 | 2026-09-03 12:23:43 | 53.90474 | 14.50656 | 61° | 20km/h | 30407m | 5.2m/s | -42.8°C | 3.4% | 0hPa | 2.7V | 18:12:15 | 02:04:16 | 00:00:00 | |
| AA1-15 | 2026-09-03 12:23:30 | 53.90414 | 14.50538 | 67° | 26km/h | 30343m | 6.7m/s | 0°C | 0% | 0hPa | 2.7V | 18:12:15 | 02:04:04 | 00:00:00 | |
| AA1-15 | 2026-09-03 12:23:19 | 53.90370 | 14.50413 | 61° | 33km/h | 30282m | 5.8m/s | 0°C | 0% | 0hPa | 2.7V | 18:12:15 | 02:03:53 | 00:00:00 | |
| AA1-15 | 2026-09-03 12:23:05 | 53.90297 | 14.50298 | 45° | 22km/h | 30199m | 5.3m/s | -43.8°C | 3.6% | 12.2hPa | 2.7V | 18:12:15 | 02:03:38 | 00:00:00 | |
| AA1-15 | 2026-09-03 12:22:55 | 53.90253 | 14.50250 | 9° | 38km/h | 30144m | 6.2m/s | -44°C | 3.6% | 12.4hPa | 2.6V | 18:12:15 | 02:03:28 | 00:00:00 | |
| AA1-15 | 2026-09-03 12:22:43 | 53.90215 | 14.50210 | 27° | 15km/h | 30085m | 5.1m/s | -44°C | 3.6% | 12.4hPa | 2.7V | 18:12:15 | 02:03:17 | 00:00:00 | |
| AA1-15 | 2026-09-03 12:22:32 | 53.90180 | 14.50179 | 85° | 20km/h | 30022m | 5.2m/s | -43.9°C | 3.6% | 12.6hPa | 2.7V | 18:12:15 | 02:03:06 | 00:00:00 | |
| AA1-15 | 2026-09-03 12:22:22 | 53.90153 | 14.50165 | 303° | 15km/h | 29968m | 5.7m/s | -43.8°C | 3.5% | 12.7hPa | 2.7V | 18:12:15 | 02:02:56 | 00:00:00 | |
| AA1-15 | 2026-09-03 12:22:12 | 53.90137 | 14.50148 | 349° | 22km/h | 29914m | 5.1m/s | -43.7°C | 3.5% | 12.8hPa | 2.7V | 18:12:15 | 02:02:46 | 00:00:00 | |
| AA1-15 | 2026-09-03 12:21:59 | 53.90132 | 14.50188 | 115° | 4km/h | 29841m | 5.2m/s | -43.6°C | 3.5% | 12.9hPa | 2.6V | 18:12:15 | 02:02:33 | 00:00:00 | |
| AA1-15 | 2026-09-03 12:21:49 | 53.90138 | 14.50185 | 216° | 9km/h | 29785m | 6.3m/s | -43.5°C | 3.5% | 13hPa | 2.7V | 18:12:15 | 02:02:23 | 00:00:00 | |
| AA1-15 | 2026-09-03 12:21:39 | 53.90146 | 14.50181 | 131° | 9km/h | 29728m | 4.5m/s | -43.4°C | 3.5% | 13.1hPa | 2.7V | 18:12:15 | 02:02:13 | 00:00:00 | |
| AA1-15 | 2026-09-03 12:21:28 | 53.90172 | 14.50160 | 136° | 13km/h | 29664m | 5.1m/s | -43.3°C | 3.5% | 13.2hPa | 2.6V | 18:12:15 | 02:02:02 | 00:00:00 | |
| AA1-15 | 2026-09-03 12:21:18 | 53.90194 | 14.50126 | 133° | 7km/h | 29605m | 4.7m/s | -43.1°C | 3.4% | 13.4hPa | 2.7V | 18:12:15 | 02:01:52 | 00:00:00 | |
| AA1-15 | 2026-09-03 12:21:07 | 53.90214 | 14.50076 | 111° | 16km/h | 29542m | 6.8m/s | -43°C | 3.4% | 13.5hPa | 2.7V | 18:12:15 | 02:01:41 | 00:00:00 | |
| AA1-15 | 2026-09-03 12:20:57 | 53.90242 | 14.50017 | 128° | 15km/h | 29483m | 5.2m/s | -43.4°C | 3.4% | 13.6hPa | 2.6V | 18:12:15 | 02:01:31 | 00:00:00 | |
| AA1-15 | 2026-09-03 12:20:46 | 53.90255 | 14.49912 | 93° | 24km/h | 29419m | 6.1m/s | -44.3°C | 3.7% | 13.8hPa | 2.6V | 18:12:15 | 02:01:20 | 00:00:00 | |
| AA1-15 | 2026-09-03 12:20:36 | 53.90269 | 14.49830 | 99° | 20km/h | 29361m | 4.8m/s | -44.8°C | 3.7% | 13.9hPa | 2.7V | 18:12:15 | 02:01:10 | 00:00:00 | |
| AA1-15 | 2026-09-03 12:20:25 | 53.90276 | 14.49752 | 112° | 35km/h | 29294m | 5.9m/s | -45°C | 3.7% | 14hPa | 2.7V | 18:12:15 | 02:00:59 | 00:00:00 | |
| AA1-15 | 2026-09-03 12:20:14 | 53.90283 | 14.49650 | 74° | 27km/h | 29228m | 6.2m/s | -44.9°C | 3.8% | 14.2hPa | 2.6V | 18:12:15 | 02:00:48 | 00:00:00 | |
| AA1-15 | 2026-09-03 12:20:04 | 53.90296 | 14.49520 | 98° | 18km/h | 29168m | 7.2m/s | -44.8°C | 3.7% | 14.3hPa | 2.6V | 18:12:15 | 02:00:38 | 00:00:00 | |
| AA1-15 | 2026-09-03 12:19:54 | 53.90290 | 14.49415 | 112° | 37km/h | 29110m | 4.5m/s | -44.6°C | 3.7% | 14.4hPa | 2.7V | 18:12:15 | 02:00:28 | 00:00:00 | |
| SP3WXH-11 | 2026-09-03 12:19:51 | 53.90296 | 14.49366 | 78° | 22km/h | 29088m | 5.7m/s | -44.8°C | 2.8% | 14.5hPa | 2.7V | 00:00:00 | 00:00:00 | 00:00:00 | |
| SONDE2-11 | 2026-09-03 12:19:45 | 53.90290 | 14.49311 | 85° | 29km/h | 29055m | 6.2m/s | -44.9°C | 3.0% | 14.5hPa | 2.7V | 00:00:00 | 00:00:00 | 00:00:00 | |
| AA1-15 | 2026-09-03 12:19:43 | 53.90289 | 14.49298 | 84° | 35km/h | 29049m | 6.3m/s | -44.8°C | 3.7% | 14.5hPa | 2.7V | 18:12:15 | 02:00:17 | 00:00:00 | |
| AA1-15 | 2026-09-03 12:19:32 | 53.90289 | 14.49173 | 82° | 35km/h | 28987m | 5.7m/s | -44.7°C | 3.8% | 14.7hPa | 2.7V | 18:12:15 | 02:00:06 | 00:00:00 | |
| AA1-15 | 2026-09-03 12:19:22 | 53.90287 | 14.49065 | 57° | 9km/h | 28928m | 5m/s | -44.6°C | 3.6% | 14.8hPa | 2.7V | 18:12:15 | 01:59:56 | 00:00:00 | |
| AA1-15 | 2026-09-03 12:19:12 | 53.90272 | 14.48970 | 95° | 20km/h | 28872m | 6.1m/s | -44.6°C | 3.7% | 15hPa | 2.6V | 18:12:15 | 01:59:46 | 00:00:00 | |
| AA1-15 | 2026-09-03 12:19:01 | 53.90243 | 14.48906 | 66° | 26km/h | 28807m | 6.4m/s | -44.7°C | 3.7% | 15.1hPa | 2.7V | 18:12:15 | 01:59:35 | 00:00:00 | |
| AA1-15 | 2026-09-03 12:18:50 | 53.90225 | 14.48835 | 64° | 24km/h | 28746m | 7.1m/s | -44.9°C | 3.7% | 15.2hPa | 2.7V | 18:12:15 | 01:59:24 | 00:00:00 | |
| SP3WXH-11 | 2026-09-03 12:18:49 | 53.90219 | 14.48813 | 69° | 33km/h | 28735m | 4.6m/s | -45.0°C | 2.9% | 15.2hPa | 2.6V | 00:00:00 | 00:00:00 | 00:00:00 | |
| AA1-15 | 2026-09-03 12:18:40 | 53.90211 | 14.48755 | 60° | 13km/h | 28691m | 5.5m/s | -44.7°C | 3.6% | 15.3hPa | 2.6V | 18:12:15 | 01:59:14 | 00:00:00 | |
| AA1-15 | 2026-09-03 12:18:30 | 53.90199 | 14.48695 | 83° | 13km/h | 28637m | 6.6m/s | -45.1°C | 3.8% | 15.5hPa | 2.6V | 18:12:15 | 01:59:04 | 00:00:00 | |
| AA1-15 | 2026-09-03 12:18:19 | 53.90204 | 14.48664 | 74° | 11km/h | 28572m | 6.8m/s | -45.4°C | 3.7% | 15.6hPa | 2.6V | 18:12:15 | 01:58:53 | 00:00:00 | |
| AA1-15 | 2026-09-03 12:18:08 | 53.90210 | 14.48636 | 102° | 15km/h | 28502m | 5.6m/s | -45.4°C | 3.8% | 15.8hPa | 2.6V | 18:12:15 | 01:58:41 | 00:00:00 | |
| AA1-15 | 2026-09-03 12:17:56 | 53.90207 | 14.48603 | 289° | 2km/h | 28439m | 5.3m/s | -45.2°C | 3.8% | 15.9hPa | 2.6V | 18:12:15 | 01:58:30 | 00:00:00 | |
| AA1-15 | 2026-09-03 12:17:46 | 53.90207 | 14.48562 | 235° | 5km/h | 28381m | 7m/s | -45.6°C | 3.8% | 16.1hPa | 2.7V | 18:12:15 | 01:58:20 | 00:00:00 | |
| AA1-15 | 2026-09-03 12:17:36 | 53.90231 | 14.48582 | 206° | 7km/h | 28312m | 5.9m/s | -45.6°C | 3.8% | 16.2hPa | 2.7V | 18:12:15 | 01:58:08 | 00:00:00 | |
| AA1-15 | 2026-09-03 12:17:23 | 53.90260 | 14.48589 | 100° | 11km/h | 28246m | 5.1m/s | -45.6°C | 3.8% | 16.4hPa | 2.7V | 18:12:15 | 01:57:57 | 00:00:00 | |
| AA1-15 | 2026-09-03 12:17:13 | 53.90261 | 14.48580 | 130° | 9km/h | 28186m | 6.9m/s | -45.4°C | 3.8% | 16.6hPa | 2.6V | 18:12:15 | 01:57:47 | 00:00:00 | |
| AA1-15 | 2026-09-03 12:17:03 | 53.90254 | 14.48537 | 44° | 4km/h | 28119m | 6.7m/s | -45.5°C | 3.8% | 16.7hPa | 2.6V | 18:12:15 | 01:57:36 | 00:00:00 | |
| AA1-15 | 2026-09-03 12:16:52 | 53.90264 | 14.48523 | 109° | 7km/h | 28060m | 5.3m/s | -45.6°C | 3.8% | 16.9hPa | 2.7V | 18:12:15 | 01:57:26 | 00:00:00 | |
| EDDB2-11 | 2026-09-03 12:16:45 | 53.90273 | 14.48506 | 121° | 13km/h | 28017m | 5.0m/s | -45.6°C | 2.9% | 17.0hPa | 2.7V | 00:00:00 | 00:00:00 | 00:00:00 | |
| SP3WXH-11 | 2026-09-03 12:16:44 | 53.90275 | 14.48501 | 129° | 13km/h | 28011m | 6.4m/s | -45.5°C | 2.9% | 17.0hPa | 2.7V | 00:00:00 | 00:00:00 | 00:00:00 | |
| AA1-15 | 2026-09-03 12:16:41 | 53.90282 | 14.48493 | 142° | 7km/h | 27993m | 5.6m/s | -45.6°C | 3.8% | 17.1hPa | 2.7V | 18:12:15 | 01:57:15 | 00:00:00 | |
| AA1-15 | 2026-09-03 12:16:30 | 53.90289 | 14.48433 | 110° | 20km/h | 27927m | 5.3m/s | -45.5°C | 3.8% | 17.2hPa | 2.7V | 18:12:15 | 01:57:04 | 00:00:00 | |
| AA1-15 | 2026-09-03 12:16:19 | 53.90301 | 14.48393 | 119° | 11km/h | 27860m | 5.9m/s | -45.7°C | 3.9% | 17.4hPa | 2.6V | 18:12:15 | 01:56:53 | 00:00:00 | |
| AA1-15 | 2026-09-03 12:16:08 | 53.90316 | 14.48342 | 88° | 18km/h | 27794m | 4.9m/s | -45.7°C | 3.9% | 17.6hPa | 2.6V | 18:12:15 | 01:56:42 | 00:00:00 | |
| AA1-15 | 2026-09-03 12:15:58 | 53.90321 | 14.48284 | 92° | 16km/h | 27737m | 6.2m/s | -45.9°C | 3.9% | 17.8hPa | 2.7V | 18:12:15 | 01:56:32 | 00:00:00 | |
| AA1-15 | 2026-09-03 12:15:48 | 53.90299 | 14.48222 | 46° | 15km/h | 27677m | 6.2m/s | -45.7°C | 3.8% | 17.9hPa | 2.7V | 18:12:15 | 01:56:22 | 00:00:00 | |
| AA1-15 | 2026-09-03 12:15:37 | 53.90283 | 14.48160 | 79° | 13km/h | 27608m | 6.3m/s | -45.8°C | 3.8% | 18.1hPa | 2.7V | 18:12:15 | 01:56:10 | 00:00:00 | |
| AA1-15 | 2026-09-03 12:15:27 | 53.90291 | 14.48122 | 28° | 5km/h | 27557m | 5.8m/s | -46°C | 3.9% | 18.2hPa | 2.6V | 18:12:15 | 01:56:01 | 00:00:00 | |
| AA1-15 | 2026-09-03 12:15:17 | 53.90281 | 14.48057 | 76° | 11km/h | 27488m | 6.8m/s | -46.1°C | 3.8% | 18.4hPa | 2.6V | 18:12:15 | 01:55:49 | 00:00:00 | |
| AA1-15 | 2026-09-03 12:15:04 | 53.90260 | 14.47993 | 80° | 20km/h | 27425m | 6.6m/s | -46.8°C | 4% | 18.6hPa | 2.7V | 18:12:15 | 01:55:38 | 00:00:00 | |
| AA1-15 | 2026-09-03 12:14:53 | 53.90236 | 14.47932 | 64° | 20km/h | 27363m | 6.3m/s | -47.1°C | 4% | 18.8hPa | 2.7V | 18:12:15 | 01:55:27 | 00:00:00 | |
| DK1YY | 2026-09-03 12:14:48 | 53.90232 | 14.47900 | 80° | 9km/h | 27335m | 4.4m/s | -47.0°C | 2.9% | 18.8hPa | 2.7V | 00:00:00 | 00:00:00 | 00:00:00 | |
| AA1-15 | 2026-09-03 12:14:42 | 53.90223 | 14.47898 | 44° | 9km/h | 27301m | 5.7m/s | -47.2°C | 4.1% | 19hPa | 2.7V | 18:12:15 | 01:55:16 | 00:00:00 | |
| AA1-15 | 2026-09-03 12:14:32 | 53.90206 | 14.47866 | 113° | 2km/h | 27246m | 4.4m/s | -47.2°C | 4.1% | 19.1hPa | 2.6V | 18:12:15 | 01:55:06 | 00:00:00 | |
| AA1-15 | 2026-09-03 12:14:21 | 53.90215 | 14.47863 | 352° | 7km/h | 27185m | 5.4m/s | -47.2°C | 4.1% | 19.3hPa | 2.6V | 18:12:15 | 01:54:55 | 00:00:00 | |
| AA1-15 | 2026-09-03 12:14:10 | 53.90239 | 14.47889 | 111° | 9km/h | 27125m | 4.6m/s | -47.3°C | 4.1% | 19.5hPa | 2.7V | 18:12:15 | 01:54:44 | 00:00:00 | |
| AA1-15 | 2026-09-03 12:13:59 | 53.90234 | 14.47905 | 229° | 11km/h | 27065m | 5.4m/s | -47.3°C | 4.1% | 19.6hPa | 2.7V | 18:12:15 | 01:54:33 | 00:00:00 | |
| AA1-15 | 2026-09-03 12:13:48 | 53.90211 | 14.47925 | 277° | 13km/h | 27004m | 5.8m/s | -47.2°C | 4% | 19.8hPa | 2.7V | 18:12:15 | 01:54:22 | 00:00:00 | |
| DK1YY | 2026-09-03 12:13:46 | 53.90211 | 14.47936 | 274° | 11km/h | 26992m | 4.9m/s | -47.1°C | 3.0% | 19.9hPa | 2.6V | 00:00:00 | 00:00:00 | 00:00:00 | |
| AA1-15 | 2026-09-03 12:13:38 | 53.90192 | 14.47941 | 338° | 18km/h | 26948m | 5.4m/s | -46.9°C | 4% | 20hPa | 2.6V | 18:12:15 | 01:54:12 | 00:00:00 | |
| AA1-15 | 2026-09-03 12:13:27 | 53.90186 | 14.47952 | 36° | 5km/h | 26887m | 6.5m/s | -47.2°C | 4% | 20.2hPa | 2.6V | 18:12:15 | 01:54:01 | 00:00:00 | |
| AA1-15 | 2026-09-03 12:13:16 | 53.90197 | 14.47971 | 196° | 11km/h | 26826m | 5.6m/s | -47.4°C | 4.1% | 20.3hPa | 2.7V | 18:12:15 | 01:53:50 | 00:00:00 | |
| AA1-15 | 2026-09-03 12:13:05 | 53.90215 | 14.47968 | 288° | 4km/h | 26763m | 5.5m/s | -48.1°C | 4.2% | 20.6hPa | 2.7V | 18:12:15 | 01:53:39 | 00:00:00 | |
| AA1-15 | 2026-09-03 12:12:55 | 53.90222 | 14.47970 | 307° | 7km/h | 26707m | 5.9m/s | -48.8°C | 4.3% | 20.7hPa | 2.6V | 18:12:15 | 01:53:29 | 00:00:00 | |
| AA1-15 | 2026-09-03 12:12:44 | 53.90201 | 14.47981 | 175° | 2km/h | 26645m | 6m/s | -48.9°C | 4.3% | 20.9hPa | 2.6V | 18:12:15 | 01:53:18 | 00:00:00 | |
| AA1-15 | 2026-09-03 12:12:34 | 53.90196 | 14.48001 | 317° | 9km/h | 26588m | 5.5m/s | -49.2°C | 4.4% | 21.1hPa | 2.7V | 18:12:15 | 01:53:08 | 00:00:00 | |
| AA1-15 | 2026-09-03 12:12:23 | 53.90216 | 14.48027 | 211° | 7km/h | 26523m | 6.5m/s | -48.8°C | 4.4% | 21.3hPa | 2.7V | 18:12:15 | 01:52:57 | 00:00:00 | |
| AA1-15 | 2026-09-03 12:12:12 | 53.90257 | 14.48062 | 199° | 24km/h | 26456m | 6m/s | -48.4°C | 4.3% | 21.6hPa | 2.7V | 18:12:15 | 01:52:46 | 00:00:00 | |
| AA1-15 | 2026-09-03 12:12:02 | 53.90300 | 14.48091 | 201° | 33km/h | 26400m | 6.3m/s | -48.7°C | 4.3% | 21.7hPa | 2.6V | 18:12:15 | 01:52:36 | 00:00:00 | |
| AA1-15 | 2026-09-03 12:11:51 | 53.90370 | 14.48113 | 180° | 26km/h | 26335m | 6.4m/s | -48.5°C | 4.3% | 21.9hPa | 2.6V | 18:12:15 | 01:52:25 | 00:00:00 | |
| AA1-15 | 2026-09-03 12:11:40 | 53.90440 | 14.48149 | 204° | 24km/h | 26273m | 6.1m/s | -48.2°C | 4.3% | 22.1hPa | 2.7V | 18:12:15 | 01:52:14 | 00:00:00 | |
| AA1-15 | 2026-09-03 12:11:30 | 53.90510 | 14.48182 | 191° | 38km/h | 26214m | 6.7m/s | -47.9°C | 4.2% | 22.4hPa | 2.7V | 18:12:15 | 01:52:04 | 00:00:00 | |
| AA1-15 | 2026-09-03 12:11:19 | 53.90575 | 14.48195 | 188° | 26km/h | 26150m | 5.9m/s | -47.9°C | 4.2% | 22.6hPa | 2.6V | 18:12:15 | 01:51:53 | 00:00:00 | |
| AA1-15 | 2026-09-03 12:11:08 | 53.90649 | 14.48187 | 162° | 18km/h | 26084m | 5.2m/s | -47.5°C | 4.1% | 22.8hPa | 2.6V | 18:12:15 | 01:51:42 | 00:00:00 | |
| AA1-15 | 2026-09-03 12:10:58 | 53.90711 | 14.48181 | 184° | 26km/h | 26025m | 5.4m/s | -47.4°C | 4.1% | 23hPa | 2.7V | 18:12:15 | 01:51:32 | 00:00:00 | |
| AA1-15 | 2026-09-03 12:10:48 | 53.90764 | 14.48159 | 156° | 33km/h | 25968m | 5.4m/s | -47.4°C | 4% | 23.2hPa | 2.7V | 18:12:15 | 01:51:22 | 00:00:00 | |
| AA1-15 | 2026-09-03 12:10:37 | 53.90826 | 14.48123 | 160° | 20km/h | 25908m | 5.6m/s | -47.7°C | 4.1% | 23.4hPa | 2.6V | 18:12:15 | 01:51:11 | 00:00:00 | |
| AA1-15 | 2026-09-03 12:10:26 | 53.90890 | 14.48099 | 155° | 20km/h | 25848m | 5.2m/s | -48°C | 4.1% | 23.6hPa | 2.6V | 18:12:15 | 01:51:00 | 00:00:00 | |
| AA1-15 | 2026-09-03 12:10:15 | 53.90947 | 14.48044 | 148° | 27km/h | 25788m | 5.9m/s | -48.5°C | 4.2% | 23.8hPa | 2.6V | 18:12:15 | 01:50:49 | 00:00:00 | |
| AA1-15 | 2026-09-03 12:10:05 | 53.90995 | 14.47965 | 127° | 33km/h | 25733m | 6m/s | -49.1°C | 4.4% | 24hPa | 2.7V | 18:12:15 | 01:50:39 | 00:00:00 | |
| AA1-15 | 2026-09-03 12:09:54 | 53.91033 | 14.47861 | 113° | 27km/h | 25674m | 4.8m/s | -49.3°C | 4.4% | 24.3hPa | 2.7V | 18:12:15 | 01:50:28 | 00:00:00 | |
| AA1-15 | 2026-09-03 12:09:43 | 53.91056 | 14.47757 | 118° | 16km/h | 25615m | 5m/s | -49.2°C | 4.4% | 24.5hPa | 2.6V | 18:12:15 | 01:50:17 | 00:00:00 | |
| AA1-15 | 2026-09-03 12:09:32 | 53.91053 | 14.47658 | 75° | 26km/h | 25559m | 4.7m/s | -49.3°C | 4.4% | 24.7hPa | 2.6V | 18:12:15 | 01:50:06 | 00:00:00 | |
| AA1-15 | 2026-09-03 12:09:22 | 53.91040 | 14.47600 | 57° | 22km/h | 25504m | 6m/s | -49.6°C | 4.3% | 24.9hPa | 2.7V | 18:12:15 | 01:49:56 | 00:00:00 | |
| AA1-15 | 2026-09-03 12:09:11 | 53.91001 | 14.47535 | 6° | 11km/h | 25443m | 5m/s | -49.5°C | 4.5% | 25.1hPa | 2.7V | 18:12:15 | 01:49:45 | 00:00:00 | |
| AA1-15 | 2026-09-03 12:09:00 | 53.90946 | 14.47497 | 10° | 22km/h | 25384m | 5.6m/s | -49.7°C | 4.6% | 25.3hPa | 2.7V | 18:12:15 | 01:49:34 | 00:00:00 | |
| AA1-15 | 2026-09-03 12:08:49 | 53.90883 | 14.47473 | 25° | 27km/h | 25324m | 5.1m/s | -49.7°C | 4.5% | 25.6hPa | 2.6V | 18:12:15 | 01:49:23 | 00:00:00 | |
| AA1-15 | 2026-09-03 12:08:39 | 53.90851 | 14.47473 | 17° | 15km/h | 25272m | 6.3m/s | -49.1°C | 4.4% | 25.8hPa | 2.6V | 18:12:15 | 01:49:13 | 00:00:00 | |
| AA1-15 | 2026-09-03 12:08:28 | 53.90821 | 14.47469 | 292° | 4km/h | 25215m | 6.5m/s | -49.3°C | 4.4% | 26hPa | 2.7V | 18:12:15 | 01:49:02 | 00:00:00 | |
| AA1-15 | 2026-09-03 12:08:17 | 53.90814 | 14.47477 | 330° | 4km/h | 25155m | 5.4m/s | -49.4°C | 4.4% | 26.3hPa | 2.7V | 18:12:15 | 01:48:51 | 00:00:00 | |
| AA1-15 | 2026-09-03 12:08:06 | 53.90831 | 14.47501 | 186° | 9km/h | 25094m | 5.1m/s | -49.3°C | 4.4% | 26.5hPa | 2.7V | 18:12:15 | 01:48:40 | 00:00:00 | |
| AA1-15 | 2026-09-03 12:07:56 | 53.90859 | 14.47523 | 173° | 15km/h | 25034m | 6.1m/s | -49.2°C | 4.3% | 26.8hPa | 2.6V | 18:12:15 | 01:48:29 | 00:00:00 | |
| AA1-15 | 2026-09-03 12:07:45 | 53.90893 | 14.47493 | 178° | 13km/h | 24980m | 6.1m/s | -49.4°C | 4.5% | 27hPa | 2.6V | 18:12:15 | 01:48:19 | 00:00:00 | |
| AA1-15 | 2026-09-03 12:07:35 | 53.90929 | 14.47453 | 124° | 20km/h | 24920m | 4.6m/s | -49.7°C | 4.4% | 27.2hPa | 2.7V | 18:12:15 | 01:48:08 | 00:00:00 | |
| AA1-15 | 2026-09-03 12:07:24 | 53.90941 | 14.47412 | 114° | 13km/h | 24863m | 6.2m/s | -50.4°C | 4.5% | 27.5hPa | 2.7V | 18:12:15 | 01:47:58 | 00:00:00 | |
| AA1-15 | 2026-09-03 12:07:14 | 53.90950 | 14.47378 | 62° | 2km/h | 24802m | 5.4m/s | -50.5°C | 4.6% | 27.8hPa | 2.6V | 18:12:15 | 01:47:47 | 00:00:00 | |
| AA1-15 | 2026-09-03 12:07:03 | 53.90962 | 14.47365 | 131° | 7km/h | 24747m | 4.9m/s | -50.6°C | 4.6% | 28hPa | 2.6V | 18:12:15 | 01:47:37 | 00:00:00 | |
| AA1-15 | 2026-09-03 12:06:52 | 53.90989 | 14.47350 | 128° | 11km/h | 24686m | 4.2m/s | -50.4°C | 4.6% | 28.2hPa | 2.7V | 18:12:15 | 01:47:26 | 00:00:00 | |
| DJ2DS-15 | 2026-09-03 12:06:51 | 53.90991 | 14.47347 | 134° | 11km/h | 24681m | 6.2m/s | -50.4°C | 3.3% | 28.2hPa | 2.7V | 00:00:00 | 00:00:00 | 00:00:00 | |
| AA1-15 | 2026-09-03 12:06:42 | 53.91023 | 14.47336 | 166° | 24km/h | 24630m | 5.2m/s | -50.5°C | 4.7% | 28.5hPa | 2.7V | 18:12:15 | 01:47:16 | 00:00:00 | |
| AA1-15 | 2026-09-03 12:06:31 | 53.91064 | 14.47322 | 188° | 15km/h | 24566m | 5.6m/s | -50.6°C | 4.7% | 28.8hPa | 2.7V | 18:12:15 | 01:47:05 | 00:00:00 | |
| AA1-15 | 2026-09-03 12:06:20 | 53.91107 | 14.47293 | 144° | 7km/h | 24504m | 5.4m/s | -50.5°C | 4.6% | 29hPa | 2.7V | 18:12:15 | 01:46:54 | 00:00:00 | |
| AA1-15 | 2026-09-03 12:06:10 | 53.91140 | 14.47247 | 148° | 26km/h | 24449m | 4.8m/s | -50.1°C | 4.6% | 29.3hPa | 2.6V | 18:12:15 | 01:46:44 | 00:00:00 | |
| AA1-15 | 2026-09-03 12:05:59 | 53.91163 | 14.47199 | 133° | 18km/h | 24388m | 6.2m/s | -49.8°C | 4.5% | 29.5hPa | 2.7V | 18:12:15 | 01:46:33 | 00:00:00 | |
| AA1-15 | 2026-09-03 12:05:48 | 53.91193 | 14.47152 | 128° | 15km/h | 24327m | 5.1m/s | -49.8°C | 4.4% | 29.9hPa | 2.7V | 18:12:15 | 01:46:22 | 00:00:00 | |
| SONDE2-11 | 2026-09-03 12:05:46 | 53.91200 | 14.47143 | 149° | 18km/h | 24316m | 6.1m/s | -49.9°C | 3.2% | 29.9hPa | 2.6V | 00:00:00 | 00:00:00 | 00:00:00 | |
| AA1-15 | 2026-09-03 12:05:38 | 53.91229 | 14.47117 | 156° | 13km/h | 24274m | 4.1m/s | -50°C | 4.5% | 30.1hPa | 2.6V | 18:12:15 | 01:46:12 | 00:00:00 | |
| AA1-15 | 2026-09-03 12:05:27 | 53.91260 | 14.47081 | 143° | 13km/h | 24204m | 4.5m/s | -50.3°C | 4.5% | 30.4hPa | 2.7V | 18:12:15 | 01:45:59 | 00:00:00 | |
| AA1-15 | 2026-09-03 12:05:16 | 53.91285 | 14.47050 | 192° | 5km/h | 24151m | 5.3m/s | -50.7°C | 4.7% | 30.7hPa | 2.6V | 18:12:15 | 01:45:49 | 00:00:00 | |
| AA1-15 | 2026-09-03 12:05:04 | 53.91302 | 14.47039 | 165° | 7km/h | 24092m | 5.5m/s | -50.7°C | 4.7% | 31hPa | 2.6V | 18:12:15 | 01:45:38 | 00:00:00 | |
| AA1-15 | 2026-09-03 12:04:54 | 53.91330 | 14.47041 | 164° | 11km/h | 24037m | 4.5m/s | -50.6°C | 4.6% | 31.2hPa | 2.7V | 18:12:15 | 01:45:28 | 00:00:00 | |
| AA1-15 | 2026-09-03 12:04:44 | 53.91359 | 14.47058 | 206° | 16km/h | 23984m | 4.4m/s | -50.4°C | 4.6% | 31.5hPa | 2.6V | 18:12:15 | 01:45:18 | 00:00:00 | |
| SONDE2-11 | 2026-09-03 12:04:44 | 53.91359 | 14.47058 | 205° | 15km/h | 23984m | 4.4m/s | -50.4°C | 3.4% | 31.5hPa | 2.6V | 00:00:00 | 00:00:00 | 00:00:00 | |
| AA1-15 | 2026-09-03 12:04:34 | 53.91396 | 14.47061 | 198° | 15km/h | 23926m | 6.3m/s | -50.1°C | 4.5% | 31.8hPa | 2.6V | 18:12:15 | 01:45:07 | 00:00:00 | |
| AA1-15 | 2026-09-03 12:04:22 | 53.91427 | 14.47058 | 151° | 7km/h | 23868m | 5.3m/s | -50.2°C | 4.6% | 32hPa | 2.7V | 18:12:15 | 01:44:56 | 00:00:00 | |
| AA1-15 | 2026-09-03 12:04:11 | 53.91463 | 14.47046 | 137° | 15km/h | 23810m | 4.9m/s | -50.4°C | 4.6% | 32.3hPa | 2.7V | 18:12:15 | 01:44:45 | 00:00:00 | |
| AA1-15 | 2026-09-03 12:04:01 | 53.91489 | 14.47003 | 142° | 22km/h | 23757m | 4.7m/s | -50.6°C | 4.7% | 32.6hPa | 2.6V | 18:12:15 | 01:44:35 | 00:00:00 | |
| AA1-15 | 2026-09-03 12:03:50 | 53.91508 | 14.46913 | 100° | 16km/h | 23697m | 5.9m/s | -50.5°C | 4.6% | 32.9hPa | 2.6V | 18:12:15 | 01:44:24 | 00:00:00 | |
| EDDB2-11 | 2026-09-03 12:03:49 | 53.91512 | 14.46900 | 118° | 16km/h | 23687m | 3.9m/s | -50.6°C | 3.4% | 33.0hPa | 2.6V | 00:00:00 | 00:00:00 | 00:00:00 | |
| SP3WXH-11 | 2026-09-03 12:03:48 | 53.91512 | 14.46900 | 118° | 16km/h | 23687m | 3.9m/s | -50.6°C | 3.4% | 33.0hPa | 2.6V | 00:00:00 | 00:00:00 | 00:00:00 | |
| AA1-15 | 2026-09-03 12:03:39 | 53.91517 | 14.46841 | 80° | 15km/h | 23639m | 6m/s | -51°C | 4.7% | 33.2hPa | 2.6V | 18:12:15 | 01:44:13 | 00:00:00 | |
| AA1-15 | 2026-09-03 12:03:28 | 53.91526 | 14.46774 | 119° | 11km/h | 23581m | 4.9m/s | -50.9°C | 4.7% | 33.5hPa | 2.7V | 18:12:15 | 01:44:02 | 00:00:00 | |
| AA1-15 | 2026-09-03 12:03:18 | 53.91528 | 14.46753 | 203° | 5km/h | 23526m | 4.9m/s | -50.9°C | 4.7% | 33.8hPa | 2.7V | 18:12:15 | 01:43:52 | 00:00:00 | |
| AA1-15 | 2026-09-03 12:03:07 | 53.91548 | 14.46741 | 122° | 13km/h | 23467m | 6m/s | -50.9°C | 4.7% | 34.1hPa | 2.6V | 18:12:15 | 01:43:41 | 00:00:00 | |
| AA1-15 | 2026-09-03 12:02:56 | 53.91580 | 14.46699 | 131° | 18km/h | 23409m | 6m/s | -51.1°C | 4.7% | 34.4hPa | 2.6V | 18:12:15 | 01:43:30 | 00:00:00 | |
| AA1-15 | 2026-09-03 12:02:45 | 53.91619 | 14.46603 | 126° | 27km/h | 23350m | 4.7m/s | -51.2°C | 4.8% | 34.7hPa | 2.6V | 18:12:15 | 01:43:19 | 00:00:00 | |
| AA1-15 | 2026-09-03 12:02:35 | 53.91644 | 14.46486 | 109° | 31km/h | 23298m | 4.5m/s | -51.4°C | 4.8% | 35hPa | 2.7V | 18:12:15 | 01:43:09 | 00:00:00 | |
| AA1-15 | 2026-09-03 12:02:25 | 53.91657 | 14.46358 | 82° | 31km/h | 23245m | 4.4m/s | -51.7°C | 4.9% | 35.3hPa | 2.6V | 18:12:15 | 01:42:59 | 00:00:00 | |
| AA1-15 | 2026-09-03 12:02:14 | 53.91640 | 14.46220 | 73° | 27km/h | 23186m | 5.4m/s | -51.5°C | 4.7% | 35.6hPa | 2.6V | 18:12:15 | 01:42:48 | 00:00:00 | |
| AA1-15 | 2026-09-03 12:02:04 | 53.91622 | 14.46103 | 64° | 27km/h | 23130m | 5.1m/s | -51.6°C | 4.9% | 35.9hPa | 2.6V | 18:12:15 | 01:42:37 | 00:00:00 | |
| AA1-15 | 2026-09-03 12:01:53 | 53.91598 | 14.46035 | 77° | 13km/h | 23076m | 5.7m/s | -51.8°C | 4.9% | 36.2hPa | 2.7V | 18:12:15 | 01:42:27 | 00:00:00 | |
| DK1YY | 2026-09-03 12:01:52 | 53.91597 | 14.46023 | 74° | 13km/h | 23067m | 5.3m/s | -51.7°C | 3.6% | 36.2hPa | 2.7V | 00:00:00 | 00:00:00 | 00:00:00 | |
| SP3WXH-11 | 2026-09-03 12:01:44 | 53.91584 | 14.45990 | 27° | 7km/h | 23030m | 5.8m/s | -51.8°C | 3.5% | 36.5hPa | 2.7V | 00:00:00 | 00:00:00 | 00:00:00 | |
| AA1-15 | 2026-09-03 12:01:42 | 53.91580 | 14.45989 | 358° | 4km/h | 23019m | 5.1m/s | -51.9°C | 4.9% | 36.5hPa | 2.7V | 18:12:15 | 01:42:16 | 00:00:00 | |
| AA1-15 | 2026-09-03 12:01:32 | 53.91587 | 14.45978 | 83° | 4km/h | 22966m | 6.4m/s | -51.6°C | 4.9% | 36.8hPa | 2.6V | 18:12:15 | 01:42:06 | 00:00:00 | |
| AA1-15 | 2026-09-03 12:01:21 | 53.91602 | 14.45962 | 141° | 18km/h | 22907m | 4.5m/s | -51.4°C | 4.8% | 37.2hPa | 2.6V | 18:12:15 | 01:41:55 | 00:00:00 | |
| AA1-15 | 2026-09-03 12:01:10 | 53.91636 | 14.45919 | 145° | 15km/h | 22849m | 4.5m/s | -51°C | 4.8% | 37.5hPa | 2.7V | 18:12:15 | 01:41:44 | 00:00:00 | |
| AA1-15 | 2026-09-03 12:00:59 | 53.91684 | 14.45858 | 135° | 20km/h | 22791m | 5.2m/s | -51°C | 4.8% | 37.9hPa | 2.7V | 18:12:15 | 01:41:33 | 00:00:00 | |
| AA1-15 | 2026-09-03 12:00:49 | 53.91722 | 14.45781 | 117° | 26km/h | 22738m | 6.2m/s | -50.8°C | 4.7% | 38.1hPa | 2.6V | 18:12:15 | 01:41:23 | 00:00:00 | |
| AA1-15 | 2026-09-03 12:00:38 | 53.91754 | 14.45689 | 127° | 29km/h | 22680m | 4.5m/s | -50.8°C | 4.7% | 38.5hPa | 2.6V | 18:12:15 | 01:41:12 | 00:00:00 | |
| AA1-15 | 2026-09-03 12:00:28 | 53.91777 | 14.45572 | 107° | 26km/h | 22627m | 5.9m/s | -50.8°C | 4.7% | 38.8hPa | 2.7V | 18:12:15 | 01:41:02 | 00:00:00 | |
| AA1-15 | 2026-09-03 12:00:17 | 53.91793 | 14.45439 | 95° | 27km/h | 22572m | 6.1m/s | -50.8°C | 4.7% | 39.1hPa | 2.7V | 18:12:15 | 01:40:51 | 00:00:00 | |
| AA1-15 | 2026-09-03 12:00:06 | 53.91792 | 14.45284 | 85° | 27km/h | 22515m | 4.8m/s | -51.3°C | 4.8% | 39.5hPa | 2.7V | 18:12:15 | 01:40:40 | 00:00:00 | |
| AA1-15 | 2026-09-03 11:59:56 | 53.91768 | 14.45154 | 71° | 33km/h | 22463m | 5.7m/s | -51.5°C | 4.8% | 39.8hPa | 2.6V | 18:12:15 | 01:40:30 | 00:00:00 | |
| AA1-15 | 2026-09-03 11:59:45 | 53.91746 | 14.45047 | 68° | 26km/h | 22406m | 4.6m/s | -51.4°C | 4.8% | 40.1hPa | 2.6V | 18:12:15 | 01:40:19 | 00:00:00 | |
| AA1-15 | 2026-09-03 11:59:35 | 53.91728 | 14.44960 | 65° | 20km/h | 22358m | 4m/s | -51.1°C | 4.8% | 40.5hPa | 2.7V | 18:12:15 | 01:40:09 | 00:00:00 | |
| AA1-15 | 2026-09-03 11:59:25 | 53.91715 | 14.44893 | 67° | 11km/h | 22307m | 4.8m/s | -51.1°C | 4.7% | 40.8hPa | 2.6V | 18:12:15 | 01:39:59 | 00:00:00 | |
| AA1-15 | 2026-09-03 11:59:15 | 53.91710 | 14.44858 | 90° | 5km/h | 22255m | 6.1m/s | -51.3°C | 4.9% | 41.1hPa | 2.6V | 18:12:15 | 01:39:49 | 00:00:00 | |
| AA1-15 | 2026-09-03 11:59:04 | 53.91716 | 14.44800 | 59° | 13km/h | 22199m | 4.4m/s | -51.2°C | 4.8% | 41.4hPa | 2.7V | 18:12:15 | 01:39:38 | 00:00:00 | |
| AA1-15 | 2026-09-03 11:58:53 | 53.91714 | 14.44747 | 87° | 18km/h | 22144m | 5m/s | -50.8°C | 4.6% | 41.8hPa | 2.7V | 18:12:15 | 01:39:27 | 00:00:00 | |
| DK1YY | 2026-09-03 11:58:46 | 53.91719 | 14.44708 | 110° | 16km/h | 22104m | 5.1m/s | -51.2°C | 3.5% | 42.1hPa | 2.6V | 00:00:00 | 00:00:00 | 00:00:00 | |
| AA1-15 | 2026-09-03 11:58:43 | 53.91723 | 14.44691 | 114° | 24km/h | 22094m | 5.9m/s | -51.3°C | 4.8% | 42.1hPa | 2.6V | 18:12:15 | 01:39:17 | 00:00:00 | |
| AA1-15 | 2026-09-03 11:58:32 | 53.91737 | 14.44586 | 112° | 24km/h | 22035m | 5.4m/s | -51.6°C | 4.9% | 42.5hPa | 2.6V | 18:12:15 | 01:39:06 | 00:00:00 | |
| AA1-15 | 2026-09-03 11:58:22 | 53.91754 | 14.44481 | 81° | 27km/h | 21984m | 5.2m/s | -51.5°C | 4.8% | 42.9hPa | 2.7V | 18:12:15 | 01:38:56 | 00:00:00 | |
| AA1-15 | 2026-09-03 11:58:11 | 53.91745 | 14.44362 | 79° | 24km/h | 21928m | 6.1m/s | -51.8°C | 4.9% | 43.2hPa | 2.7V | 18:12:15 | 01:38:45 | 00:00:00 | |
| AA1-15 | 2026-09-03 11:58:00 | 53.91727 | 14.44242 | 74° | 20km/h | 21869m | 5.6m/s | -51.6°C | 4.9% | 43.6hPa | 2.7V | 18:12:15 | 01:38:34 | 00:00:00 | |
| AA1-15 | 2026-09-03 11:57:49 | 53.91704 | 14.44146 | 63° | 26km/h | 21811m | 5.7m/s | -51.4°C | 4.8% | 44hPa | 2.6V | 18:12:15 | 01:38:23 | 00:00:00 | |
| AA1-15 | 2026-09-03 11:57:38 | 53.91681 | 14.44079 | 68° | 22km/h | 21753m | 4.5m/s | -51.8°C | 4.9% | 44.4hPa | 2.6V | 18:12:15 | 01:38:12 | 00:00:00 | |
| AA1-15 | 2026-09-03 11:57:28 | 53.91675 | 14.44002 | 123° | 13km/h | 21701m | 4.9m/s | -52.2°C | 5% | 44.8hPa | 2.7V | 18:12:15 | 01:38:02 | 00:00:00 | |
| AA1-15 | 2026-09-03 11:57:18 | 53.91671 | 14.43921 | 76° | 20km/h | 21649m | 4.8m/s | -52.2°C | 4.9% | 45.1hPa | 2.7V | 18:12:15 | 01:37:52 | 00:00:00 | |
| AA1-15 | 2026-09-03 11:57:07 | 53.91686 | 14.43838 | 76° | 22km/h | 21592m | 6.2m/s | -52.2°C | 5% | 45.5hPa | 2.6V | 18:12:15 | 01:37:41 | 00:00:00 | |
| AA1-15 | 2026-09-03 11:56:56 | 53.91687 | 14.43756 | 106° | 20km/h | 21534m | 4.4m/s | -51.9°C | 4.9% | 45.9hPa | 2.6V | 18:12:15 | 01:37:30 | 00:00:00 | |
| AA1-15 | 2026-09-03 11:56:43 | 53.91696 | 14.43656 | 122° | 16km/h | 21466m | 5.3m/s | -52.3°C | 5% | 46.4hPa | 2.6V | 18:12:15 | 01:37:17 | 00:00:00 | |
| AA1-15 | 2026-09-03 11:56:33 | 53.91716 | 14.43568 | 123° | 24km/h | 21417m | 4.4m/s | -51.9°C | 5% | 46.8hPa | 2.6V | 18:12:15 | 01:37:07 | 00:00:00 | |
| AA1-15 | 2026-09-03 11:56:23 | 53.91725 | 14.43498 | 95° | 16km/h | 21367m | 4.8m/s | -51.7°C | 4.9% | 47.1hPa | 2.7V | 18:12:15 | 01:36:57 | 00:00:00 | |
| AA1-15 | 2026-09-03 11:56:13 | 53.91732 | 14.43421 | 75° | 22km/h | 21318m | 5.5m/s | -51.9°C | 4.9% | 47.5hPa | 2.6V | 18:12:15 | 01:36:47 | 00:00:00 | |
| AA1-15 | 2026-09-03 11:56:02 | 53.91725 | 14.43345 | 65° | 22km/h | 21264m | 4.2m/s | -52°C | 5% | 47.9hPa | 2.6V | 18:12:15 | 01:36:36 | 00:00:00 | |
| AA1-15 | 2026-09-03 11:55:52 | 53.91702 | 14.43267 | 74° | 16km/h | 21212m | 4.2m/s | -52.1°C | 5% | 48.3hPa | 2.7V | 18:12:15 | 01:36:26 | 00:00:00 | |
| AA1-15 | 2026-09-03 11:55:41 | 53.91672 | 14.43193 | 54° | 13km/h | 21157m | 5m/s | -51.5°C | 4.9% | 48.7hPa | 2.7V | 18:12:15 | 01:36:15 | 00:00:00 | |
| AA1-15 | 2026-09-03 11:55:30 | 53.91641 | 14.43145 | 40° | 16km/h | 21102m | 5.8m/s | -51.6°C | 4.9% | 49.1hPa | 2.7V | 18:12:15 | 01:36:04 | 00:00:00 | |
| AA1-15 | 2026-09-03 11:55:19 | 53.91618 | 14.43095 | 76° | 18km/h | 21047m | 4m/s | -51.4°C | 4.9% | 49.5hPa | 2.6V | 18:12:15 | 01:35:53 | 00:00:00 | |
| AA1-15 | 2026-09-03 11:55:09 | 53.91601 | 14.43045 | 72° | 9km/h | 20998m | 4.1m/s | -50.8°C | 4.8% | 49.9hPa | 2.6V | 18:12:15 | 01:35:43 | 00:00:00 | |
| AA1-15 | 2026-09-03 11:54:59 | 53.91592 | 14.42991 | 55° | 18km/h | 20950m | 4.5m/s | -50.3°C | 4.8% | 50.3hPa | 2.7V | 18:12:15 | 01:35:33 | 00:00:00 | |
| AA1-15 | 2026-09-03 11:54:49 | 53.91592 | 14.42938 | 83° | 15km/h | 20901m | 4.5m/s | -50.1°C | 4.6% | 50.6hPa | 2.6V | 18:12:15 | 01:35:23 | 00:00:00 | |
| AA1-15 | 2026-09-03 11:54:39 | 53.91588 | 14.42885 | 92° | 16km/h | 20854m | 6m/s | -49.8°C | 4.6% | 51hPa | 2.6V | 18:12:15 | 01:35:13 | 00:00:00 | |
| AA1-15 | 2026-09-03 11:54:29 | 53.91588 | 14.42837 | 93° | 16km/h | 20803m | 4m/s | -49.8°C | 4.5% | 51.4hPa | 2.7V | 18:12:15 | 01:35:03 | 00:00:00 | |
| AA1-15 | 2026-09-03 11:54:18 | 53.91609 | 14.42768 | 118° | 18km/h | 20750m | 5.7m/s | -50.5°C | 4.7% | 51.8hPa | 2.7V | 18:12:15 | 01:34:52 | 00:00:00 | |
| AA1-15 | 2026-09-03 11:54:07 | 53.91626 | 14.42686 | 119° | 18km/h | 20700m | 4.6m/s | -50.7°C | 4.7% | 52.2hPa | 2.6V | 18:12:15 | 01:34:41 | 00:00:00 | |
| AA1-15 | 2026-09-03 11:53:57 | 53.91661 | 14.42595 | 134° | 27km/h | 20651m | 5m/s | -50.6°C | 4.8% | 52.6hPa | 2.6V | 18:12:15 | 01:34:31 | 00:00:00 | |
| AA1-15 | 2026-09-03 11:53:46 | 53.91696 | 14.42484 | 109° | 31km/h | 20598m | 5.9m/s | -50.8°C | 4.8% | 53.1hPa | 2.7V | 18:12:15 | 01:34:20 | 00:00:00 | |
| AA1-15 | 2026-09-03 11:53:35 | 53.91724 | 14.42377 | 115° | 26km/h | 20544m | 5.3m/s | -50.4°C | 4.7% | 53.5hPa | 2.7V | 18:12:15 | 01:34:09 | 00:00:00 | |
| AA1-15 | 2026-09-03 11:53:24 | 53.91765 | 14.42272 | 143° | 26km/h | 20492m | 5.4m/s | -50.1°C | 4.6% | 53.9hPa | 2.7V | 18:12:15 | 01:33:58 | 00:00:00 | |
| AA1-15 | 2026-09-03 11:53:13 | 53.91805 | 14.42190 | 136° | 27km/h | 20439m | 3.9m/s | -50.4°C | 4.7% | 54.4hPa | 2.6V | 18:12:15 | 01:33:47 | 00:00:00 | |
| AA1-15 | 2026-09-03 11:53:02 | 53.91861 | 14.42117 | 137° | 29km/h | 20384m | 5.3m/s | -50.6°C | 4.8% | 54.9hPa | 2.6V | 18:12:15 | 01:33:36 | 00:00:00 | |
| AA1-15 | 2026-09-03 11:52:52 | 53.91912 | 14.42033 | 130° | 24km/h | 20336m | 4.8m/s | -50.6°C | 4.8% | 55.2hPa | 2.7V | 18:12:15 | 01:33:26 | 00:00:00 | |
| AA1-15 | 2026-09-03 11:52:42 | 53.91939 | 14.41950 | 127° | 22km/h | 20286m | 5.7m/s | -50.8°C | 4.8% | 55.6hPa | 2.7V | 18:12:15 | 01:33:16 | 00:00:00 | |
| AA1-15 | 2026-09-03 11:52:31 | 53.91961 | 14.41860 | 102° | 18km/h | 20232m | 5m/s | -50.7°C | 4.7% | 56.1hPa | 2.6V | 18:12:15 | 01:33:05 | 00:00:00 | |
| AA1-15 | 2026-09-03 11:52:21 | 53.91972 | 14.41793 | 120° | 18km/h | 20181m | 4.3m/s | -51°C | 4.8% | 56.6hPa | 2.6V | 18:12:15 | 01:32:55 | 00:00:00 | |
| AA1-15 | 2026-09-03 11:52:10 | 53.91982 | 14.41721 | 98° | 20km/h | 20124m | 4.3m/s | -50.7°C | 4.8% | 57hPa | 2.7V | 18:12:15 | 01:32:44 | 00:00:00 | |
| AA1-15 | 2026-09-03 11:51:59 | 53.92008 | 14.41626 | 111° | 24km/h | 20070m | 5.7m/s | -50.8°C | 4.8% | 57.5hPa | 2.7V | 18:12:15 | 01:32:33 | 00:00:00 | |
| AA1-15 | 2026-09-03 11:51:49 | 53.92033 | 14.41526 | 107° | 27km/h | 20022m | 3.8m/s | -50.7°C | 4.7% | 58hPa | 2.6V | 18:12:15 | 01:32:23 | 00:00:00 | |
| AA1-15 | 2026-09-03 11:51:39 | 53.92064 | 14.41420 | 121° | 27km/h | 19974m | 5.4m/s | -50.6°C | 4.7% | 58.4hPa | 2.6V | 18:12:15 | 01:32:13 | 00:00:00 | |
| AA1-15 | 2026-09-03 11:51:28 | 53.92106 | 14.41303 | 96° | 27km/h | 19919m | 5.4m/s | -51.4°C | 4.9% | 58.9hPa | 2.7V | 18:12:15 | 01:32:02 | 00:00:00 | |
| AA1-15 | 2026-09-03 11:51:17 | 53.92128 | 14.41176 | 121° | 31km/h | 19865m | 4.1m/s | -50.7°C | 4.8% | 59.4hPa | 2.7V | 18:12:15 | 01:31:51 | 00:00:00 | |
| AA1-15 | 2026-09-03 11:51:07 | 53.92160 | 14.41078 | 122° | 27km/h | 19816m | 5.9m/s | -50.3°C | 4.7% | 59.8hPa | 2.6V | 18:12:15 | 01:31:41 | 00:00:00 | |
| AA1-15 | 2026-09-03 11:50:56 | 53.92200 | 14.40975 | 128° | 22km/h | 19765m | 5.4m/s | -49.9°C | 4.6% | 60.3hPa | 2.6V | 18:12:15 | 01:31:30 | 00:00:00 | |
| AA1-15 | 2026-09-03 11:50:46 | 53.92245 | 14.40892 | 135° | 33km/h | 19718m | 4.6m/s | -50.1°C | 4.7% | 60.7hPa | 2.7V | 18:12:15 | 01:31:20 | 00:00:00 | |
| SONDE2-11 | 2026-09-03 11:50:46 | 53.92251 | 14.40882 | 133° | 33km/h | 19713m | 4.3m/s | -50.0°C | 3.5% | 60.8hPa | 2.7V | 00:00:00 | 00:00:00 | 00:00:00 | |
| AA1-15 | 2026-09-03 11:50:36 | 53.92295 | 14.40786 | 129° | 35km/h | 19670m | 4.5m/s | -50°C | 4.7% | 61.2hPa | 2.7V | 18:12:15 | 01:31:10 | 00:00:00 | |
| AA1-15 | 2026-09-03 11:50:25 | 53.92359 | 14.40641 | 117° | 37km/h | 19617m | 4.2m/s | -50°C | 4.6% | 61.7hPa | 2.6V | 18:12:15 | 01:30:59 | 00:00:00 | |
| AA1-15 | 2026-09-03 11:50:15 | 53.92404 | 14.40498 | 124° | 37km/h | 19570m | 5.2m/s | -50.4°C | 4.7% | 62.1hPa | 2.6V | 18:12:15 | 01:30:49 | 00:00:00 | |
| AA1-15 | 2026-09-03 11:50:05 | 53.92440 | 14.40342 | 108° | 44km/h | 19523m | 4.6m/s | -50.5°C | 4.8% | 62.5hPa | 2.7V | 18:12:15 | 01:30:39 | 00:00:00 | |
| AA1-15 | 2026-09-03 11:49:55 | 53.92468 | 14.40194 | 105° | 29km/h | 19477m | 5.2m/s | -50.2°C | 4.7% | 63hPa | 2.6V | 18:12:15 | 01:30:29 | 00:00:00 | |
| AA1-15 | 2026-09-03 11:49:44 | 53.92493 | 14.40050 | 106° | 27km/h | 19426m | 4.8m/s | -49.9°C | 4.6% | 63.5hPa | 2.6V | 18:12:15 | 01:30:18 | 00:00:00 | |
| AA1-15 | 2026-09-03 11:49:34 | 53.92501 | 14.39937 | 104° | 27km/h | 19379m | 4.6m/s | -49.6°C | 4.5% | 64hPa | 2.7V | 18:12:15 | 01:30:08 | 00:00:00 | |
| AA1-15 | 2026-09-03 11:49:23 | 53.92520 | 14.39802 | 91° | 20km/h | 19329m | 5.1m/s | -49.9°C | 4.6% | 64.5hPa | 2.7V | 18:12:15 | 01:29:57 | 00:00:00 | |
| AA1-15 | 2026-09-03 11:49:13 | 53.92531 | 14.39706 | 107° | 26km/h | 19282m | 5.6m/s | -50.2°C | 4.7% | 64.9hPa | 2.6V | 18:12:15 | 01:29:47 | 00:00:00 | |
| AA1-15 | 2026-09-03 11:49:02 | 53.92538 | 14.39591 | 92° | 22km/h | 19233m | 4.3m/s | -50.3°C | 4.7% | 65.4hPa | 2.6V | 18:12:15 | 01:29:36 | 00:00:00 | |
| AA1-15 | 2026-09-03 11:48:51 | 53.92544 | 14.39473 | 91° | 29km/h | 19184m | 5.5m/s | -50.1°C | 4.7% | 65.9hPa | 2.6V | 18:12:15 | 01:29:25 | 00:00:00 | |
| SP3WXH-11 | 2026-09-03 11:48:49 | 53.92543 | 14.39436 | 88° | 27km/h | 19169m | 4.8m/s | -50.0°C | 3.5% | 66.0hPa | 2.7V | 00:00:00 | 00:00:00 | 00:00:00 | |
| AA1-15 | 2026-09-03 11:48:40 | 53.92542 | 14.39348 | 83° | 22km/h | 19134m | 5.4m/s | -49.9°C | 4.6% | 66.4hPa | 2.7V | 18:12:15 | 01:29:14 | 00:00:00 | |
| AA1-15 | 2026-09-03 11:48:29 | 53.92523 | 14.39245 | 76° | 27km/h | 19085m | 3.5m/s | -49.7°C | 4.7% | 66.9hPa | 2.7V | 18:12:15 | 01:29:03 | 00:00:00 | |
| AA1-15 | 2026-09-03 11:48:19 | 53.92502 | 14.39154 | 68° | 26km/h | 19040m | 4.5m/s | -49.8°C | 4.6% | 67.4hPa | 2.6V | 18:12:15 | 01:28:53 | 00:00:00 | |
| AA1-15 | 2026-09-03 11:48:08 | 53.92482 | 14.39070 | 69° | 18km/h | 18990m | 4.5m/s | -49.5°C | 4.6% | 67.9hPa | 2.6V | 18:12:15 | 01:28:42 | 00:00:00 | |
| AA1-15 | 2026-09-03 11:47:57 | 53.92474 | 14.38992 | 116° | 11km/h | 18943m | 3.8m/s | -49.7°C | 4.6% | 68.4hPa | 2.6V | 18:12:15 | 01:28:31 | 00:00:00 | |
| AA1-15 | 2026-09-03 11:47:47 | 53.92482 | 14.38926 | 98° | 22km/h | 18898m | 3.6m/s | -49.6°C | 4.5% | 68.9hPa | 2.7V | 18:12:15 | 01:28:21 | 00:00:00 | |
| SP3WXH-11 | 2026-09-03 11:47:47 | 53.92483 | 14.38916 | 105° | 22km/h | 18893m | 5.6m/s | -49.8°C | 3.4% | 69.0hPa | 2.7V | 00:00:00 | 00:00:00 | 00:00:00 | |
| EDDB2-11 | 2026-09-03 11:47:46 | 53.92483 | 14.38916 | 105° | 22km/h | 18893m | 5.6m/s | -49.8°C | 3.4% | 69.0hPa | 2.7V | 00:00:00 | 00:00:00 | 00:00:00 | |
| AA1-15 | 2026-09-03 11:47:36 | 53.92501 | 14.38809 | 110° | 29km/h | 18846m | 6.1m/s | -50.4°C | 4.6% | 69.4hPa | 2.7V | 18:12:15 | 01:28:10 | 00:00:00 | |
| AA1-15 | 2026-09-03 11:47:26 | 53.92523 | 14.38666 | 92° | 46km/h | 18797m | 5.8m/s | -50.6°C | 4.7% | 69.9hPa | 2.6V | 18:12:15 | 01:28:00 | 00:00:00 | |
| AA1-15 | 2026-09-03 11:47:15 | 53.92524 | 14.38460 | 93° | 42km/h | 18747m | 4.1m/s | -51.1°C | 4.8% | 70.5hPa | 2.6V | 18:12:15 | 01:27:49 | 00:00:00 | |
| AA1-15 | 2026-09-03 11:47:04 | 53.92530 | 14.38263 | 92° | 46km/h | 18696m | 4.4m/s | -51.6°C | 4.9% | 71hPa | 2.7V | 18:12:15 | 01:27:38 | 00:00:00 | |
| S3001 | 2026-09-03 11:47:04 | 53.92531 | 14.38243 | 92° | 46km/h | 18692m | 4.2m/s | -51.5°C | 3.6% | 71.1hPa | 2.7V | 00:00:00 | 00:00:00 | 00:00:00 | |
| DL1XH-15 | 2026-09-03 11:47:03 | 53.92534 | 14.38156 | 87° | 37km/h | 18670m | 3.6m/s | -51.6°C | 6.7% | 71.3hPa | 2.7V | 08:30:00 | 01:27:32 | 00:00:00 | |
| AA1-15 | 2026-09-03 11:46:54 | 53.92532 | 14.38087 | 85° | 42km/h | 18650m | 5.6m/s | -51.8°C | 5% | 71.6hPa | 2.7V | 18:12:15 | 01:27:28 | 00:00:00 | |
| AA1-15 | 2026-09-03 11:46:44 | 53.92550 | 14.37922 | 110° | 40km/h | 18605m | 3.4m/s | -51.7°C | 4.9% | 72hPa | 2.6V | 18:12:15 | 01:27:18 | 00:00:00 | |
| AA1-15 | 2026-09-03 11:46:33 | 53.92573 | 14.37727 | 97° | 42km/h | 18553m | 5.3m/s | -51.4°C | 4.9% | 72.7hPa | 2.6V | 18:12:15 | 01:27:07 | 00:00:00 | |
| S3001 | 2026-09-03 11:46:33 | 53.92574 | 14.37710 | 95° | 40km/h | 18548m | 4.3m/s | -51.4°C | 3.7% | 72.7hPa | 2.6V | 00:00:00 | 00:00:00 | 00:00:00 | |
| DO2SHX-10 | 2026-09-03 11:46:30 | 53.92575 | 14.37674 | 94° | 42km/h | 18538m | 5.3m/s | -51.2°C | 6.5% | 72.8hPa | 2.6V | 00:00:00 | 01:27:04 | 00:00:00 | |
| DO2SHX-10 | 2026-09-03 11:46:27 | 53.92577 | 14.37620 | 93° | 42km/h | 18523m | 4.4m/s | -51.2°C | 6.4% | 72.9hPa | 2.6V | 00:00:00 | 01:27:01 | 00:00:00 | |
| DB0DAN | 2026-09-03 11:46:25 | 53.92578 | 14.37584 | 92° | 42km/h | 18513m | 5.2m/s | -51.1°C | 3.5% | 73.08hPa | 2.6V | 00:00:00 | 00:00:00 | 00:00:00 | |
| AA1-15 | 2026-09-03 11:46:23 | 53.92579 | 14.37547 | 93° | 42km/h | 18504m | 5.5m/s | -51.2°C | 4.8% | 73.2hPa | 2.7V | 18:12:15 | 01:26:57 | 00:00:00 | |
| AA1-15 | 2026-09-03 11:46:12 | 53.92598 | 14.37349 | 95° | 51km/h | 18454m | 4.6m/s | -51.7°C | 4.9% | 73.8hPa | 2.7V | 18:12:15 | 01:26:46 | 00:00:00 | |
| DO2SHX-10 | 2026-09-03 11:46:12 | 53.92598 | 14.37349 | 96° | 53km/h | 18454m | 4.5m/s | -51.6°C | 6.5% | 73.8hPa | 2.7V | 00:00:00 | 01:26:46 | 00:00:00 | |
| DB0DAN | 2026-09-03 11:46:10 | 53.92601 | 14.37303 | 97° | 51km/h | 18444m | 5m/s | -51.9°C | 3.7% | 73.87hPa | 2.7V | 00:00:00 | 00:00:00 | 00:00:00 | |
| DO2SHX-10 | 2026-09-03 11:46:09 | 53.92603 | 14.37280 | 99° | 53km/h | 18440m | 4.2m/s | -51.7°C | 6.7% | 73.8hPa | 2.7V | 00:00:00 | 01:26:43 | 00:00:00 | |
| DO2SHX-10 | 2026-09-03 11:46:06 | 53.92607 | 14.37212 | 95° | 53km/h | 18427m | 4.7m/s | -51.8°C | 6.7% | 74.0hPa | 2.7V | 00:00:00 | 01:26:40 | 00:00:00 | |
| AM1SDL-15 | 2026-09-03 11:46:05 | 53.92608 | 14.37189 | 96° | 49km/h | 18422m | 4.3m/s | -51.7°C | 6.7% | 74.1hPa | 2.6V | 00:00:00 | 01:26:39 | 00:00:00 | |
| DL1XH-15 | 2026-09-03 11:46:04 | 53.92612 | 14.37144 | 101° | 51km/h | 18412m | 4.4m/s | -51.9°C | 6.7% | 74.3hPa | 2.6V | 08:30:00 | 01:26:37 | 00:00:00 | |
| AA1-15 | 2026-09-03 11:46:01 | 53.92617 | 14.37102 | 100° | 49km/h | 18402m | 5.8m/s | -52°C | 5% | 74.3hPa | 2.6V | 18:12:15 | 01:26:35 | 00:00:00 | |
| DO2SHX-10 | 2026-09-03 11:45:59 | 53.92621 | 14.37060 | 100° | 47km/h | 18392m | 5.7m/s | -52.1°C | 6.8% | 74.4hPa | 2.7V | 00:00:00 | 01:26:33 | 00:00:00 | |
| DG6HD-11 | 2026-09-03 11:45:55 | 53.92627 | 14.36982 | 92° | 38km/h | 18372m | 4.4m/s | -52.0°C | 6.5% | 74.6hPa | 2.7V | 00:00:00 | 00:00:00 | 00:00:00 | |
| DL1XH-15 | 2026-09-03 11:45:54 | 53.92628 | 14.36944 | 94° | 46km/h | 18363m | 5.3m/s | -52.1°C | 6.6% | 74.8hPa | 2.7V | 08:30:00 | 01:26:27 | 00:00:00 | |
| AA1-15 | 2026-09-03 11:45:51 | 53.92631 | 14.36905 | 100° | 47km/h | 18354m | 3.4m/s | -51.9°C | 4.9% | 74.9hPa | 2.6V | 18:12:15 | 01:26:25 | 00:00:00 | |
| DK1YY | 2026-09-03 11:45:49 | 53.92634 | 14.36863 | 95° | 47km/h | 18345m | 5.6m/s | -51.9°C | 3.5% | 75.0hPa | 2.7V | 00:00:00 | 00:00:00 | 00:00:00 | |
| AA1-15 | 2026-09-03 11:45:40 | 53.92643 | 14.36714 | 95° | 33km/h | 18301m | 5.8m/s | -52.3°C | 5% | 75.5hPa | 2.7V | 18:12:15 | 01:26:14 | 00:00:00 | |
| DO2SHX-10 | 2026-09-03 11:45:37 | 53.92646 | 14.36670 | 99° | 38km/h | 18288m | 5.4m/s | -52.6°C | 6.8% | 75.6hPa | 2.6V | 00:00:00 | 01:26:11 | 00:00:00 | |
| SONDE2-11 | 2026-09-03 11:45:35 | 53.92653 | 14.36604 | 105° | 38km/h | 18269m | 6.0m/s | -52.9°C | 3.8% | 76.0hPa | 2.6V | 00:00:00 | 00:00:00 | 00:00:00 | |
| DO2SHX-10 | 2026-09-03 11:45:33 | 53.92653 | 14.36603 | 106° | 35km/h | 18269m | 6.0m/s | -52.8°C | 7.0% | 75.9hPa | 2.6V | 00:00:00 | 01:26:07 | 00:00:00 | |
| DL1XH-15 | 2026-09-03 11:45:31 | 53.92673 | 14.36514 | 113° | 27km/h | 18234m | 5.6m/s | -52.9°C | 7% | 76.3hPa | 2.6V | 08:30:00 | 01:26:00 | 00:00:00 | |
| AA1-15 | 2026-09-03 11:45:29 | 53.92667 | 14.36547 | 110° | 29km/h | 18248m | 5.3m/s | -53°C | 5.1% | 76.2hPa | 2.7V | 18:12:15 | 01:26:03 | 00:00:00 | |
| AA1-15 | 2026-09-03 11:45:19 | 53.92696 | 14.36426 | 116° | 33km/h | 18201m | 4m/s | -52.7°C | 5% | 76.7hPa | 2.7V | 18:12:15 | 01:25:53 | 00:00:00 | |
| DO2SHX-10 | 2026-09-03 11:45:18 | 53.92700 | 14.36413 | 116° | 27km/h | 18196m | 5.5m/s | -52.7°C | 7.0% | 76.7hPa | 2.7V | 00:00:00 | 01:25:52 | 00:00:00 | |
| AM1SDL-15 | 2026-09-03 11:45:14 | 53.92712 | 14.36374 | 128° | 27km/h | 18176m | 4.3m/s | -52.6°C | 7.1% | 77.0hPa | 2.6V | 00:00:00 | 01:25:48 | 00:00:00 | |
| DJ2DS-15 | 2026-09-03 11:45:12 | 53.92719 | 14.36358 | 121° | 22km/h | 18167m | 5.4m/s | -52.6°C | 3.9% | 77.2hPa | 2.7V | 00:00:00 | 00:00:00 | 00:00:00 | |
| DB0DAN | 2026-09-03 11:45:10 | 53.92725 | 14.36339 | 119° | 26km/h | 18157m | 5.2m/s | -52.6°C | 3.9% | 77.25hPa | 2.7V | 00:00:00 | 00:00:00 | 00:00:00 | |
| AA1-15 | 2026-09-03 11:45:09 | 53.92729 | 14.36329 | 122° | 31km/h | 18152m | 5.2m/s | -52.6°C | 5.1% | 77.3hPa | 2.6V | 18:12:15 | 01:25:43 | 00:00:00 | |
| DJ2DS-15 | 2026-09-03 11:45:09 | 53.92729 | 14.36329 | 122° | 24km/h | 18152m | 5.2m/s | -52.5°C | 6.9% | 77.3hPa | 2.7V | 00:00:00 | 01:25:43 | 00:00:00 | |
| DO2SHX-10 | 2026-09-03 11:45:07 | 53.92737 | 14.36306 | 118° | 29km/h | 18143m | 5.5m/s | -52.6°C | 6.8% | 77.4hPa | 2.7V | 00:00:00 | 01:25:41 | 00:00:00 | |
| DO2SHX-10 | 2026-09-03 11:45:04 | 53.92747 | 14.36274 | 125° | 24km/h | 18128m | 5.0m/s | -52.7°C | 7.1% | 77.5hPa | 2.7V | 00:00:00 | 01:25:38 | 08:30:00 | |
| DO2SHX-10 | 2026-09-03 11:45:00 | 53.92760 | 14.36242 | 126° | 27km/h | 18109m | 4.6m/s | -52.4°C | 7.1% | 77.8hPa | 2.8V | 00:00:00 | 01:25:34 | 00:00:00 | |
| DL1XH-15 | 2026-09-03 11:44:59 | 53.92785 | 14.36176 | 119° | 29km/h | 18080m | 5.4m/s | -52.2°C | 7% | 78.2hPa | 2.8V | 08:30:00 | 01:25:28 | 00:00:00 | |
| AA1-15 | 2026-09-03 11:44:58 | 53.92769 | 14.36222 | 126° | 31km/h | 18099m | 4.2m/s | -52.3°C | 5% | 77.9hPa | 2.7V | 18:12:15 | 01:25:32 | 00:00:00 | |
| AA1-15 | 2026-09-03 11:44:48 | 53.92804 | 14.36127 | 125° | 18km/h | 18052m | 5.2m/s | -52.1°C | 5% | 78.5hPa | 2.8V | 18:12:15 | 01:25:22 | 00:00:00 | |
| DK1YY | 2026-09-03 11:44:47 | 53.92807 | 14.36120 | 131° | 18km/h | 18047m | 4.8m/s | -52.0°C | 3.8% | 78.6hPa | 2.7V | 00:00:00 | 00:00:00 | 00:00:00 | |
| AA1-15 | 2026-09-03 11:44:37 | 53.92849 | 14.36035 | 129° | 26km/h | 17999m | 4.5m/s | -51.7°C | 4.9% | 79.1hPa | 2.7V | 18:12:15 | 01:25:11 | 00:00:00 | |
| AA1-15 | 2026-09-03 11:44:26 | 53.92896 | 14.35941 | 138° | 27km/h | 17949m | 4.3m/s | -51.5°C | 4.9% | 79.8hPa | 2.6V | 18:12:15 | 01:25:00 | 00:00:00 | |
| DB0DAN | 2026-09-03 11:44:25 | 53.92901 | 14.35934 | 139° | 26km/h | 17944m | 4.3m/s | -51.5°C | 3.7% | 79.8hPa | 2.7V | 00:00:00 | 00:00:00 | 00:00:00 | |
| AA1-15 | 2026-09-03 11:44:16 | 53.92946 | 14.35871 | 144° | 20km/h | 17902m | 4.8m/s | -51.5°C | 4.9% | 80.3hPa | 2.7V | 18:12:15 | 01:24:50 | 00:00:00 | |
| AA1-15 | 2026-09-03 11:44:06 | 53.92990 | 14.35796 | 124° | 26km/h | 17858m | 3.8m/s | -51.3°C | 4.8% | 80.9hPa | 2.8V | 18:12:15 | 01:24:40 | 00:00:00 | |
| DO2SHX-10 | 2026-09-03 11:44:06 | 53.92990 | 14.35795 | 124° | 24km/h | 17858m | 3.7m/s | -51.3°C | 6.6% | 80.9hPa | 2.6V | 00:00:00 | 01:24:40 | 00:00:00 | |
| DL1XH-15 | 2026-09-03 11:44:04 | 53.92999 | 14.35761 | 112° | 20km/h | 17839m | 5.2m/s | -51.3°C | 6.5% | 81.1hPa | 2.6V | 08:30:00 | 01:24:36 | 00:00:00 | |
| DO2SHX-10 | 2026-09-03 11:44:03 | 53.92997 | 14.35769 | 108° | 22km/h | 17844m | 4.1m/s | -51.4°C | 6.5% | 81.0hPa | 2.7V | 00:00:00 | 01:24:37 | 00:00:00 | |
| SONDE2-11 | 2026-09-03 11:44:02 | 53.93059 | 14.35583 | 115° | 33km/h | 17761m | 4.9m/s | -51.3°C | 3.6% | 82.1hPa | 2.7V | 00:00:00 | 00:00:00 | 00:00:00 | |
| DO2SHX-10 | 2026-09-03 11:44:00 | 53.93005 | 14.35744 | 124° | 27km/h | 17830m | 3.6m/s | -51.2°C | 6.5% | 81.2hPa | 2.7V | 00:00:00 | 01:24:34 | 08:30:00 | |
| AM1SDL-15 | 2026-09-03 11:43:58 | 53.93012 | 14.35725 | 122° | 29km/h | 17821m | 4.9m/s | -51.2°C | 6.6% | 81.3hPa | 2.7V | 00:00:00 | 01:24:32 | 08:30:00 | |
| DO2SHX-10 | 2026-09-03 11:43:57 | 53.93016 | 14.35714 | 121° | 33km/h | 17817m | 4.1m/s | -51.1°C | 6.6% | 81.3hPa | 2.7V | 00:00:00 | 01:24:31 | 00:00:00 | |
| DB0DAN | 2026-09-03 11:43:55 | 53.93025 | 14.35691 | 125° | 33km/h | 17807m | 4.2m/s | -51.3°C | 3.7% | 81.51hPa | 2.7V | 00:00:00 | 00:00:00 | 00:00:00 | |
| AA1-15 | 2026-09-03 11:43:55 | 53.93025 | 14.35691 | 125° | 33km/h | 17807m | 4.2m/s | -51.3°C | 4.9% | 81.5hPa | 2.7V | 18:12:15 | 01:24:29 | 00:00:00 | |
| AA1-15 | 2026-09-03 11:43:45 | 53.93059 | 14.35583 | 116° | 33km/h | 17761m | 4.9m/s | -51.3°C | 4.8% | 82.1hPa | 2.6V | 18:12:15 | 01:24:19 | 00:00:00 | |
| DL1XH-15 | 2026-09-03 11:43:44 | 53.93068 | 14.35558 | 123° | 35km/h | 17753m | 4.7m/s | -51.4°C | 6.6% | 82.2hPa | 2.7V | 08:30:00 | 01:24:17 | 00:00:00 | |
| AA1-15 | 2026-09-03 11:43:34 | 53.93104 | 14.35465 | 115° | 26km/h | 17711m | 5.2m/s | -51.2°C | 4.8% | 82.7hPa | 2.7V | 18:12:15 | 01:24:08 | 00:00:00 | |
| AA1-15 | 2026-09-03 11:43:24 | 53.93154 | 14.35353 | 135° | 33km/h | 17665m | 4m/s | -51.2°C | 4.8% | 83.3hPa | 2.8V | 18:12:15 | 01:23:58 | 00:00:00 | |
| AA1-15 | 2026-09-03 11:43:14 | 53.93210 | 14.35232 | 130° | 38km/h | 17619m | 5m/s | -51.5°C | 4.9% | 83.9hPa | 2.6V | 18:12:15 | 01:23:48 | 00:00:00 | |
| DO2SHX-10 | 2026-09-03 11:43:12 | 53.93223 | 14.35207 | 132° | 40km/h | 17610m | 5.7m/s | -51.4°C | 6.7% | 84.0hPa | 2.7V | 00:00:00 | 01:23:46 | 00:00:00 | |
| AM1SDL-15 | 2026-09-03 11:43:10 | 53.93236 | 14.35180 | 127° | 40km/h | 17601m | 3.3m/s | -51.5°C | 6.6% | 84.1hPa | 2.7V | 00:00:00 | 01:23:44 | 00:00:00 | |
| DO2SHX-10 | 2026-09-03 11:43:09 | 53.93243 | 14.35166 | 127° | 40km/h | 17596m | 5.5m/s | -51.6°C | 6.6% | 84.2hPa | 2.7V | 00:00:00 | 01:23:43 | 00:00:00 | |
| SP3WXH-11 | 2026-09-03 11:43:07 | 53.93254 | 14.35139 | 123° | 37km/h | 17587m | 4.2m/s | -51.8°C | 3.7% | 84.3hPa | 2.7V | 00:00:00 | 00:00:00 | 00:00:00 | |
| DO2SHX-10 | 2026-09-03 11:43:06 | 53.93259 | 14.35125 | 121° | 40km/h | 17582m | 5.9m/s | -51.8°C | 6.8% | 84.4hPa | 2.7V | 00:00:00 | 01:23:40 | 08:30:00 | |
| DG6HD-15 | 2026-09-03 11:43:05 | 53.93259 | 14.35125 | 121° | 40km/h | 17582m | 5.9m/s | -51.9°C | 3.8% | 84.4hPa | 2.6V | 00:00:00 | 00:00:00 | 00:00:00 | |
| DL1XH-15 | 2026-09-03 11:43:04 | 53.93274 | 14.35078 | 117° | 40km/h | 17568m | 5.6m/s | -51.7°C | 6.9% | 84.6hPa | 2.6V | 08:30:00 | 01:23:37 | 00:00:00 | |
| AA1-15 | 2026-09-03 11:43:04 | 53.93269 | 14.35094 | 116° | 42km/h | 17573m | 3.2m/s | -51.8°C | 5% | 84.5hPa | 2.7V | 18:12:15 | 01:23:38 | 00:00:00 | |
| DO2SHX-10 | 2026-09-03 11:43:03 | 53.93273 | 14.35078 | 118° | 40km/h | 17569m | 5.5m/s | -51.7°C | 6.9% | 84.5hPa | 2.6V | 00:00:00 | 01:23:37 | 00:00:00 | |
| DO2SHX-10 | 2026-09-03 11:43:00 | 53.93289 | 14.35034 | 125° | 42km/h | 17554m | 5.3m/s | -51.7°C | 7.0% | 84.8hPa | 2.6V | 00:00:00 | 01:23:34 | 00:00:00 | |
| AM1SDL-15 | 2026-09-03 11:42:58 | 53.93302 | 14.35004 | 129° | 40km/h | 17545m | 4.4m/s | -51.7°C | 6.9% | 84.8hPa | 2.6V | 00:00:00 | 01:23:32 | 00:00:00 | |
| DO2SHX-10 | 2026-09-03 11:42:57 | 53.93308 | 14.34990 | 131° | 40km/h | 17540m | 5.1m/s | -51.6°C | 6.9% | 84.9hPa | 2.6V | 00:00:00 | 01:23:31 | 00:00:00 | |
| DB0DAN | 2026-09-03 11:42:55 | 53.93322 | 14.34964 | 127° | 38km/h | 17530m | 5.5m/s | -51.6°C | 3.8% | 85.07hPa | 2.7V | 00:00:00 | 00:00:00 | 00:00:00 | |
| AA1-15 | 2026-09-03 11:42:53 | 53.93333 | 14.34934 | 123° | 40km/h | 17521m | 5m/s | -51.6°C | 4.9% | 85.2hPa | 2.6V | 18:12:15 | 01:23:27 | 00:00:00 | |
| AA1-15 | 2026-09-03 11:42:42 | 53.93404 | 14.34781 | 128° | 46km/h | 17470m | 3.8m/s | -50.9°C | 4.8% | 85.9hPa | 2.7V | 18:12:15 | 01:23:16 | 00:00:00 | |
| DO2SHX-10 | 2026-09-03 11:42:42 | 53.93404 | 14.34781 | 128° | 44km/h | 17470m | 3.8m/s | -50.9°C | 6.7% | 85.8hPa | 2.7V | 00:00:00 | 01:23:16 | 00:00:00 | |
| DJ2DS-15 | 2026-09-03 11:42:40 | 53.93417 | 14.34751 | 126° | 46km/h | 17460m | 4.9m/s | -50.8°C | 6.7% | 86.0hPa | 2.7V | 00:00:00 | 01:23:14 | 00:00:00 | |
| DO2SHX-10 | 2026-09-03 11:42:39 | 53.93423 | 14.34737 | 127° | 42km/h | 17456m | 3.8m/s | -50.8°C | 6.7% | 86.0hPa | 2.7V | 00:00:00 | 01:23:13 | 08:30:00 | |
| EDDB2-11 | 2026-09-03 11:42:36 | 53.93458 | 14.34665 | 135° | 42km/h | 17432m | 5.1m/s | -50.7°C | 3.7% | 86.4hPa | 2.7V | 00:00:00 | 00:00:00 | 00:00:00 | |
| DL1XH-15 | 2026-09-03 11:42:34 | 53.93482 | 14.34625 | 133° | 47km/h | 17417m | 4.7m/s | -50.6°C | 6.6% | 86.6hPa | 2.7V | 08:30:00 | 01:23:05 | 00:00:00 | |
| AA1-15 | 2026-09-03 11:42:31 | 53.93482 | 14.34625 | 134° | 47km/h | 17417m | 4.7m/s | -50.6°C | 4.8% | 86.6hPa | 2.7V | 18:12:15 | 01:23:05 | 00:00:00 | |
| DO2SHX-10 | 2026-09-03 11:42:30 | 53.93490 | 14.34610 | 133° | 46km/h | 17413m | 3.5m/s | -50.5°C | 6.6% | 86.6hPa | 2.6V | 00:00:00 | 01:23:04 | 00:00:00 | |
| SONDE2-11 | 2026-09-03 11:42:29 | 53.93498 | 14.34596 | 132° | 44km/h | 17408m | 5.5m/s | -50.5°C | 3.6% | 86.7hPa | 2.6V | 00:00:00 | 00:00:00 | 00:00:00 | |
| DO2SHX-10 | 2026-09-03 11:42:27 | 53.93514 | 14.34568 | 135° | 46km/h | 17399m | 4.1m/s | -50.5°C | 6.5% | 86.7hPa | 2.6V | 00:00:00 | 01:23:01 | 00:00:00 | |
| DG6HD-11 | 2026-09-03 11:42:24 | 53.93538 | 14.34524 | 131° | 53km/h | 17385m | 3.9m/s | -50.5°C | 6.5% | 87.0hPa | 2.6V | 00:00:00 | 00:00:00 | 00:00:00 | |
| DL1XH-15 | 2026-09-03 11:42:23 | 53.93585 | 14.34426 | 128° | 53km/h | 17356m | 4.5m/s | -50.5°C | 6.4% | 87.4hPa | 2.6V | 08:30:00 | 01:22:52 | 00:00:00 | |
| AA1-15 | 2026-09-03 11:42:21 | 53.93561 | 14.34477 | 129° | 47km/h | 17371m | 3.7m/s | -50.4°C | 4.7% | 87.2hPa | 2.8V | 18:12:15 | 01:22:55 | 00:00:00 | |
| AA1-15 | 2026-09-03 11:42:10 | 53.93649 | 14.34287 | 134° | 51km/h | 17318m | 4.7m/s | -50.5°C | 4.7% | 87.9hPa | 2.7V | 18:12:15 | 01:22:44 | 00:00:00 | |
| AA1-15 | 2026-09-03 11:41:59 | 53.93742 | 14.34081 | 120° | 60km/h | 17264m | 4.4m/s | -50.4°C | 4.7% | 88.6hPa | 2.6V | 18:12:15 | 01:22:33 | 00:00:00 | |
| DJ2DS-15 | 2026-09-03 11:41:59 | 53.93742 | 14.34081 | 120° | 60km/h | 17265m | 4.4m/s | -50.4°C | 6.5% | 88.6hPa | 2.8V | 00:00:00 | 01:22:33 | 00:00:00 | |
| DO2SHX-10 | 2026-09-03 11:41:58 | 53.93750 | 14.34059 | 121° | 62km/h | 17260m | 4.4m/s | -50.3°C | 6.5% | 88.7hPa | 2.8V | 00:00:00 | 01:22:32 | 00:00:00 | |
| DO2SHX-10 | 2026-09-03 11:41:55 | 53.93774 | 14.33991 | 121° | 58km/h | 17246m | 4.2m/s | -50.2°C | 6.4% | 88.8hPa | 2.8V | 00:00:00 | 01:22:29 | 00:00:00 | |
| DL1XH-15 | 2026-09-03 11:41:54 | 53.93801 | 14.33904 | 117° | 57km/h | 17226m | 5.1m/s | -50.2°C | 6.3% | 89.1hPa | 2.8V | 08:30:00 | 01:22:25 | 00:00:00 | |
| AA1-15 | 2026-09-03 11:41:48 | 53.93821 | 14.33840 | 117° | 57km/h | 17212m | 5.2m/s | -50.3°C | 4.7% | 89.3hPa | 2.6V | 18:12:15 | 01:22:22 | 00:00:00 | |
| DO2SHX-10 | 2026-09-03 11:41:46 | 53.93834 | 14.33796 | 119° | 62km/h | 17203m | 5.7m/s | -50.2°C | 6.2% | 89.4hPa | 2.8V | 00:00:00 | 01:22:20 | 00:00:00 | |
| DL1XH-15 | 2026-09-03 11:41:44 | 53.93876 | 14.33650 | 112° | 62km/h | 17173m | 4.7m/s | -50.2°C | 6.4% | 89.9hPa | 2.8V | 08:30:00 | 01:22:14 | 00:00:00 | |
| AA1-15 | 2026-09-03 11:41:38 | 53.93887 | 14.33601 | 110° | 60km/h | 17164m | 5.8m/s | -50.5°C | 4.8% | 90hPa | 2.7V | 18:12:15 | 01:22:12 | 00:00:00 | |
| AA1-15 | 2026-09-03 11:41:27 | 53.93941 | 14.33365 | 109° | 66km/h | 17114m | 4.5m/s | -50.5°C | 4.7% | 90.7hPa | 2.8V | 18:12:15 | 01:22:01 | 00:00:00 | |
| SONDE2-11 | 2026-09-03 11:41:27 | 53.93941 | 14.33365 | 109° | 64km/h | 17114m | 4.5m/s | -50.5°C | 3.6% | 90.7hPa | 2.7V | 00:00:00 | 00:00:00 | 00:00:00 | |
| DO2SHX-10 | 2026-09-03 11:41:24 | 53.93955 | 14.33286 | 106° | 58km/h | 17100m | 5.0m/s | -50.3°C | 6.3% | 90.8hPa | 2.7V | 00:00:00 | 01:21:58 | 00:00:00 | |
| S3001 | 2026-09-03 11:41:22 | 53.93964 | 14.33239 | 108° | 53km/h | 17090m | 4.5m/s | -50.3°C | 3.6% | 91.0hPa | 2.7V | 00:00:00 | 00:00:00 | 00:00:00 | |
| DL1XH-15 | 2026-09-03 11:41:21 | 53.93985 | 14.33118 | 109° | 51km/h | 17062m | 3.7m/s | -50.5°C | 6.5% | 91.4hPa | 2.7V | 08:30:00 | 01:21:50 | 00:00:00 | |
| AA1-15 | 2026-09-03 11:41:16 | 53.93985 | 14.33118 | 110° | 51km/h | 17062m | 3.7m/s | -50.5°C | 4.8% | 91.4hPa | 2.7V | 18:12:15 | 01:21:50 | 00:00:00 | |
| AA1-15 | 2026-09-03 11:41:06 | 53.94034 | 14.32912 | 111° | 47km/h | 17014m | 5.4m/s | -50.5°C | 4.8% | 92.1hPa | 2.8V | 18:12:15 | 01:21:40 | 00:00:00 | |
| AA1-15 | 2026-09-03 11:40:56 | 53.94086 | 14.32730 | 118° | 53km/h | 16967m | 6.1m/s | -50°C | 4.7% | 92.8hPa | 2.7V | 18:12:15 | 01:21:30 | 00:00:00 | |
| SONDE2-11 | 2026-09-03 11:40:56 | 53.94133 | 14.32569 | 117° | 53km/h | 16930m | 3.6m/s | -49.8°C | 3.6% | 93.3hPa | 2.7V | 00:00:00 | 00:00:00 | 00:00:00 | |
| DB0DAN | 2026-09-03 11:40:55 | 53.94092 | 14.32710 | 115° | 51km/h | 16962m | 4.3m/s | -49.9°C | 3.6% | 92.83hPa | 2.7V | 00:00:00 | 00:00:00 | 00:00:00 | |
| AA1-15 | 2026-09-03 11:40:45 | 53.94154 | 14.32511 | 124° | 51km/h | 16915m | 4.1m/s | -49.7°C | 4.7% | 93.5hPa | 2.7V | 18:12:15 | 01:21:19 | 00:00:00 | |
| AA1-15 | 2026-09-03 11:40:35 | 53.94213 | 14.32307 | 117° | 53km/h | 16868m | 5.3m/s | -49.5°C | 4.5% | 94.2hPa | 2.7V | 18:12:15 | 01:21:09 | 00:00:00 | |
| AA1-15 | 2026-09-03 11:40:24 | 53.94286 | 14.32067 | 116° | 57km/h | 16815m | 4.4m/s | -49.5°C | 4.6% | 94.9hPa | 2.8V | 18:12:15 | 01:20:58 | 00:00:00 | |
| AA1-15 | 2026-09-03 11:40:13 | 53.94354 | 14.31822 | 118° | 60km/h | 16762m | 4.9m/s | -50.3°C | 4.7% | 95.7hPa | 2.8V | 18:12:15 | 01:20:47 | 00:00:00 | |
| MECKS9 | 2026-09-03 11:40:11 | 53.94361 | 14.31799 | 118° | 60km/h | 16758m | 4.8m/s | -50.3°C | 3.5% | 95.8hPa | 2.7V | 00:00:00 | 00:00:00 | 00:00:00 | |
| DB0DAN | 2026-09-03 11:40:10 | 53.94374 | 14.31754 | 114° | 55km/h | 16748m | 3.4m/s | -50.4°C | 3.6% | 95.93hPa | 2.7V | 00:00:00 | 00:00:00 | 00:00:00 | |
| AA1-15 | 2026-09-03 11:40:02 | 53.94413 | 14.31560 | 109° | 62km/h | 16711m | 4m/s | -50.5°C | 4.7% | 96.4hPa | 2.8V | 18:12:15 | 01:20:36 | 00:00:00 | |
| DO2SHX-10 | 2026-09-03 11:40:02 | 53.94412 | 14.31560 | 109° | 62km/h | 16712m | 3.9m/s | -50.5°C | 6.2% | 96.4hPa | 2.7V | 00:00:00 | 01:20:36 | 00:00:00 | |
| SP3WXH-11 | 2026-09-03 11:40:01 | 53.94423 | 14.31511 | 109° | 58km/h | 16702m | 4.8m/s | -50.8°C | 3.5% | 96.6hPa | 2.7V | 00:00:00 | 00:00:00 | 00:00:00 | |
| DG6HD-15 | 2026-09-03 11:40:00 | 53.94418 | 14.31535 | 110° | 62km/h | 16707m | 5.2m/s | -50.7°C | 3.5% | 96.5hPa | 2.7V | 00:00:00 | 00:00:00 | 00:00:00 | |
| DO2SHX-10 | 2026-09-03 11:39:59 | 53.94427 | 14.31486 | 109° | 58km/h | 16697m | 4.7m/s | -50.7°C | 6.3% | 96.6hPa | 2.7V | 00:00:00 | 01:20:33 | 00:00:00 | |
| DJ2DS-15 | 2026-09-03 11:39:57 | 53.94436 | 14.31438 | 106° | 51km/h | 16688m | 3.8m/s | -50.7°C | 6.3% | 96.8hPa | 2.8V | 00:00:00 | 01:20:31 | 00:00:00 | |
| DB0DAN | 2026-09-03 11:39:55 | 53.94443 | 14.31391 | 102° | 51km/h | 16677m | 4.7m/s | -50.9°C | 3.7% | 96.96hPa | 2.8V | 00:00:00 | 00:00:00 | 00:00:00 | |
| AA1-15 | 2026-09-03 11:39:52 | 53.94450 | 14.31322 | 99° | 55km/h | 16664m | 3.8m/s | -50.7°C | 4.8% | 97.2hPa | 2.7V | 18:12:15 | 01:20:26 | 00:00:00 | |
| S3001 | 2026-09-03 11:39:49 | 53.94457 | 14.31256 | 101° | 49km/h | 16650m | 3.9m/s | -50.6°C | 3.7% | 97.4hPa | 2.8V | 00:00:00 | 00:00:00 | 00:00:00 | |
| DJ2DS-15 | 2026-09-03 11:39:48 | 53.94462 | 14.31213 | 101° | 51km/h | 16641m | 5.1m/s | -50.7°C | 3.7% | 97.5hPa | 2.8V | 00:00:00 | 00:00:00 | 00:00:00 | |
| AA1-15 | 2026-09-03 11:39:41 | 53.94480 | 14.31087 | 104° | 53km/h | 16613m | 4.3m/s | -50.9°C | 4.8% | 97.9hPa | 2.8V | 18:12:15 | 01:20:15 | 00:00:00 | |
| AA1-15 | 2026-09-03 11:39:30 | 53.94531 | 14.30857 | 112° | 51km/h | 16563m | 3.7m/s | -50.9°C | 4.8% | 98.7hPa | 2.7V | 18:12:15 | 01:20:04 | 00:00:00 | |
| AA1-15 | 2026-09-03 11:39:20 | 53.94585 | 14.30646 | 108° | 58km/h | 16517m | 3.2m/s | -51°C | 4.9% | 99.4hPa | 2.8V | 18:12:15 | 01:19:54 | 00:00:00 | |
| DO2SHX-10 | 2026-09-03 11:39:20 | 53.94584 | 14.30646 | 108° | 57km/h | 16518m | 3.1m/s | -51.0°C | 6.6% | 99.3hPa | 2.7V | 00:00:00 | 01:19:54 | 00:00:00 | |
| DG6HD-15 | 2026-09-03 11:39:19 | 53.94584 | 14.30646 | 109° | 58km/h | 16518m | 3.2m/s | -51.0°C | 3.7% | 99.4hPa | 2.7V | 00:00:00 | 00:00:00 | 00:00:00 | |
| DO2SHX-10 | 2026-09-03 11:39:18 | 53.94597 | 14.30577 | 106° | 55km/h | 16505m | 4.4m/s | -51.0°C | 6.6% | 99.6hPa | 2.7V | 00:00:00 | 01:19:51 | 00:00:00 | |
| KRY50SP | 2026-09-03 11:39:17 | 53.94596 | 14.30577 | 107° | 55km/h | 16505m | 4.4m/s | 0°C | 0% | 99.6hPa | 2.7V | 00:00:00 | 00:00:00 | 00:00:00 | |
| DG6HD-11 | 2026-09-03 11:39:15 | 53.94605 | 14.30533 | 108° | 51km/h | 16496m | 3.6m/s | -51.0°C | 6.7% | 99.7hPa | 2.7V | 00:00:00 | 00:00:00 | 00:00:00 | |
| DO2SHX-10 | 2026-09-03 11:39:14 | 53.94609 | 14.30511 | 110° | 51km/h | 16491m | 5.5m/s | -51.0°C | 6.7% | 99.7hPa | 2.7V | 00:00:00 | 01:19:48 | 00:00:00 | |
| DB0DAN | 2026-09-03 11:39:10 | 53.94627 | 14.30431 | 110° | 49km/h | 16474m | 3.7m/s | -51.1°C | 3.8% | 100.06hPa | 2.8V | 00:00:00 | 00:00:00 | 00:00:00 | |
| AA1-15 | 2026-09-03 11:39:10 | 53.94627 | 14.30431 | 110° | 53km/h | 16474m | 3.7m/s | -51.1°C | 4.9% | 100.1hPa | 2.8V | 18:12:15 | 01:19:44 | 00:00:00 | |
| AA1-15 | 2026-09-03 11:38:59 | 53.94662 | 14.30186 | 103° | 49km/h | 16426m | 4.2m/s | -51°C | 4.8% | 100.8hPa | 2.8V | 18:12:15 | 01:19:33 | 00:00:00 | |
| DO2SHX-10 | 2026-09-03 11:38:58 | 53.94665 | 14.30166 | 105° | 47km/h | 16421m | 5.5m/s | -50.9°C | 6.5% | 100.8hPa | 2.8V | 00:00:00 | 01:19:32 | 00:00:00 | |
| DJ2DS-15 | 2026-09-03 11:38:57 | 53.94668 | 14.30147 | 107° | 51km/h | 16416m | 4.3m/s | -50.8°C | 6.6% | 100.9hPa | 2.8V | 00:00:00 | 01:19:31 | 00:00:00 | |
| DB0DAN | 2026-09-03 11:38:55 | 53.94675 | 14.30107 | 107° | 49km/h | 16407m | 3.7m/s | -50.9°C | 3.7% | 101.1hPa | 2.8V | 00:00:00 | 00:00:00 | 00:00:00 | |
| AA1-15 | 2026-09-03 11:38:48 | 53.94689 | 14.29951 | 90° | 53km/h | 16376m | 5m/s | -51.1°C | 4.8% | 101.6hPa | 2.7V | 18:12:15 | 01:19:22 | 00:00:00 | |
| S3001 | 2026-09-03 11:38:47 | 53.94689 | 14.29929 | 90° | 51km/h | 16371m | 3.9m/s | -51.1°C | 3.7% | 101.7hPa | 2.7V | 00:00:00 | 00:00:00 | 00:00:00 | |
| DO2SHX-10 | 2026-09-03 11:38:46 | 53.94689 | 14.29907 | 93° | 49km/h | 16367m | 4.4m/s | -51.1°C | 6.6% | 101.7hPa | 2.7V | 00:00:00 | 01:19:20 | 00:00:00 | |
| DG6HD-11 | 2026-09-03 11:38:45 | 53.94690 | 14.29885 | 98° | 64km/h | 16363m | 3.3m/s | -51.2°C | 6.7% | 101.8hPa | 2.7V | 00:00:00 | 00:00:00 | 08:30:00 | |
| DO2SHX-10 | 2026-09-03 11:38:43 | 53.94695 | 14.29846 | 110° | 47km/h | 16354m | 4.4m/s | -51.2°C | 6.7% | 101.9hPa | 2.7V | 00:00:00 | 01:19:17 | 00:00:00 | |
| DB0DAN | 2026-09-03 11:38:40 | 53.94710 | 14.29787 | 110° | 53km/h | 16342m | 4.4m/s | -51.2°C | 3.8% | 102.11hPa | 2.7V | 00:00:00 | 00:00:00 | 00:00:00 | |
| AA1-15 | 2026-09-03 11:38:38 | 53.94718 | 14.29740 | 102° | 58km/h | 16334m | 4.2m/s | -51.2°C | 4.9% | 102.2hPa | 2.8V | 18:12:15 | 01:19:12 | 00:00:00 | |
| AA1-15 | 2026-09-03 11:38:27 | 53.94742 | 14.29499 | 106° | 53km/h | 16287m | 3.9m/s | -51.2°C | 4.9% | 103hPa | 2.8V | 18:12:15 | 01:19:01 | 00:00:00 | |
| AA1-15 | 2026-09-03 11:38:17 | 53.94774 | 14.29287 | 104° | 51km/h | 16244m | 4.2m/s | -51°C | 5% | 103.7hPa | 2.8V | 18:12:15 | 01:18:51 | 00:00:00 | |
| DJ2DS-15 | 2026-09-03 11:38:17 | 53.94774 | 14.29287 | 105° | 53km/h | 16244m | 4.1m/s | -50.9°C | 6.6% | 103.6hPa | 2.7V | 00:00:00 | 01:18:51 | 08:30:00 | |
| DO2SHX-10 | 2026-09-03 11:38:16 | 53.94777 | 14.29265 | 107° | 53km/h | 16239m | 5.5m/s | -50.9°C | 6.5% | 103.7hPa | 2.7V | 00:00:00 | 01:18:50 | 00:00:00 | |
| DO2SHX-10 | 2026-09-03 11:38:13 | 53.94792 | 14.29201 | 112° | 49km/h | 16226m | 5.6m/s | -51.0°C | 6.2% | 103.9hPa | 2.7V | 00:00:00 | 01:18:47 | 00:00:00 | |
| DB0DAN | 2026-09-03 11:38:10 | 53.94806 | 14.29143 | 115° | 49km/h | 16212m | 5.4m/s | -51.2°C | 3.6% | 104.17hPa | 2.7V | 00:00:00 | 00:00:00 | 00:00:00 | |
| AA1-15 | 2026-09-03 11:38:07 | 53.94828 | 14.29061 | 116° | 51km/h | 16195m | 3.7m/s | -51.3°C | 4.9% | 104.4hPa | 2.8V | 18:12:15 | 01:18:40 | 00:00:00 | |
| AA1-15 | 2026-09-03 11:37:56 | 53.94891 | 14.28853 | 114° | 57km/h | 16151m | 4.9m/s | -51.8°C | 5.1% | 105.2hPa | 2.8V | 18:12:15 | 01:18:30 | 00:00:00 | |
| AA1-15 | 2026-09-03 11:37:45 | 53.94952 | 14.28620 | 106° | 53km/h | 16100m | 4.1m/s | -52°C | 5.1% | 106hPa | 2.7V | 18:12:15 | 01:18:19 | 00:00:00 | |
| S3001 | 2026-09-03 11:37:45 | 53.94955 | 14.28598 | 107° | 53km/h | 16095m | 4.7m/s | -51.9°C | 3.9% | 106.1hPa | 2.8V | 00:00:00 | 00:00:00 | 00:00:00 | |
| AA1-15 | 2026-09-03 11:37:35 | 53.95006 | 14.28421 | 118° | 53km/h | 16055m | 5.1m/s | -51.9°C | 5.1% | 106.7hPa | 2.8V | 18:12:15 | 01:18:09 | 00:00:00 | |
| DL1XH-15 | 2026-09-03 11:37:34 | 53.95042 | 14.28299 | 115° | 53km/h | 16028m | 5m/s | -51.7°C | 6.6% | 107.2hPa | 2.8V | 08:30:00 | 01:18:03 | 00:00:00 | |
| DO2SHX-10 | 2026-09-03 11:37:33 | 53.95018 | 14.28381 | 115° | 53km/h | 16046m | 3.8m/s | -51.8°C | 6.7% | 106.8hPa | 2.7V | 00:00:00 | 01:18:07 | 08:30:00 | |
| DK1YY | 2026-09-03 11:37:32 | 53.95024 | 14.28360 | 115° | 53km/h | 16041m | 4.9m/s | -51.8°C | 3.9% | 107.0hPa | 2.8V | 00:00:00 | 00:00:00 | 00:00:00 | |
| DO2SHX-10 | 2026-09-03 11:37:30 | 53.95036 | 14.28319 | 118° | 53km/h | 16032m | 3.2m/s | -51.6°C | 6.6% | 107.1hPa | 2.8V | 00:00:00 | 01:18:04 | 00:00:00 | |
| DO2SHX-10 | 2026-09-03 11:37:27 | 53.95052 | 14.28258 | 114° | 53km/h | 16019m | 3.5m/s | -51.6°C | 6.5% | 107.3hPa | 2.8V | 00:00:00 | 01:18:01 | 00:00:00 | |
| DB0DAN | 2026-09-03 11:37:25 | 53.95064 | 14.28217 | 118° | 51km/h | 16010m | 4.9m/s | -51.8°C | 3.8% | 107.47hPa | 2.8V | 00:00:00 | 00:00:00 | 00:00:00 | |
| AA1-15 | 2026-09-03 11:37:24 | 53.95070 | 14.28196 | 120° | 55km/h | 16006m | 3.6m/s | -51.9°C | 5.1% | 107.5hPa | 2.8V | 18:12:15 | 01:17:58 | 00:00:00 | |
| DO2SHX-10 | 2026-09-03 11:37:24 | 53.95070 | 14.28196 | 120° | 53km/h | 16006m | 3.5m/s | -51.8°C | 6.7% | 107.5hPa | 2.7V | 00:00:00 | 01:17:58 | 00:00:00 | |
| DO2SHX-10 | 2026-09-03 11:37:21 | 53.95091 | 14.28140 | 124° | 51km/h | 15992m | 4.1m/s | -52.0°C | 6.8% | 107.7hPa | 2.7V | 00:00:00 | 01:17:55 | 00:00:00 | |
| DO2SHX-10 | 2026-09-03 11:37:18 | 53.95114 | 14.28085 | 126° | 57km/h | 15979m | 2.9m/s | -52.1°C | 6.9% | 108.0hPa | 2.7V | 00:00:00 | 01:17:52 | 00:00:00 | |
| DJ2DS-15 | 2026-09-03 11:37:16 | 53.95130 | 14.28043 | 119° | 58km/h | 15971m | 4.9m/s | -52.1°C | 6.9% | 108.1hPa | 2.7V | 00:00:00 | 01:17:50 | 00:00:00 | |
| DO2SHX-10 | 2026-09-03 11:37:15 | 53.95136 | 14.28021 | 116° | 60km/h | 15966m | 4.2m/s | -51.9°C | 6.8% | 108.2hPa | 2.7V | 00:00:00 | 01:17:49 | 00:00:00 | |
| DL1XH-15 | 2026-09-03 11:37:14 | 53.95177 | 14.27885 | 120° | 57km/h | 15938m | 4.7m/s | -52°C | 6.8% | 108.7hPa | 2.8V | 08:30:00 | 01:17:43 | 00:00:00 | |
| AA1-15 | 2026-09-03 11:37:14 | 53.95142 | 14.27998 | 115° | 60km/h | 15961m | 4.7m/s | -52°C | 5.1% | 108.3hPa | 2.8V | 18:12:15 | 01:17:48 | 00:00:00 | |
| MECKS9 | 2026-09-03 11:37:14 | 53.95142 | 14.27998 | 116° | 60km/h | 15962m | 4.7m/s | -52.0°C | 3.9% | 108.3hPa | 2.7V | 00:00:00 | 00:00:00 | 00:00:00 | |
| DO2SHX-10 | 2026-09-03 11:37:12 | 53.95156 | 14.27951 | 118° | 58km/h | 15952m | 3.5m/s | -52.0°C | 6.8% | 108.3hPa | 2.7V | 00:00:00 | 01:17:46 | 00:00:00 | |
| DO2SHX-10 | 2026-09-03 11:37:09 | 53.95177 | 14.27885 | 121° | 58km/h | 15939m | 4.6m/s | -51.9°C | 6.8% | 108.7hPa | 2.7V | 00:00:00 | 01:17:43 | 00:00:00 | |
| DO2SHX-10 | 2026-09-03 11:37:06 | 53.95201 | 14.27822 | 125° | 55km/h | 15924m | 4.2m/s | -52.1°C | 6.7% | 108.8hPa | 2.7V | 00:00:00 | 01:17:40 | 08:30:00 | |
| DL1XH-15 | 2026-09-03 11:37:04 | 53.95256 | 14.27689 | 122° | 55km/h | 15893m | 3.7m/s | -52.4°C | 6.8% | 109.4hPa | 2.7V | 08:30:00 | 01:17:33 | 00:00:00 | |
| AA1-15 | 2026-09-03 11:37:03 | 53.95224 | 14.27765 | 126° | 53km/h | 15911m | 5.4m/s | -52.4°C | 5.2% | 109.1hPa | 2.8V | 18:12:15 | 01:17:37 | 00:00:00 | |
| DO2SHX-10 | 2026-09-03 11:37:03 | 53.95224 | 14.27765 | 126° | 55km/h | 15911m | 5.3m/s | -52.3°C | 6.8% | 109.1hPa | 2.7V | 00:00:00 | 01:17:37 | 00:00:00 | |
| MECKS9 | 2026-09-03 11:37:02 | 53.95224 | 14.27765 | 127° | 53km/h | 15911m | 5.4m/s | -52.4°C | 3.9% | 109.1hPa | 2.7V | 00:00:00 | 00:00:00 | 00:00:00 | |
| DK1YY | 2026-09-03 11:37:01 | 53.95240 | 14.27727 | 125° | 53km/h | 15902m | 3.9m/s | -52.4°C | 3.9% | 109.3hPa | 2.7V | 00:00:00 | 00:00:00 | 00:00:00 | |
| DO2SHX-10 | 2026-09-03 11:37:00 | 53.95248 | 14.27708 | 125° | 57km/h | 15898m | 5.1m/s | -52.4°C | 6.9% | 109.3hPa | 2.7V | 00:00:00 | 01:17:34 | 00:00:00 | |
| DO2SHX-10 | 2026-09-03 11:36:57 | 53.95271 | 14.27645 | 121° | 69km/h | 15885m | 4.8m/s | -52.5°C | 6.8% | 109.6hPa | 2.7V | 00:00:00 | 01:17:31 | 00:00:00 | |
| DB0DAN | 2026-09-03 11:36:55 | 53.95288 | 14.27593 | 117° | 68km/h | 15874m | 5.6m/s | -52.8°C | 3.9% | 109.75hPa | 2.7V | 00:00:00 | 00:00:00 | 00:00:00 | |
| DG6HD-15 | 2026-09-03 11:36:55 | 53.95288 | 14.27593 | 118° | 71km/h | 15875m | 5.6m/s | -52.8°C | 3.9% | 109.7hPa | 2.8V | 00:00:00 | 00:00:00 | 00:00:00 | |
| DL1XH-15 | 2026-09-03 11:36:54 | 53.95332 | 14.27443 | 116° | 58km/h | 15847m | 4.5m/s | -52.7°C | 7.4% | 110.2hPa | 2.8V | 08:30:00 | 01:17:23 | 00:00:00 | |
| AA1-15 | 2026-09-03 11:36:54 | 53.95311 | 14.27513 | 117° | 66km/h | 15860m | 4.8m/s | -52.7°C | 5.3% | 110hPa | 2.8V | 18:12:15 | 01:17:26 | 00:00:00 | |
| DJ2DS-15 | 2026-09-03 11:36:47 | 53.95346 | 14.27397 | 116° | 60km/h | 15838m | 5.4m/s | -52.7°C | 4.3% | 110.4hPa | 2.8V | 00:00:00 | 00:00:00 | 00:00:00 | |
| AA1-15 | 2026-09-03 11:36:42 | 53.95381 | 14.27271 | 115° | 66km/h | 15815m | 5.6m/s | -52.7°C | 5.3% | 110.8hPa | 2.8V | 18:12:15 | 01:17:16 | 00:00:00 | |
| AA1-15 | 2026-09-03 11:36:32 | 53.95461 | 14.27034 | 115° | 68km/h | 15769m | 4.7m/s | -52.4°C | 5.3% | 111.5hPa | 2.7V | 18:12:15 | 01:17:06 | 00:00:00 | |
| DK1YY | 2026-09-03 11:36:31 | 53.95474 | 14.26981 | 111° | 68km/h | 15760m | 5.6m/s | -52.5°C | 4.1% | 111.7hPa | 2.8V | 00:00:00 | 00:00:00 | 00:00:00 | |
| DL1XH-15 | 2026-09-03 11:36:30 | 53.95504 | 14.26856 | 116° | 60km/h | 15739m | 4.5m/s | -52.3°C | 6.9% | 112.1hPa | 2.8V | 08:30:00 | 01:16:59 | 00:00:00 | |
| DO2SHX-10 | 2026-09-03 11:36:30 | 53.95474 | 14.26980 | 112° | 66km/h | 15761m | 5.6m/s | -52.4°C | 7.2% | 111.6hPa | 2.7V | 00:00:00 | 01:17:04 | 00:00:00 | |
| DB0DAN | 2026-09-03 11:36:25 | 53.95504 | 14.26856 | 116° | 57km/h | 15739m | 4.5m/s | -52.3°C | 4% | 112.08hPa | 2.8V | 00:00:00 | 00:00:00 | 00:00:00 | |
| AA1-15 | 2026-09-03 11:36:22 | 53.95527 | 14.26788 | 122° | 62km/h | 15726m | 4.6m/s | -52.3°C | 5.1% | 112.3hPa | 2.8V | 18:12:15 | 01:16:56 | 00:00:00 | |
| DL1XH-west | 2026-09-03 11:36:12 | 53.95610 | 14.26559 | 118° | 68km/h | 15678m | 3.7m/s | -52.3°C | 5.3% | 113.1hPa | 2.7V | 18:12:15 | 01:16:46 | 00:00:00 | |
| AA1-15 | 2026-09-03 11:36:11 | 53.95618 | 14.26533 | 118° | 66km/h | 15673m | 5.8m/s | -52.3°C | 5.2% | 113.2hPa | 2.7V | 18:12:15 | 01:16:45 | 00:00:00 | |
| DB0DAN | 2026-09-03 11:36:10 | 53.95626 | 14.26509 | 118° | 60km/h | 15669m | 3.7m/s | -52.3°C | 4% | 113.31hPa | 2.8V | 00:00:00 | 00:00:00 | 00:00:00 | |
| AA1-15 | 2026-09-03 11:36:00 | 53.95719 | 14.26276 | 123° | 68km/h | 15623m | 5.3m/s | -52.2°C | 5.2% | 114.1hPa | 2.8V | 18:12:15 | 01:16:34 | 00:00:00 | |
| DL1XH-west | 2026-09-03 11:35:58 | 53.95738 | 14.26227 | 124° | 69km/h | 15614m | 5.4m/s | -52.2°C | 5.2% | 114.3hPa | 2.7V | 18:12:15 | 01:16:32 | 00:00:00 | |
| DO2SHX-10 | 2026-09-03 11:35:57 | 53.95747 | 14.26202 | 125° | 73km/h | 15609m | 4.7m/s | -52.0°C | 7.0% | 114.3hPa | 2.8V | 00:00:00 | 01:16:31 | 00:00:00 | |
| DB0DAN | 2026-09-03 11:35:55 | 53.95768 | 14.26151 | 123° | 69km/h | 15600m | 5.4m/s | -52.1°C | 4.1% | 114.53hPa | 2.8V | 00:00:00 | 00:00:00 | 00:00:00 | |
| AA1-15 | 2026-09-03 11:35:50 | 53.95817 | 14.26020 | 124° | 69km/h | 15577m | 4.8m/s | -51.9°C | 5.2% | 114.9hPa | 2.8V | 18:12:15 | 01:16:24 | 00:00:00 | |
| DO2SHX-10 | 2026-09-03 11:35:48 | 53.95836 | 14.25973 | 125° | 64km/h | 15569m | 2.9m/s | -51.9°C | 7.1% | 115.0hPa | 2.7V | 00:00:00 | 01:16:22 | 00:00:00 | |
| DG6HD-11 | 2026-09-03 11:35:47 | 53.95845 | 14.25950 | 126° | 68km/h | 15564m | 5.3m/s | -51.8°C | 7.1% | 115.1hPa | 2.7V | 00:00:00 | 00:00:00 | 00:00:00 | |
| DO2SHX-10 | 2026-09-03 11:35:45 | 53.95865 | 14.25908 | 130° | 62km/h | 15555m | 4.3m/s | -51.7°C | 7.0% | 115.3hPa | 2.7V | 00:00:00 | 01:16:19 | 08:30:00 | |
| DL1XH-15 | 2026-09-03 11:35:44 | 53.95912 | 14.25794 | 121° | 71km/h | 15531m | 4.3m/s | -51.5°C | 6.8% | 115.8hPa | 2.8V | 08:30:00 | 01:16:14 | 00:00:00 | |
| AA1-15 | 2026-09-03 11:35:39 | 53.95921 | 14.25768 | 121° | 71km/h | 15527m | 4.3m/s | -51.6°C | 5.2% | 115.8hPa | 2.8V | 18:12:15 | 01:16:13 | 00:00:00 | |
| DL1XH-west | 2026-09-03 11:35:37 | 53.95939 | 14.25715 | 120° | 69km/h | 15517m | 4.2m/s | -51.5°C | 5.1% | 116hPa | 2.7V | 18:12:15 | 01:16:11 | 00:00:00 | |
| AA1-15 | 2026-09-03 11:35:28 | 53.96025 | 14.25502 | 123° | 71km/h | 15476m | 4.6m/s | -51.4°C | 5.1% | 116.7hPa | 2.8V | 18:12:15 | 01:16:02 | 00:00:00 | |
| AA1-15 | 2026-09-03 11:35:18 | 53.96116 | 14.25254 | 126° | 68km/h | 15430m | 3.5m/s | -51.1°C | 5% | 117.6hPa | 2.8V | 18:12:15 | 01:15:52 | 00:00:00 | |
| AA1-15 | 2026-09-03 11:35:08 | 53.96215 | 14.24994 | 118° | 69km/h | 15384m | 5.6m/s | -50.8°C | 5% | 118.4hPa | 2.8V | 18:12:15 | 01:15:42 | 00:00:00 | |
| DL1XH-west | 2026-09-03 11:35:07 | 53.96223 | 14.24968 | 119° | 66km/h | 15379m | 3.7m/s | -50.7°C | 5% | 118.5hPa | 2.8V | 18:12:15 | 01:15:41 | 00:00:00 | |
| AA1-15 | 2026-09-03 11:34:58 | 53.96306 | 14.24750 | 123° | 69km/h | 15338m | 4.4m/s | -50.3°C | 5% | 119.2hPa | 2.7V | 18:12:15 | 01:15:32 | 00:00:00 | |
| DL1XH-west | 2026-09-03 11:34:57 | 53.96315 | 14.24725 | 123° | 69km/h | 15334m | 4.6m/s | -50.3°C | 5% | 119.3hPa | 2.8V | 18:12:15 | 01:15:31 | 00:00:00 | |
| DO2SHX-10 | 2026-09-03 11:34:57 | 53.96315 | 14.24725 | 124° | 68km/h | 15334m | 4.5m/s | -50.2°C | 6.8% | 119.2hPa | 2.8V | 00:00:00 | 01:15:31 | 00:00:00 | |
| DJ2DS-15 | 2026-09-03 11:34:56 | 53.96325 | 14.24700 | 122° | 68km/h | 15330m | 4.0m/s | -50.2°C | 6.8% | 119.3hPa | 2.8V | 00:00:00 | 01:15:30 | 00:00:00 | |
| DO2SHX-10 | 2026-09-03 11:34:54 | 53.96341 | 14.24649 | 117° | 68km/h | 15320m | 4.3m/s | -50.1°C | 6.6% | 119.5hPa | 2.8V | 00:00:00 | 01:15:28 | 00:00:00 | |
| DL1XH-15 | 2026-09-03 11:34:52 | 53.96403 | 14.24483 | 125° | 64km/h | 15289m | 4m/s | -49.9°C | 6.5% | 120.1hPa | 2.8V | 08:30:00 | 01:15:21 | 00:00:00 | |
| AA1-15 | 2026-09-03 11:34:47 | 53.96403 | 14.24483 | 125° | 64km/h | 15289m | 4m/s | -49.9°C | 4.8% | 120.1hPa | 2.8V | 18:12:15 | 01:15:21 | 00:00:00 | |
| DG6HD-11 | 2026-09-03 11:34:47 | 53.96403 | 14.24483 | 126° | 71km/h | 15289m | 3.9m/s | -49.8°C | 6.5% | 120.0hPa | 2.7V | 00:00:00 | 00:00:00 | 00:00:00 | |
| DO2SHX-10 | 2026-09-03 11:34:45 | 53.96422 | 14.24438 | 126° | 66km/h | 15280m | 5.3m/s | -49.8°C | 6.7% | 120.2hPa | 2.7V | 00:00:00 | 01:15:19 | 00:00:00 | |
| DO2SHX-10 | 2026-09-03 11:34:42 | 53.96449 | 14.24367 | 119° | 69km/h | 15267m | 4.7m/s | -49.7°C | 6.5% | 120.4hPa | 2.7V | 00:00:00 | 01:15:16 | 00:00:00 | |
| DB0DAN | 2026-09-03 11:34:40 | 53.96466 | 14.24315 | 119° | 68km/h | 15257m | 5.6m/s | -49.8°C | 3.7% | 120.69hPa | 2.8V | 00:00:00 | 00:00:00 | 00:00:00 | |
| DL1XH-west | 2026-09-03 11:34:40 | 53.96466 | 14.24315 | 119° | 69km/h | 15257m | 5.6m/s | -49.8°C | 4.8% | 120.7hPa | 2.8V | 18:12:15 | 01:15:14 | 00:00:00 | |
| AA1-15 | 2026-09-03 11:34:37 | 53.96495 | 14.24238 | 124° | 71km/h | 15243m | 5.5m/s | -49.8°C | 4.8% | 121hPa | 2.7V | 18:12:15 | 01:15:11 | 00:00:00 | |
| DL1XH-west | 2026-09-03 11:34:29 | 53.96581 | 14.24032 | 123° | 75km/h | 15206m | 4.9m/s | -49.8°C | 4.8% | 121.6hPa | 2.7V | 18:12:15 | 01:15:03 | 00:00:00 | |
| AA1-15 | 2026-09-03 11:34:27 | 53.96601 | 14.23979 | 121° | 73km/h | 15197m | 5.6m/s | -49.8°C | 4.8% | 121.8hPa | 2.8V | 18:12:15 | 01:15:01 | 00:00:00 | |
| DB0DAN | 2026-09-03 11:34:25 | 53.96618 | 14.23926 | 119° | 66km/h | 15188m | 4.9m/s | -49.8°C | 3.8% | 121.99hPa | 2.8V | 00:00:00 | 00:00:00 | 00:00:00 | |
| DL1XH-west | 2026-09-03 11:34:18 | 53.96684 | 14.23758 | 129° | 71km/h | 15156m | 4.6m/s | -49.8°C | 4.9% | 122.6hPa | 2.7V | 18:12:15 | 01:14:52 | 00:00:00 | |
| AA1-15 | 2026-09-03 11:34:17 | 53.96696 | 14.23733 | 127° | 75km/h | 15152m | 3m/s | -49.8°C | 4.9% | 122.7hPa | 2.7V | 18:12:15 | 01:14:51 | 00:00:00 | |
| DO2SHX-10 | 2026-09-03 11:34:17 | 53.96695 | 14.23733 | 127° | 77km/h | 15152m | 2.9m/s | -49.7°C | 6.5% | 122.6hPa | 2.8V | 00:00:00 | 01:14:51 | 00:00:00 | |
| DG6HD-11 | 2026-09-03 11:34:16 | 53.96707 | 14.23706 | 125° | 75km/h | 15148m | 5.5m/s | -49.8°C | 6.5% | 122.7hPa | 2.8V | 00:00:00 | 00:00:00 | 00:00:00 | |
| DL1XH-15 | 2026-09-03 11:34:14 | 53.96734 | 14.23618 | 112° | 77km/h | 15132m | 5.8m/s | -49.6°C | 6.4% | 123hPa | 2.8V | 08:30:00 | 01:14:47 | 00:00:00 | |
| DO2SHX-10 | 2026-09-03 11:34:14 | 53.96726 | 14.23648 | 116° | 77km/h | 15138m | 4.4m/s | -49.7°C | 6.5% | 122.9hPa | 2.7V | 00:00:00 | 01:14:48 | 00:00:00 | |
| DB0DAN | 2026-09-03 11:34:10 | 53.96755 | 14.23527 | 112° | 73km/h | 15119m | 5.3m/s | -49.6°C | 3.7% | 123.3hPa | 2.8V | 00:00:00 | 00:00:00 | 00:00:00 | |
| DL1XH-west | 2026-09-03 11:34:08 | 53.96772 | 14.23469 | 118° | 75km/h | 15110m | 4.6m/s | -49.6°C | 4.7% | 123.5hPa | 2.7V | 18:12:15 | 01:14:42 | 00:00:00 | |
| AA1-15 | 2026-09-03 11:34:06 | 53.96791 | 14.23415 | 124° | 73km/h | 15101m | 3.3m/s | -49.5°C | 4.8% | 123.6hPa | 2.8V | 18:12:15 | 01:14:40 | 00:00:00 | |
| DO2SHX-10 | 2026-09-03 11:34:05 | 53.96801 | 14.23389 | 126° | 75km/h | 15097m | 4.6m/s | -49.4°C | 6.2% | 123.6hPa | 2.7V | 00:00:00 | 01:14:39 | 00:00:00 | |
| DL1XH-15 | 2026-09-03 11:34:04 | 53.96833 | 14.23308 | 122° | 77km/h | 15083m | 4.8m/s | -49.4°C | 6.2% | 124hPa | 2.7V | 08:30:00 | 01:14:36 | 00:00:00 | |
| AA1-15 | 2026-09-03 11:33:55 | 53.96897 | 14.23112 | 118° | 71km/h | 15051m | 4.4m/s | -49.8°C | 4.8% | 124.6hPa | 2.7V | 18:12:15 | 01:14:29 | 00:00:00 | |
| DB0DAN | 2026-09-03 11:33:55 | 53.96897 | 14.23112 | 118° | 69km/h | 15051m | 4.4m/s | -49.8°C | 3.7% | 124.57hPa | 2.7V | 00:00:00 | 00:00:00 | 00:00:00 | |
| DL1XH-15 | 2026-09-03 11:33:54 | 53.96923 | 14.23029 | 116° | 73km/h | 15038m | 3.9m/s | -49.9°C | 6.4% | 124.8hPa | 2.8V | 08:30:00 | 01:14:26 | 00:00:00 | |
| DL1XH-west | 2026-09-03 11:33:52 | 53.96923 | 14.23029 | 117° | 73km/h | 15038m | 3.9m/s | -49.9°C | 4.9% | 124.8hPa | 2.8V | 18:12:15 | 01:14:26 | 00:00:00 | |
| AA1-15 | 2026-09-03 11:33:44 | 53.96986 | 14.22812 | 120° | 71km/h | 15002m | 3.1m/s | -50.2°C | 5% | 125.5hPa | 2.8V | 18:12:15 | 01:14:18 | 00:00:00 | |
| DL1XH-15 | 2026-09-03 11:33:44 | 53.97004 | 14.22758 | 119° | 77km/h | 14993m | 4.6m/s | -50.2°C | 6.4% | 125.7hPa | 2.7V | 08:30:00 | 01:14:16 | 00:00:00 | |
| DL1XH-west | 2026-09-03 11:33:40 | 53.97022 | 14.22700 | 116° | 77km/h | 14984m | 5.3m/s | -50.3°C | 5% | 125.9hPa | 2.7V | 18:12:15 | 01:14:14 | 00:00:00 | |
| DB0DAN | 2026-09-03 11:33:40 | 53.97022 | 14.22700 | 116° | 73km/h | 14984m | 5.3m/s | -50.3°C | 3.8% | 125.87hPa | 2.7V | 00:00:00 | 00:00:00 | 00:00:00 | |
| DO2SHX-10 | 2026-09-03 11:33:38 | 53.97038 | 14.22641 | 113° | 75km/h | 14975m | 4.1m/s | -50.3°C | 6.5% | 126.0hPa | 2.7V | 00:00:00 | 01:14:12 | 00:00:00 | |
| MECKS9 | 2026-09-03 11:33:37 | 53.97038 | 14.22641 | 113° | 75km/h | 14975m | 4.1m/s | -50.4°C | 3.8% | 126.1hPa | 2.8V | 00:00:00 | 00:00:00 | 00:00:00 | |
| DJ2DS-15 | 2026-09-03 11:33:36 | 53.97052 | 14.22581 | 112° | 75km/h | 14965m | 4.0m/s | -50.5°C | 6.6% | 126.2hPa | 2.8V | 00:00:00 | 01:14:10 | 00:00:00 | |
| DO2SHX-10 | 2026-09-03 11:33:35 | 53.97059 | 14.22552 | 113° | 71km/h | 14961m | 5.4m/s | -50.6°C | 6.6% | 126.3hPa | 2.8V | 00:00:00 | 01:14:09 | 00:00:00 | |
| DL1XH-15 | 2026-09-03 11:33:34 | 53.97092 | 14.22441 | 117° | 73km/h | 14943m | 4m/s | -50.8°C | 6.8% | 126.7hPa | 2.8V | 08:30:00 | 01:14:05 | 00:00:00 | |
| AA1-15 | 2026-09-03 11:33:33 | 53.97074 | 14.22496 | 117° | 71km/h | 14952m | 3.8m/s | -50.7°C | 5.2% | 126.5hPa | 2.8V | 18:12:15 | 01:14:07 | 00:00:00 | |
| DO2SHX-10 | 2026-09-03 11:33:32 | 53.97083 | 14.22469 | 118° | 73km/h | 14947m | 4.8m/s | -50.7°C | 6.7% | 126.5hPa | 2.7V | 00:00:00 | 01:14:06 | 00:00:00 | |
| DO2SHX-10 | 2026-09-03 11:33:29 | 53.97108 | 14.22386 | 116° | 71km/h | 14935m | 4.6m/s | -50.9°C | 6.8% | 126.8hPa | 2.7V | 00:00:00 | 01:14:03 | 08:30:00 | |
| DG6HD-15 | 2026-09-03 11:33:28 | 53.97108 | 14.22386 | 117° | 71km/h | 14935m | 4.6m/s | -51.0°C | 4.1% | 126.8hPa | 2.7V | 00:00:00 | 00:00:00 | 00:00:00 | |
| MECKS9 | 2026-09-03 11:33:26 | 53.97124 | 14.22330 | 117° | 73km/h | 14926m | 5.6m/s | -51.0°C | 4.1% | 127.0hPa | 2.7V | 00:00:00 | 00:00:00 | 00:00:00 | |
| DB0DAN | 2026-09-03 11:33:25 | 53.97140 | 14.22273 | 115° | 71km/h | 14917m | 4.8m/s | -51.1°C | 4.2% | 127.2hPa | 2.7V | 00:00:00 | 00:00:00 | 00:00:00 | |
| DL1XH-15 | 2026-09-03 11:33:24 | 53.97170 | 14.22153 | 112° | 78km/h | 14898m | 4.3m/s | -51.1°C | 6.9% | 127.6hPa | 2.7V | 08:30:00 | 01:13:55 | 00:00:00 | |
| AA1-15 | 2026-09-03 11:33:22 | 53.97162 | 14.22184 | 113° | 77km/h | 14903m | 5.3m/s | -51°C | 5.4% | 127.5hPa | 2.8V | 18:12:15 | 01:13:56 | 00:00:00 | |
| AM1SDL-15 | 2026-09-03 11:33:21 | 53.97170 | 14.22153 | 113° | 77km/h | 14898m | 4.3m/s | -51.0°C | 6.9% | 127.5hPa | 2.7V | 00:00:00 | 01:13:55 | 00:00:00 | |
| SP3WXH-11 | 2026-09-03 11:33:18 | 53.97198 | 14.22029 | 109° | 75km/h | 14881m | 4.3m/s | -51.0°C | 4.0% | 127.9hPa | 2.7V | 00:00:00 | 00:00:00 | 00:00:00 | |
| DO2SHX-10 | 2026-09-03 11:33:17 | 53.97198 | 14.22029 | 110° | 75km/h | 14881m | 4.2m/s | -51.0°C | 6.8% | 127.9hPa | 2.7V | 00:00:00 | 01:13:51 | 00:00:00 | |
| DJ2DS-15 | 2026-09-03 11:33:16 | 53.97205 | 14.21999 | 110° | 75km/h | 14876m | 5.5m/s | -50.9°C | 6.7% | 127.9hPa | 2.7V | 00:00:00 | 01:13:50 | 00:00:00 | |
| DL1XH-15 | 2026-09-03 11:33:14 | 53.97237 | 14.21850 | 111° | 73km/h | 14853m | 4.4m/s | -51°C | 6.7% | 128.4hPa | 2.8V | 08:30:00 | 01:13:45 | 00:00:00 | |
| AA1-15 | 2026-09-03 11:33:11 | 53.97237 | 14.21850 | 111° | 73km/h | 14853m | 4.4m/s | -51°C | 5.2% | 128.4hPa | 2.8V | 18:12:15 | 01:13:45 | 00:00:00 | |
| DB0DAN | 2026-09-03 11:33:10 | 53.97244 | 14.21821 | 113° | 71km/h | 14848m | 5.3m/s | -51°C | 4% | 128.52hPa | 2.8V | 00:00:00 | 00:00:00 | 00:00:00 | |
| SONDE2-11 | 2026-09-03 11:33:10 | 53.97260 | 14.21761 | 114° | 77km/h | 14838m | 5.7m/s | -51.0°C | 4.0% | 128.7hPa | 2.8V | 00:00:00 | 00:00:00 | 00:00:00 | |
| DO2SHX-10 | 2026-09-03 11:33:08 | 53.97260 | 14.21761 | 115° | 77km/h | 14839m | 5.7m/s | -51.0°C | 6.8% | 128.7hPa | 2.8V | 00:00:00 | 01:13:42 | 00:00:00 | |
| S3001 | 2026-09-03 11:33:05 | 53.97282 | 14.21671 | 112° | 75km/h | 14825m | 5.6m/s | -51.3°C | 4.2% | 129.0hPa | 2.8V | 00:00:00 | 00:00:00 | 00:00:00 | |
| DO2SHX-10 | 2026-09-03 11:33:03 | 53.97296 | 14.21610 | 111° | 75km/h | 14815m | 5.8m/s | -51.2°C | 7.3% | 129.1hPa | 2.8V | 00:00:00 | 01:13:37 | 00:00:00 | |
| DL1XH-15 | 2026-09-03 11:33:02 | 53.97309 | 14.21551 | 107° | 71km/h | 14806m | 2.7m/s | -51.2°C | 7.2% | 129.4hPa | 2.8V | 08:30:00 | 01:13:35 | 00:00:00 | |
| AA1-15 | 2026-09-03 11:33:01 | 53.97309 | 14.21551 | 107° | 71km/h | 14806m | 2.7m/s | -51.2°C | 5.4% | 129.4hPa | 2.8V | 18:12:15 | 01:13:35 | 00:00:00 | |
| DO2SHX-10 | 2026-09-03 11:32:59 | 53.97319 | 14.21491 | 107° | 73km/h | 14797m | 4.5m/s | -51.1°C | 7.1% | 129.5hPa | 2.7V | 00:00:00 | 01:13:33 | 08:30:00 | |
| DL1XH-15 | 2026-09-03 11:32:56 | 53.97356 | 14.21254 | 103° | 69km/h | 14761m | 4.7m/s | -51°C | 7% | 130.3hPa | 2.7V | 08:30:00 | 01:13:25 | 00:00:00 | |
| AA1-15 | 2026-09-03 11:32:50 | 53.97361 | 14.21225 | 105° | 69km/h | 14757m | 4.9m/s | -50.9°C | 5.4% | 130.4hPa | 2.8V | 18:12:15 | 01:13:24 | 00:00:00 | |
| DO2SHX-10 | 2026-09-03 11:32:49 | 53.97366 | 14.21197 | 107° | 69km/h | 14753m | 3.3m/s | -50.8°C | 7.0% | 130.4hPa | 2.7V | 00:00:00 | 01:13:23 | 00:00:00 | |
| DG6HD-15 | 2026-09-03 11:32:48 | 53.97366 | 14.21197 | 107° | 69km/h | 14753m | 3.3m/s | -50.8°C | 4.1% | 130.4hPa | 2.7V | 00:00:00 | 00:00:00 | 00:00:00 | |
| DL1XH-15 | 2026-09-03 11:32:46 | 53.97411 | 14.20957 | 108° | 68km/h | 14718m | 4.9m/s | -50.6°C | 6.8% | 131.2hPa | 2.7V | 08:30:00 | 01:13:15 | 00:00:00 | |
| EDDB2-11 | 2026-09-03 11:32:46 | 53.97381 | 14.21106 | 105° | 77km/h | 14739m | 4.0m/s | -50.8°C | 4.1% | 130.7hPa | 2.8V | 00:00:00 | 00:00:00 | 00:00:00 | |
| AA1-15 | 2026-09-03 11:32:40 | 53.97415 | 14.20930 | 106° | 64km/h | 14714m | 4.6m/s | -50.6°C | 5.2% | 131.3hPa | 2.8V | 18:12:15 | 01:13:14 | 00:00:00 | |
| DO2SHX-10 | 2026-09-03 11:32:39 | 53.97419 | 14.20904 | 106° | 60km/h | 14709m | 5.3m/s | -50.5°C | 6.7% | 131.3hPa | 2.7V | 00:00:00 | 01:13:13 | 00:00:00 | |
| DL1XH-15 | 2026-09-03 11:32:36 | 53.97451 | 14.20697 | 112° | 68km/h | 14673m | 3.4m/s | -50.5°C | 7.1% | 132.1hPa | 2.7V | 08:30:00 | 01:13:05 | 00:00:00 | |
| AA1-15 | 2026-09-03 11:32:30 | 53.97458 | 14.20671 | 113° | 66km/h | 14669m | 5.3m/s | -50.5°C | 5.3% | 132.1hPa | 2.7V | 18:12:15 | 01:13:04 | 00:00:00 | |
| DO2SHX-10 | 2026-09-03 11:32:30 | 53.97458 | 14.20671 | 114° | 64km/h | 14669m | 5.2m/s | -50.4°C | 7.1% | 132.1hPa | 2.7V | 00:00:00 | 01:13:04 | 08:30:00 | |
| DO2SHX-10 | 2026-09-03 11:32:27 | 53.97475 | 14.20594 | 109° | 66km/h | 14657m | 4.8m/s | -50.4°C | 7.0% | 132.3hPa | 2.8V | 00:00:00 | 01:13:01 | 00:00:00 | |
| DL1XH-15 | 2026-09-03 11:32:26 | 53.97499 | 14.20438 | 102° | 60km/h | 14630m | 5.3m/s | -50.4°C | 6.7% | 132.9hPa | 2.8V | 08:30:00 | 01:12:55 | 00:00:00 | |
| DB0DAN | 2026-09-03 11:32:25 | 53.97485 | 14.20541 | 105° | 62km/h | 14648m | 3.4m/s | -50.4°C | 4.1% | 132.6hPa | 2.7V | 00:00:00 | 00:00:00 | 00:00:00 | |
| AA1-15 | 2026-09-03 11:32:20 | 53.97502 | 14.20413 | 103° | 62km/h | 14625m | 3.8m/s | -50.4°C | 5.1% | 133hPa | 2.7V | 18:12:15 | 01:12:54 | 00:00:00 | |
| DO2SHX-10 | 2026-09-03 11:32:18 | 53.97509 | 14.20361 | 103° | 60km/h | 14616m | 5.5m/s | -50.3°C | 6.6% | 133.1hPa | 2.8V | 00:00:00 | 01:12:52 | 00:00:00 | |
| DL1XH-15 | 2026-09-03 11:32:16 | 53.97542 | 14.20196 | 114° | 57km/h | 14586m | 3.8m/s | -50°C | 6.8% | 133.8hPa | 2.8V | 08:30:00 | 01:12:45 | 00:00:00 | |
| DL1XH-west | 2026-09-03 11:32:11 | 53.97542 | 14.20196 | 114° | 57km/h | 14586m | 3.8m/s | -50°C | 5.1% | 133.8hPa | 2.8V | 18:12:15 | 01:12:45 | 00:00:00 | |
| DB0DAN | 2026-09-03 11:32:10 | 53.97548 | 14.20173 | 114° | 55km/h | 14581m | 5.1m/s | -50°C | 4% | 133.92hPa | 2.8V | 00:00:00 | 00:00:00 | 00:00:00 | |
| AA1-15 | 2026-09-03 11:32:10 | 53.97548 | 14.20173 | 114° | 58km/h | 14581m | 5.1m/s | -50°C | 5.1% | 133.9hPa | 2.8V | 18:12:15 | 01:12:44 | 00:00:00 | |
| DG6HD-15 | 2026-09-03 11:32:07 | 53.97559 | 14.20127 | 112° | 58km/h | 14573m | 4.9m/s | -50.1°C | 4.0% | 134.1hPa | 2.8V | 00:00:00 | 00:00:00 | 00:00:00 | |
| DO2SHX-10 | 2026-09-03 11:32:06 | 53.97569 | 14.20081 | 110° | 58km/h | 14565m | 3.0m/s | -50.0°C | 6.6% | 134.2hPa | 2.8V | 00:00:00 | 01:12:40 | 00:00:00 | |
| DL1XH-15 | 2026-09-03 11:32:04 | 53.97600 | 14.19933 | 108° | 62km/h | 14538m | 4m/s | -49.8°C | 6.6% | 134.8hPa | 2.8V | 08:30:00 | 01:12:34 | 00:00:00 | |
| DL1XH-west | 2026-09-03 11:31:59 | 53.97605 | 14.19907 | 110° | 62km/h | 14534m | 4.6m/s | -49.8°C | 5% | 134.9hPa | 2.8V | 18:12:15 | 01:12:33 | 00:00:00 | |
| DJ2DS-15 | 2026-09-03 11:31:59 | 53.97611 | 14.19883 | 112° | 60km/h | 14530m | 4.6m/s | -49.9°C | 4.0% | 135.0hPa | 2.8V | 00:00:00 | 00:00:00 | 00:00:00 | |
| DB0DAN | 2026-09-03 11:31:55 | 53.97629 | 14.19815 | 118° | 55km/h | 14516m | 4.9m/s | -49.8°C | 4.1% | 135.26hPa | 2.8V | 00:00:00 | 00:00:00 | 00:00:00 | |
| DL1XH-15 | 2026-09-03 11:31:54 | 53.97664 | 14.19710 | 120° | 57km/h | 14494m | 4m/s | -49.7°C | 6.6% | 135.7hPa | 2.8V | 08:30:00 | 01:12:24 | 00:00:00 | |
| AA1-15 | 2026-09-03 11:31:48 | 53.97679 | 14.19667 | 118° | 60km/h | 14486m | 3.3m/s | -49.8°C | 5% | 135.9hPa | 2.7V | 18:12:15 | 01:12:22 | 00:00:00 | |
| DO2SHX-10 | 2026-09-03 11:31:48 | 53.97679 | 14.19667 | 118° | 60km/h | 14486m | 3.2m/s | -49.7°C | 6.6% | 135.8hPa | 2.7V | 00:00:00 | 01:12:22 | 00:00:00 | |
| DG6HD-15 | 2026-09-03 11:31:47 | 53.97686 | 14.19644 | 117° | 60km/h | 14482m | 5.4m/s | -49.8°C | 4.0% | 136.0hPa | 2.7V | 00:00:00 | 00:00:00 | 00:00:00 | |
| DO2SHX-10 | 2026-09-03 11:31:45 | 53.97698 | 14.19597 | 114° | 60km/h | 14473m | 3.4m/s | -49.7°C | 6.6% | 136.2hPa | 2.7V | 00:00:00 | 01:12:19 | 00:00:00 | |
| DL1XH-15 | 2026-09-03 11:31:44 | 53.97741 | 14.19462 | 120° | 60km/h | 14446m | 5.9m/s | -49.4°C | 6.6% | 136.7hPa | 2.8V | 08:30:00 | 01:12:13 | 00:00:00 | |
| AA1-15 | 2026-09-03 11:31:37 | 53.97756 | 14.19418 | 120° | 60km/h | 14437m | 4m/s | -49.3°C | 5% | 136.9hPa | 2.7V | 18:12:15 | 01:12:11 | 00:00:00 | |
| DO2SHX-10 | 2026-09-03 11:31:36 | 53.97763 | 14.19395 | 120° | 58km/h | 14433m | 5.2m/s | -49.3°C | 6.5% | 136.9hPa | 2.7V | 00:00:00 | 01:12:10 | 00:00:00 | |
| DL1XH-15 | 2026-09-03 11:31:34 | 53.97816 | 14.19237 | 118° | 60km/h | 14400m | 3.9m/s | -49.6°C | 6.4% | 137.7hPa | 2.8V | 08:30:00 | 01:12:03 | 00:00:00 | |
| AA1-15 | 2026-09-03 11:31:26 | 53.97838 | 14.19164 | 117° | 68km/h | 14386m | 3.4m/s | -49.6°C | 5% | 138hPa | 2.7V | 18:12:15 | 01:12:00 | 00:00:00 | |
| DB0DAN | 2026-09-03 11:31:25 | 53.97846 | 14.19139 | 118° | 62km/h | 14381m | 5.3m/s | -49.5°C | 3.8% | 138.05hPa | 2.7V | 00:00:00 | 00:00:00 | 00:00:00 | |
| DL1XH-15 | 2026-09-03 11:31:24 | 53.97904 | 14.18991 | 123° | 75km/h | 14353m | 3.3m/s | -49.6°C | 6.7% | 138.7hPa | 2.7V | 08:30:00 | 01:11:53 | 00:00:00 | |
| AA1-15 | 2026-09-03 11:31:15 | 53.97942 | 14.18883 | 116° | 73km/h | 14336m | 5.1m/s | -49.5°C | 5% | 139.1hPa | 2.8V | 18:12:15 | 01:11:49 | 00:00:00 | |
| DL1XH-15 | 2026-09-03 11:31:14 | 53.97992 | 14.18715 | 120° | 77km/h | 14311m | 3.5m/s | -49.5°C | 6.5% | 139.6hPa | 2.8V | 08:30:00 | 01:11:43 | 00:00:00 | |
| DO2SHX-10 | 2026-09-03 11:31:13 | 53.97958 | 14.18825 | 115° | 73km/h | 14328m | 4.5m/s | -49.4°C | 6.5% | 139.1hPa | 2.8V | 00:00:00 | 01:11:47 | 00:00:00 | |
| DB0DAN | 2026-09-03 11:31:10 | 53.97982 | 14.18743 | 119° | 69km/h | 14315m | 5.1m/s | -49.4°C | 3.9% | 139.47hPa | 2.8V | 00:00:00 | 00:00:00 | 00:00:00 | |
| AA1-15 | 2026-09-03 11:31:04 | 53.98042 | 14.18575 | 119° | 78km/h | 14290m | 4.1m/s | -49.5°C | 4.9% | 140hPa | 2.7V | 18:12:15 | 01:11:38 | 00:00:00 | |
| AA1-15 | 2026-09-03 11:30:54 | 53.98147 | 14.18268 | 121° | 88km/h | 14251m | 5.2m/s | -49.8°C | 5.1% | 140.8hPa | 2.8V | 18:12:15 | 01:11:28 | 00:00:00 | |
| DK1YY | 2026-09-03 11:30:49 | 53.98199 | 14.18112 | 117° | 80km/h | 14230m | 5.0m/s | 0°C | -1.0% | 141.3hPa | 2.7V | 00:00:00 | 00:00:00 | 00:00:00 | |
| DO2SHX-10 | 2026-09-03 11:30:48 | 53.98208 | 14.18081 | 115° | 84km/h | 14226m | 3.6m/s | -49.5°C | 6.5% | 141.3hPa | 2.7V | 00:00:00 | 01:11:22 | 00:00:00 | |
| DL1XH-15 | 2026-09-03 11:30:45 | 53.98298 | 14.17771 | 118° | 93km/h | 14189m | 4.8m/s | -49.7°C | 6.6% | 142.2hPa | 2.8V | 08:30:00 | 01:11:13 | 00:00:00 | |
| DL1XH-west | 2026-09-03 11:30:43 | 53.98255 | 14.17913 | 116° | 91km/h | 14206m | 3.4m/s | -49.7°C | 5.2% | 141.8hPa | 2.7V | 18:12:15 | 01:11:17 | 00:00:00 | |
| DO2SHX-10 | 2026-09-03 11:30:42 | 53.98265 | 14.17877 | 117° | 93km/h | 14202m | 3.4m/s | -49.8°C | 6.7% | 141.8hPa | 2.8V | 00:00:00 | 01:11:16 | 00:00:00 | |
| DB0DAN | 2026-09-03 11:30:40 | 53.98287 | 14.17806 | 118° | 89km/h | 14194m | 3.8m/s | -49.7°C | 4% | 142.08hPa | 2.8V | 00:00:00 | 00:00:00 | 00:00:00 | |
| DO2SHX-10 | 2026-09-03 11:30:39 | 53.98298 | 14.17771 | 119° | 93km/h | 14189m | 4.8m/s | -49.6°C | 6.6% | 142.1hPa | 2.7V | 00:00:00 | 01:11:13 | 00:00:00 | |
| DJ2DS-15 | 2026-09-03 11:30:36 | 53.98332 | 14.17667 | 120° | 91km/h | 14178m | 4.3m/s | -49.6°C | 6.5% | 142.4hPa | 2.7V | 00:00:00 | 01:11:10 | 00:00:00 | |
| SONDE2-11 | 2026-09-03 11:30:35 | 53.98353 | 14.17602 | 117° | 86km/h | 14170m | 4.1m/s | -49.8°C | 4.1% | 142.6hPa | 2.7V | 00:00:00 | 00:00:00 | 00:00:00 | |
| DL1XH-15 | 2026-09-03 11:30:34 | 53.98404 | 14.17430 | 117° | 93km/h | 14152m | 3.3m/s | -49.5°C | 6.6% | 143hPa | 2.7V | 08:30:00 | 01:11:03 | 00:00:00 | |
| AA1-15 | 2026-09-03 11:30:33 | 53.98363 | 14.17569 | 116° | 88km/h | 14166m | 4.1m/s | -49.6°C | 5.1% | 142.7hPa | 2.7V | 18:12:15 | 01:11:07 | 00:00:00 | |
| DL1XH-west | 2026-09-03 11:30:32 | 53.98372 | 14.17534 | 116° | 89km/h | 14163m | 2.5m/s | -49.5°C | 5.1% | 142.8hPa | 2.8V | 18:12:15 | 01:11:06 | 00:00:00 | |
| MECKS9 | 2026-09-03 11:30:31 | 53.98372 | 14.17534 | 117° | 89km/h | 14163m | 2.5m/s | -49.5°C | 4.0% | 142.8hPa | 2.7V | 00:00:00 | 00:00:00 | 00:00:00 | |
| DO2SHX-10 | 2026-09-03 11:30:30 | 53.98393 | 14.17465 | 118° | 93km/h | 14156m | 4.3m/s | -49.5°C | 6.6% | 142.8hPa | 2.7V | 00:00:00 | 01:11:04 | 08:30:00 | |
| DO2SHX-10 | 2026-09-03 11:30:27 | 53.98425 | 14.17358 | 116° | 93km/h | 14143m | 4.6m/s | -49.5°C | 6.5% | 143.1hPa | 2.7V | 00:00:00 | 01:11:01 | 00:00:00 | |
| DL1XH-15 | 2026-09-03 11:30:24 | 53.98502 | 14.17076 | 116° | 89km/h | 14113m | 4.3m/s | -49.6°C | 6.5% | 143.8hPa | 2.7V | 08:30:00 | 01:10:53 | 00:00:00 | |
| DL1XH-west | 2026-09-03 11:30:22 | 53.98474 | 14.17181 | 114° | 88km/h | 14124m | 4.8m/s | -49.6°C | 5.1% | 143.6hPa | 2.7V | 18:12:15 | 01:10:56 | 00:00:00 | |
| DO2SHX-10 | 2026-09-03 11:30:21 | 53.98483 | 14.17146 | 114° | 89km/h | 14120m | 2.9m/s | -49.5°C | 6.6% | 143.6hPa | 2.7V | 00:00:00 | 01:10:55 | 00:00:00 | |
| MECKS9 | 2026-09-03 11:30:19 | 53.98492 | 14.17111 | 116° | 89km/h | 14117m | 3.5m/s | -49.6°C | 4.0% | 143.8hPa | 2.7V | 00:00:00 | 00:00:00 | 00:00:00 | |
| DO2SHX-10 | 2026-09-03 11:30:18 | 53.98512 | 14.17042 | 118° | 93km/h | 14109m | 3.4m/s | -49.6°C | 6.5% | 143.9hPa | 2.7V | 00:00:00 | 01:10:52 | 00:00:00 | |
| DJ2DS-15 | 2026-09-03 11:30:17 | 53.98533 | 14.16970 | 116° | 88km/h | 14102m | 4.0m/s | -49.7°C | 6.6% | 144.0hPa | 2.7V | 00:00:00 | 01:10:50 | 00:00:00 | |
| DO2SHX-10 | 2026-09-03 11:30:15 | 53.98543 | 14.16933 | 115° | 93km/h | 14098m | 4.0m/s | -49.5°C | 6.7% | 144.1hPa | 2.8V | 00:00:00 | 01:10:49 | 00:00:00 | |
| DL1XH-15 | 2026-09-03 11:30:14 | 53.98597 | 14.16723 | 111° | 86km/h | 14074m | 4m/s | -49.6°C | 6.7% | 144.7hPa | 2.8V | 08:30:00 | 01:10:43 | 00:00:00 | |
| DG6HD-11 | 2026-09-03 11:30:14 | 53.98553 | 14.16896 | 114° | 86km/h | 14094m | 3.5m/s | -49.5°C | 6.6% | 144.2hPa | 2.7V | 00:00:00 | 00:00:00 | 00:00:00 | |
| DL1XH1-15 | 2026-09-03 11:30:13 | 53.98613 | 14.16654 | 111° | 86km/h | 14066m | 4.7m/s | -49.6°C | 6.7% | 144.9hPa | 2.7V | 08:30:00 | 01:10:41 | 00:00:00 | |
| DL1XH-west | 2026-09-03 11:30:12 | 53.98571 | 14.16824 | 114° | 88km/h | 14086m | 4.1m/s | -49.6°C | 5.1% | 144.4hPa | 2.7V | 18:12:15 | 01:10:46 | 00:00:00 | |
| DB0DAN | 2026-09-03 11:30:10 | 53.98589 | 14.16757 | 113° | 80km/h | 14078m | 4.8m/s | -49.7°C | 4% | 144.59hPa | 2.8V | 00:00:00 | 00:00:00 | 00:00:00 | |
| DO2SHX-10 | 2026-09-03 11:30:09 | 53.98597 | 14.16723 | 112° | 86km/h | 14074m | 3.9m/s | -49.6°C | 6.7% | 144.7hPa | 2.7V | 00:00:00 | 01:10:43 | 00:00:00 | |
| MECKS9 | 2026-09-03 11:30:08 | 53.98597 | 14.16723 | 113° | 86km/h | 14074m | 4.0m/s | -49.6°C | 4.1% | 144.7hPa | 2.7V | 00:00:00 | 00:00:00 | 00:00:00 | |
| DO2SHX-10 | 2026-09-03 11:30:06 | 53.98621 | 14.16620 | 114° | 88km/h | 14062m | 4.0m/s | -49.6°C | 6.7% | 144.9hPa | 2.7V | 00:00:00 | 01:10:40 | 00:00:00 | |
| DL1XH-15 | 2026-09-03 11:30:04 | 53.98676 | 14.16373 | 109° | 88km/h | 14034m | 3.5m/s | -49.6°C | 6.6% | 145.6hPa | 2.7V | 08:30:00 | 01:10:33 | 00:00:00 | |
| DL1XH-west | 2026-09-03 11:30:01 | 53.98661 | 14.16444 | 108° | 88km/h | 14042m | 3.7m/s | -49.5°C | 5.1% | 145.4hPa | 2.8V | 18:12:15 | 01:10:35 | 00:00:00 | |
| S3001 | 2026-09-03 11:29:59 | 53.98676 | 14.16373 | 109° | 86km/h | 14034m | 3.5m/s | -49.6°C | 4.0% | 145.6hPa | 2.7V | 00:00:00 | 00:00:00 | 00:00:00 | |
| DO2SHX-10 | 2026-09-03 11:29:57 | 53.98690 | 14.16303 | 109° | 86km/h | 14025m | 3.9m/s | -49.5°C | 6.6% | 145.7hPa | 2.7V | 00:00:00 | 01:10:31 | 00:00:00 | |
| DJ2DS-15 | 2026-09-03 11:29:56 | 53.98697 | 14.16268 | 109° | 86km/h | 14021m | 3.5m/s | -49.5°C | 6.6% | 145.8hPa | 2.7V | 00:00:00 | 01:10:30 | 00:00:00 | |
| DL1XH-15 | 2026-09-03 11:29:54 | 53.98737 | 14.16022 | 104° | 84km/h | 13992m | 4.1m/s | -49.5°C | 6.5% | 146.5hPa | 2.7V | 08:30:00 | 01:10:23 | 00:00:00 | |
| DO2SHX-10 | 2026-09-03 11:29:54 | 53.98710 | 14.16198 | 108° | 86km/h | 14013m | 3.3m/s | -49.4°C | 6.6% | 146.0hPa | 2.7V | 00:00:00 | 01:10:28 | 00:00:00 | |
| DL1XH1-15 | 2026-09-03 11:29:53 | 53.98732 | 14.16057 | 102° | 84km/h | 13996m | 4.4m/s | -49.5°C | 6.5% | 146.4hPa | 2.8V | 08:30:00 | 01:10:24 | 00:00:00 | |
| DL1XH-west | 2026-09-03 11:29:50 | 53.98732 | 14.16057 | 103° | 84km/h | 13997m | 4.4m/s | -49.5°C | 5% | 146.4hPa | 2.8V | 18:12:15 | 01:10:24 | 00:00:00 | |
| DO2SHX-10 | 2026-09-03 11:29:48 | 53.98742 | 14.15987 | 105° | 84km/h | 13989m | 3.3m/s | -49.5°C | 6.5% | 146.6hPa | 2.8V | 00:00:00 | 01:10:22 | 00:00:00 | |
| DL1XH1-15 | 2026-09-03 11:29:45 | 53.98780 | 14.15700 | 102° | 88km/h | 13956m | 4.8m/s | -49.2°C | 6.5% | 147.3hPa | 2.8V | 08:30:00 | 01:10:14 | 00:00:00 | |
| DO2SHX-10 | 2026-09-03 11:29:45 | 53.98756 | 14.15881 | 102° | 86km/h | 13976m | 3.1m/s | -49.2°C | 6.5% | 146.8hPa | 2.7V | 00:00:00 | 01:10:19 | 00:00:00 | |
| DL1XH-15 | 2026-09-03 11:29:44 | 53.98785 | 14.15663 | 101° | 88km/h | 13952m | 3m/s | -49.1°C | 6.5% | 147.4hPa | 2.8V | 08:30:00 | 01:10:13 | 00:00:00 | |
| DO2SHX-10 | 2026-09-03 11:29:42 | 53.98770 | 14.15773 | 104° | 88km/h | 13965m | 3.9m/s | -49.1°C | 6.5% | 147.1hPa | 2.8V | 00:00:00 | 01:10:16 | 00:00:00 | |
| DG6HD-15 | 2026-09-03 11:29:41 | 53.98771 | 14.15773 | 105° | 88km/h | 13965m | 3.9m/s | -49.2°C | 3.9% | 147.1hPa | 2.8V | 00:00:00 | 00:00:00 | 00:00:00 | |
| DB0DAN | 2026-09-03 11:29:40 | 53.98780 | 14.15700 | 102° | 84km/h | 13956m | 4.8m/s | -49.2°C | 3.9% | 147.31hPa | 2.8V | 00:00:00 | 00:00:00 | 00:00:00 | |
| DL1XH-west | 2026-09-03 11:29:40 | 53.98780 | 14.15700 | 102° | 88km/h | 13956m | 4.8m/s | -49.2°C | 4.9% | 147.3hPa | 2.8V | 18:12:15 | 01:10:14 | 00:00:00 | |
| AA1-15 | 2026-09-03 11:29:40 | 53.98785 | 14.15663 | 101° | 88km/h | 13952m | 3m/s | -49.1°C | 4.9% | 147.4hPa | 2.8V | 18:12:15 | 01:10:13 | 00:00:00 | |
| DO2SHX-10 | 2026-09-03 11:29:39 | 53.98785 | 14.15663 | 102° | 86km/h | 13952m | 3.0m/s | -49.1°C | 6.5% | 147.4hPa | 2.7V | 00:00:00 | 01:10:13 | 00:00:00 | |
| DL1XH-15 | 2026-09-03 11:29:34 | 53.98831 | 14.15309 | 106° | 86km/h | 13909m | 4.2m/s | -49.4°C | 6.6% | 148.3hPa | 2.7V | 08:30:00 | 01:10:03 | 00:00:00 | |
| DL1XH-west | 2026-09-03 11:29:30 | 53.98825 | 14.15344 | 105° | 84km/h | 13913m | 3.7m/s | -49.5°C | 5% | 148.3hPa | 2.8V | 18:12:15 | 01:10:04 | 00:00:00 | |
| AA1-15 | 2026-09-03 11:29:28 | 53.98837 | 14.15273 | 107° | 88km/h | 13905m | 4.8m/s | -49.4°C | 5% | 148.5hPa | 2.7V | 18:12:15 | 01:10:02 | 00:00:00 | |
| S3001 | 2026-09-03 11:29:28 | 53.98837 | 14.15273 | 107° | 88km/h | 13905m | 4.8m/s | -49.4°C | 4.0% | 148.5hPa | 2.7V | 00:00:00 | 00:00:00 | 00:00:00 | |
| DO2SHX-10 | 2026-09-03 11:29:27 | 53.98844 | 14.15237 | 108° | 86km/h | 13901m | 3.7m/s | -49.4°C | 6.5% | 148.5hPa | 2.7V | 00:00:00 | 01:10:01 | 00:00:00 | |
| DL1XH-15 | 2026-09-03 11:29:24 | 53.98886 | 14.14960 | 101° | 82km/h | 13867m | 3.1m/s | -49.3°C | 6.5% | 149.3hPa | 2.7V | 08:30:00 | 01:09:53 | 00:00:00 | |
| DL1XH-west | 2026-09-03 11:29:19 | 53.98886 | 14.14960 | 101° | 82km/h | 13867m | 3.1m/s | -49.3°C | 5% | 149.4hPa | 2.7V | 18:12:15 | 01:09:53 | 00:00:00 | |
| AA1-15 | 2026-09-03 11:29:18 | 53.98890 | 14.14925 | 103° | 84km/h | 13864m | 4.2m/s | -49.4°C | 5% | 149.5hPa | 2.7V | 18:12:15 | 01:09:52 | 00:00:00 | |
| DO2SHX-10 | 2026-09-03 11:29:17 | 53.98895 | 14.14890 | 105° | 84km/h | 13860m | 4.3m/s | -49.4°C | 6.5% | 149.5hPa | 2.7V | 00:00:00 | 01:09:51 | 00:00:00 | |
| DK1YY | 2026-09-03 11:29:16 | 53.98925 | 14.14718 | 105° | 84km/h | 13840m | 5.3m/s | 0°C | -1.0% | -1.0hPa | 2.8V | 00:00:00 | 00:00:00 | 00:00:00 | |
| DL1XH-15 | 2026-09-03 11:29:14 | 53.98941 | 14.14612 | 101° | 82km/h | 13828m | 5m/s | -49.5°C | 6.6% | 150.3hPa | 2.8V | 08:30:00 | 01:09:43 | 00:00:00 | |
| DO2SHX-10 | 2026-09-03 11:29:14 | 53.98913 | 14.14787 | 107° | 84km/h | 13848m | 4.2m/s | -49.5°C | 6.5% | 149.8hPa | 2.8V | 00:00:00 | 01:09:48 | 00:00:00 | |
| DB0DAN | 2026-09-03 11:29:10 | 53.98936 | 14.14647 | 103° | 80km/h | 13832m | 3.3m/s | -49.5°C | 3.9% | 150.16hPa | 2.8V | 00:00:00 | 00:00:00 | 00:00:00 | |
| DL1XH-west | 2026-09-03 11:29:09 | 53.98941 | 14.14612 | 102° | 82km/h | 13828m | 5m/s | -49.5°C | 5.1% | 150.3hPa | 2.8V | 18:12:15 | 01:09:43 | 00:00:00 | |
| AA1-15 | 2026-09-03 11:29:08 | 53.98945 | 14.14578 | 100° | 80km/h | 13824m | 3m/s | -49.4°C | 5% | 150.4hPa | 2.7V | 18:12:15 | 01:09:42 | 00:00:00 | |
| DO2SHX-10 | 2026-09-03 11:29:08 | 53.98945 | 14.14578 | 101° | 80km/h | 13824m | 2.9m/s | -49.3°C | 6.5% | 150.3hPa | 2.7V | 00:00:00 | 01:09:42 | 08:30:00 | |
| MECKS9 | 2026-09-03 11:29:07 | 53.98944 | 14.14578 | 101° | 80km/h | 13824m | 3.0m/s | -49.4°C | 4.0% | 150.4hPa | 2.7V | 00:00:00 | 00:00:00 | 00:00:00 | |
| DG6HD-11 | 2026-09-03 11:29:06 | 53.98951 | 14.14510 | 100° | 82km/h | 13816m | 4.7m/s | -49.3°C | 6.6% | 150.5hPa | 2.7V | 00:00:00 | 00:00:00 | 00:00:00 | |
| DO2SHX-10 | 2026-09-03 11:29:05 | 53.98955 | 14.14476 | 100° | 80km/h | 13812m | 4.3m/s | -49.3°C | 6.6% | 150.6hPa | 2.7V | 00:00:00 | 01:09:39 | 00:00:00 | |
| DL1XH-15 | 2026-09-03 11:29:04 | 53.98978 | 14.14272 | 104° | 82km/h | 13786m | 4m/s | -49.5°C | 6.6% | 151.2hPa | 2.7V | 08:30:00 | 01:09:33 | 00:00:00 | |
| AA1-15 | 2026-09-03 11:28:58 | 53.98988 | 14.14205 | 103° | 80km/h | 13778m | 3.7m/s | -49.5°C | 5.1% | 151.4hPa | 2.7V | 18:12:15 | 01:09:31 | 00:00:00 | |
| S3001 | 2026-09-03 11:28:57 | 53.98993 | 14.14171 | 103° | 82km/h | 13774m | 4.9m/s | -49.5°C | 3.9% | 151.5hPa | 2.8V | 00:00:00 | 00:00:00 | 00:00:00 | |
| DB0DAN | 2026-09-03 11:28:55 | 53.98998 | 14.14136 | 102° | 80km/h | 13769m | 4.2m/s | -49.6°C | 3.9% | 151.63hPa | 2.8V | 00:00:00 | 00:00:00 | 00:00:00 | |
| DJ2DS-15 | 2026-09-03 11:28:55 | 53.98998 | 14.14136 | 103° | 82km/h | 13769m | 4.1m/s | -49.5°C | 6.3% | 151.6hPa | 2.8V | 00:00:00 | 01:09:29 | 00:00:00 | |
| DL1XH-15 | 2026-09-03 11:28:54 | 53.99020 | 14.13921 | 100° | 82km/h | 13745m | 2.5m/s | -49.7°C | 6.6% | 152.2hPa | 2.8V | 08:30:00 | 01:09:23 | 00:00:00 | |
| AA1-15 | 2026-09-03 11:28:47 | 53.99027 | 14.13853 | 101° | 78km/h | 13737m | 4.1m/s | -49.7°C | 5.2% | 152.3hPa | 2.7V | 18:12:15 | 01:09:21 | 00:00:00 | |
| DO2SHX-10 | 2026-09-03 11:28:47 | 53.99027 | 14.13853 | 101° | 78km/h | 13737m | 4.1m/s | -49.6°C | 6.7% | 152.3hPa | 2.8V | 00:00:00 | 01:09:21 | 00:00:00 | |
| DL1XH-15 | 2026-09-03 11:28:44 | 53.99058 | 14.13584 | 102° | 84km/h | 13702m | 3.5m/s | -50.4°C | 6.9% | 153.2hPa | 2.8V | 08:30:00 | 01:09:13 | 00:00:00 | |
| DL1XH-west | 2026-09-03 11:28:42 | 53.99045 | 14.13687 | 100° | 78km/h | 13715m | 3.9m/s | -50°C | 5.2% | 152.9hPa | 2.7V | 18:12:15 | 01:09:16 | 00:00:00 | |
| AA1-15 | 2026-09-03 11:28:36 | 53.99071 | 14.13480 | 102° | 82km/h | 13689m | 3.9m/s | -50.5°C | 5.3% | 153.5hPa | 2.8V | 18:12:15 | 01:09:10 | 00:00:00 | |
| DG6HD-11 | 2026-09-03 11:28:36 | 53.99071 | 14.13480 | 103° | 80km/h | 13689m | 3.9m/s | -50.4°C | 6.9% | 153.5hPa | 2.7V | 00:00:00 | 01:09:10 | 00:00:00 | |
| DO2SHX-10 | 2026-09-03 11:28:35 | 53.99075 | 14.13445 | 104° | 84km/h | 13685m | 4.9m/s | -50.5°C | 6.9% | 153.6hPa | 2.7V | 00:00:00 | 01:09:09 | 00:00:00 | |
| DL1XH-15 | 2026-09-03 11:28:34 | 53.99106 | 14.13243 | 107° | 82km/h | 13660m | 3.7m/s | -50.5°C | 6.9% | 154.2hPa | 2.7V | 08:30:00 | 01:09:03 | 00:00:00 | |
| DL1XH-west | 2026-09-03 11:28:31 | 53.99095 | 14.13309 | 105° | 80km/h | 13668m | 2.7m/s | -50.5°C | 5.2% | 154hPa | 2.8V | 18:12:15 | 01:09:05 | 00:00:00 | |
| AA1-15 | 2026-09-03 11:28:25 | 53.99131 | 14.13113 | 108° | 78km/h | 13644m | 3.1m/s | -50.3°C | 5.3% | 154.6hPa | 2.8V | 18:12:15 | 01:08:59 | 00:00:00 | |
| DL1XH-15 | 2026-09-03 11:28:24 | 53.99164 | 14.12911 | 103° | 84km/h | 13618m | 5.1m/s | -50°C | 6.8% | 155.2hPa | 2.8V | 08:30:00 | 01:08:53 | 00:00:00 | |
| DL1XH-west | 2026-09-03 11:28:19 | 53.99164 | 14.12911 | 103° | 84km/h | 13618m | 5.1m/s | -50°C | 5.2% | 155.2hPa | 2.8V | 18:12:15 | 01:08:53 | 00:00:00 | |
| AA1-15 | 2026-09-03 11:28:15 | 53.99193 | 14.12739 | 109° | 84km/h | 13597m | 5.3m/s | -50.1°C | 5.2% | 155.7hPa | 2.8V | 18:12:15 | 01:08:48 | 00:00:00 | |
| DO2SHX-10 | 2026-09-03 11:28:14 | 53.99193 | 14.12738 | 109° | 84km/h | 13597m | 5.2m/s | -50.1°C | 6.7% | 155.6hPa | 2.7V | 00:00:00 | 01:08:48 | 08:30:00 | |
| DB0DAN | 2026-09-03 11:28:10 | 53.99221 | 14.12607 | 108° | 71km/h | 13580m | 3.7m/s | -50.1°C | 4.1% | 156.04hPa | 2.8V | 00:00:00 | 00:00:00 | 00:00:00 | |
| DL1XH-west | 2026-09-03 11:28:06 | 53.99246 | 14.12488 | 114° | 77km/h | 13565m | 4.9m/s | -49.9°C | 5.3% | 156.5hPa | 2.8V | 18:12:15 | 01:08:40 | 00:00:00 | |
| DO2SHX-10 | 2026-09-03 11:28:05 | 53.99254 | 14.12458 | 115° | 82km/h | 13561m | 3.9m/s | -49.9°C | 6.8% | 156.5hPa | 2.7V | 00:00:00 | 01:08:39 | 00:00:00 | |
| DL1XH-15 | 2026-09-03 11:28:04 | 53.99302 | 14.12255 | 109° | 89km/h | 13536m | 2.6m/s | -49.9°C | 6.6% | 157.1hPa | 2.8V | 08:30:00 | 01:08:33 | 00:00:00 | |
| AA1-15 | 2026-09-03 11:28:04 | 53.99279 | 14.12360 | 112° | 84km/h | 13548m | 3.7m/s | -50°C | 5.2% | 156.8hPa | 2.7V | 18:12:15 | 01:08:36 | 00:00:00 | |
| DO2SHX-10 | 2026-09-03 11:28:02 | 53.99279 | 14.12360 | 112° | 86km/h | 13548m | 3.6m/s | -49.9°C | 6.7% | 156.8hPa | 2.8V | 00:00:00 | 01:08:36 | 00:00:00 | |
| SONDE2-11 | 2026-09-03 11:27:59 | 53.99396 | 14.11863 | 114° | 82km/h | 13488m | 4.6m/s | -49.7°C | 4.2% | 158.3hPa | 2.8V | 00:00:00 | 00:00:00 | 00:00:00 | |
| DG6HD-15 | 2026-09-03 11:27:58 | 53.99310 | 14.12219 | 109° | 88km/h | 13532m | 5.1m/s | -49.9°C | 4.1% | 157.2hPa | 2.8V | 00:00:00 | 00:00:00 | 00:00:00 | |
| DB0DAN | 2026-09-03 11:27:55 | 53.99330 | 14.12116 | 110° | 78km/h | 13520m | 4.5m/s | -49.8°C | 4.1% | 157.55hPa | 2.8V | 00:00:00 | 00:00:00 | 00:00:00 | |
| S3001 | 2026-09-03 11:27:55 | 53.99337 | 14.12083 | 111° | 82km/h | 13516m | 3.2m/s | -49.9°C | 4.1% | 157.7hPa | 2.8V | 00:00:00 | 00:00:00 | 00:00:00 | |
| DL1XH-15 | 2026-09-03 11:27:54 | 53.99378 | 14.11927 | 115° | 82km/h | 13495m | 4.5m/s | -49.8°C | 6.9% | 158.1hPa | 2.8V | 08:30:00 | 01:08:23 | 00:00:00 | |
| AA1-15 | 2026-09-03 11:27:53 | 53.99345 | 14.12050 | 113° | 80km/h | 13512m | 3.6m/s | -49.8°C | 5.3% | 157.7hPa | 2.8V | 18:12:15 | 01:08:27 | 00:00:00 | |
| DL1XH-west | 2026-09-03 11:27:52 | 53.99353 | 14.12019 | 113° | 78km/h | 13508m | 5m/s | -49.8°C | 5.3% | 157.8hPa | 2.7V | 18:12:15 | 01:08:26 | 00:00:00 | |
| DO2SHX-10 | 2026-09-03 11:27:50 | 53.99369 | 14.11958 | 116° | 80km/h | 13501m | 4.9m/s | -49.8°C | 6.8% | 158.0hPa | 2.7V | 00:00:00 | 01:08:24 | 00:00:00 | |
| AM1SDL-15 | 2026-09-03 11:27:48 | 53.99387 | 14.11895 | 116° | 80km/h | 13492m | 3.3m/s | -49.7°C | 6.9% | 158.2hPa | 2.7V | 00:00:00 | 01:08:22 | 00:00:00 | |
| DO2SHX-10 | 2026-09-03 11:27:47 | 53.99396 | 14.11863 | 115° | 82km/h | 13488m | 4.5m/s | -49.7°C | 6.8% | 158.3hPa | 2.7V | 00:00:00 | 01:08:21 | 08:30:00 | |
| DL1XH-15 | 2026-09-03 11:27:44 | 53.99457 | 14.11609 | 112° | 77km/h | 13455m | 4.8m/s | -50.2°C | 6.8% | 159.1hPa | 2.8V | 08:30:00 | 01:08:13 | 00:00:00 | |
| DL1XH-west | 2026-09-03 11:27:42 | 53.99436 | 14.11701 | 112° | 78km/h | 13468m | 4.8m/s | -50.1°C | 5.3% | 158.8hPa | 2.7V | 18:12:15 | 01:08:16 | 00:00:00 | |
| DB0DAN | 2026-09-03 11:27:40 | 53.99450 | 14.11639 | 111° | 73km/h | 13459m | 3.3m/s | -50.1°C | 4.2% | 159.03hPa | 2.8V | 00:00:00 | 00:00:00 | 00:00:00 | |
| DL1XH1-15 | 2026-09-03 11:27:38 | 53.99503 | 14.11419 | 112° | 80km/h | 13431m | 3.2m/s | -50.2°C | 7% | 159.7hPa | 2.8V | 08:30:00 | 01:08:07 | 00:00:00 | |
| DO2SHX-10 | 2026-09-03 11:27:38 | 53.99464 | 14.11578 | 114° | 78km/h | 13451m | 3.1m/s | -50.2°C | 6.9% | 159.1hPa | 2.7V | 00:00:00 | 01:08:12 | 00:00:00 | |
| DG6HD-15 | 2026-09-03 11:27:37 | 53.99464 | 14.11578 | 114° | 78km/h | 13451m | 3.2m/s | -50.2°C | 4.2% | 159.2hPa | 2.7V | 00:00:00 | 00:00:00 | 00:00:00 | |
| AM1SDL-15 | 2026-09-03 11:27:36 | 53.99480 | 14.11515 | 113° | 77km/h | 13444m | 4.2m/s | -50.2°C | 6.8% | 159.3hPa | 2.7V | 00:00:00 | 01:08:10 | 00:00:00 | |
| DO2SHX-10 | 2026-09-03 11:27:35 | 53.99488 | 14.11483 | 112° | 80km/h | 13440m | 3.7m/s | -50.3°C | 6.9% | 159.4hPa | 2.8V | 00:00:00 | 01:08:09 | 00:00:00 | |
| DL1XH-15 | 2026-09-03 11:27:34 | 53.99533 | 14.11300 | 114° | 71km/h | 13415m | 3.8m/s | -50.1°C | 7.1% | 160.1hPa | 2.8V | 08:30:00 | 01:08:03 | 00:00:00 | |
| AA1-15 | 2026-09-03 11:27:31 | 53.99519 | 14.11357 | 112° | 75km/h | 13423m | 4.3m/s | -50.1°C | 5.5% | 159.9hPa | 2.7V | 18:12:15 | 01:08:05 | 00:00:00 | |
| DO2SHX-10 | 2026-09-03 11:27:29 | 53.99533 | 14.11300 | 115° | 73km/h | 13416m | 3.8m/s | -50.1°C | 7.1% | 160.0hPa | 2.7V | 00:00:00 | 01:08:03 | 00:00:00 | |
| SONDE2-11 | 2026-09-03 11:27:28 | 53.99549 | 14.11244 | 116° | 73km/h | 13408m | 3.1m/s | -50.0°C | 4.5% | 160.2hPa | 2.7V | 00:00:00 | 00:00:00 | 00:00:00 | |
| DB0DAN | 2026-09-03 11:27:25 | 53.99565 | 14.11186 | 115° | 73km/h | 13400m | 3.2m/s | -50°C | 4.5% | 160.45hPa | 2.7V | 00:00:00 | 00:00:00 | 00:00:00 | |
| DL1XH1-15 | 2026-09-03 11:27:25 | 53.99582 | 14.11124 | 113° | 82km/h | 13392m | 5.6m/s | -49.9°C | 7% | 160.6hPa | 2.8V | 08:30:00 | 01:07:57 | 00:00:00 | |
| DL1XH-15 | 2026-09-03 11:27:24 | 53.99617 | 14.10994 | 117° | 80km/h | 13376m | 3.5m/s | -49.9°C | 6.9% | 161.1hPa | 2.7V | 08:30:00 | 01:07:53 | 00:00:00 | |
| DL1XH-west | 2026-09-03 11:27:20 | 53.99608 | 14.11025 | 115° | 82km/h | 13379m | 4.2m/s | -49.9°C | 5.4% | 161hPa | 2.7V | 18:12:15 | 01:07:54 | 00:00:00 | |
| DO2SHX-10 | 2026-09-03 11:27:20 | 53.99608 | 14.11025 | 116° | 80km/h | 13380m | 4.2m/s | -49.8°C | 6.9% | 160.9hPa | 2.7V | 00:00:00 | 01:07:54 | 08:30:00 | |
| DL1XH1-15 | 2026-09-03 11:27:19 | 53.99676 | 14.10823 | 119° | 75km/h | 13352m | 3.9m/s | -49.7°C | 7% | 161.6hPa | 2.8V | 08:30:00 | 01:07:47 | 00:00:00 | |
| DO2SHX-10 | 2026-09-03 11:27:17 | 53.99637 | 14.10935 | 122° | 78km/h | 13367m | 4.4m/s | -49.9°C | 7.1% | 161.2hPa | 2.7V | 00:00:00 | 01:07:51 | 00:00:00 | |
| DG6HD-15 | 2026-09-03 11:27:15 | 53.99647 | 14.10906 | 123° | 78km/h | 13363m | 3.2m/s | -49.8°C | 4.4% | 161.4hPa | 2.7V | 00:00:00 | 00:00:00 | 00:00:00 | |
| DL1XH-15 | 2026-09-03 11:27:14 | 53.99716 | 14.10698 | 117° | 89km/h | 13334m | 4.2m/s | -49.6°C | 7.2% | 162.1hPa | 2.7V | 08:30:00 | 01:07:43 | 00:00:00 | |
| DO2SHX-10 | 2026-09-03 11:27:14 | 53.99667 | 14.10851 | 120° | 75km/h | 13356m | 2.7m/s | -49.8°C | 7.1% | 161.5hPa | 2.7V | 00:00:00 | 01:07:48 | 00:00:00 | |
| DJ2DS-15 | 2026-09-03 11:27:13 | 53.99676 | 14.10823 | 120° | 84km/h | 13352m | 3.9m/s | -49.7°C | 7.0% | 161.6hPa | 2.7V | 00:00:00 | 01:07:47 | 00:00:00 | |
| AM1SDL-15 | 2026-09-03 11:27:12 | 53.99685 | 14.10794 | 119° | 84km/h | 13348m | 4.8m/s | -49.7°C | 7.1% | 161.7hPa | 2.7V | 00:00:00 | 01:07:46 | 00:00:00 | |
| DB0DAN | 2026-09-03 11:27:10 | 53.99705 | 14.10732 | 118° | 84km/h | 13338m | 3.9m/s | -49.8°C | 4.5% | 161.98hPa | 2.7V | 00:00:00 | 00:00:00 | 00:00:00 | |
| DL1XH-west | 2026-09-03 11:27:10 | 53.99705 | 14.10732 | 118° | 88km/h | 13338m | 3.9m/s | -49.8°C | 5.6% | 162hPa | 2.7V | 18:12:15 | 01:07:44 | 00:00:00 | |
| DO2SHX-10 | 2026-09-03 11:27:08 | 53.99726 | 14.10664 | 118° | 88km/h | 13329m | 5.8m/s | -49.6°C | 7.1% | 162.2hPa | 2.8V | 00:00:00 | 01:07:42 | 00:00:00 | |
| DL1XH1-15 | 2026-09-03 11:27:05 | 53.99779 | 14.10505 | 122° | 78km/h | 13306m | 6.6m/s | -49.5°C | 6.9% | 162.8hPa | 2.8V | 08:30:00 | 01:07:37 | 00:00:00 | |
| DO2SHX-10 | 2026-09-03 11:27:05 | 53.99757 | 14.10566 | 120° | 82km/h | 13316m | 5.5m/s | -49.5°C | 7.0% | 162.5hPa | 2.7V | 00:00:00 | 01:07:39 | 00:00:00 | |
| DL1XH-15 | 2026-09-03 11:27:04 | 53.99825 | 14.10397 | 124° | 82km/h | 13287m | 4.8m/s | -49.4°C | 6.7% | 163.2hPa | 2.7V | 08:30:00 | 01:07:33 | 00:00:00 | |
| AA1-15 | 2026-09-03 11:27:00 | 53.99813 | 14.10425 | 127° | 77km/h | 13292m | 5.3m/s | -49.4°C | 5.4% | 163.1hPa | 2.7V | 18:12:15 | 01:07:34 | 00:00:00 | |
| DL1XH-west | 2026-09-03 11:26:59 | 53.99825 | 14.10397 | 124° | 82km/h | 13287m | 4.9m/s | -49.4°C | 5.4% | 163.3hPa | 2.7V | 18:12:15 | 01:07:33 | 00:00:00 | |
| DO2SHX-10 | 2026-09-03 11:26:59 | 53.99825 | 14.10397 | 125° | 84km/h | 13287m | 4.8m/s | -49.3°C | 6.7% | 163.2hPa | 2.7V | 00:00:00 | 01:07:33 | 00:00:00 | |
| DL1XH1-15 | 2026-09-03 11:26:58 | 53.99884 | 14.10198 | 116° | 86km/h | 13257m | 4.8m/s | -49.2°C | 7% | 164hPa | 2.7V | 08:30:00 | 01:07:27 | 00:00:00 | |
| SONDE2-11 | 2026-09-03 11:26:57 | 53.99847 | 14.10334 | 117° | 88km/h | 13275m | 5.5m/s | -49.5°C | 4.2% | 163.5hPa | 2.8V | 00:00:00 | 00:00:00 | 00:00:00 | |
| DB0DAN | 2026-09-03 11:26:55 | 53.99866 | 14.10265 | 114° | 84km/h | 13266m | 5.7m/s | -49.4°C | 4.3% | 163.72hPa | 2.8V | 00:00:00 | 00:00:00 | 00:00:00 | |
| DL1XH-15 | 2026-09-03 11:26:54 | 53.99934 | 14.10067 | 126° | 93km/h | 13241m | 5.7m/s | -49.2°C | 6.8% | 164.4hPa | 2.7V | 08:30:00 | 01:07:23 | 00:00:00 | |
| AA1-15 | 2026-09-03 11:26:49 | 53.99934 | 14.10067 | 127° | 93km/h | 13241m | 5.7m/s | -49.2°C | 5.4% | 164.4hPa | 2.7V | 18:12:15 | 01:07:23 | 00:00:00 | |
| DL1XH-west | 2026-09-03 11:26:48 | 53.99948 | 14.10036 | 127° | 88km/h | 13235m | 5m/s | -49.2°C | 5.4% | 164.5hPa | 2.8V | 18:12:15 | 01:07:22 | 00:00:00 | |
| DO2SHX-10 | 2026-09-03 11:26:47 | 53.99960 | 14.10006 | 126° | 80km/h | 13230m | 4.7m/s | -49.2°C | 6.6% | 164.6hPa | 2.7V | 00:00:00 | 01:07:21 | 00:00:00 | |
| DO2SHX-10 | 2026-09-03 11:26:44 | 53.99992 | 14.09917 | 118° | 86km/h | 13216m | 4.1m/s | -49.2°C | 6.6% | 164.9hPa | 2.7V | 00:00:00 | 01:07:18 | 00:00:00 | |
| DL1XH-15 | 2026-09-03 11:26:42 | 54.00049 | 14.09751 | 121° | 97km/h | 13191m | 5.1m/s | -49.4°C | 6.6% | 165.6hPa | 2.7V | 08:30:00 | 01:07:13 | 00:00:00 | |
| AA1-15 | 2026-09-03 11:26:39 | 54.00049 | 14.09751 | 121° | 97km/h | 13191m | 5.1m/s | -49.4°C | 5.3% | 165.6hPa | 2.7V | 18:12:15 | 01:07:13 | 00:00:00 | |
| DL1XH-west | 2026-09-03 11:26:38 | 54.00061 | 14.09715 | 120° | 99km/h | 13186m | 5.1m/s | -49.4°C | 5.3% | 165.8hPa | 2.7V | 18:12:15 | 01:07:12 | 00:00:00 | |
| DO2SHX-10 | 2026-09-03 11:26:38 | 54.00061 | 14.09714 | 121° | 97km/h | 13186m | 5.1m/s | -49.4°C | 6.7% | 165.7hPa | 2.7V | 00:00:00 | 01:07:12 | 00:00:00 | |
| AM1SDL-15 | 2026-09-03 11:26:37 | 54.00074 | 14.09678 | 120° | 97km/h | 13182m | 3.6m/s | -49.4°C | 6.8% | 165.8hPa | 2.7V | 00:00:00 | 01:07:11 | 00:00:00 | |
| DO2SHX-10 | 2026-09-03 11:26:35 | 54.00098 | 14.09608 | 122° | 95km/h | 13174m | 4.3m/s | -49.4°C | 6.8% | 166.0hPa | 2.7V | 00:00:00 | 01:07:09 | 00:00:00 | |
| SP3WXH-11 | 2026-09-03 11:26:34 | 54.00111 | 14.09573 | 122° | 95km/h | 13170m | 3.3m/s | -49.4°C | 4.3% | 166.2hPa | 2.8V | 00:00:00 | 00:00:00 | 00:00:00 | |
| DL1XH-15 | 2026-09-03 11:26:32 | 54.00175 | 14.09396 | 120° | 100km/h | 13151m | 4.3m/s | -49.3°C | 6.9% | 166.7hPa | 2.8V | 08:30:00 | 01:07:03 | 00:00:00 | |
| AA1-15 | 2026-09-03 11:26:29 | 54.00175 | 14.09396 | 120° | 100km/h | 13151m | 4.3m/s | -49.3°C | 5.4% | 166.7hPa | 2.8V | 18:12:15 | 01:07:03 | 00:00:00 | |
| DL1XH-west | 2026-09-03 11:26:27 | 54.00200 | 14.09320 | 118° | 102km/h | 13142m | 5.2m/s | -49.3°C | 5.4% | 166.9hPa | 2.7V | 18:12:15 | 01:07:01 | 00:00:00 | |
| DB0DAN | 2026-09-03 11:26:25 | 54.00223 | 14.09243 | 117° | 97km/h | 13133m | 5.3m/s | -49.4°C | 4.3% | 167.1hPa | 2.8V | 00:00:00 | 00:00:00 | 00:00:00 | |
| DG6HD-11 | 2026-09-03 11:26:23 | 54.00246 | 14.09166 | 117° | 97km/h | 13124m | 4.8m/s | -49.3°C | 6.9% | 167.3hPa | 2.7V | 00:00:00 | 00:00:00 | 00:00:00 | |
| DL1XH-15 | 2026-09-03 11:26:22 | 54.00290 | 14.09017 | 119° | 99km/h | 13108m | 3.5m/s | -49.5°C | 6.8% | 167.7hPa | 2.7V | 08:30:00 | 01:06:53 | 00:00:00 | |
| S3001 | 2026-09-03 11:26:22 | 54.00268 | 14.09090 | 116° | 97km/h | 13116m | 3.7m/s | -49.4°C | 4.3% | 167.6hPa | 2.7V | 00:00:00 | 00:00:00 | 00:00:00 | |
| DO2SHX-10 | 2026-09-03 11:26:20 | 54.00279 | 14.09053 | 118° | 97km/h | 13112m | 4.6m/s | -49.4°C | 6.8% | 167.6hPa | 2.7V | 00:00:00 | 01:06:54 | 00:00:00 | |
| DL1XH1-15 | 2026-09-03 11:26:18 | 54.00371 | 14.08754 | 115° | 99km/h | 13081m | 4.6m/s | -49.3°C | 6.7% | 168.5hPa | 2.7V | 08:30:00 | 01:06:46 | 00:00:00 | |
| AA1-15 | 2026-09-03 11:26:18 | 54.00302 | 14.08980 | 120° | 99km/h | 13105m | 2.9m/s | -49.4°C | 5.4% | 167.8hPa | 2.7V | 18:12:15 | 01:06:52 | 00:00:00 | |
| DL1XH-west | 2026-09-03 11:26:17 | 54.00315 | 14.08944 | 119° | 97km/h | 13101m | 4.5m/s | -49.4°C | 5.4% | 167.9hPa | 2.7V | 18:12:15 | 01:06:51 | 00:00:00 | |
| DO2SHX-10 | 2026-09-03 11:26:17 | 54.00314 | 14.08943 | 120° | 99km/h | 13101m | 4.5m/s | -49.4°C | 6.7% | 167.9hPa | 2.7V | 00:00:00 | 01:06:51 | 00:00:00 | |
| DO2SHX-10 | 2026-09-03 11:26:14 | 54.00349 | 14.08831 | 117° | 100km/h | 13090m | 4.0m/s | -49.3°C | 6.7% | 168.2hPa | 2.8V | 00:00:00 | 01:06:48 | 00:00:00 | |
| DL1XH-15 | 2026-09-03 11:26:13 | 54.00401 | 14.08641 | 113° | 97km/h | 13068m | 5.8m/s | -49.4°C | 7% | 168.8hPa | 2.8V | 08:30:00 | 01:06:43 | 00:00:00 | |
| AA1-15 | 2026-09-03 11:26:08 | 54.00420 | 14.08564 | 112° | 99km/h | 13060m | 3m/s | -49.3°C | 5.5% | 169hPa | 2.7V | 18:12:15 | 01:06:41 | 00:00:00 | |
| DL1XH-west | 2026-09-03 11:26:07 | 54.00429 | 14.08525 | 112° | 97km/h | 13056m | 5m/s | -49.4°C | 5.4% | 169.1hPa | 2.7V | 18:12:15 | 01:06:40 | 00:00:00 | |
| DL1XH1-15 | 2026-09-03 11:26:05 | 54.00457 | 14.08410 | 113° | 97km/h | 13043m | 4.7m/s | -49.3°C | 6.9% | 169.4hPa | 2.8V | 08:30:00 | 01:06:37 | 00:00:00 | |
| DO2SHX-10 | 2026-09-03 11:26:05 | 54.00438 | 14.08486 | 112° | 97km/h | 13052m | 3.6m/s | -49.3°C | 6.9% | 169.2hPa | 2.8V | 00:00:00 | 01:06:39 | 00:00:00 | |
| DL1XH-15 | 2026-09-03 11:26:04 | 54.00498 | 14.08259 | 115° | 95km/h | 13027m | 4.1m/s | -49.3°C | 6.7% | 169.9hPa | 2.8V | 08:30:00 | 01:06:33 | 00:00:00 | |
| SP3WXH-11 | 2026-09-03 11:26:03 | 54.00457 | 14.08410 | 113° | 97km/h | 13043m | 4.7m/s | -49.3°C | 4.3% | 169.4hPa | 2.7V | 00:00:00 | 00:00:00 | 00:00:00 | |
| DO2SHX-10 | 2026-09-03 11:26:02 | 54.00467 | 14.08371 | 115° | 97km/h | 13039m | 2.9m/s | -49.3°C | 6.8% | 169.5hPa | 2.7V | 00:00:00 | 01:06:36 | 00:00:00 | |
| AM1SDL-15 | 2026-09-03 11:26:01 | 54.00477 | 14.08334 | 115° | 89km/h | 13035m | 4.9m/s | -49.3°C | 6.8% | 169.6hPa | 2.7V | 00:00:00 | 01:06:35 | 00:00:00 | |
| DO2SHX-10 | 2026-09-03 11:25:59 | 54.00497 | 14.08259 | 116° | 95km/h | 13027m | 4.0m/s | -49.2°C | 6.7% | 169.8hPa | 2.7V | 00:00:00 | 01:06:33 | 08:30:00 | |
| DL1XH1-15 | 2026-09-03 11:25:58 | 54.00554 | 14.08038 | 110° | 95km/h | 13002m | 4.8m/s | -49.3°C | 6.7% | 170.5hPa | 2.7V | 08:30:00 | 01:06:27 | 00:00:00 | |
| AA1-15 | 2026-09-03 11:25:57 | 54.00528 | 14.08149 | 114° | 93km/h | 13014m | 5m/s | -49.4°C | 5.4% | 170.2hPa | 2.8V | 18:12:15 | 01:06:30 | 00:00:00 | |
| DB0DAN | 2026-09-03 11:25:55 | 54.00537 | 14.08113 | 112° | 88km/h | 13009m | 4.1m/s | -49.4°C | 4.2% | 170.31hPa | 2.8V | 00:00:00 | 00:00:00 | 00:00:00 | |
| DL1XH-west | 2026-09-03 11:25:55 | 54.00537 | 14.08113 | 112° | 93km/h | 13009m | 4.1m/s | -49.4°C | 5.3% | 170.3hPa | 2.8V | 18:12:15 | 01:06:29 | 00:00:00 | |
| AA1-15 | 2026-09-03 11:25:46 | 54.00615 | 14.07773 | 115° | 95km/h | 12975m | 2.8m/s | -49.4°C | 5.4% | 171.2hPa | 2.7V | 18:12:15 | 01:06:20 | 00:00:00 | |
| DL1XH1-15 | 2026-09-03 11:25:45 | 54.00645 | 14.07665 | 114° | 89km/h | 12964m | 3.7m/s | -49.4°C | 6.9% | 171.5hPa | 2.8V | 08:30:00 | 01:06:17 | 00:00:00 | |
| DL1XH-west | 2026-09-03 11:25:44 | 54.00636 | 14.07700 | 115° | 91km/h | 12968m | 4.5m/s | -49.4°C | 5.4% | 171.4hPa | 2.8V | 18:12:15 | 01:06:18 | 00:00:00 | |
| DO2SHX-10 | 2026-09-03 11:25:44 | 54.00636 | 14.07700 | 116° | 91km/h | 12968m | 4.4m/s | -49.4°C | 6.9% | 171.4hPa | 2.7V | 00:00:00 | 01:06:18 | 00:00:00 | |
| DB0DAN | 2026-09-03 11:25:40 | 54.00673 | 14.07559 | 113° | 86km/h | 12952m | 3.3m/s | -49.6°C | 4.5% | 171.83hPa | 2.7V | 00:00:00 | 00:00:00 | 00:00:00 | |
| DL1XH1-15 | 2026-09-03 11:25:39 | 54.00727 | 14.07303 | 105° | 91km/h | 12922m | 4.7m/s | -49.8°C | 6.9% | 172.6hPa | 2.8V | 08:30:00 | 01:06:07 | 00:00:00 | |
| AA1-15 | 2026-09-03 11:25:35 | 54.00714 | 14.07379 | 108° | 93km/h | 12931m | 3.8m/s | -49.7°C | 5.5% | 172.4hPa | 2.7V | 18:12:15 | 01:06:09 | 00:00:00 | |
| DL1XH-west | 2026-09-03 11:25:33 | 54.00727 | 14.07303 | 105° | 91km/h | 12922m | 4.7m/s | -49.8°C | 5.4% | 172.6hPa | 2.8V | 18:12:15 | 01:06:07 | 00:00:00 | |
| DO2SHX-10 | 2026-09-03 11:25:32 | 54.00733 | 14.07266 | 106° | 88km/h | 12918m | 3.1m/s | -49.7°C | 6.9% | 172.7hPa | 2.7V | 00:00:00 | 01:06:06 | 08:30:00 | |
| DJ2DS-15 | 2026-09-03 11:25:31 | 54.00739 | 14.07229 | 106° | 84km/h | 12915m | 3.7m/s | -49.7°C | 6.9% | 172.8hPa | 2.8V | 00:00:00 | 01:06:05 | 00:00:00 | |
| DO2SHX-10 | 2026-09-03 11:25:29 | 54.00751 | 14.07157 | 107° | 86km/h | 12906m | 3.0m/s | -49.6°C | 6.9% | 173.0hPa | 2.8V | 00:00:00 | 01:06:03 | 00:00:00 | |
| DL1XH1-15 | 2026-09-03 11:25:26 | 54.00791 | 14.06950 | 110° | 84km/h | 12880m | 4.3m/s | -49.5°C | 6.9% | 173.7hPa | 2.8V | 08:30:00 | 01:05:57 | 00:00:00 | |
| AA1-15 | 2026-09-03 11:25:25 | 54.00776 | 14.07018 | 109° | 84km/h | 12888m | 5.7m/s | -49.5°C | 5.5% | 173.5hPa | 2.7V | 18:12:15 | 01:05:59 | 00:00:00 | |
| DL1XH-west | 2026-09-03 11:25:23 | 54.00791 | 14.06950 | 110° | 84km/h | 12880m | 4.3m/s | -49.5°C | 5.4% | 173.7hPa | 2.8V | 18:12:15 | 01:05:57 | 00:00:00 | |
| AA1-15 | 2026-09-03 11:25:14 | 54.00850 | 14.06647 | 109° | 86km/h | 12843m | 5.2m/s | -49.4°C | 5.5% | 174.7hPa | 2.7V | 18:12:15 | 01:05:48 | 00:00:00 | |
| DL1XH-15 | 2026-09-03 11:25:14 | 54.00886 | 14.06475 | 109° | 82km/h | 12821m | 5.2m/s | -49.4°C | 6.8% | 175.3hPa | 2.7V | 08:30:00 | 01:05:43 | 00:00:00 | |
| DL1XH-west | 2026-09-03 11:25:13 | 54.00857 | 14.06613 | 110° | 86km/h | 12839m | 3.6m/s | -49.4°C | 5.5% | 174.8hPa | 2.8V | 18:12:15 | 01:05:47 | 00:00:00 | |
| DB0DAN | 2026-09-03 11:25:10 | 54.00879 | 14.06509 | 109° | 78km/h | 12826m | 3.1m/s | -49.4°C | 4.4% | 175.16hPa | 2.7V | 00:00:00 | 00:00:00 | 00:00:00 | |
| AA1-15 | 2026-09-03 11:25:04 | 54.00919 | 14.06317 | 109° | 77km/h | 12800m | 5.2m/s | -49.4°C | 5.5% | 175.8hPa | 2.7V | 18:12:15 | 01:05:38 | 00:00:00 | |
| DL1XH-15 | 2026-09-03 11:25:04 | 54.00959 | 14.06152 | 114° | 86km/h | 12779m | 3.7m/s | -49.4°C | 7% | 176.4hPa | 2.7V | 08:30:00 | 01:05:33 | 00:00:00 | |
| DL1XH-west | 2026-09-03 11:25:03 | 54.00926 | 14.06285 | 110° | 80km/h | 12795m | 3.9m/s | -49.3°C | 5.5% | 176hPa | 2.7V | 18:12:15 | 01:05:37 | 00:00:00 | |
| DO2SHX-10 | 2026-09-03 11:25:02 | 54.00933 | 14.06253 | 113° | 86km/h | 12792m | 2.2m/s | -49.3°C | 6.9% | 176.0hPa | 2.7V | 00:00:00 | 01:05:36 | 00:00:00 | |
| SP3WXH-11 | 2026-09-03 11:25:01 | 54.00941 | 14.06219 | 112° | 84km/h | 12788m | 5.2m/s | -49.3°C | 4.4% | 176.2hPa | 2.7V | 00:00:00 | 00:00:00 | 00:00:00 | |
| EDDB2-11 | 2026-09-03 11:25:00 | 54.00950 | 14.06185 | 113° | 86km/h | 12783m | 4.5m/s | -49.3°C | 4.4% | 176.3hPa | 2.7V | 00:00:00 | 00:00:00 | 00:00:00 | |
| DO2SHX-10 | 2026-09-03 11:24:59 | 54.00958 | 14.06152 | 115° | 84km/h | 12780m | 3.7m/s | -49.3°C | 7.0% | 176.4hPa | 2.7V | 00:00:00 | 01:05:33 | 00:00:00 | |
| AM1SDL-15 | 2026-09-03 11:24:57 | 54.00975 | 14.06086 | 114° | 86km/h | 12771m | 3.4m/s | -49.4°C | 7.0% | 176.6hPa | 2.7V | 00:00:00 | 01:05:31 | 00:00:00 | |
| DG6HD-15 | 2026-09-03 11:24:56 | 54.00976 | 14.06086 | 115° | 82km/h | 12771m | 3.5m/s | -49.4°C | 4.5% | 176.6hPa | 2.7V | 00:00:00 | 00:00:00 | 00:00:00 | |
| DB0DAN | 2026-09-03 11:24:55 | 54.00994 | 14.06021 | 117° | 80km/h | 12763m | 4.2m/s | -49.3°C | 4.4% | 176.83hPa | 2.7V | 00:00:00 | 00:00:00 | 00:00:00 | |
| AA1-15 | 2026-09-03 11:24:54 | 54.01003 | 14.05988 | 117° | 88km/h | 12759m | 3.8m/s | -49.3°C | 5.5% | 176.9hPa | 2.7V | 18:12:15 | 01:05:28 | 00:00:00 | |
| DL1XH-15 | 2026-09-03 11:24:54 | 54.01051 | 14.05820 | 115° | 84km/h | 12740m | 4m/s | -49.5°C | 6.9% | 177.4hPa | 2.7V | 08:30:00 | 01:05:23 | 00:00:00 | |
| DL1XH-west | 2026-09-03 11:24:52 | 54.01023 | 14.05921 | 115° | 88km/h | 12751m | 4.5m/s | -49.4°C | 5.5% | 177.2hPa | 2.8V | 18:12:15 | 01:05:26 | 00:00:00 | |
| DL1XH1-15 | 2026-09-03 11:24:51 | 54.01080 | 14.05726 | 120° | 80km/h | 12728m | 4m/s | -49.6°C | 6.9% | 177.8hPa | 2.8V | 08:30:00 | 01:05:20 | 00:00:00 | |
| AA1-15 | 2026-09-03 11:24:44 | 54.01101 | 14.05667 | 121° | 78km/h | 12720m | 2.9m/s | -49.6°C | 5.5% | 178hPa | 2.7V | 18:12:15 | 01:05:18 | 00:00:00 | |
| DL1XH-west | 2026-09-03 11:24:41 | 54.01134 | 14.05579 | 124° | 82km/h | 12709m | 3.6m/s | -49.5°C | 5.5% | 178.3hPa | 2.8V | 18:12:15 | 01:05:15 | 00:00:00 | |
| DB0DAN | 2026-09-03 11:24:40 | 54.01146 | 14.05550 | 125° | 78km/h | 12705m | 4.2m/s | -49.5°C | 4.3% | 178.43hPa | 2.8V | 00:00:00 | 00:00:00 | 00:00:00 | |
| DO2SHX-10 | 2026-09-03 11:24:38 | 54.01169 | 14.05490 | 122° | 84km/h | 12696m | 3.2m/s | -49.4°C | 6.9% | 178.6hPa | 2.7V | 00:00:00 | 01:05:12 | 08:30:00 | |
| DG6HD-15 | 2026-09-03 11:24:36 | 54.01180 | 14.05460 | 123° | 84km/h | 12693m | 4.1m/s | -49.4°C | 4.4% | 178.8hPa | 2.8V | 00:00:00 | 00:00:00 | 00:00:00 | |
| DO2SHX-10 | 2026-09-03 11:24:35 | 54.01202 | 14.05398 | 123° | 88km/h | 12684m | 4.1m/s | -49.3°C | 6.9% | 179.0hPa | 2.8V | 00:00:00 | 01:05:09 | 00:00:00 | |
| DL1XH-15 | 2026-09-03 11:24:34 | 54.01274 | 14.05202 | 125° | 91km/h | 12657m | 2.9m/s | -49.3°C | 6.7% | 179.8hPa | 2.8V | 08:30:00 | 01:05:03 | 00:00:00 | |
| AA1-15 | 2026-09-03 11:24:34 | 54.01214 | 14.05366 | 121° | 88km/h | 12680m | 4.3m/s | -49.4°C | 5.5% | 179.2hPa | 2.8V | 18:12:15 | 01:05:08 | 00:00:00 | |
| DL1XH-west | 2026-09-03 11:24:31 | 54.01248 | 14.05267 | 121° | 91km/h | 12666m | 3.8m/s | -49.3°C | 5.5% | 179.5hPa | 2.8V | 18:12:15 | 01:05:05 | 00:00:00 | |
| DL1XH1-15 | 2026-09-03 11:24:31 | 54.01313 | 14.05104 | 120° | 91km/h | 12644m | 3.2m/s | -49.5°C | 6.6% | 180.1hPa | 2.7V | 08:30:00 | 01:05:00 | 00:00:00 | |
| DJ2DS-15 | 2026-09-03 11:24:31 | 54.01248 | 14.05267 | 122° | 95km/h | 12667m | 3.8m/s | -49.3°C | 6.9% | 179.5hPa | 2.7V | 00:00:00 | 01:05:05 | 00:00:00 | |
| SP3WXH-11 | 2026-09-03 11:24:30 | 54.01261 | 14.05234 | 123° | 91km/h | 12661m | 5.6m/s | -49.3°C | 4.4% | 179.6hPa | 2.7V | 00:00:00 | 00:00:00 | 00:00:00 | |
| DO2SHX-10 | 2026-09-03 11:24:29 | 54.01274 | 14.05202 | 126° | 91km/h | 12657m | 2.8m/s | -49.3°C | 6.7% | 179.7hPa | 2.7V | 00:00:00 | 01:05:03 | 00:00:00 | |
| DO2SHX-10 | 2026-09-03 11:24:26 | 54.01313 | 14.05104 | 121° | 91km/h | 12644m | 3.1m/s | -49.5°C | 6.6% | 180.1hPa | 2.8V | 00:00:00 | 01:05:00 | 00:00:00 | |
| DL1XH-15 | 2026-09-03 11:24:24 | 54.01395 | 14.04861 | 121° | 99km/h | 12611m | 4.8m/s | -49.6°C | 7% | 181hPa | 2.8V | 08:30:00 | 01:04:53 | 00:00:00 | |
| AA1-15 | 2026-09-03 11:24:23 | 54.01347 | 14.05000 | 118° | 93km/h | 12630m | 4.4m/s | -49.6°C | 5.5% | 180.5hPa | 2.8V | 18:12:15 | 01:04:57 | 00:00:00 | |
| DL1XH-west | 2026-09-03 11:24:20 | 54.01382 | 14.04896 | 121° | 95km/h | 12616m | 4.7m/s | -49.6°C | 5.6% | 180.9hPa | 2.8V | 18:12:15 | 01:04:54 | 00:00:00 | |
| DO2SHX-10 | 2026-09-03 11:24:20 | 54.01382 | 14.04896 | 122° | 99km/h | 12616m | 4.7m/s | -49.6°C | 7.0% | 180.8hPa | 2.7V | 00:00:00 | 01:04:54 | 00:00:00 | |
| DL1XH1-15 | 2026-09-03 11:24:19 | 54.01435 | 14.04753 | 122° | 97km/h | 12599m | 4.6m/s | -49.7°C | 7% | 181.3hPa | 2.7V | 08:30:00 | 01:04:50 | 00:00:00 | |
| DO2SHX-10 | 2026-09-03 11:24:17 | 54.01421 | 14.04788 | 123° | 97km/h | 12604m | 4.7m/s | -49.6°C | 6.9% | 181.2hPa | 2.8V | 00:00:00 | 01:04:51 | 00:00:00 | |
| DG6HD-15 | 2026-09-03 11:24:16 | 54.01421 | 14.04788 | 123° | 99km/h | 12604m | 4.7m/s | -49.7°C | 4.4% | 181.2hPa | 2.8V | 00:00:00 | 00:00:00 | 00:00:00 | |
| DL1XH-15 | 2026-09-03 11:24:14 | 54.01522 | 14.04513 | 121° | 93km/h | 12571m | 4.9m/s | -49.9°C | 7.3% | 182.1hPa | 2.8V | 08:30:00 | 01:04:43 | 00:00:00 | |
| AA1-15 | 2026-09-03 11:24:12 | 54.01485 | 14.04614 | 122° | 93km/h | 12583m | 4.7m/s | -49.9°C | 5.7% | 181.8hPa | 2.8V | 18:12:15 | 01:04:46 | 00:00:00 | |
| DL1XH1-15 | 2026-09-03 11:24:11 | 54.01557 | 14.04403 | 116° | 99km/h | 12559m | 4.3m/s | -49.9°C | 7.2% | 182.5hPa | 2.7V | 08:30:00 | 01:04:40 | 00:00:00 | |
| DB0DAN | 2026-09-03 11:24:10 | 54.01510 | 14.04547 | 122° | 88km/h | 12575m | 2.6m/s | -49.8°C | 4.6% | 182.01hPa | 2.7V | 00:00:00 | 00:00:00 | 00:00:00 | |
| DL1XH-west | 2026-09-03 11:24:09 | 54.01523 | 14.04513 | 121° | 93km/h | 12571m | 4.9m/s | -49.9°C | 5.8% | 182.1hPa | 2.8V | 18:12:15 | 01:04:43 | 00:00:00 | |
| DO2SHX-10 | 2026-09-03 11:24:08 | 54.01534 | 14.04478 | 119° | 99km/h | 12567m | 4.2m/s | -49.8°C | 7.3% | 182.2hPa | 2.7V | 00:00:00 | 01:04:42 | 00:00:00 | |
| DL1XH-15 | 2026-09-03 11:24:05 | 54.01641 | 14.04143 | 120° | 93km/h | 12525m | 3.9m/s | -50°C | 6.8% | 183.4hPa | 2.7V | 08:30:00 | 01:04:33 | 00:00:00 | |
| AA1-15 | 2026-09-03 11:24:01 | 54.01616 | 14.04213 | 121° | 97km/h | 12534m | 4.9m/s | -50°C | 5.6% | 183.2hPa | 2.8V | 18:12:15 | 01:04:35 | 00:00:00 | |
| DL1XH-west | 2026-09-03 11:23:59 | 54.01653 | 14.04109 | 119° | 93km/h | 12521m | 4.4m/s | -50°C | 5.6% | 183.5hPa | 2.8V | 18:12:15 | 01:04:32 | 00:00:00 | |
| EDDB2-11 | 2026-09-03 11:23:58 | 54.01675 | 14.04037 | 115° | 95km/h | 12511m | 4.7m/s | -49.9°C | 4.3% | 183.8hPa | 2.7V | 00:00:00 | 00:00:00 | 00:00:00 | |
| AM1SDL-15 | 2026-09-03 11:23:57 | 54.01664 | 14.04073 | 118° | 99km/h | 12517m | 5.4m/s | -49.9°C | 6.8% | 183.6hPa | 2.7V | 00:00:00 | 01:04:31 | 00:00:00 | |
| DB0DAN | 2026-09-03 11:23:55 | 54.01685 | 14.04000 | 113° | 93km/h | 12507m | 4.6m/s | -49.9°C | 4.4% | 183.88hPa | 2.7V | 00:00:00 | 00:00:00 | 00:00:00 | |
| DL1XH-15 | 2026-09-03 11:23:54 | 54.01736 | 14.03759 | 107° | 102km/h | 12479m | 5.1m/s | -50°C | 7.3% | 184.7hPa | 2.7V | 08:30:00 | 01:04:23 | 00:00:00 | |
| AA1-15 | 2026-09-03 11:23:51 | 54.01720 | 14.03841 | 109° | 99km/h | 12488m | 4m/s | -49.9°C | 5.8% | 184.5hPa | 2.8V | 18:12:15 | 01:04:25 | 00:00:00 | |
| DL1XH-west | 2026-09-03 11:23:48 | 54.01743 | 14.03717 | 107° | 102km/h | 12474m | 3.3m/s | -49.9°C | 5.8% | 184.8hPa | 2.7V | 18:12:15 | 01:04:22 | 00:00:00 | |
| S3001 | 2026-09-03 11:23:46 | 54.01758 | 14.03635 | 108° | 97km/h | 12466m | 3.9m/s | -50.0°C | 4.6% | 185.1hPa | 2.8V | 00:00:00 | 00:00:00 | 00:00:00 | |
| AM1SDL-15 | 2026-09-03 11:23:45 | 54.01766 | 14.03595 | 109° | 99km/h | 12462m | 3.3m/s | -50.0°C | 7.1% | 185.1hPa | 2.8V | 00:00:00 | 01:04:19 | 00:00:00 | |
| DL1XH-15 | 2026-09-03 11:23:44 | 54.01813 | 14.03354 | 107° | 100km/h | 12436m | 5.5m/s | -50.3°C | 7.1% | 185.9hPa | 2.8V | 08:30:00 | 01:04:13 | 00:00:00 | |
| DO2SHX-10 | 2026-09-03 11:23:44 | 54.01774 | 14.03555 | 109° | 99km/h | 12458m | 5.3m/s | -50.1°C | 7.1% | 185.3hPa | 2.7V | 00:00:00 | 01:04:18 | 08:30:00 | |
| DB0DAN | 2026-09-03 11:23:40 | 54.01805 | 14.03394 | 108° | 95km/h | 12440m | 2.5m/s | -50.2°C | 4.7% | 185.8hPa | 2.8V | 00:00:00 | 00:00:00 | 00:00:00 | |
| AA1-15 | 2026-09-03 11:23:40 | 54.01805 | 14.03394 | 108° | 99km/h | 12440m | 2.5m/s | -50.2°C | 5.9% | 185.8hPa | 2.8V | 18:12:15 | 01:04:14 | 00:00:00 | |
| DL1XH1-15 | 2026-09-03 11:23:39 | 54.01821 | 14.03312 | 108° | 102km/h | 12431m | 4m/s | -50.4°C | 7.1% | 186.1hPa | 2.7V | 08:30:00 | 01:04:12 | 00:00:00 | |
| DL1XH-west | 2026-09-03 11:23:37 | 54.01830 | 14.03271 | 110° | 102km/h | 12427m | 4.8m/s | -50.4°C | 6% | 186.2hPa | 2.7V | 18:12:15 | 01:04:11 | 00:00:00 | |
| AA1-15 | 2026-09-03 11:23:30 | 54.01894 | 14.02988 | 113° | 97km/h | 12398m | 4.2m/s | -50.5°C | 6% | 187hPa | 2.8V | 18:12:15 | 01:04:04 | 00:00:00 | |
| DL1XH-west | 2026-09-03 11:23:27 | 54.01923 | 14.02873 | 112° | 99km/h | 12385m | 4.2m/s | -50.4°C | 6.1% | 187.4hPa | 2.7V | 18:12:15 | 01:04:01 | 00:00:00 | |
| DB0DAN | 2026-09-03 11:23:25 | 54.01941 | 14.02796 | 111° | 89km/h | 12376m | 4m/s | -50.5°C | 4.9% | 187.65hPa | 2.8V | 00:00:00 | 00:00:00 | 00:00:00 | |
| DO2SHX-10 | 2026-09-03 11:23:23 | 54.01958 | 14.02720 | 113° | 95km/h | 12368m | 4.0m/s | -50.4°C | 7.6% | 187.9hPa | 2.8V | 00:00:00 | 01:03:57 | 00:00:00 | |
| DL1XH-15 | 2026-09-03 11:23:21 | 54.01993 | 14.02571 | 109° | 91km/h | 12351m | 4.1m/s | -50.4°C | 7.5% | 188.3hPa | 2.8V | 08:30:00 | 01:03:53 | 00:00:00 | |
| AA1-15 | 2026-09-03 11:23:19 | 54.01993 | 14.02571 | 110° | 91km/h | 12351m | 4.1m/s | -50.4°C | 6.3% | 188.4hPa | 2.8V | 18:12:15 | 01:03:53 | 00:00:00 | |
| DL1XH-west | 2026-09-03 11:23:13 | 54.02039 | 14.02350 | 110° | 89km/h | 12327m | 3.8m/s | -50.8°C | 6.5% | 189hPa | 2.8V | 18:12:15 | 01:03:47 | 00:00:00 | |
| DL1XH-15 | 2026-09-03 11:23:11 | 54.02073 | 14.02206 | 113° | 88km/h | 12312m | 5.3m/s | -50.9°C | 8% | 189.5hPa | 2.7V | 08:30:00 | 01:03:43 | 00:00:00 | |
| AA1-15 | 2026-09-03 11:23:08 | 54.02082 | 14.02171 | 114° | 86km/h | 12307m | 4.8m/s | -50.8°C | 6.9% | 189.7hPa | 2.8V | 18:12:15 | 01:03:42 | 00:00:00 | |
| AM1SDL-15 | 2026-09-03 11:23:07 | 54.02091 | 14.02138 | 118° | 91km/h | 12303m | 3.6m/s | -50.6°C | 8.0% | 189.7hPa | 2.8V | 00:00:00 | 01:03:41 | 00:00:00 | |
| DO2SHX-10 | 2026-09-03 11:23:05 | 54.02112 | 14.02073 | 120° | 89km/h | 12294m | 3.5m/s | -50.6°C | 8.1% | 190.0hPa | 2.8V | 00:00:00 | 01:03:39 | 00:00:00 | |
| DO2SHX-10 | 2026-09-03 11:23:02 | 54.02142 | 14.01970 | 112° | 93km/h | 12281m | 2.8m/s | -50.5°C | 7.8% | 190.4hPa | 2.8V | 00:00:00 | 01:03:36 | 00:00:00 | |
| DL1XH-15 | 2026-09-03 11:23:01 | 54.02168 | 14.01857 | 111° | 97km/h | 12265m | 6.5m/s | -50.5°C | 8% | 190.9hPa | 2.8V | 08:30:00 | 01:03:33 | 00:00:00 | |
| DL1XH-west | 2026-09-03 11:23:00 | 54.02159 | 14.01895 | 110° | 95km/h | 12271m | 5.2m/s | -50.5°C | 7.2% | 190.7hPa | 2.8V | 18:12:15 | 01:03:34 | 00:00:00 | |
| AA1-15 | 2026-09-03 11:22:58 | 54.02177 | 14.01819 | 115° | 97km/h | 12260m | 4.5m/s | -50.5°C | 7.3% | 191.1hPa | 2.7V | 18:12:15 | 01:03:32 | 00:00:00 | |
| SP3WXH-11 | 2026-09-03 11:22:57 | 54.02199 | 14.01745 | 118° | 95km/h | 12251m | 8.7m/s | -50.8°C | 5.5% | 191.3hPa | 2.8V | 00:00:00 | 00:00:00 | 00:00:00 | |
| EDDB2-11 | 2026-09-03 11:22:56 | 54.02199 | 14.01745 | 118° | 95km/h | 12251m | 8.7m/s | -50.8°C | 5.5% | 191.3hPa | 2.8V | 00:00:00 | 00:00:00 | 00:00:00 | |
| DB0DAN | 2026-09-03 11:22:55 | 54.02210 | 14.01710 | 118° | 89km/h | 12244m | 7.7m/s | -51°C | 5.6% | 191.5hPa | 2.8V | 00:00:00 | 00:00:00 | 00:00:00 | |
| DO2SHX-10 | 2026-09-03 11:22:53 | 54.02232 | 14.01639 | 119° | 91km/h | 12233m | 9.7m/s | -51.2°C | 8.5% | 191.8hPa | 2.8V | 00:00:00 | 01:03:27 | 00:00:00 | |
| DL1XH-15 | 2026-09-03 11:22:51 | 54.02276 | 14.01498 | 115° | 97km/h | 12205m | 6.8m/s | -51.2°C | 8.6% | 192.7hPa | 2.8V | 08:30:00 | 01:03:23 | 00:00:00 | |
| DL1XH-west | 2026-09-03 11:22:49 | 54.02276 | 14.01498 | 116° | 97km/h | 12205m | 6.8m/s | -51.2°C | 7.9% | 192.7hPa | 2.8V | 18:12:15 | 01:03:23 | 00:00:00 | |
| AA1-15 | 2026-09-03 11:22:48 | 54.02286 | 14.01460 | 115° | 100km/h | 12201m | 3.1m/s | -51.3°C | 7.9% | 192.8hPa | 2.8V | 18:12:15 | 01:03:22 | 00:00:00 | |
| DO2SHX-10 | 2026-09-03 11:22:47 | 54.02297 | 14.01421 | 116° | 102km/h | 12194m | 9.8m/s | -51.3°C | 8.6% | 193.0hPa | 2.7V | 00:00:00 | 01:03:21 | 00:00:00 | |
| DL1XH1-15 | 2026-09-03 11:22:45 | 54.02330 | 14.01300 | 114° | 108km/h | 12177m | 9m/s | -51.5°C | 8.5% | 193.5hPa | 2.7V | 08:30:00 | 01:03:18 | 00:00:00 | |
| DL1XH-15 | 2026-09-03 11:22:44 | 54.02380 | 14.01094 | 112° | 95km/h | 12151m | 3.3m/s | -51.5°C | 8.7% | 194.3hPa | 2.7V | 08:30:00 | 01:03:13 | 00:00:00 | |
| DL1XH-west | 2026-09-03 11:22:38 | 54.02389 | 14.01056 | 113° | 95km/h | 12146m | 9.4m/s | -51.6°C | 8.1% | 194.5hPa | 2.8V | 18:12:15 | 01:03:12 | 00:00:00 | |
| AA1-15 | 2026-09-03 11:22:37 | 54.02398 | 14.01019 | 115° | 95km/h | 12138m | 6.2m/s | -51.7°C | 8.2% | 194.7hPa | 2.8V | 18:12:15 | 01:03:11 | 00:00:00 | |
| AA1-15 | 2026-09-03 11:22:27 | 54.02496 | 14.00672 | 110° | 89km/h | 12084m | 3.2m/s | -52°C | 9.1% | 196.4hPa | 2.7V | 18:12:15 | 01:03:01 | 00:00:00 | |
| DB0DAN | 2026-09-03 11:22:25 | 54.02511 | 14.00598 | 109° | 91km/h | 12070m | 5.5m/s | -52.2°C | 6.6% | 196.75hPa | 2.8V | 00:00:00 | 00:00:00 | 00:00:00 | |
| AA1-15 | 2026-09-03 11:22:16 | 54.02590 | 14.00229 | 111° | 97km/h | 12019m | 6m/s | -52.8°C | 10.3% | 198.3hPa | 2.7V | 18:12:15 | 01:02:50 | 00:00:00 | |
| DO2SHX-10 | 2026-09-03 11:22:14 | 54.02608 | 14.00156 | 114° | 89km/h | 12009m | 8.2m/s | -53.0°C | 10.8% | 198.6hPa | 2.7V | 00:00:00 | 01:02:48 | 00:00:00 | |
| S3001 | 2026-09-03 11:22:13 | 54.02618 | 14.00121 | 115° | 88km/h | 12001m | 6.6m/s | -53.1°C | 7.8% | 198.8hPa | 2.7V | 00:00:00 | 00:00:00 | 00:00:00 | |
| DL1XH-west | 2026-09-03 11:22:13 | 54.02618 | 14.00121 | 115° | 88km/h | 12001m | 6.6m/s | -53.1°C | 10.7% | 198.8hPa | 2.8V | 18:12:15 | 01:02:47 | 00:00:00 | |
| DL1XH-15 | 2026-09-03 11:22:11 | 54.02655 | 13.99976 | 112° | 97km/h | 11981m | 5.5m/s | -53.6°C | 11.3% | 199.4hPa | 2.7V | 08:30:00 | 01:02:43 | 00:00:00 | |
| DB0DAN | 2026-09-03 11:22:10 | 54.02646 | 14.00015 | 113° | 91km/h | 11986m | 3.9m/s | -53.4°C | 8% | 199.37hPa | 2.7V | 00:00:00 | 00:00:00 | 00:00:00 | |
| AA1-15 | 2026-09-03 11:22:06 | 54.02683 | 13.99860 | 111° | 97km/h | 11967m | 7.7m/s | -53.7°C | 11.4% | 199.9hPa | 2.8V | 18:12:15 | 01:02:40 | 00:00:00 | |
| DO2SHX-10 | 2026-09-03 11:22:05 | 54.02692 | 13.99821 | 112° | 99km/h | 11960m | 5.5m/s | -53.7°C | 11.8% | 200.0hPa | 2.7V | 00:00:00 | 01:02:39 | 00:00:00 | |
| DL1XH-15 | 2026-09-03 11:22:04 | 54.02750 | 13.99597 | 113° | 88km/h | 11931m | 3.6m/s | -54°C | 12.6% | 201hPa | 2.8V | 08:30:00 | 01:02:33 | 00:00:00 | |
| DL1XH-west | 2026-09-03 11:22:03 | 54.02711 | 13.99743 | 113° | 100km/h | 11951m | 5.9m/s | -53.8°C | 11.8% | 200.4hPa | 2.7V | 18:12:15 | 01:02:37 | 00:00:00 | |
| SP3BTT-10 | 2026-09-03 11:22:02 | 54.02721 | 13.99704 | 115° | 91km/h | 11945m | 5.5m/s | -53.8°C | 12.3% | 200.5hPa | 2.7V | 00:00:00 | 00:00:00 | 00:00:00 | |
| DL1XH1-15 | 2026-09-03 11:21:59 | 54.02790 | 13.99429 | 114° | 80km/h | 11904m | 5.4m/s | -54.3°C | 13.3% | 201.8hPa | 2.8V | 08:30:00 | 01:02:28 | 00:00:00 | |
| SP3WXH-11 | 2026-09-03 11:21:55 | 54.02782 | 13.99462 | 111° | 82km/h | 11910m | 7.8m/s | -54.3°C | 9.6% | 201.6hPa | 2.8V | 00:00:00 | 00:00:00 | 00:00:00 | |
| AA1-15 | 2026-09-03 11:21:55 | 54.02782 | 13.99462 | 112° | 84km/h | 11910m | 7.8m/s | -54.3°C | 12.7% | 201.6hPa | 2.8V | 18:12:15 | 01:02:29 | 00:00:00 | |
| DL1XH-15 | 2026-09-03 11:21:54 | 54.02836 | 13.99268 | 116° | 86km/h | 11879m | 3.7m/s | -54.4°C | 13.3% | 202.6hPa | 2.8V | 08:30:00 | 01:02:23 | 00:00:00 | |
| DL1XH-west | 2026-09-03 11:21:53 | 54.02808 | 13.99366 | 116° | 82km/h | 11894m | 4.8m/s | -54.3°C | 12.8% | 202.1hPa | 2.7V | 18:12:15 | 01:02:26 | 00:00:00 | |
| MECKS9 | 2026-09-03 11:21:52 | 54.02799 | 13.99397 | 117° | 82km/h | 11899m | 4.4m/s | -54.3°C | 9.6% | 201.9hPa | 2.7V | 00:00:00 | 00:00:00 | 00:00:00 | |
| DO2SHX-10 | 2026-09-03 11:21:50 | 54.02826 | 13.99301 | 116° | 86km/h | 11884m | 6.5m/s | -54.3°C | 13.3% | 202.3hPa | 2.7V | 00:00:00 | 01:02:24 | 00:00:00 | |
| DO2SHX-10 | 2026-09-03 11:21:47 | 54.02855 | 13.99202 | 118° | 86km/h | 11870m | 6.7m/s | -54.3°C | 13.4% | 202.8hPa | 2.7V | 00:00:00 | 01:02:21 | 00:00:00 | |
| DL1XH1-15 | 2026-09-03 11:21:45 | 54.02885 | 13.99106 | 117° | 82km/h | 11856m | 5m/s | -54.3°C | 13.7% | 203.4hPa | 2.7V | 08:30:00 | 01:02:18 | 00:00:00 | |
| AA1-15 | 2026-09-03 11:21:45 | 54.02876 | 13.99138 | 118° | 84km/h | 11860m | 3.1m/s | -54.3°C | 13.3% | 203.2hPa | 2.7V | 18:12:15 | 01:02:19 | 00:00:00 | |
| DL1XH-west | 2026-09-03 11:21:42 | 54.02915 | 13.99019 | 123° | 77km/h | 11843m | 5.9m/s | -54.3°C | 13.6% | 203.7hPa | 2.8V | 18:12:15 | 01:02:15 | 00:00:00 | |
| MECKS9 | 2026-09-03 11:21:42 | 54.02905 | 13.99047 | 121° | 77km/h | 11849m | 5.2m/s | -54.3°C | 10.1% | 203.6hPa | 2.8V | 00:00:00 | 00:00:00 | 00:00:00 | |
| DO2SHX-10 | 2026-09-03 11:21:41 | 54.02915 | 13.99019 | 124° | 78km/h | 11843m | 5.9m/s | -54.3°C | 14.0% | 203.7hPa | 2.8V | 00:00:00 | 01:02:15 | 00:00:00 | |
| DL1XH1-15 | 2026-09-03 11:21:39 | 54.02995 | 13.98812 | 122° | 86km/h | 11813m | 4.5m/s | -54.2°C | 13.9% | 204.8hPa | 2.8V | 08:30:00 | 01:02:08 | 00:00:00 | |
| DO2SHX-10 | 2026-09-03 11:21:38 | 54.02949 | 13.98934 | 124° | 84km/h | 11830m | 5.3m/s | -54.2°C | 14.0% | 204.1hPa | 2.7V | 00:00:00 | 01:02:12 | 00:00:00 | |
| DO2SHX-10 | 2026-09-03 11:21:35 | 54.02983 | 13.98842 | 123° | 86km/h | 11817m | 4.3m/s | -54.2°C | 14.0% | 204.6hPa | 2.8V | 00:00:00 | 01:02:09 | 00:00:00 | |
| DL1XH-15 | 2026-09-03 11:21:34 | 54.03053 | 13.98663 | 128° | 84km/h | 11792m | 3.9m/s | -54.1°C | 14.6% | 205.4hPa | 2.8V | 08:30:00 | 01:02:03 | 00:00:00 | |
| AA1-15 | 2026-09-03 11:21:34 | 54.02995 | 13.98812 | 122° | 86km/h | 11813m | 4.5m/s | -54.2°C | 14.1% | 204.8hPa | 2.8V | 18:12:15 | 01:02:08 | 00:00:00 | |
| DL1XH-west | 2026-09-03 11:21:31 | 54.03040 | 13.98691 | 126° | 82km/h | 11796m | 4m/s | -54.1°C | 14.6% | 205.3hPa | 2.7V | 18:12:15 | 01:02:04 | 00:00:00 | |
| DO2SHX-10 | 2026-09-03 11:21:29 | 54.03052 | 13.98662 | 129° | 84km/h | 11792m | 3.9m/s | -54.1°C | 14.6% | 205.4hPa | 2.7V | 00:00:00 | 01:02:03 | 08:30:00 | |
| DB0DAN | 2026-09-03 11:21:25 | 54.03108 | 13.98549 | 130° | 88km/h | 11775m | 4.3m/s | -54.1°C | 11.8% | 205.99hPa | 2.8V | 00:00:00 | 00:00:00 | 00:00:00 | |
| DL1XH1-15 | 2026-09-03 11:21:25 | 54.03123 | 13.98518 | 128° | 95km/h | 11771m | 5m/s | -54.1°C | 15.9% | 206.1hPa | 2.7V | 08:30:00 | 01:01:58 | 00:00:00 | |
| DL1XH-15 | 2026-09-03 11:21:24 | 54.03192 | 13.98357 | 126° | 88km/h | 11749m | 6m/s | -54.2°C | 16.1% | 206.7hPa | 2.8V | 08:30:00 | 01:01:53 | 00:00:00 | |
| AA1-15 | 2026-09-03 11:21:23 | 54.03138 | 13.98486 | 127° | 95km/h | 11766m | 3.7m/s | -54.1°C | 16% | 206.2hPa | 2.7V | 18:12:15 | 01:01:57 | 00:00:00 | |
| DL1XH-west | 2026-09-03 11:21:20 | 54.03179 | 13.98388 | 125° | 89km/h | 11755m | 5.5m/s | -54.1°C | 16.5% | 206.6hPa | 2.8V | 18:12:15 | 01:01:54 | 00:00:00 | |
| DO2SHX-10 | 2026-09-03 11:21:20 | 54.03179 | 13.98388 | 126° | 88km/h | 11755m | 5.5m/s | -54.1°C | 16.0% | 206.6hPa | 2.7V | 00:00:00 | 01:01:54 | 00:00:00 | |
| DL1XH1-15 | 2026-09-03 11:21:19 | 54.03258 | 13.98216 | 129° | 82km/h | 11726m | 3.4m/s | -54.1°C | 16.6% | 207.5hPa | 2.8V | 08:30:00 | 01:01:48 | 00:00:00 | |
| DO2SHX-10 | 2026-09-03 11:21:17 | 54.03219 | 13.98298 | 129° | 82km/h | 11738m | 5.1m/s | -54.1°C | 16.3% | 207.0hPa | 2.7V | 00:00:00 | 01:01:51 | 00:00:00 | |
| DL1XH-15 | 2026-09-03 11:21:14 | 54.03335 | 13.98058 | 129° | 100km/h | 11699m | 8.5m/s | -54.2°C | 17.4% | 208.3hPa | 2.7V | 08:30:00 | 01:01:43 | 00:00:00 | |
| AA1-15 | 2026-09-03 11:21:12 | 54.03287 | 13.98158 | 130° | 95km/h | 11715m | 5.4m/s | -54.1°C | 18.4% | 207.8hPa | 2.8V | 18:12:15 | 01:01:46 | 00:00:00 | |
| DB0DAN | 2026-09-03 11:21:10 | 54.03319 | 13.98092 | 129° | 99km/h | 11706m | 5m/s | -54.2°C | 13.3% | 208.16hPa | 2.7V | 00:00:00 | 00:00:00 | 00:00:00 | |
| DL1XH-west | 2026-09-03 11:21:10 | 54.03319 | 13.98092 | 129° | 104km/h | 11705m | 5m/s | -54.2°C | 18.9% | 208.2hPa | 2.7V | 18:12:15 | 01:01:44 | 00:00:00 | |
| DJ2DS-15 | 2026-09-03 11:21:10 | 54.03335 | 13.98058 | 129° | 100km/h | 11699m | 8.5m/s | -54.2°C | 13.5% | 208.3hPa | 2.8V | 00:00:00 | 00:00:00 | 00:00:00 | |
| DO2SHX-10 | 2026-09-03 11:21:08 | 54.03351 | 13.98025 | 131° | 97km/h | 11692m | 6.0m/s | -54.1°C | 17.5% | 208.5hPa | 2.8V | 00:00:00 | 01:01:42 | 00:00:00 | |
| DL1XH1-15 | 2026-09-03 11:21:05 | 54.03408 | 13.97889 | 119° | 100km/h | 11669m | 6.1m/s | -54.2°C | 18.2% | 209.4hPa | 2.8V | 08:30:00 | 01:01:38 | 00:00:00 | |
| DO2SHX-10 | 2026-09-03 11:21:05 | 54.03395 | 13.97925 | 124° | 99km/h | 11675m | 7.2m/s | -54.1°C | 17.9% | 209.1hPa | 2.8V | 00:00:00 | 01:01:39 | 00:00:00 | |
| DL1XH-15 | 2026-09-03 11:21:04 | 54.03477 | 13.97705 | 126° | 106km/h | 11637m | 6.7m/s | -54.8°C | 19.7% | 210.4hPa | 2.8V | 08:30:00 | 01:01:33 | 00:00:00 | |
| AA1-15 | 2026-09-03 11:21:02 | 54.03434 | 13.97814 | 120° | 100km/h | 11658m | 8m/s | -54.4°C | 21.4% | 209.7hPa | 2.7V | 18:12:15 | 01:01:36 | 00:00:00 | |
| DO2SHX-10 | 2026-09-03 11:21:02 | 54.03434 | 13.97814 | 120° | 100km/h | 11658m | 7.9m/s | -54.4°C | 18.5% | 209.6hPa | 2.7V | 00:00:00 | 01:01:36 | 08:30:00 | |
| DJ2DS-15 | 2026-09-03 11:21:00 | 54.03461 | 13.97741 | 126° | 108km/h | 11644m | 6.4m/s | -54.5°C | 19.2% | 210.1hPa | 2.8V | 00:00:00 | 01:01:34 | 00:00:00 | |
| DL1XH1-15 | 2026-09-03 11:20:59 | 54.03556 | 13.97514 | 124° | 111km/h | 11607m | 4.5m/s | -55.7°C | 23.5% | 211.4hPa | 2.8V | 08:30:00 | 01:01:28 | 00:00:00 | |
| DL1XH-west | 2026-09-03 11:20:59 | 54.03477 | 13.97705 | 127° | 106km/h | 11637m | 6.7m/s | -54.8°C | 22.6% | 210.4hPa | 2.8V | 18:12:15 | 01:01:33 | 00:00:00 | |
| DO2SHX-10 | 2026-09-03 11:20:59 | 54.03477 | 13.97705 | 127° | 108km/h | 11637m | 6.6m/s | -54.7°C | 19.7% | 210.3hPa | 2.7V | 00:00:00 | 01:01:33 | 00:00:00 | |
| DO2SHX-10 | 2026-09-03 11:20:56 | 54.03525 | 13.97592 | 125° | 110km/h | 11619m | 4.4m/s | -55.5°C | 22.1% | 211.0hPa | 2.7V | 00:00:00 | 01:01:30 | 00:00:00 | |
| MECKS9 | 2026-09-03 11:20:55 | 54.03525 | 13.97592 | 126° | 108km/h | 11619m | 4.5m/s | -55.5°C | 17.7% | 211.0hPa | 2.7V | 00:00:00 | 00:00:00 | 00:00:00 | |
| DL1XH-15 | 2026-09-03 11:20:54 | 54.03634 | 13.97321 | 124° | 106km/h | 11579m | 8.8m/s | -56.2°C | 27.1% | 212.4hPa | 2.7V | 08:30:00 | 01:01:23 | 00:00:00 | |
| AA1-15 | 2026-09-03 11:20:51 | 54.03603 | 13.97396 | 124° | 108km/h | 11590m | 6.9m/s | -56°C | 27.8% | 212hPa | 2.8V | 18:12:15 | 01:01:25 | 00:00:00 | |
| DL1XH-west | 2026-09-03 11:20:49 | 54.03634 | 13.97321 | 125° | 106km/h | 11579m | 8.8m/s | -56.2°C | 29.2% | 212.4hPa | 2.7V | 18:12:15 | 01:01:23 | 00:00:00 | |
| DO2SHX-10 | 2026-09-03 11:20:47 | 54.03663 | 13.97244 | 122° | 108km/h | 11568m | 2.9m/s | -56.4°C | 28.4% | 212.7hPa | 2.7V | 00:00:00 | 01:01:21 | 00:00:00 | |
| DL1XH1-15 | 2026-09-03 11:20:45 | 54.03706 | 13.97124 | 120° | 111km/h | 11549m | 6.8m/s | -57°C | 31.2% | 213.3hPa | 2.7V | 08:30:00 | 01:01:18 | 00:00:00 | |
| DL1XH-15 | 2026-09-03 11:20:44 | 54.03780 | 13.96927 | 125° | 104km/h | 11524m | 5.9m/s | -57.1°C | 35.4% | 214.2hPa | 2.8V | 08:30:00 | 01:01:13 | 00:00:00 | |
| AA1-15 | 2026-09-03 11:20:41 | 54.03750 | 13.97002 | 123° | 110km/h | 11535m | 7m/s | -57.2°C | 34.8% | 213.9hPa | 2.8V | 18:12:15 | 01:01:15 | 00:00:00 | |
| DL1XH-west | 2026-09-03 11:20:40 | 54.03780 | 13.96927 | 126° | 104km/h | 11524m | 5.9m/s | -57.1°C | 36% | 214.2hPa | 2.8V | 18:12:15 | 01:01:13 | 00:00:00 | |
| DL1XH1-15 | 2026-09-03 11:20:39 | 54.03845 | 13.96751 | 120° | 95km/h | 11495m | 8.8m/s | -57.4°C | 37.2% | 215.1hPa | 2.8V | 08:30:00 | 01:01:08 | 00:00:00 | |
| DO2SHX-10 | 2026-09-03 11:20:38 | 54.03795 | 13.96891 | 125° | 97km/h | 11518m | 6.6m/s | -57.1°C | 36.2% | 214.4hPa | 2.9V | 00:00:00 | 01:01:12 | 00:00:00 | |
| DL1XH-15 | 2026-09-03 11:20:35 | 54.03905 | 13.96572 | 121° | 100km/h | 11465m | 4.1m/s | -57.8°C | 41.3% | 216.2hPa | 2.9V | 08:30:00 | 01:01:03 | 00:00:00 | |
| AA1-15 | 2026-09-03 11:20:30 | 54.03892 | 13.96608 | 120° | 97km/h | 11471m | 6.6m/s | -57.9°C | 40.8% | 216hPa | 2.8V | 18:12:15 | 01:01:04 | 00:00:00 | |
| DL1XH-west | 2026-09-03 11:20:29 | 54.03905 | 13.96572 | 122° | 100km/h | 11465m | 4.1m/s | -57.8°C | 40.9% | 216.2hPa | 2.9V | 18:12:15 | 01:01:03 | 00:00:00 | |
| DO2SHX-10 | 2026-09-03 11:20:29 | 54.03905 | 13.96572 | 122° | 102km/h | 11465m | 4.1m/s | -57.7°C | 41.3% | 216.1hPa | 2.8V | 00:00:00 | 01:01:03 | 00:00:00 | |
| DB0DAN | 2026-09-03 11:20:25 | 54.03962 | 13.96422 | 122° | 102km/h | 11442m | 4.1m/s | -57.7°C | 35.8% | 217.06hPa | 2.8V | 00:00:00 | 00:00:00 | 00:00:00 | |
| DL1XH-15 | 2026-09-03 11:20:24 | 54.04042 | 13.96184 | 120° | 108km/h | 11406m | 5.8m/s | -57.7°C | 44.4% | 218.2hPa | 2.9V | 08:30:00 | 01:00:53 | 00:00:00 | |
| DL1XH-west | 2026-09-03 11:20:19 | 54.04042 | 13.96184 | 121° | 108km/h | 11406m | 5.8m/s | -57.7°C | 43.2% | 218.2hPa | 2.9V | 18:12:15 | 01:00:53 | 00:00:00 | |
| DO2SHX-10 | 2026-09-03 11:20:17 | 54.04069 | 13.96106 | 120° | 100km/h | 11396m | 5.9m/s | -57.6°C | 43.9% | 218.5hPa | 2.7V | 00:00:00 | 01:00:51 | 00:00:00 | |
| DL1XH-15 | 2026-09-03 11:20:14 | 54.04164 | 13.95799 | 115° | 100km/h | 11352m | 7.6m/s | -57.9°C | 45.5% | 220.1hPa | 2.8V | 08:30:00 | 01:00:43 | 00:00:00 | |
| DL1XH-west | 2026-09-03 11:20:09 | 54.04164 | 13.95799 | 115° | 100km/h | 11353m | 7.6m/s | -57.9°C | 43.6% | 220.1hPa | 2.8V | 18:12:15 | 01:00:43 | 00:00:00 | |
| AA1-15 | 2026-09-03 11:20:08 | 54.04175 | 13.95760 | 117° | 99km/h | 11345m | 8m/s | -57.9°C | 43.5% | 220.3hPa | 2.8V | 18:12:15 | 01:00:42 | 00:00:00 | |
| DO2SHX-10 | 2026-09-03 11:20:08 | 54.04175 | 13.95760 | 118° | 99km/h | 11345m | 7.9m/s | -57.8°C | 45.0% | 220.2hPa | 2.7V | 00:00:00 | 01:00:42 | 08:30:00 | |
| DL1XH1-15 | 2026-09-03 11:20:05 | 54.04223 | 13.95613 | 119° | 100km/h | 11319m | 7m/s | -57.8°C | 43.6% | 221.1hPa | 2.8V | 08:30:00 | 01:00:38 | 00:00:00 | |
| DO2SHX-10 | 2026-09-03 11:20:05 | 54.04211 | 13.95650 | 120° | 100km/h | 11327m | 9.1m/s | -57.7°C | 43.6% | 220.8hPa | 2.8V | 00:00:00 | 01:00:39 | 00:00:00 | |
| DL1XH-15 | 2026-09-03 11:20:04 | 54.04284 | 13.95430 | 115° | 91km/h | 11290m | 3.8m/s | -57.7°C | 45.1% | 222.2hPa | 2.8V | 08:30:00 | 01:00:33 | 00:00:00 | |
| AM1SDL-15 | 2026-09-03 11:20:03 | 54.04236 | 13.95575 | 121° | 99km/h | 11313m | 4.9m/s | -57.7°C | 43.5% | 221.3hPa | 2.7V | 00:00:00 | 01:00:37 | 08:30:00 | |
| DO2SHX-10 | 2026-09-03 11:20:02 | 54.04249 | 13.95538 | 121° | 99km/h | 11308m | 5.9m/s | -57.7°C | 44.3% | 221.5hPa | 2.8V | 00:00:00 | 01:00:36 | 00:00:00 | |
| DJ2DS-15 | 2026-09-03 11:20:00 | 54.04274 | 13.95465 | 118° | 89km/h | 11295m | 5.1m/s | -57.7°C | 44.8% | 222.0hPa | 2.8V | 00:00:00 | 01:00:34 | 00:00:00 | |
| DL1XH1-15 | 2026-09-03 11:19:59 | 54.04330 | 13.95257 | 114° | 89km/h | 11259m | 9.1m/s | -57.4°C | 43.8% | 223.2hPa | 2.8V | 08:30:00 | 01:00:28 | 00:00:00 | |
| DL1XH-west | 2026-09-03 11:19:58 | 54.04294 | 13.95394 | 114° | 88km/h | 11285m | 6.2m/s | -57.6°C | 42.1% | 222.4hPa | 2.8V | 18:12:15 | 01:00:32 | 00:00:00 | |
| DJ2DS-15 | 2026-09-03 11:19:57 | 54.04303 | 13.95360 | 113° | 88km/h | 11278m | 7.8m/s | -57.5°C | 37.1% | 222.6hPa | 2.8V | 00:00:00 | 00:00:00 | 00:00:00 | |
| DO2SHX-10 | 2026-09-03 11:19:56 | 54.04311 | 13.95325 | 114° | 88km/h | 11271m | 6.5m/s | -57.5°C | 44.2% | 222.8hPa | 2.8V | 00:00:00 | 01:00:30 | 00:00:00 | |
| DL1XH-15 | 2026-09-03 11:19:54 | 54.04376 | 13.95080 | 111° | 89km/h | 11226m | 4.7m/s | -57.2°C | 42.1% | 224.3hPa | 2.8V | 08:30:00 | 01:00:23 | 00:00:00 | |
| DL1XH-west | 2026-09-03 11:19:47 | 54.04392 | 13.95007 | 108° | 89km/h | 11213m | 7.7m/s | -57.1°C | 40.8% | 224.8hPa | 2.8V | 18:12:15 | 01:00:21 | 00:00:00 | |
| DO2SHX-10 | 2026-09-03 11:19:47 | 54.04392 | 13.95007 | 109° | 89km/h | 11213m | 7.7m/s | -57.1°C | 41.7% | 224.7hPa | 2.9V | 00:00:00 | 01:00:21 | 00:00:00 | |
| DL1XH1-15 | 2026-09-03 11:19:45 | 54.04413 | 13.94897 | 111° | 91km/h | 11196m | 3.3m/s | -57°C | 42.3% | 225.4hPa | 2.9V | 08:30:00 | 01:00:18 | 00:00:00 | |
| DL1XH-15 | 2026-09-03 11:19:44 | 54.04460 | 13.94716 | 115° | 93km/h | 11169m | 3.6m/s | -56.8°C | 41.9% | 226.4hPa | 2.9V | 08:30:00 | 01:00:13 | 00:00:00 | |
| DO2SHX-10 | 2026-09-03 11:19:44 | 54.04413 | 13.94897 | 112° | 91km/h | 11196m | 3.2m/s | -56.9°C | 42.3% | 225.4hPa | 2.7V | 00:00:00 | 01:00:18 | 00:00:00 | |
| DJ2DS-15 | 2026-09-03 11:19:40 | 54.04450 | 13.94752 | 115° | 93km/h | 11175m | 6.5m/s | -56.8°C | 41.5% | 226.1hPa | 2.7V | 00:00:00 | 01:00:14 | 00:00:00 | |
| DL1XH1-15 | 2026-09-03 11:19:39 | 54.04510 | 13.94539 | 114° | 93km/h | 11143m | 9m/s | -56.6°C | 40.2% | 227.4hPa | 2.8V | 08:30:00 | 01:00:08 | 00:00:00 | |
| DL1XH-west | 2026-09-03 11:19:37 | 54.04480 | 13.94646 | 116° | 91km/h | 11159m | 7.3m/s | -56.8°C | 39.9% | 226.9hPa | 2.8V | 18:12:15 | 01:00:11 | 00:00:00 | |
| AA1-15 | 2026-09-03 11:19:36 | 54.04490 | 13.94611 | 116° | 89km/h | 11152m | 5.7m/s | -56.7°C | 39.9% | 227.1hPa | 2.8V | 18:12:15 | 01:00:10 | 00:00:00 | |
| DO2SHX-10 | 2026-09-03 11:19:35 | 54.04500 | 13.94575 | 116° | 93km/h | 11148m | 2.6m/s | -56.6°C | 40.9% | 227.2hPa | 2.8V | 00:00:00 | 01:00:09 | 00:00:00 | |
| DL1XH-15 | 2026-09-03 11:19:34 | 54.04556 | 13.94353 | 114° | 91km/h | 11113m | 6.2m/s | -56.4°C | 40.4% | 228.4hPa | 2.8V | 08:30:00 | 01:00:03 | 00:00:00 | |
| DL1XH-west | 2026-09-03 11:19:27 | 54.04575 | 13.94281 | 114° | 95km/h | 11103m | 3.5m/s | -56.4°C | 39% | 228.8hPa | 2.8V | 18:12:15 | 01:00:01 | 00:00:00 | |
| AA1-15 | 2026-09-03 11:19:26 | 54.04585 | 13.94243 | 114° | 95km/h | 11098m | 7.2m/s | -56.4°C | 38.9% | 229.1hPa | 2.9V | 18:12:15 | 01:00:00 | 00:00:00 | |
| DO2SHX-10 | 2026-09-03 11:19:26 | 54.04585 | 13.94243 | 114° | 97km/h | 11098m | 7.2m/s | -56.3°C | 39.8% | 229.0hPa | 2.8V | 00:00:00 | 01:00:00 | 00:00:00 | |
| DL1XH-15 | 2026-09-03 11:19:25 | 54.04655 | 13.93998 | 117° | 86km/h | 11060m | 4.5m/s | -56°C | 39.5% | 230.3hPa | 2.8V | 08:30:00 | 00:59:53 | 00:00:00 | |
| DL1XH-west | 2026-09-03 11:19:18 | 54.04676 | 13.93931 | 115° | 89km/h | 11051m | 3.6m/s | -56°C | 38.2% | 230.8hPa | 2.8V | 18:12:15 | 00:59:51 | 00:00:00 | |
| AA1-15 | 2026-09-03 11:19:16 | 54.04685 | 13.93895 | 113° | 91km/h | 11046m | 6.8m/s | -56°C | 38.1% | 230.9hPa | 2.9V | 18:12:15 | 00:59:50 | 00:00:00 | |
| DL1XH-15 | 2026-09-03 11:19:14 | 54.04744 | 13.93631 | 111° | 93km/h | 11011m | 4.2m/s | -55.7°C | 38.5% | 232.2hPa | 2.8V | 08:30:00 | 00:59:43 | 00:00:00 | |
| DO2SHX-10 | 2026-09-03 11:19:14 | 54.04701 | 13.93820 | 110° | 95km/h | 11037m | 5.2m/s | -55.8°C | 39.2% | 231.2hPa | 2.7V | 00:00:00 | 00:59:48 | 08:30:00 | |
| AM1SDL-15 | 2026-09-03 11:19:13 | 54.04710 | 13.93782 | 110° | 93km/h | 11031m | 6.3m/s | -55.8°C | 39.8% | 231.4hPa | 2.8V | 00:00:00 | 00:59:47 | 00:00:00 | |
| DL1XH1-15 | 2026-09-03 11:19:12 | 54.04753 | 13.93594 | 112° | 95km/h | 11005m | 8m/s | -55.7°C | 37.9% | 232.3hPa | 2.8V | 08:30:00 | 00:59:42 | 00:00:00 | |
| DL1XH-west | 2026-09-03 11:19:07 | 54.04763 | 13.93557 | 113° | 95km/h | 10998m | 6m/s | -55.6°C | 37.6% | 232.6hPa | 2.8V | 18:12:15 | 00:59:41 | 00:00:00 | |
| AA1-15 | 2026-09-03 11:19:05 | 54.04781 | 13.93482 | 113° | 93km/h | 10987m | 8.8m/s | -55.5°C | 37.4% | 233.1hPa | 2.8V | 18:12:15 | 00:59:39 | 00:00:00 | |
| DO2SHX-10 | 2026-09-03 11:19:05 | 54.04781 | 13.93482 | 113° | 93km/h | 10987m | 8.8m/s | -55.4°C | 37.9% | 233.1hPa | 2.7V | 00:00:00 | 00:59:39 | 00:00:00 | |
| DL1XH-15 | 2026-09-03 11:19:04 | 54.04840 | 13.93270 | 117° | 88km/h | 10954m | 8.1m/s | -55.3°C | 37.6% | 234.3hPa | 2.8V | 08:30:00 | 00:59:33 | 00:00:00 | |
| DO2SHX-10 | 2026-09-03 11:19:02 | 54.04809 | 13.93373 | 117° | 91km/h | 10970m | 9.2m/s | -55.3°C | 37.9% | 233.7hPa | 2.9V | 00:00:00 | 00:59:36 | 00:00:00 | |
| AM1SDL-15 | 2026-09-03 11:19:01 | 54.04820 | 13.93338 | 118° | 89km/h | 10963m | 5.2m/s | -55.3°C | 38.1% | 233.9hPa | 2.9V | 00:00:00 | 00:59:35 | 00:00:00 | |
| DL1XH1-15 | 2026-09-03 11:18:59 | 54.04850 | 13.93237 | 115° | 86km/h | 10948m | 5.7m/s | -55.3°C | 37.8% | 234.5hPa | 2.9V | 08:30:00 | 00:59:32 | 00:00:00 | |
| DL1XH-west | 2026-09-03 11:18:56 | 54.04869 | 13.93170 | 115° | 86km/h | 10936m | 4.9m/s | -55.2°C | 37.4% | 235hPa | 2.9V | 18:12:15 | 00:59:30 | 00:00:00 | |
| DO2SHX-10 | 2026-09-03 11:18:56 | 54.04869 | 13.93170 | 116° | 88km/h | 10936m | 4.8m/s | -55.2°C | 37.9% | 235.0hPa | 2.9V | 00:00:00 | 00:59:30 | 00:00:00 | |
| DL1XH-15 | 2026-09-03 11:18:54 | 54.04932 | 13.92926 | 113° | 86km/h | 10899m | 3.6m/s | -55°C | 37.8% | 236.4hPa | 2.9V | 08:30:00 | 00:59:23 | 00:00:00 | |
| AA1-15 | 2026-09-03 11:18:54 | 54.04887 | 13.93102 | 113° | 88km/h | 10925m | 6.6m/s | -55.2°C | 37.3% | 235.4hPa | 2.8V | 18:12:15 | 00:59:28 | 00:00:00 | |
| DL1XH-west | 2026-09-03 11:18:46 | 54.04957 | 13.92829 | 113° | 80km/h | 10881m | 3.6m/s | -54.9°C | 37.8% | 237.1hPa | 2.8V | 18:12:15 | 00:59:20 | 00:00:00 | |
| DL1XH1-15 | 2026-09-03 11:18:45 | 54.04965 | 13.92797 | 111° | 80km/h | 10876m | 6.1m/s | -54.9°C | 38% | 237.3hPa | 2.9V | 08:30:00 | 00:59:19 | 00:00:00 | |
| AA1-15 | 2026-09-03 11:18:44 | 54.04972 | 13.92765 | 112° | 80km/h | 10869m | 7.8m/s | -54.9°C | 37.8% | 237.4hPa | 2.9V | 18:12:15 | 00:59:18 | 00:00:00 | |
| DO2SHX-10 | 2026-09-03 11:18:44 | 54.04972 | 13.92765 | 112° | 80km/h | 10869m | 7.8m/s | -54.9°C | 38.1% | 237.4hPa | 2.9V | 00:00:00 | 00:59:18 | 00:00:00 | |
| DB0DAN | 2026-09-03 11:18:40 | 54.05000 | 13.92632 | 109° | 80km/h | 10845m | 6.1m/s | -54.7°C | 32.2% | 238.29hPa | 2.9V | 00:00:00 | 00:00:00 | 00:00:00 | |
| DL1XH-west | 2026-09-03 11:18:36 | 54.05031 | 13.92493 | 114° | 88km/h | 10821m | 5.4m/s | -54.6°C | 38.1% | 239.2hPa | 2.8V | 18:12:15 | 00:59:10 | 00:00:00 | |
| AA1-15 | 2026-09-03 11:18:34 | 54.05049 | 13.92425 | 114° | 86km/h | 10812m | 8.1m/s | -54.6°C | 38.1% | 239.6hPa | 2.9V | 18:12:15 | 00:59:08 | 00:00:00 | |
| DL1XH-west | 2026-09-03 11:18:25 | 54.05109 | 13.92132 | 110° | 84km/h | 10762m | 6.5m/s | -54.4°C | 38.1% | 241.4hPa | 2.8V | 18:12:15 | 00:58:59 | 00:00:00 | |
| DL1XH-15 | 2026-09-03 11:18:23 | 54.05154 | 13.91933 | 107° | 84km/h | 10729m | 6m/s | -54.3°C | 38.9% | 242.7hPa | 2.9V | 08:30:00 | 00:58:53 | 00:00:00 | |
| AA1-15 | 2026-09-03 11:18:23 | 54.05124 | 13.92066 | 112° | 82km/h | 10752m | 6m/s | -54.3°C | 38% | 241.9hPa | 2.9V | 18:12:15 | 00:58:57 | 00:00:00 | |
| DL1XH-west | 2026-09-03 11:18:14 | 54.05181 | 13.91764 | 106° | 80km/h | 10700m | 5.8m/s | -54.2°C | 37.5% | 243.8hPa | 2.8V | 18:12:15 | 00:58:48 | 00:00:00 | |
| AA1-15 | 2026-09-03 11:18:13 | 54.05187 | 13.91731 | 106° | 82km/h | 10696m | 2.9m/s | -54.1°C | 37.2% | 244hPa | 2.9V | 18:12:15 | 00:58:47 | 00:00:00 | |
| DL1XH1-15 | 2026-09-03 11:18:12 | 54.05207 | 13.91629 | 110° | 82km/h | 10678m | 7.4m/s | -54.1°C | 36.6% | 244.6hPa | 2.8V | 08:30:00 | 00:58:44 | 00:00:00 | |
| DO2SHX-10 | 2026-09-03 11:18:11 | 54.05200 | 13.91663 | 110° | 84km/h | 10685m | 5.8m/s | -54.0°C | 36.9% | 244.3hPa | 2.9V | 00:00:00 | 00:58:45 | 00:00:00 | |
| SONDE2-11 | 2026-09-03 11:18:10 | 54.05215 | 13.91596 | 112° | 84km/h | 10672m | 4.8m/s | -54.0°C | 31.5% | 244.8hPa | 2.9V | 00:00:00 | 00:00:00 | 00:00:00 | |
| DJ2DS-15 | 2026-09-03 11:18:09 | 54.05215 | 13.91596 | 112° | 84km/h | 10672m | 4.8m/s | -54.0°C | 31.5% | 244.8hPa | 2.9V | 00:00:00 | 00:00:00 | 00:00:00 | |
| DO2SHX-10 | 2026-09-03 11:18:08 | 54.05223 | 13.91561 | 113° | 89km/h | 10668m | 4.1m/s | -53.9°C | 36.7% | 244.9hPa | 2.9V | 00:00:00 | 00:58:42 | 00:00:00 | |
| DL1XH1-15 | 2026-09-03 11:18:05 | 54.05268 | 13.91281 | 100° | 75km/h | 10627m | 4.9m/s | -53.6°C | 35.7% | 246.6hPa | 2.9V | 08:30:00 | 00:58:34 | 00:00:00 | |
| DL1XH-west | 2026-09-03 11:18:04 | 54.05252 | 13.91416 | 104° | 84km/h | 10648m | 4.6m/s | -53.8°C | 35.9% | 245.8hPa | 2.8V | 18:12:15 | 00:58:38 | 00:00:00 | |
| AA1-15 | 2026-09-03 11:18:02 | 54.05260 | 13.91347 | 101° | 80km/h | 10637m | 6.6m/s | -53.7°C | 35.5% | 246.2hPa | 2.9V | 18:12:15 | 00:58:36 | 00:00:00 | |
| DO2SHX-10 | 2026-09-03 11:18:02 | 54.05260 | 13.91347 | 102° | 78km/h | 10637m | 6.5m/s | -53.7°C | 36.2% | 246.1hPa | 2.9V | 00:00:00 | 00:58:36 | 00:00:00 | |
| DL1XH-15 | 2026-09-03 11:18:01 | 54.05272 | 13.91251 | 103° | 71km/h | 10622m | 5.3m/s | -53.6°C | 35.4% | 246.8hPa | 2.8V | 08:30:00 | 00:58:33 | 00:00:00 | |
| DO2SHX-10 | 2026-09-03 11:17:59 | 54.05272 | 13.91251 | 104° | 71km/h | 10623m | 5.2m/s | -53.6°C | 35.4% | 246.8hPa | 2.9V | 00:00:00 | 00:58:33 | 00:00:00 | |
| DJ2DS-15 | 2026-09-03 11:17:57 | 54.05283 | 13.91193 | 112° | 75km/h | 10611m | 6.7m/s | 0°C | 0% | 0hPa | 2.9V | 00:00:00 | 00:58:31 | 00:00:00 | |
| DB0DAN | 2026-09-03 11:17:55 | 54.05297 | 13.91133 | 111° | 75km/h | 10598m | 7.7m/s | -53.5°C | 29.6% | 247.63hPa | 2.9V | 00:00:00 | 00:00:00 | 00:00:00 | |
| DL1XH-west | 2026-09-03 11:17:53 | 54.05310 | 13.91067 | 109° | 84km/h | 10586m | 4.5m/s | -53.4°C | 34.2% | 248.2hPa | 2.8V | 18:12:15 | 00:58:27 | 00:00:00 | |
| AA1-15 | 2026-09-03 11:17:52 | 54.05317 | 13.91032 | 108° | 84km/h | 10581m | 5.3m/s | -53.4°C | 34.3% | 248.3hPa | 2.8V | 18:12:15 | 00:58:26 | 00:00:00 | |
| DL1XH-15 | 2026-09-03 11:17:51 | 54.05337 | 13.90936 | 109° | 73km/h | 10564m | 4.9m/s | -53.2°C | 34.8% | 249hPa | 2.9V | 08:30:00 | 00:58:23 | 00:00:00 | |
| SP3WXH-11 | 2026-09-03 11:17:47 | 54.05354 | 13.90849 | 106° | 73km/h | 10547m | 7.9m/s | -53.1°C | 28.6% | 249.7hPa | 2.9V | 00:00:00 | 00:00:00 | 00:00:00 | |
| EDDB2-11 | 2026-09-03 11:17:46 | 54.05354 | 13.90849 | 106° | 73km/h | 10547m | 7.9m/s | -53.1°C | 28.6% | 249.7hPa | 2.9V | 00:00:00 | 00:00:00 | 00:00:00 | |
| DL1XH1-15 | 2026-09-03 11:17:45 | 54.05383 | 13.90645 | 106° | 80km/h | 10513m | 5.5m/s | -52.8°C | 34.3% | 251hPa | 2.9V | 08:30:00 | 00:58:14 | 00:00:00 | |
| DL1XH-west | 2026-09-03 11:17:42 | 54.05373 | 13.90715 | 103° | 86km/h | 10525m | 6.7m/s | -52.9°C | 33.8% | 250.5hPa | 2.8V | 18:12:15 | 00:58:16 | 00:00:00 | |
| DL1XH-15 | 2026-09-03 11:17:41 | 54.05389 | 13.90613 | 108° | 77km/h | 10508m | 4.8m/s | -52.8°C | 34.4% | 251.1hPa | 2.9V | 08:30:00 | 00:58:13 | 00:00:00 | |
| DO2SHX-10 | 2026-09-03 11:17:41 | 54.05378 | 13.90679 | 105° | 80km/h | 10519m | 5.6m/s | -52.8°C | 33.9% | 250.7hPa | 2.9V | 00:00:00 | 00:58:15 | 00:00:00 | |
| DO2SHX-10 | 2026-09-03 11:17:38 | 54.05396 | 13.90582 | 112° | 75km/h | 10503m | 3.5m/s | -52.7°C | 34.5% | 251.3hPa | 2.9V | 00:00:00 | 00:58:12 | 00:00:00 | |
| DO2SHX-10 | 2026-09-03 11:17:35 | 54.05417 | 13.90494 | 112° | 73km/h | 10488m | 5.1m/s | -52.6°C | 34.9% | 251.9hPa | 2.9V | 00:00:00 | 00:58:09 | 00:00:00 | |
| S3001 | 2026-09-03 11:17:34 | 54.05430 | 13.90434 | 108° | 73km/h | 10478m | 6.5m/s | -52.6°C | 29.1% | 252.3hPa | 2.8V | 00:00:00 | 00:00:00 | 00:00:00 | |
| DJ2DS-15 | 2026-09-03 11:17:33 | 54.05430 | 13.90434 | 108° | 73km/h | 10478m | 6.5m/s | -52.6°C | 29.1% | 252.3hPa | 2.8V | 00:00:00 | 00:00:00 | 00:00:00 | |
| DL1XH1-15 | 2026-09-03 11:17:32 | 54.05447 | 13.90347 | 108° | 71km/h | 10459m | 7.6m/s | -52.4°C | 33.7% | 253hPa | 2.8V | 08:30:00 | 00:58:04 | 00:00:00 | |
| DL1XH-15 | 2026-09-03 11:17:31 | 54.05452 | 13.90317 | 108° | 73km/h | 10452m | 5.2m/s | -52.4°C | 33.5% | 253.3hPa | 2.9V | 08:30:00 | 00:58:03 | 00:00:00 | |
| DL1XH-west | 2026-09-03 11:17:31 | 54.05441 | 13.90376 | 108° | 69km/h | 10467m | 8.5m/s | -52.5°C | 33.9% | 252.8hPa | 2.8V | 18:12:15 | 00:58:05 | 00:00:00 | |
| SP3BTT-10 | 2026-09-03 11:17:30 | 54.05447 | 13.90347 | 109° | 77km/h | 10459m | 7.5m/s | -52.4°C | 33.7% | 253.0hPa | 2.9V | 00:00:00 | 00:00:00 | 00:00:00 | |
| DO2SHX-10 | 2026-09-03 11:17:29 | 54.05452 | 13.90317 | 109° | 73km/h | 10452m | 5.1m/s | -52.3°C | 33.5% | 253.2hPa | 2.9V | 00:00:00 | 00:58:03 | 00:00:00 | |
| DJ2DS-15 | 2026-09-03 11:17:27 | 54.05464 | 13.90257 | 108° | 78km/h | 10440m | 7.8m/s | 0°C | 0% | 0hPa | 2.9V | 00:00:00 | 00:58:01 | 00:00:00 | |
| DO2SHX-10 | 2026-09-03 11:17:26 | 54.05469 | 13.90226 | 104° | 77km/h | 10433m | 5.9m/s | -52.2°C | 33.1% | 253.9hPa | 2.9V | 00:00:00 | 00:58:00 | 08:30:00 | |
| DL1XH1-15 | 2026-09-03 11:17:25 | 54.05494 | 13.90033 | 106° | 77km/h | 10400m | 6.3m/s | -52°C | 34.7% | 255.3hPa | 2.8V | 08:30:00 | 00:57:54 | 00:00:00 | |
| DL1XH-15 | 2026-09-03 11:17:24 | 54.05500 | 13.90002 | 106° | 73km/h | 10393m | 7.7m/s | -51.9°C | 35.1% | 255.6hPa | 2.8V | 08:30:00 | 00:57:53 | 00:00:00 | |
| DL1XH-west | 2026-09-03 11:17:21 | 54.05489 | 13.90064 | 105° | 77km/h | 10406m | 4.5m/s | -52°C | 34.3% | 255.1hPa | 2.9V | 18:12:15 | 00:57:55 | 00:00:00 | |
| DO2SHX-10 | 2026-09-03 11:17:20 | 54.05494 | 13.90032 | 107° | 75km/h | 10400m | 6.2m/s | -51.9°C | 34.7% | 255.3hPa | 2.9V | 00:00:00 | 00:57:54 | 00:00:00 | |
| MECKS9 | 2026-09-03 11:17:19 | 54.05494 | 13.90032 | 107° | 77km/h | 10400m | 6.3m/s | -52.0°C | 29.8% | 255.3hPa | 2.9V | 00:00:00 | 00:00:00 | 00:00:00 | |
| DO2SHX-10 | 2026-09-03 11:17:17 | 54.05511 | 13.89941 | 110° | 77km/h | 10382m | 5.8m/s | -51.8°C | 35.2% | 256.0hPa | 2.9V | 00:00:00 | 00:57:51 | 00:00:00 | |
| SP3WXH-11 | 2026-09-03 11:17:15 | 54.05525 | 13.89879 | 110° | 77km/h | 10371m | 7.3m/s | -51.8°C | 30.4% | 256.4hPa | 2.9V | 00:00:00 | 00:00:00 | 00:00:00 | |
| DO2SHX-10 | 2026-09-03 11:17:14 | 54.05531 | 13.89847 | 109° | 78km/h | 10364m | 6.0m/s | -51.7°C | 35.7% | 256.7hPa | 2.9V | 00:00:00 | 00:57:48 | 00:00:00 | |
| DL1XH1-15 | 2026-09-03 11:17:12 | 54.05556 | 13.89715 | 109° | 82km/h | 10341m | 5.3m/s | -51.6°C | 35.8% | 257.5hPa | 2.9V | 08:30:00 | 00:57:44 | 00:00:00 | |
| DL1XH-15 | 2026-09-03 11:17:11 | 54.05563 | 13.89682 | 110° | 80km/h | 10336m | 4.6m/s | -51.6°C | 36% | 257.8hPa | 2.9V | 08:30:00 | 00:57:43 | 00:00:00 | |
| DL1XH-west | 2026-09-03 11:17:11 | 54.05549 | 13.89749 | 109° | 82km/h | 10348m | 7.8m/s | -51.7°C | 35.7% | 257.4hPa | 2.9V | 18:12:15 | 00:57:45 | 00:00:00 | |
| AA1-15 | 2026-09-03 11:17:11 | 54.05556 | 13.89715 | 109° | 82km/h | 10341m | 5.3m/s | -51.6°C | 35.8% | 257.5hPa | 2.9V | 18:12:15 | 00:57:44 | 00:00:00 | |
| DO2SHX-10 | 2026-09-03 11:17:08 | 54.05570 | 13.89650 | 112° | 78km/h | 10332m | 3.8m/s | -51.5°C | 35.9% | 257.9hPa | 2.7V | 00:00:00 | 00:57:42 | 00:00:00 | |
| DJ2DS-15 | 2026-09-03 11:17:07 | 54.05577 | 13.89618 | 114° | 75km/h | 10327m | 6.2m/s | 0°C | 0% | 0hPa | 2.9V | 00:00:00 | 00:57:41 | 00:00:00 | |
| DL1XH1-15 | 2026-09-03 11:17:05 | 54.05628 | 13.89403 | 105° | 71km/h | 10288m | 6.6m/s | -51.2°C | 37% | 259.8hPa | 2.9V | 08:30:00 | 00:57:34 | 00:00:00 | |
| DO2SHX-10 | 2026-09-03 11:17:05 | 54.05594 | 13.89556 | 116° | 78km/h | 10315m | 6.2m/s | -51.3°C | 36.2% | 258.6hPa | 2.9V | 00:00:00 | 00:57:39 | 00:00:00 | |
| S3001 | 2026-09-03 11:17:03 | 54.05617 | 13.89463 | 108° | 75km/h | 10300m | 3.5m/s | -51.2°C | 32.2% | 259.4hPa | 2.9V | 00:00:00 | 00:00:00 | 00:00:00 | |
| DO2SHX-10 | 2026-09-03 11:17:02 | 54.05617 | 13.89463 | 109° | 73km/h | 10300m | 3.4m/s | -51.2°C | 37.1% | 259.4hPa | 2.9V | 00:00:00 | 00:57:36 | 00:00:00 | |
| DL1XH-15 | 2026-09-03 11:17:01 | 54.05632 | 13.89374 | 105° | 69km/h | 10282m | 6.8m/s | -51.2°C | 37.6% | 260.1hPa | 2.9V | 08:30:00 | 00:57:33 | 00:00:00 | |
| DL1XH-west | 2026-09-03 11:17:00 | 54.05628 | 13.89403 | 106° | 71km/h | 10288m | 6.6m/s | -51.2°C | 38.5% | 259.8hPa | 2.9V | 18:12:15 | 00:57:34 | 00:00:00 | |
| DJ2DS-15 | 2026-09-03 11:16:57 | 54.05643 | 13.89318 | 108° | 68km/h | 10269m | 5.0m/s | -51.2°C | -1.0% | -1.0hPa | 2.9V | 00:00:00 | 00:00:00 | 00:00:00 | |
| DB0DAN | 2026-09-03 11:16:55 | 54.05654 | 13.89261 | 108° | 68km/h | 10258m | 5.8m/s | -51.2°C | 34.9% | 260.94hPa | 2.9V | 00:00:00 | 00:00:00 | 00:00:00 | |
| DO2SHX-10 | 2026-09-03 11:16:53 | 54.05665 | 13.89202 | 108° | 77km/h | 10246m | 8.0m/s | -51.1°C | 41.5% | 261.3hPa | 2.8V | 00:00:00 | 00:57:27 | 00:00:00 | |
| DL1XH1-15 | 2026-09-03 11:16:52 | 54.05685 | 13.89108 | 110° | 78km/h | 10228m | 5.3m/s | -51.1°C | 44.4% | 262.1hPa | 2.8V | 08:30:00 | 00:57:24 | 00:00:00 | |
| DL1XH-15 | 2026-09-03 11:16:51 | 54.05692 | 13.89077 | 109° | 77km/h | 10224m | 3.3m/s | -51.1°C | 45.9% | 262.4hPa | 2.9V | 08:30:00 | 00:57:23 | 00:00:00 | |
| DL1XH-west | 2026-09-03 11:16:50 | 54.05685 | 13.89108 | 111° | 78km/h | 10228m | 5.3m/s | -51.1°C | 44.3% | 262.1hPa | 2.8V | 18:12:15 | 00:57:24 | 00:00:00 | |
| AA1-15 | 2026-09-03 11:16:50 | 54.05692 | 13.89076 | 110° | 77km/h | 10224m | 3.3m/s | -51.1°C | 45.3% | 262.4hPa | 2.9V | 18:12:15 | 00:57:23 | 00:00:00 | |
| DJ2DS-15 | 2026-09-03 11:16:47 | 54.05706 | 13.89014 | 112° | 77km/h | 10213m | 6.5m/s | 0°C | 0% | 0hPa | 2.9V | 00:00:00 | 00:57:21 | 00:00:00 | |
| DL1XH1-15 | 2026-09-03 11:16:45 | 54.05745 | 13.88795 | 104° | 78km/h | 10174m | 6m/s | -51.2°C | 50.5% | 264.3hPa | 2.9V | 08:30:00 | 00:57:14 | 00:00:00 | |
| SP3WXH-11 | 2026-09-03 11:16:45 | 54.05727 | 13.88920 | 107° | 75km/h | 10196m | 4.7m/s | -51.3°C | 44.7% | 263.5hPa | 2.8V | 00:00:00 | 00:00:00 | 00:00:00 | |
| DO2SHX-10 | 2026-09-03 11:16:44 | 54.05727 | 13.88920 | 108° | 75km/h | 10196m | 4.7m/s | -51.3°C | 50.5% | 263.5hPa | 2.8V | 00:00:00 | 00:57:18 | 00:00:00 | |
| DL1XH-15 | 2026-09-03 11:16:41 | 54.05751 | 13.88762 | 109° | 80km/h | 10168m | 4.9m/s | -51.1°C | 50% | 264.5hPa | 2.8V | 08:30:00 | 00:57:13 | 00:00:00 | |
| DL1XH-west | 2026-09-03 11:16:39 | 54.05751 | 13.88762 | 109° | 80km/h | 10168m | 4.9m/s | -51.2°C | 48.6% | 264.5hPa | 2.8V | 18:12:15 | 00:57:13 | 00:00:00 | |
| DO2SHX-10 | 2026-09-03 11:16:37 | 54.05767 | 13.88699 | 117° | 77km/h | 10156m | 5.1m/s | -51.0°C | 49.2% | 264.9hPa | 2.9V | 00:00:00 | 00:57:11 | 00:00:00 | |
| SONDE2-11 | 2026-09-03 11:16:36 | 54.05776 | 13.88670 | 119° | 77km/h | 10152m | 2.6m/s | -51.0°C | 43.4% | 265.1hPa | 2.9V | 00:00:00 | 00:00:00 | 00:00:00 | |
| DO2SHX-10 | 2026-09-03 11:16:34 | 54.05795 | 13.88613 | 119° | 78km/h | 10141m | 6.2m/s | -50.9°C | 49.5% | 265.5hPa | 2.9V | 00:00:00 | 00:57:08 | 00:00:00 | |
| DL1XH1-15 | 2026-09-03 11:16:32 | 54.05825 | 13.88488 | 106° | 78km/h | 10118m | 6m/s | -50.7°C | 50.2% | 266.5hPa | 2.9V | 08:30:00 | 00:57:04 | 00:00:00 | |
| S3001 | 2026-09-03 11:16:32 | 54.05819 | 13.88520 | 107° | 78km/h | 10123m | 4.3m/s | -50.7°C | 44.8% | 266.4hPa | 2.9V | 00:00:00 | 00:00:00 | 00:00:00 | |
| DL1XH-15 | 2026-09-03 11:16:31 | 54.05831 | 13.88455 | 107° | 80km/h | 10112m | 5.2m/s | -50.6°C | 50.4% | 266.8hPa | 2.9V | 08:30:00 | 00:57:03 | 00:00:00 | |
| DL1XH-west | 2026-09-03 11:16:29 | 54.05831 | 13.88455 | 108° | 80km/h | 10112m | 5.2m/s | -50.6°C | 49.1% | 266.8hPa | 2.9V | 18:12:15 | 00:57:03 | 00:00:00 | |
| DO2SHX-10 | 2026-09-03 11:16:28 | 54.05836 | 13.88423 | 107° | 80km/h | 10107m | 4.0m/s | -50.5°C | 50.4% | 267.0hPa | 2.9V | 00:00:00 | 00:57:02 | 00:00:00 | |
| AM1SDL-15 | 2026-09-03 11:16:26 | 54.05847 | 13.88355 | 103° | 86km/h | 10098m | 5.4m/s | -50.5°C | 49.6% | 267.3hPa | 2.9V | 00:00:00 | 00:57:00 | 00:00:00 | |
| DO2SHX-10 | 2026-09-03 11:16:25 | 54.05852 | 13.88319 | 104° | 89km/h | 10093m | 4.2m/s | -50.4°C | 49.9% | 267.6hPa | 2.9V | 00:00:00 | 00:56:59 | 00:00:00 | |
| DL1XH-15 | 2026-09-03 11:16:21 | 54.05902 | 13.88109 | 118° | 82km/h | 10062m | 4.6m/s | -50.2°C | 56.7% | 268.9hPa | 2.9V | 08:30:00 | 00:56:53 | 00:00:00 | |
| AA1-15 | 2026-09-03 11:16:19 | 54.05902 | 13.88109 | 119° | 82km/h | 10062m | 4.6m/s | -50.2°C | 54% | 268.9hPa | 2.9V | 18:12:15 | 00:56:53 | 00:00:00 | |
| DL1XH-west | 2026-09-03 11:16:18 | 54.05911 | 13.88078 | 117° | 78km/h | 10058m | 3.7m/s | -50.2°C | 55.2% | 269hPa | 2.9V | 18:12:15 | 00:56:52 | 00:00:00 | |
| SP3WXH-11 | 2026-09-03 11:16:14 | 54.05945 | 13.87898 | 103° | 100km/h | 10034m | 5.6m/s | 0°C | -1.0% | -1.0hPa | 2.8V | 00:00:00 | 00:00:00 | 00:00:00 | |
| DL1XH-15 | 2026-09-03 11:16:12 | 54.05968 | 13.87735 | 104° | 89km/h | 10017m | 7.4m/s | -50.4°C | 67.2% | 270.8hPa | 2.8V | 08:30:00 | 00:56:43 | 00:00:00 | |
| AA1-15 | 2026-09-03 11:16:08 | 54.05974 | 13.87700 | 104° | 80km/h | 10009m | 8.3m/s | -50.5°C | 66.8% | 271.1hPa | 2.8V | 18:12:15 | 00:56:42 | 00:00:00 | |
| DO2SHX-10 | 2026-09-03 11:16:05 | 54.05991 | 13.87612 | 115° | 69km/h | 9987m | 4.9m/s | -50.4°C | 70.6% | 272.0hPa | 2.9V | 00:00:00 | 00:56:39 | 00:00:00 | |
| DO2SHX-10 | 2026-09-03 11:16:02 | 54.06010 | 13.87530 | 107° | 73km/h | 9975m | 3.2m/s | -50.3°C | 71.2% | 272.6hPa | 2.9V | 00:00:00 | 00:56:36 | 00:00:00 | |
| DL1XH-15 | 2026-09-03 11:16:01 | 54.06023 | 13.87435 | 101° | 77km/h | 9957m | 7.2m/s | -50.2°C | 68.5% | 273.4hPa | 2.9V | 08:30:00 | 00:56:33 | 00:00:00 | |
| S3001 | 2026-09-03 11:16:01 | 54.06019 | 13.87467 | 102° | 77km/h | 9964m | 6.1m/s | -50.3°C | 62.4% | 273.1hPa | 2.9V | 00:00:00 | 00:00:00 | 00:00:00 | |
| DO2SHX-10 | 2026-09-03 11:15:59 | 54.06023 | 13.87435 | 102° | 77km/h | 9957m | 7.2m/s | -50.1°C | 68.5% | 273.3hPa | 2.9V | 00:00:00 | 00:56:33 | 00:00:00 | |
| DL1XH1-15 | 2026-09-03 11:15:58 | 54.06049 | 13.87264 | 106° | 68km/h | 9922m | 3.8m/s | -50°C | 68.6% | 274.9hPa | 2.9V | 08:30:00 | 00:56:27 | 00:00:00 | |
| AA1-15 | 2026-09-03 11:15:57 | 54.06031 | 13.87374 | 103° | 69km/h | 9944m | 7.5m/s | -50.1°C | 65.5% | 273.9hPa | 2.8V | 18:12:15 | 00:56:31 | 00:00:00 | |
| DB0DAN | 2026-09-03 11:15:55 | 54.06039 | 13.87318 | 106° | 62km/h | 9933m | 5m/s | -50.1°C | 61.3% | 274.32hPa | 2.9V | 00:00:00 | 00:00:00 | 00:00:00 | |
| DL1XH-west | 2026-09-03 11:15:55 | 54.06039 | 13.87318 | 106° | 66km/h | 9933m | 5m/s | -50.1°C | 65.3% | 274.3hPa | 2.9V | 18:12:15 | 00:56:29 | 00:00:00 | |
| DO2SHX-10 | 2026-09-03 11:15:55 | 54.06039 | 13.87318 | 106° | 69km/h | 9933m | 4.9m/s | -50.0°C | 67.7% | 274.3hPa | 2.9V | 00:00:00 | 00:56:29 | 00:00:00 | |
| DL1XH-15 | 2026-09-03 11:15:51 | 54.06066 | 13.87143 | 100° | 77km/h | 9901m | 4.9m/s | -49.8°C | 68.3% | 275.7hPa | 2.9V | 08:30:00 | 00:56:23 | 00:00:00 | |
| AA1-15 | 2026-09-03 11:15:46 | 54.06077 | 13.87047 | 101° | 73km/h | 9887m | 5m/s | -49.7°C | 65.4% | 276.3hPa | 2.9V | 18:12:15 | 00:56:20 | 00:00:00 | |
| DL1XH1-15 | 2026-09-03 11:15:45 | 54.06087 | 13.86959 | 100° | 66km/h | 9873m | 3m/s | -49.5°C | 68.7% | 276.9hPa | 2.9V | 08:30:00 | 00:56:17 | 00:00:00 | |
| DL1XH-west | 2026-09-03 11:15:45 | 54.06080 | 13.87017 | 100° | 71km/h | 9882m | 5.6m/s | -49.6°C | 65.4% | 276.5hPa | 2.8V | 18:12:15 | 00:56:19 | 00:00:00 | |
| SP3BTT-10 | 2026-09-03 11:15:45 | 54.06080 | 13.87017 | 101° | 68km/h | 9882m | 5.5m/s | -49.6°C | 68.9% | 276.5hPa | 2.7V | 00:00:00 | 00:00:00 | 00:00:00 | |
| DO2SHX-10 | 2026-09-03 11:15:44 | 54.06084 | 13.86988 | 102° | 66km/h | 9877m | 3.7m/s | 0°C | 0% | 0hPa | 2.9V | 00:00:00 | 00:56:18 | 00:00:00 | |
| DL1XH-15 | 2026-09-03 11:15:41 | 54.06096 | 13.86847 | 96° | 69km/h | 9853m | 5.3m/s | -49.4°C | 69.2% | 277.8hPa | 2.9V | 08:30:00 | 00:56:13 | 00:00:00 | |
| DB0DAN | 2026-09-03 11:15:40 | 54.06094 | 13.86876 | 96° | 64km/h | 9858m | 4.6m/s | -49.5°C | 62.2% | 277.51hPa | 2.9V | 00:00:00 | 00:00:00 | 00:00:00 | |
| DO2SHX-10 | 2026-09-03 11:15:40 | 54.06094 | 13.86875 | 96° | 69km/h | 9858m | 4.5m/s | 0°C | 0% | 0hPa | 2.8V | 00:00:00 | 00:56:14 | 00:00:00 | |
| DL1XH1-15 | 2026-09-03 11:15:38 | 54.06125 | 13.86640 | 102° | 71km/h | 9822m | 5.9m/s | -49.1°C | 69.2% | 279.1hPa | 2.8V | 08:30:00 | 00:56:06 | 00:00:00 | |
| AA1-15 | 2026-09-03 11:15:36 | 54.06107 | 13.86757 | 105° | 71km/h | 9839m | 4.8m/s | -49.3°C | 65% | 278.3hPa | 2.9V | 18:12:15 | 00:56:10 | 00:00:00 | |
| DL1XH-west | 2026-09-03 11:15:34 | 54.06116 | 13.86699 | 106° | 69km/h | 9831m | 4.9m/s | -49.2°C | 65.3% | 278.7hPa | 2.9V | 18:12:15 | 00:56:08 | 00:00:00 | |
| DO2SHX-10 | 2026-09-03 11:15:33 | 54.06121 | 13.86669 | 103° | 71km/h | 9827m | 4.1m/s | 0°C | 0% | 0hPa | 2.9V | 00:00:00 | 00:56:07 | 00:00:00 | |
| S3001 | 2026-09-03 11:15:30 | 54.06134 | 13.86553 | 95° | 66km/h | 9806m | 5.9m/s | -49.0°C | 62.7% | 279.8hPa | 2.9V | 00:00:00 | 00:00:00 | 00:00:00 | |
| DL1XH1-15 | 2026-09-03 11:15:27 | 54.06150 | 13.86354 | 104° | 66km/h | 9772m | 6.3m/s | -48.7°C | 69.8% | 281.3hPa | 2.9V | 00:00:00 | 00:55:56 | 00:00:00 | |
| AA1-15 | 2026-09-03 11:15:26 | 54.06139 | 13.86467 | 97° | 68km/h | 9791m | 3.5m/s | -48.8°C | 65.5% | 280.4hPa | 2.8V | 18:12:15 | 00:56:00 | 00:00:00 | |
| DL1XH-west | 2026-09-03 11:15:24 | 54.06144 | 13.86410 | 99° | 66km/h | 9780m | 5.5m/s | -48.8°C | 65.6% | 280.9hPa | 2.9V | 18:12:15 | 00:55:58 | 00:00:00 | |
| AA1-15 | 2026-09-03 11:15:16 | 54.06185 | 13.86180 | 103° | 73km/h | 9740m | 6.8m/s | -48.4°C | 67.8% | 282.6hPa | 2.9V | 18:12:15 | 00:55:50 | 00:00:00 | |
| DL1XH1-15 | 2026-09-03 11:15:15 | 54.06195 | 13.86058 | 95° | 68km/h | 9720m | 3.2m/s | -48.2°C | 72.2% | 283.4hPa | 2.8V | 00:00:00 | 00:55:46 | 00:00:00 | |
| DL1XH-west | 2026-09-03 11:15:13 | 54.06194 | 13.86088 | 96° | 69km/h | 9724m | 4.8m/s | -48.3°C | 68.5% | 283.2hPa | 2.8V | 18:12:15 | 00:55:47 | 00:00:00 | |
| DL1XH-15 | 2026-09-03 11:15:11 | 54.06202 | 13.85971 | 98° | 68km/h | 9705m | 7.2m/s | -48.2°C | 71.6% | 284hPa | 2.9V | 08:30:00 | 00:55:43 | 00:00:00 | |
| DO2SHX-10 | 2026-09-03 11:15:11 | 54.06197 | 13.86029 | 97° | 68km/h | 9716m | 5.3m/s | 0°C | 0% | 0hPa | 2.9V | 00:00:00 | 00:55:45 | 00:00:00 | |
| DO2SHX-10 | 2026-09-03 11:15:08 | 54.06205 | 13.85943 | 102° | 66km/h | 9699m | 6.2m/s | 0°C | 0% | 0hPa | 2.9V | 00:00:00 | 00:55:42 | 00:00:00 | |
| DL1XH1-15 | 2026-09-03 11:15:07 | 54.06233 | 13.85775 | 102° | 69km/h | 9670m | 4.7m/s | -47.8°C | 71.1% | 285.6hPa | 2.9V | 00:00:00 | 00:55:36 | 00:00:00 | |
| AA1-15 | 2026-09-03 11:15:05 | 54.06219 | 13.85860 | 109° | 68km/h | 9683m | 4m/s | -47.9°C | 67.5% | 284.9hPa | 2.8V | 18:12:15 | 00:55:39 | 00:00:00 | |
| DL1XH-west | 2026-09-03 11:15:03 | 54.06229 | 13.85804 | 104° | 69km/h | 9675m | 5.5m/s | -47.8°C | 67.5% | 285.4hPa | 2.9V | 18:12:15 | 00:55:37 | 00:00:00 | |
| DO2SHX-10 | 2026-09-03 11:15:02 | 54.06233 | 13.85775 | 103° | 69km/h | 9670m | 4.7m/s | 0°C | 0% | 0hPa | 2.8V | 00:00:00 | 00:55:36 | 00:00:00 | |
| DL1XH-15 | 2026-09-03 11:15:01 | 54.06242 | 13.85687 | 98° | 71km/h | 9654m | 3m/s | -47.6°C | 69.4% | 286.3hPa | 2.8V | 08:30:00 | 00:55:33 | 00:00:00 | |
| S3001 | 2026-09-03 11:14:59 | 54.06245 | 13.85657 | 97° | 71km/h | 9650m | 5.4m/s | -47.6°C | 62.4% | 286.4hPa | 2.8V | 00:00:00 | 00:00:00 | 00:00:00 | |
| MECKS9 | 2026-09-03 11:14:58 | 54.06242 | 13.85687 | 99° | 71km/h | 9654m | 3.0m/s | -47.7°C | 63.4% | 286.3hPa | 2.8V | 00:00:00 | 00:00:00 | 00:00:00 | |
| DL1XH1-15 | 2026-09-03 11:14:57 | 54.06262 | 13.85489 | 103° | 64km/h | 9619m | 5.3m/s | -47.4°C | 69.3% | 287.7hPa | 2.8V | 00:00:00 | 00:55:26 | 00:00:00 | |
| AA1-15 | 2026-09-03 11:14:55 | 54.06251 | 13.85569 | 98° | 66km/h | 9634m | 5.7m/s | -47.5°C | 64.8% | 287.2hPa | 2.9V | 18:12:15 | 00:55:29 | 00:00:00 | |
| DL1XH-west | 2026-09-03 11:14:52 | 54.06262 | 13.85489 | 104° | 64km/h | 9619m | 5.3m/s | -47.4°C | 65% | 287.7hPa | 2.8V | 18:12:15 | 00:55:26 | 00:00:00 | |
| DO2SHX-10 | 2026-09-03 11:14:52 | 54.06262 | 13.85488 | 104° | 66km/h | 9619m | 5.3m/s | 0°C | 0% | 0hPa | 2.9V | 00:00:00 | 00:55:26 | 00:00:00 | |
| DL1XH-15 | 2026-09-03 11:14:51 | 54.06273 | 13.85405 | 103° | 68km/h | 9605m | 4.7m/s | -47.2°C | 69.9% | 288.4hPa | 2.9V | 08:30:00 | 00:55:23 | 00:00:00 | |
| AA1-15 | 2026-09-03 11:14:45 | 54.06291 | 13.85294 | 106° | 66km/h | 9585m | 6.4m/s | -47.1°C | 66.7% | 289.3hPa | 2.9V | 18:12:15 | 00:55:19 | 00:00:00 | |
| DO2SHX-10 | 2026-09-03 11:14:43 | 54.06300 | 13.85241 | 109° | 60km/h | 9573m | 5.9m/s | 0°C | 0% | 0hPa | 2.8V | 00:00:00 | 00:55:17 | 00:00:00 | |
| DL1XH-15 | 2026-09-03 11:14:41 | 54.06314 | 13.85140 | 98° | 66km/h | 9554m | 2.5m/s | -46.8°C | 72.1% | 290.6hPa | 2.8V | 08:30:00 | 00:55:13 | 00:00:00 | |
| DL1XH-west | 2026-09-03 11:14:41 | 54.06309 | 13.85192 | 102° | 58km/h | 9562m | 5.1m/s | -46.9°C | 67.2% | 290.1hPa | 2.9V | 18:12:15 | 00:55:15 | 00:00:00 | |
| DO2SHX-10 | 2026-09-03 11:14:40 | 54.06311 | 13.85167 | 99° | 66km/h | 9558m | 4.1m/s | 0°C | 0% | 0hPa | 2.8V | 00:00:00 | 00:55:14 | 00:00:00 | |
| DL1XH1-15 | 2026-09-03 11:14:38 | 54.06334 | 13.84954 | 103° | 77km/h | 9523m | 5.2m/s | -46.5°C | 72.3% | 292hPa | 2.8V | 00:00:00 | 00:55:07 | 00:00:00 | |
| AA1-15 | 2026-09-03 11:14:34 | 54.06330 | 13.84986 | 103° | 78km/h | 9527m | 4.3m/s | -46.6°C | 67.3% | 291.7hPa | 2.9V | 18:12:15 | 00:55:08 | 00:00:00 | |
| DO2SHX-10 | 2026-09-03 11:14:34 | 54.06330 | 13.84986 | 103° | 77km/h | 9528m | 4.3m/s | 0°C | 0% | 0hPa | 2.9V | 00:00:00 | 00:55:08 | 00:00:00 | |
| DL1XH-15 | 2026-09-03 11:14:31 | 54.06355 | 13.84835 | 106° | 64km/h | 9502m | 4.6m/s | -46.3°C | 74.9% | 292.8hPa | 2.9V | 08:30:00 | 00:55:03 | 00:00:00 | |
| DL1XH-west | 2026-09-03 11:14:31 | 54.06344 | 13.84891 | 107° | 73km/h | 9512m | 6.9m/s | -46.4°C | 67.8% | 292.4hPa | 2.9V | 18:12:15 | 00:55:05 | 00:00:00 | |
| DO2SHX-10 | 2026-09-03 11:14:31 | 54.06344 | 13.84891 | 107° | 69km/h | 9512m | 6.9m/s | 0°C | 0% | 0hPa | 2.9V | 00:00:00 | 00:55:05 | 00:00:00 | |
| DO2SHX-10 | 2026-09-03 11:14:28 | 54.06359 | 13.84809 | 105° | 64km/h | 9497m | 3.4m/s | 0°C | 0% | 0hPa | 2.9V | 00:00:00 | 00:55:02 | 00:00:00 | |
| S3001 | 2026-09-03 11:14:27 | 54.06363 | 13.84783 | 102° | 62km/h | 9493m | 5.0m/s | -46.2°C | 68.2% | 293.3hPa | 2.9V | 00:00:00 | 00:00:00 | 00:00:00 | |
| DL1XH1-15 | 2026-09-03 11:14:25 | 54.06382 | 13.84601 | 103° | 75km/h | 9458m | 5.5m/s | -46°C | 74.7% | 0hPa | 2.9V | 00:00:00 | 00:54:55 | 00:00:00 | |
| AA1-15 | 2026-09-03 11:14:24 | 54.06372 | 13.84696 | 98° | 73km/h | 9477m | 7.4m/s | -46.1°C | 69.8% | 294hPa | 2.9V | 18:12:15 | 00:54:58 | 00:00:00 | |
| DO2SHX-10 | 2026-09-03 11:14:22 | 54.06378 | 13.84632 | 102° | 73km/h | 9465m | 7.5m/s | 0°C | 0% | 0hPa | 2.8V | 00:00:00 | 00:54:56 | 00:00:00 | |
| DL1XH-15 | 2026-09-03 11:14:21 | 54.06392 | 13.84539 | 104° | 73km/h | 9446m | 6.4m/s | -45.9°C | 74.7% | 295.3hPa | 2.8V | 08:30:00 | 00:54:53 | 00:00:00 | |
| DL1XH-west | 2026-09-03 11:14:20 | 54.06387 | 13.84570 | 105° | 75km/h | 9452m | 5.9m/s | -45.9°C | 70% | 295.1hPa | 2.8V | 18:12:15 | 00:54:54 | 00:00:00 | |
| AA1-15 | 2026-09-03 11:14:14 | 54.06414 | 13.84402 | 106° | 66km/h | 9416m | 4.2m/s | -45.6°C | 69.9% | 296.6hPa | 2.9V | 18:12:15 | 00:54:48 | 00:00:00 | |
| DL1XH1-15 | 2026-09-03 11:14:12 | 54.06426 | 13.84319 | 103° | 68km/h | 9402m | 6.6m/s | -45.5°C | 74.7% | 0hPa | 2.9V | 00:00:00 | 00:54:45 | 00:00:00 | |
| DL1XH-15 | 2026-09-03 11:14:11 | 54.06435 | 13.84262 | 105° | 69km/h | 9389m | 6m/s | -45.4°C | 74.8% | 297.8hPa | 2.9V | 08:30:00 | 00:54:43 | 00:00:00 | |
| DL1XH-west | 2026-09-03 11:14:09 | 54.06435 | 13.84262 | 105° | 69km/h | 9389m | 6m/s | -45.4°C | 69.9% | 297.8hPa | 2.9V | 18:12:15 | 00:54:43 | 00:00:00 | |
| DL1XH1-15 | 2026-09-03 11:14:05 | 54.06473 | 13.84022 | 103° | 73km/h | 9345m | 5.7m/s | -45°C | 73.5% | 0hPa | 2.9V | 00:00:00 | 00:54:35 | 00:00:00 | |
| AA1-15 | 2026-09-03 11:14:04 | 54.06459 | 13.84111 | 105° | 69km/h | 9363m | 2m/s | -45.1°C | 69.3% | 299.1hPa | 2.9V | 18:12:15 | 00:54:38 | 00:00:00 | |
| DL1XH-west | 2026-09-03 11:13:58 | 54.06486 | 13.83930 | 106° | 71km/h | 9331m | 5.9m/s | -44.8°C | 68.8% | 300.5hPa | 2.8V | 18:12:15 | 00:54:32 | 00:00:00 | |
| AA1-15 | 2026-09-03 11:13:54 | 54.06507 | 13.83808 | 104° | 75km/h | 9308m | 5.1m/s | -44.6°C | 67.9% | 301.5hPa | 2.9V | 18:12:15 | 00:54:28 | 00:00:00 | |
| DL1XH1-15 | 2026-09-03 11:13:52 | 54.06520 | 13.83689 | 97° | 68km/h | 9289m | 6.3m/s | -44.4°C | 0% | 0hPa | 2.9V | 00:00:00 | 00:54:24 | 00:00:00 | |
| DL1XH-west | 2026-09-03 11:13:46 | 54.06536 | 13.83570 | 110° | 73km/h | 9270m | 4m/s | -44.2°C | 66.5% | 303.4hPa | 2.9V | 18:12:15 | 00:54:20 | 00:00:00 | |
| AA1-15 | 2026-09-03 11:13:43 | 54.06555 | 13.83482 | 109° | 71km/h | 9258m | 4.3m/s | -44.1°C | 66.4% | 303.8hPa | 2.9V | 18:12:15 | 00:54:17 | 00:00:00 | |
| DB0DAN | 2026-09-03 11:13:40 | 54.06566 | 13.83400 | 101° | 58km/h | 9245m | 6.6m/s | -44°C | 63.2% | 304.44hPa | 2.9V | 00:00:00 | 00:00:00 | 00:00:00 | |
| DL1XH1-15 | 2026-09-03 11:13:39 | 54.06576 | 13.83320 | 102° | 68km/h | 9229m | 4.8m/s | -43.9°C | 0% | 0hPa | 2.8V | 00:00:00 | 00:54:11 | 00:00:00 | |
| DL1XH-west | 2026-09-03 11:13:35 | 54.06585 | 13.83262 | 108° | 73km/h | 9221m | 4.8m/s | -43.8°C | 64.1% | 305.5hPa | 2.9V | 18:12:15 | 00:54:09 | 00:00:00 | |
| AA1-15 | 2026-09-03 11:13:33 | 54.06597 | 13.83202 | 106° | 75km/h | 9213m | 4.2m/s | -43.7°C | 64.2% | 305.9hPa | 2.9V | 18:12:15 | 00:54:07 | 00:00:00 | |
| DL1XH-15 | 2026-09-03 11:13:31 | 54.06613 | 13.83076 | 98° | 75km/h | 9195m | 5.7m/s | -43.5°C | 69.6% | 306.7hPa | 2.9V | 08:30:00 | 00:54:03 | 00:00:00 | |
| SP3BTT-10 | 2026-09-03 11:13:29 | 54.06613 | 13.83076 | 99° | 71km/h | 9195m | 5.6m/s | -43.5°C | 69.6% | 306.7hPa | 2.9V | 00:00:00 | 00:00:00 | 00:00:00 | |
| S3001 | 2026-09-03 11:13:26 | 54.06625 | 13.82961 | 102° | 57km/h | 9177m | 4.1m/s | -43.4°C | 61.9% | 307.6hPa | 2.9V | 00:00:00 | 00:00:00 | 00:00:00 | |
| DL1XH-15 | 2026-09-03 11:13:24 | 54.06649 | 13.82806 | 106° | 73km/h | 9144m | 6.1m/s | -43.1°C | 67.3% | 309.1hPa | 2.9V | 08:30:00 | 00:53:53 | 00:00:00 | |
| AA1-15 | 2026-09-03 11:13:23 | 54.06632 | 13.82913 | 104° | 58km/h | 9167m | 4.1m/s | -43.3°C | 63.3% | 308.1hPa | 2.8V | 18:12:15 | 00:53:57 | 00:00:00 | |
| MECKS9 | 2026-09-03 11:13:22 | 54.06632 | 13.82913 | 104° | 58km/h | 9167m | 4.1m/s | -43.3°C | 62.5% | 308.1hPa | 2.9V | 00:00:00 | 00:00:00 | 00:00:00 | |
| DG6HD-11 | 2026-09-03 11:13:18 | 54.06655 | 13.82775 | 106° | 71km/h | 9138m | 6.8m/s | -43.0°C | 67.2% | 309.2hPa | 2.9V | 00:00:00 | 00:00:00 | 00:00:00 | |
| DL1XH-15 | 2026-09-03 11:13:14 | 54.06697 | 13.82515 | 106° | 66km/h | 9088m | 4.2m/s | -42.5°C | 63.7% | 311.6hPa | 2.8V | 08:30:00 | 00:53:43 | 00:00:00 | |
| AA1-15 | 2026-09-03 11:13:12 | 54.06681 | 13.82596 | 109° | 68km/h | 9103m | 5.7m/s | -42.7°C | 61.7% | 310.8hPa | 2.9V | 18:12:15 | 00:53:46 | 00:00:00 | |
| DB0DAN | 2026-09-03 11:13:10 | 54.06692 | 13.82542 | 109° | 62km/h | 9092m | 4m/s | -42.6°C | 59.2% | 311.4hPa | 2.9V | 00:00:00 | 00:00:00 | 00:00:00 | |
| DG6HD-15 | 2026-09-03 11:13:06 | 54.06707 | 13.82459 | 108° | 69km/h | 9080m | 5.5m/s | -42.5°C | 57.9% | 312.1hPa | 2.9V | 00:00:00 | 00:00:00 | 00:00:00 | |
| DL1XH-15 | 2026-09-03 11:13:04 | 54.06752 | 13.82229 | 106° | 66km/h | 9038m | 3.8m/s | -42.1°C | 63.3% | 314hPa | 2.9V | 08:30:00 | 00:53:33 | 00:00:00 | |
| AA1-15 | 2026-09-03 11:13:02 | 54.06736 | 13.82312 | 110° | 71km/h | 9051m | 6.7m/s | -42.2°C | 59.2% | 313.4hPa | 2.8V | 18:12:15 | 00:53:36 | 00:00:00 | |
| SP3BTT-10 | 2026-09-03 11:12:59 | 54.06752 | 13.82229 | 107° | 75km/h | 9038m | 3.8m/s | -42.0°C | 63.3% | 314.0hPa | 2.9V | 00:00:00 | 00:00:00 | 00:00:00 | |
| DL1XH-15 | 2026-09-03 11:12:54 | 54.06800 | 13.81933 | 110° | 66km/h | 8990m | 7.6m/s | -41.7°C | 66.6% | 316.3hPa | 2.9V | 08:30:00 | 00:53:23 | 00:00:00 | |
| AA1-15 | 2026-09-03 11:12:52 | 54.06784 | 13.82015 | 107° | 71km/h | 9007m | 5.8m/s | -41.8°C | 63.9% | 315.5hPa | 2.9V | 18:12:15 | 00:53:26 | 00:00:00 | |
| DL1XH-west | 2026-09-03 11:12:44 | 54.06832 | 13.81798 | 112° | 68km/h | 8963m | 4m/s | -41.4°C | 64.5% | 317.6hPa | 2.9V | 18:12:15 | 00:53:18 | 00:00:00 | |
| DG6HD-15 | 2026-09-03 11:12:44 | 54.06832 | 13.81798 | 113° | 68km/h | 8963m | 4.0m/s | -41.4°C | 64.6% | 317.6hPa | 2.8V | 00:00:00 | 00:00:00 | 00:00:00 | |
| DL1XH-15 | 2026-09-03 11:12:43 | 54.06871 | 13.81630 | 111° | 68km/h | 8936m | 5.2m/s | -41.3°C | 71% | 318.8hPa | 2.8V | 08:30:00 | 00:53:12 | 00:00:00 | |
| AA1-15 | 2026-09-03 11:12:41 | 54.06851 | 13.81714 | 111° | 71km/h | 8951m | 3.5m/s | -41.3°C | 65.5% | 318.1hPa | 2.9V | 18:12:15 | 00:53:15 | 00:00:00 | |
| DL1XH1-15 | 2026-09-03 11:12:39 | 54.06886 | 13.81548 | 101° | 69km/h | 8923m | 4.5m/s | -41.2°C | 0% | 0hPa | 2.9V | 00:00:00 | 00:53:09 | 00:00:00 | |
| EDDB2-11 | 2026-09-03 11:12:35 | 54.06889 | 13.81518 | 99° | 71km/h | 8920m | 2.8m/s | -41.2°C | 65.1% | 319.5hPa | 2.9V | 00:00:00 | 00:00:00 | 00:00:00 | |
| DL1XH-15 | 2026-09-03 11:12:33 | 54.06924 | 13.81323 | 117° | 78km/h | 8892m | 3.8m/s | -41°C | 74.9% | 320.8hPa | 2.9V | 08:30:00 | 00:53:02 | 00:00:00 | |
| DL1XH-west | 2026-09-03 11:12:32 | 54.06896 | 13.81454 | 102° | 78km/h | 8911m | 5m/s | -41.1°C | 65.7% | 319.8hPa | 2.9V | 18:12:15 | 00:53:06 | 00:00:00 | |
| AA1-15 | 2026-09-03 11:12:30 | 54.06907 | 13.81387 | 109° | 82km/h | 8901m | 5.7m/s | -41.1°C | 66.5% | 320.3hPa | 2.8V | 18:12:15 | 00:53:04 | 00:00:00 | |
| DL1XH1-15 | 2026-09-03 11:12:29 | 54.06952 | 13.81241 | 121° | 71km/h | 8880m | 6.1m/s | -41°C | 0% | 0hPa | 2.9V | 00:00:00 | 00:52:59 | 00:00:00 | |
| SONDE2-11 | 2026-09-03 11:12:28 | 54.06924 | 13.81323 | 117° | 78km/h | 8892m | 3.8m/s | -41.0°C | 69.8% | 320.8hPa | 2.9V | 00:00:00 | 00:00:00 | 00:00:00 | |
| DL1XH-15 | 2026-09-03 11:12:23 | 54.07005 | 13.81042 | 112° | 71km/h | 8840m | 3.5m/s | -40.6°C | 73.9% | 323.4hPa | 2.9V | 08:30:00 | 00:52:52 | 00:00:00 | |
| DL1XH-west | 2026-09-03 11:12:21 | 54.06985 | 13.81128 | 111° | 71km/h | 8857m | 5.9m/s | -40.8°C | 69.7% | 322.6hPa | 2.9V | 18:12:15 | 00:52:55 | 00:00:00 | |
| AA1-15 | 2026-09-03 11:12:20 | 54.06992 | 13.81100 | 110° | 71km/h | 8850m | 6.9m/s | -40.8°C | 69.5% | 322.9hPa | 2.9V | 18:12:15 | 00:52:54 | 00:00:00 | |
| DL1XH-west | 2026-09-03 11:12:12 | 54.07061 | 13.80837 | 118° | 77km/h | 8808m | 4.7m/s | -40.4°C | 69.9% | 324.7hPa | 2.9V | 18:12:15 | 00:52:45 | 00:00:00 | |
| AA1-15 | 2026-09-03 11:12:11 | 54.07070 | 13.80807 | 118° | 78km/h | 8804m | 3.7m/s | -40.4°C | 70.1% | 324.9hPa | 2.9V | 18:12:15 | 00:52:44 | 00:00:00 | |
| EDDB2-11 | 2026-09-03 11:12:05 | 54.07177 | 13.80414 | 108° | 80km/h | 8740m | 7.8m/s | -39.8°C | 74.3% | 328.0hPa | 2.8V | 00:00:00 | 00:00:00 | 00:00:00 | |
| DL1XH-15 | 2026-09-03 11:12:03 | 54.07170 | 13.80447 | 108° | 78km/h | 8745m | 1.9m/s | -39.8°C | 80.8% | 327.8hPa | 2.8V | 08:30:00 | 00:52:32 | 00:00:00 | |
| AA1-15 | 2026-09-03 11:11:59 | 54.07164 | 13.80478 | 112° | 75km/h | 8749m | 5.3m/s | -39.9°C | 72.5% | 327.6hPa | 2.8V | 18:12:15 | 00:52:33 | 00:00:00 | |
| SONDE2-11 | 2026-09-03 11:11:57 | 54.07177 | 13.80414 | 108° | 80km/h | 8740m | 7.8m/s | -39.8°C | 74.3% | 328.0hPa | 2.9V | 00:00:00 | 00:00:00 | 00:00:00 | |
| DL1XH-15 | 2026-09-03 11:11:53 | 54.07251 | 13.80131 | 114° | 78km/h | 8681m | 5.1m/s | -39.2°C | 75.6% | 330.9hPa | 2.9V | 08:30:00 | 00:52:22 | 00:00:00 | |
| DL1XH1-15 | 2026-09-03 11:11:52 | 54.07234 | 13.80191 | 119° | 78km/h | 8692m | 6.6m/s | -39.3°C | 0% | 0hPa | 2.9V | 00:00:00 | 00:52:24 | 00:00:00 | |
| DL1XH-west | 2026-09-03 11:11:52 | 54.07214 | 13.80252 | 118° | 82km/h | 8707m | 7.7m/s | -39.5°C | 71.1% | 329.7hPa | 2.9V | 18:12:15 | 00:52:26 | 00:00:00 | |
| AA1-15 | 2026-09-03 11:11:48 | 54.07252 | 13.80131 | 114° | 78km/h | 8681m | 5.1m/s | -39.2°C | 69.4% | 330.9hPa | 2.9V | 18:12:15 | 00:52:22 | 00:00:00 | |
| DG6HD-11 | 2026-09-03 11:11:47 | 54.07259 | 13.80101 | 113° | 80km/h | 8676m | 6.6m/s | -39.1°C | 75.4% | 331.1hPa | 2.9V | 00:00:00 | 00:00:00 | 00:00:00 | |
| SP3BTT-10 | 2026-09-03 11:11:44 | 54.07281 | 13.80007 | 112° | 80km/h | 8660m | 4.4m/s | -39.0°C | 75.6% | 331.8hPa | 2.9V | 00:00:00 | 00:00:00 | 00:00:00 | |
| DL1XH1-15 | 2026-09-03 11:11:41 | 54.07328 | 13.79821 | 114° | 86km/h | 8627m | 4.3m/s | -38.8°C | 0% | 0hPa | 2.9V | 00:00:00 | 00:52:12 | 00:00:00 | |
| DL1XH-west | 2026-09-03 11:11:41 | 54.07303 | 13.79914 | 112° | 75km/h | 8644m | 2.7m/s | -38.9°C | 69% | 332.7hPa | 2.8V | 18:12:15 | 00:52:15 | 00:00:00 | |
| DB0DAN | 2026-09-03 11:11:40 | 54.07311 | 13.79884 | 114° | 73km/h | 8639m | 6.2m/s | -38.9°C | 70.5% | 332.85hPa | 2.9V | 00:00:00 | 00:00:00 | 00:00:00 | |
| AA1-15 | 2026-09-03 11:11:38 | 54.07328 | 13.79821 | 115° | 86km/h | 8627m | 4.3m/s | -38.8°C | 69.3% | 333.5hPa | 2.9V | 18:12:15 | 00:52:12 | 00:00:00 | |
| DL1XH-west | 2026-09-03 11:11:31 | 54.07390 | 13.79593 | 112° | 77km/h | 8588m | 7.4m/s | -38.5°C | 71% | 335.3hPa | 2.9V | 18:12:15 | 00:52:05 | 00:00:00 | |
| DL1XH1-15 | 2026-09-03 11:11:28 | 54.07414 | 13.79500 | 114° | 82km/h | 8568m | 5.8m/s | -38.3°C | 0% | 0hPa | 2.8V | 00:00:00 | 00:52:02 | 00:00:00 | |
| AA1-15 | 2026-09-03 11:11:28 | 54.07414 | 13.79500 | 114° | 82km/h | 8568m | 5.8m/s | -38.3°C | 70.8% | 336.4hPa | 2.8V | 18:12:15 | 00:52:02 | 00:00:00 | |
| SONDE2-11 | 2026-09-03 11:11:26 | 54.07430 | 13.79435 | 110° | 80km/h | 8558m | 6.0m/s | -38.2°C | 71.8% | 336.8hPa | 2.9V | 00:00:00 | 00:00:00 | 00:00:00 | |
| DL1XH1-15 | 2026-09-03 11:11:23 | 54.07494 | 13.79186 | 115° | 84km/h | 8513m | 6.6m/s | 0°C | 0% | 0hPa | 2.9V | 00:00:00 | 00:51:52 | 00:00:00 | |
| DL1XH-west | 2026-09-03 11:11:21 | 54.07467 | 13.79282 | 116° | 80km/h | 8531m | 3.7m/s | -37.9°C | 71.8% | 338.2hPa | 2.8V | 18:12:15 | 00:51:55 | 00:00:00 | |
| AA1-15 | 2026-09-03 11:11:17 | 54.07503 | 13.79152 | 114° | 88km/h | 8508m | 4.3m/s | -37.7°C | 70.3% | 339.3hPa | 2.9V | 18:12:15 | 00:51:51 | 00:00:00 | |
| DG6HD-11 | 2026-09-03 11:11:17 | 54.07503 | 13.79152 | 114° | 84km/h | 8508m | 4.2m/s | -37.7°C | 74.6% | 339.2hPa | 2.8V | 00:00:00 | 00:00:00 | 00:00:00 | |
| DL1XH-15 | 2026-09-03 11:11:14 | 54.07580 | 13.78852 | 117° | 82km/h | 8460m | 5.1m/s | -37.3°C | 75% | 341.5hPa | 2.8V | 08:30:00 | 00:51:42 | 00:00:00 | |
| DL1XH-west | 2026-09-03 11:11:10 | 54.07562 | 13.78914 | 113° | 80km/h | 8470m | 4.7m/s | -37.4°C | 70.2% | 341hPa | 2.9V | 18:12:15 | 00:51:44 | 00:00:00 | |
| AA1-15 | 2026-09-03 11:11:07 | 54.07590 | 13.78820 | 117° | 84km/h | 8455m | 4.9m/s | -37.3°C | 70.2% | 341.8hPa | 2.8V | 18:12:15 | 00:51:41 | 00:00:00 | |
| DL1XH-15 | 2026-09-03 11:11:03 | 54.07661 | 13.78537 | 111° | 82km/h | 8411m | 6.6m/s | -36.9°C | 75.2% | 344hPa | 2.8V | 08:30:00 | 00:51:32 | 00:00:00 | |
| DL1XH-west | 2026-09-03 11:11:00 | 54.07646 | 13.78601 | 113° | 80km/h | 8423m | 4.6m/s | -37°C | 71.1% | 343.5hPa | 2.9V | 18:12:15 | 00:51:34 | 00:00:00 | |
| DG6HD-15 | 2026-09-03 11:10:59 | 54.07646 | 13.78601 | 114° | 80km/h | 8423m | 4.6m/s | -37.0°C | 71.5% | 343.5hPa | 2.9V | 00:00:00 | 00:00:00 | 00:00:00 | |
| DL1XH1-15 | 2026-09-03 11:10:58 | 54.07693 | 13.78406 | 112° | 86km/h | 8391m | 3.8m/s | 0°C | 0% | 0hPa | 2.9V | 00:00:00 | 00:51:28 | 00:00:00 | |
| AA1-15 | 2026-09-03 11:10:57 | 54.07668 | 13.78505 | 111° | 80km/h | 8405m | 5.6m/s | -36.9°C | 71.2% | 344.2hPa | 2.9V | 18:12:15 | 00:51:31 | 00:00:00 | |
| SONDE2-11 | 2026-09-03 11:10:55 | 54.07684 | 13.78440 | 112° | 84km/h | 8395m | 3.5m/s | -36.7°C | 71.5% | 344.8hPa | 2.9V | 00:00:00 | 00:00:00 | 00:00:00 | |
| DB0DAN | 2026-09-03 11:10:55 | 54.07684 | 13.78440 | 113° | 80km/h | 8395m | 3.5m/s | -36.7°C | 71.5% | 344.75hPa | 2.9V | 00:00:00 | 00:00:00 | 00:00:00 | |
| DL1XH-15 | 2026-09-03 11:10:53 | 54.07737 | 13.78195 | 115° | 84km/h | 8364m | 4.4m/s | -36.5°C | 75.2% | 346.3hPa | 2.9V | 08:30:00 | 00:51:22 | 00:00:00 | |
| DL1XH-west | 2026-09-03 11:10:49 | 54.07729 | 13.78228 | 112° | 84km/h | 8370m | 5.3m/s | -36.6°C | 70.8% | 346.1hPa | 2.8V | 18:12:15 | 00:51:23 | 00:00:00 | |
| AA1-15 | 2026-09-03 11:10:47 | 54.07755 | 13.78132 | 116° | 80km/h | 8355m | 5.2m/s | -36.5°C | 70.1% | 346.8hPa | 2.9V | 18:12:15 | 00:51:20 | 00:00:00 | |
| MECKS9 | 2026-09-03 11:10:42 | 54.07780 | 13.78040 | 115° | 77km/h | 8342m | 5.0m/s | -36.3°C | 73.2% | 347.5hPa | 2.8V | 00:00:00 | 00:00:00 | 00:00:00 | |
| DL1XH-15 | 2026-09-03 11:10:42 | 54.07820 | 13.77871 | 110° | 91km/h | 8319m | 5.3m/s | -36.2°C | 77.5% | 348.8hPa | 2.9V | 08:30:00 | 00:51:12 | 00:00:00 | |
| DB0DAN | 2026-09-03 11:10:40 | 54.07804 | 13.77944 | 111° | 82km/h | 8328m | 4.8m/s | -36.3°C | 73.7% | 347.87hPa | 2.8V | 00:00:00 | 00:00:00 | 00:00:00 | |
| DL1XH-west | 2026-09-03 11:10:36 | 54.07835 | 13.77798 | 110° | 88km/h | 8310m | 4.7m/s | -36.1°C | 72% | 349hPa | 2.9V | 18:12:15 | 00:51:10 | 00:00:00 | |
| DL1XH1-15 | 2026-09-03 11:10:36 | 54.07855 | 13.77698 | 109° | 78km/h | 8294m | 5.3m/s | 0°C | 0% | 0hPa | 2.9V | 00:00:00 | 00:51:07 | 00:00:00 | |
| AA1-15 | 2026-09-03 11:10:35 | 54.07842 | 13.77763 | 108° | 84km/h | 8305m | 6.4m/s | -36.1°C | 71.6% | 349.2hPa | 2.8V | 18:12:15 | 00:51:09 | 00:00:00 | |
| DL1XH-15 | 2026-09-03 11:10:31 | 54.07890 | 13.77540 | 112° | 78km/h | 8262m | 4.2m/s | -35.7°C | 75% | 351.4hPa | 2.9V | 08:30:00 | 00:51:02 | 00:00:00 | |
| DL1XH1-15 | 2026-09-03 11:10:25 | 54.07930 | 13.77372 | 108° | 93km/h | 8234m | 2.8m/s | 0°C | 0% | 0hPa | 2.9V | 00:00:00 | 00:50:57 | 00:00:00 | |
| AA1-15 | 2026-09-03 11:10:25 | 54.07914 | 13.77444 | 113° | 84km/h | 8246m | 7.7m/s | -35.6°C | 68% | 352.1hPa | 2.9V | 18:12:15 | 00:50:59 | 00:00:00 | |
| DL1XH-west | 2026-09-03 11:10:24 | 54.07922 | 13.77409 | 112° | 91km/h | 8239m | 6.2m/s | 0°C | 0% | 352.4hPa | 2.9V | 18:12:15 | 00:50:58 | 00:00:00 | |
| SONDE2-11 | 2026-09-03 11:10:24 | 54.07922 | 13.77409 | 111° | 91km/h | 8239m | 6.2m/s | -35.5°C | 66.9% | 352.4hPa | 2.9V | 00:00:00 | 00:00:00 | 00:00:00 | |
| DL1XH-15 | 2026-09-03 11:10:23 | 54.07967 | 13.77199 | 114° | 80km/h | 8206m | 4.4m/s | -35.3°C | 70.1% | 354.1hPa | 2.9V | 08:30:00 | 00:50:52 | 00:00:00 | |
| AA1-15 | 2026-09-03 11:10:15 | 54.07995 | 13.77103 | 117° | 88km/h | 8189m | 4.8m/s | -35.2°C | 67% | 355hPa | 2.9V | 18:12:15 | 00:50:49 | 00:00:00 | |
| DL1XH-west | 2026-09-03 11:10:14 | 54.08005 | 13.77068 | 115° | 89km/h | 8184m | 5.8m/s | 0°C | 0% | 0hPa | 2.9V | 18:12:15 | 00:50:48 | 00:00:00 | |
| SP3BTT-10 | 2026-09-03 11:10:14 | 54.08005 | 13.77068 | 115° | 86km/h | 8184m | 5.7m/s | -35.1°C | 72.2% | 355.3hPa | 2.9V | 00:00:00 | 00:00:00 | 08:30:00 | |
| DL1XH-15 | 2026-09-03 11:10:13 | 54.08058 | 13.76866 | 113° | 78km/h | 8149m | 5.6m/s | -34.8°C | 69.6% | 357.1hPa | 2.9V | 08:30:00 | 00:50:42 | 00:00:00 | |
| DL1XH1-15 | 2026-09-03 11:10:10 | 54.08050 | 13.76898 | 113° | 82km/h | 8155m | 6.6m/s | 0°C | 0% | 0hPa | 2.9V | 00:00:00 | 00:50:43 | 00:00:00 | |
| DL1XH-west | 2026-09-03 11:10:04 | 54.08090 | 13.76743 | 112° | 78km/h | 8126m | 6.1m/s | 0°C | 0% | 0hPa | 2.9V | 18:12:15 | 00:50:38 | 00:00:00 | |
| DL1XH-15 | 2026-09-03 11:10:03 | 54.08140 | 13.76548 | 112° | 75km/h | 8094m | 4.6m/s | -34.2°C | 69% | 360hPa | 2.9V | 08:30:00 | 00:50:32 | 00:00:00 | |
| DL1XH-west | 2026-09-03 11:09:54 | 54.08173 | 13.76431 | 117° | 80km/h | 8071m | 5.2m/s | 0°C | 0% | 0hPa | 2.9V | 18:12:15 | 00:50:28 | 00:00:00 | |
| SONDE2-11 | 2026-09-03 11:09:53 | 54.08182 | 13.76399 | 114° | 84km/h | 8066m | 4.9m/s | -34.0°C | 66.4% | 361.3hPa | 2.9V | 00:00:00 | 00:00:00 | 00:00:00 | |
| S3001 | 2026-09-03 11:09:48 | 54.08222 | 13.76236 | 112° | 80km/h | 8038m | 5.0m/s | -33.7°C | 64.6% | 362.8hPa | 2.9V | 00:00:00 | 00:00:00 | 00:00:00 | |
| DG6HD-11 | 2026-09-03 11:09:47 | 54.08231 | 13.76203 | 115° | 82km/h | 8032m | 6.4m/s | -33.6°C | 68.2% | 363.1hPa | 2.9V | 00:00:00 | 00:00:00 | 00:00:00 | |
| SP3BTT-10 | 2026-09-03 11:09:44 | 54.08260 | 13.76099 | 116° | 82km/h | 8017m | 6.4m/s | -33.5°C | 67.2% | 364.0hPa | 2.9V | 00:00:00 | 00:00:00 | 00:00:00 | |
| DL1XH-15 | 2026-09-03 11:09:43 | 54.08307 | 13.75890 | 109° | 88km/h | 7979m | 3.9m/s | -33.1°C | 65.6% | 366hPa | 2.9V | 08:30:00 | 00:50:12 | 00:00:00 | |
| AA1-15 | 2026-09-03 11:09:43 | 54.08270 | 13.76063 | 113° | 89km/h | 8011m | 5.8m/s | -33.4°C | 63.6% | 364.4hPa | 2.8V | 18:12:15 | 00:50:17 | 00:00:00 | |
| DB0DAN | 2026-09-03 11:09:40 | 54.08294 | 13.75960 | 109° | 78km/h | 7991m | 7m/s | -33.3°C | 62.3% | 365.27hPa | 2.9V | 00:00:00 | 00:00:00 | 00:00:00 | |
| DG6HD-15 | 2026-09-03 11:09:37 | 54.08307 | 13.75890 | 111° | 88km/h | 7979m | 3.9m/s | -33.1°C | 62.0% | 366.0hPa | 2.9V | 00:00:00 | 00:00:00 | 00:00:00 | |
| DL1XH-15 | 2026-09-03 11:09:32 | 54.08390 | 13.75582 | 115° | 86km/h | 7920m | 6.7m/s | -32.6°C | 66.1% | 369.1hPa | 2.9V | 08:30:00 | 00:50:02 | 00:00:00 | |
| AA1-15 | 2026-09-03 11:09:32 | 54.08353 | 13.75703 | 118° | 75km/h | 7946m | 5.4m/s | -32.8°C | 62.8% | 367.8hPa | 2.8V | 18:12:15 | 00:50:06 | 00:00:00 | |
| EDDB2-11 | 2026-09-03 11:09:29 | 54.08407 | 13.75512 | 110° | 89km/h | 7910m | 5.7m/s | -32.5°C | 62.7% | 369.6hPa | 2.9V | 00:00:00 | 00:00:00 | 00:00:00 | |
| DL1XH-15 | 2026-09-03 11:09:23 | 54.08463 | 13.75257 | 111° | 84km/h | 7869m | 4.1m/s | -32.1°C | 68.4% | 371.8hPa | 2.9V | 08:30:00 | 00:49:52 | 00:00:00 | |
| AA1-15 | 2026-09-03 11:09:21 | 54.08441 | 13.75349 | 112° | 73km/h | 7885m | 5.4m/s | -32.3°C | 65.1% | 370.9hPa | 2.9V | 18:12:15 | 00:49:55 | 00:00:00 | |
| DG6HD-11 | 2026-09-03 11:09:17 | 54.08471 | 13.75223 | 111° | 86km/h | 7864m | 7.4m/s | -32.1°C | 68.0% | 372.1hPa | 2.9V | 00:00:00 | 00:00:00 | 00:00:00 | |
| SP3BTT-10 | 2026-09-03 11:09:14 | 54.08495 | 13.75121 | 115° | 88km/h | 7845m | 3.6m/s | -31.9°C | 69.9% | 373.2hPa | 2.9V | 00:00:00 | 00:00:00 | 00:00:00 | |
| DL1XH-15 | 2026-09-03 11:09:13 | 54.08554 | 13.74921 | 112° | 86km/h | 7814m | 5.4m/s | -31.7°C | 72.9% | 374.9hPa | 2.9V | 08:30:00 | 00:49:42 | 00:00:00 | |
| AA1-15 | 2026-09-03 11:09:10 | 54.08535 | 13.74988 | 118° | 88km/h | 7826m | 6.3m/s | -31.8°C | 68.4% | 374.2hPa | 2.9V | 18:12:15 | 00:49:44 | 00:00:00 | |
| DL1XH-15 | 2026-09-03 11:09:03 | 54.08630 | 13.74592 | 110° | 77km/h | 7766m | 3.9m/s | -31.4°C | 75.9% | 377.4hPa | 2.9V | 08:30:00 | 00:49:32 | 00:00:00 | |
| AA1-15 | 2026-09-03 11:08:59 | 54.08623 | 13.74623 | 111° | 80km/h | 7770m | 4.6m/s | -31.4°C | 70.5% | 377.1hPa | 2.9V | 18:12:15 | 00:49:33 | 00:00:00 | |
| DL1XH-west | 2026-09-03 11:08:55 | 54.08649 | 13.74492 | 107° | 89km/h | 7750m | 5m/s | 0°C | 0% | 0hPa | 2.9V | 18:12:15 | 00:49:29 | 00:00:00 | |
| SONDE2-11 | 2026-09-03 11:08:51 | 54.08680 | 13.74343 | 114° | 89km/h | 7732m | 4.4m/s | -31.1°C | 70.5% | 379.5hPa | 2.9V | 00:00:00 | 00:00:00 | 00:00:00 | |
| DL1XH-15 | 2026-09-03 11:08:49 | 54.08706 | 13.74239 | 111° | 86km/h | 7714m | 7.5m/s | -30.9°C | 72.5% | 380.4hPa | 2.9V | 08:30:00 | 00:49:22 | 00:00:00 | |
| AA1-15 | 2026-09-03 11:08:49 | 54.08698 | 13.74273 | 113° | 88km/h | 7721m | 7.2m/s | -31°C | 69.4% | 380.1hPa | 2.9V | 18:12:15 | 00:49:23 | 00:00:00 | |
| S3001 | 2026-09-03 11:08:46 | 54.08721 | 13.74171 | 109° | 82km/h | 7697m | 6.7m/s | -30.8°C | 68.7% | 381.2hPa | 2.9V | 00:00:00 | 00:00:00 | 00:00:00 | |
| DL1XH-15 | 2026-09-03 11:08:44 | 54.08766 | 13.73904 | 107° | 88km/h | 7652m | 4.7m/s | -30.4°C | 71.8% | 383.5hPa | 2.9V | 08:30:00 | 00:49:12 | 00:00:00 | |
| AA1-15 | 2026-09-03 11:08:38 | 54.08766 | 13.73904 | 108° | 88km/h | 7653m | 4.7m/s | -30.4°C | 66.6% | 383.5hPa | 2.9V | 18:12:15 | 00:49:12 | 00:00:00 | |
| DG6HD-15 | 2026-09-03 11:08:35 | 54.08781 | 13.73835 | 114° | 86km/h | 7644m | 6.7m/s | -30.3°C | 67.3% | 384.1hPa | 2.9V | 00:00:00 | 00:00:00 | 00:00:00 | |
| DL1XH-15 | 2026-09-03 11:08:30 | 54.08852 | 13.73573 | 111° | 88km/h | 7596m | 5.8m/s | -29.9°C | 70% | 386.6hPa | 2.9V | 08:30:00 | 00:49:02 | 00:00:00 | |
| AA1-15 | 2026-09-03 11:08:27 | 54.08860 | 13.73538 | 113° | 88km/h | 7589m | 8.5m/s | -29.8°C | 66.8% | 387hPa | 2.8V | 18:12:15 | 00:49:01 | 00:00:00 | |
| DL1XH-15 | 2026-09-03 11:08:23 | 54.08931 | 13.73247 | 115° | 78km/h | 7532m | 7.5m/s | -29.3°C | 68.2% | 390.1hPa | 2.9V | 08:30:00 | 00:48:52 | 00:00:00 | |
| AA1-15 | 2026-09-03 11:08:16 | 54.08947 | 13.73186 | 111° | 77km/h | 7520m | 5.1m/s | -29.2°C | 65% | 390.7hPa | 2.9V | 18:12:15 | 00:48:50 | 00:00:00 | |
| DL1XH-west | 2026-09-03 11:08:14 | 54.08960 | 13.73120 | 109° | 84km/h | 7512m | 4m/s | 0°C | 0% | 0hPa | 2.9V | 18:12:15 | 00:48:48 | 00:00:00 | |
| SP3BTT-10 | 2026-09-03 11:08:14 | 54.08960 | 13.73120 | 109° | 80km/h | 7512m | 3.9m/s | 0°C | 0% | 0hPa | 2.9V | 00:00:00 | 00:00:00 | 00:00:00 | |
| DL1XH-15 | 2026-09-03 11:08:12 | 54.09007 | 13.72923 | 110° | 73km/h | 7485m | 5.1m/s | -28.9°C | 70.9% | 392.6hPa | 2.9V | 08:30:00 | 00:48:42 | 00:00:00 | |
| AA1-15 | 2026-09-03 11:08:05 | 54.09026 | 13.72833 | 109° | 78km/h | 7469m | 3.9m/s | -28.8°C | 68.1% | 393.6hPa | 2.9V | 18:12:15 | 00:48:39 | 00:00:00 | |
| DL1XH-15 | 2026-09-03 11:08:03 | 54.09084 | 13.72596 | 111° | 86km/h | 7426m | 6.1m/s | -28.4°C | 73.6% | 395.9hPa | 2.8V | 08:30:00 | 00:48:32 | 00:00:00 | |
| DL1XH-west | 2026-09-03 11:08:01 | 54.09057 | 13.72698 | 114° | 88km/h | 7443m | 6.1m/s | 0°C | 0% | 0hPa | 2.9V | 18:12:15 | 00:48:35 | 00:00:00 | |
| AA1-15 | 2026-09-03 11:07:55 | 54.09107 | 13.72492 | 112° | 88km/h | 7408m | 4.5m/s | -28.3°C | 68.8% | 396.8hPa | 2.9V | 18:12:15 | 00:48:29 | 00:00:00 | |
| AM1SDL-15 | 2026-09-03 11:07:54 | 54.09115 | 13.72457 | 112° | 80km/h | 7402m | 7.5m/s | -28.2°C | 73.1% | 397.1hPa | 2.9V | 00:00:00 | 00:48:28 | 00:00:00 | |
| DL1XH-15 | 2026-09-03 11:07:53 | 54.09160 | 13.72272 | 115° | 75km/h | 7364m | 5.2m/s | -28°C | 73.7% | 399.2hPa | 2.9V | 08:30:00 | 00:48:22 | 00:00:00 | |
| AA1-15 | 2026-09-03 11:07:44 | 54.09196 | 13.72149 | 115° | 86km/h | 7337m | 6m/s | -27.8°C | 69.2% | 400.7hPa | 2.9V | 18:12:15 | 00:48:18 | 00:00:00 | |
| SP3BTT-10 | 2026-09-03 11:07:44 | 54.09196 | 13.72149 | 116° | 84km/h | 7337m | 5.9m/s | 0°C | 0% | 0hPa | 2.9V | 00:00:00 | 00:00:00 | 00:00:00 | |
| DL1XH-15 | 2026-09-03 11:07:43 | 54.09244 | 13.71939 | 111° | 82km/h | 7303m | 5.1m/s | -27.5°C | 73% | 402.6hPa | 2.9V | 08:30:00 | 00:48:12 | 00:00:00 | |
| DG6HD-11 | 2026-09-03 11:07:43 | 54.09205 | 13.72114 | 114° | 80km/h | 7331m | 5.3m/s | -27.7°C | 72.2% | 401.0hPa | 2.9V | 00:00:00 | 00:48:17 | 00:00:00 | |
| AM1SDL-15 | 2026-09-03 11:07:42 | 54.09214 | 13.72079 | 112° | 82km/h | 7326m | 6.2m/s | -27.6°C | 71.5% | 401.3hPa | 2.9V | 00:00:00 | 00:48:16 | 08:30:00 | |
| DB0DAN | 2026-09-03 11:07:40 | 54.09229 | 13.72007 | 109° | 82km/h | 7313m | 6.1m/s | -27.5°C | 68.5% | 402.07hPa | 2.9V | 00:00:00 | 00:00:00 | 00:00:00 | |
| AA1-15 | 2026-09-03 11:07:34 | 54.09277 | 13.71814 | 118° | 80km/h | 7280m | 6.9m/s | -27.4°C | 70.7% | 403.9hPa | 2.8V | 18:12:15 | 00:48:08 | 00:00:00 | |
| AM1SDL-15 | 2026-09-03 11:07:30 | 54.09314 | 13.71698 | 116° | 77km/h | 7257m | 4.6m/s | -27.1°C | 74.1% | 405.1hPa | 2.9V | 00:00:00 | 00:48:04 | 00:00:00 | |
| DL1XH-15 | 2026-09-03 11:07:29 | 54.09329 | 13.71642 | 115° | 73km/h | 7248m | 4m/s | -27.1°C | 74.7% | 405.8hPa | 2.9V | 08:30:00 | 00:48:02 | 00:00:00 | |
| DB0DAN | 2026-09-03 11:07:25 | 54.09354 | 13.71556 | 115° | 71km/h | 7235m | 5m/s | -27°C | 72.1% | 406.65hPa | 2.9V | 00:00:00 | 00:00:00 | 00:00:00 | |
| AA1-15 | 2026-09-03 11:07:24 | 54.09362 | 13.71527 | 113° | 73km/h | 7229m | 7.1m/s | -27°C | 72.1% | 406.9hPa | 2.9V | 18:12:15 | 00:47:58 | 00:00:00 | |
| MECKS9 | 2026-09-03 11:07:22 | 54.09369 | 13.71497 | 116° | 77km/h | 7223m | 4.9m/s | -27.0°C | 72.0% | 407.2hPa | 2.9V | 00:00:00 | 00:00:00 | 00:00:00 | |
| DL1XH-15 | 2026-09-03 11:07:19 | 54.09420 | 13.71335 | 118° | 88km/h | 7197m | 5.1m/s | -26.8°C | 74.8% | 408.6hPa | 2.9V | 08:30:00 | 00:47:52 | 00:00:00 | |
| AA1-15 | 2026-09-03 11:07:13 | 54.09468 | 13.71183 | 114° | 77km/h | 7173m | 6.9m/s | -26.7°C | 70.4% | 410hPa | 2.8V | 18:12:15 | 00:47:47 | 00:00:00 | |
| DG6HD-11 | 2026-09-03 11:07:13 | 54.09468 | 13.71183 | 115° | 75km/h | 7173m | 6.9m/s | -26.6°C | 75.6% | 409.9hPa | 2.7V | 00:00:00 | 00:00:00 | 00:00:00 | |
| MECKS9 | 2026-09-03 11:07:12 | 54.09468 | 13.71183 | 115° | 77km/h | 7173m | 6.9m/s | -26.7°C | 72.5% | 410.0hPa | 2.9V | 00:00:00 | 00:00:00 | 00:00:00 | |
| DB0DAN | 2026-09-03 11:07:10 | 54.09489 | 13.71093 | 108° | 73km/h | 7157m | 5m/s | -26.5°C | 73.2% | 410.83hPa | 2.9V | 00:00:00 | 00:00:00 | 00:00:00 | |
| DL1XH-15 | 2026-09-03 11:07:09 | 54.09501 | 13.71027 | 108° | 84km/h | 7150m | 3.7m/s | -26.5°C | 75.8% | 411.4hPa | 2.9V | 08:30:00 | 00:47:42 | 00:00:00 | |
| AA1-15 | 2026-09-03 11:07:03 | 54.09539 | 13.70856 | 117° | 78km/h | 7121m | 5.8m/s | -26.3°C | 72.5% | 413.1hPa | 2.9V | 18:12:15 | 00:47:37 | 00:00:00 | |
| MECKS9 | 2026-09-03 11:07:01 | 54.09549 | 13.70827 | 122° | 77km/h | 7115m | 5.6m/s | -26.2°C | 75.6% | 413.4hPa | 2.9V | 00:00:00 | 00:00:00 | 00:00:00 | |
| DL1XH-15 | 2026-09-03 11:06:59 | 54.09581 | 13.70716 | 111° | 75km/h | 7090m | 7.4m/s | -26°C | 77.6% | 414.7hPa | 2.9V | 08:30:00 | 00:47:32 | 00:00:00 | |
| DB0DAN | 2026-09-03 11:06:55 | 54.09606 | 13.70620 | 118° | 80km/h | 7072m | 6.9m/s | -25.9°C | 76.2% | 415.89hPa | 2.9V | 00:00:00 | 00:00:00 | 00:00:00 | |
| AA1-15 | 2026-09-03 11:06:53 | 54.09626 | 13.70562 | 121° | 71km/h | 7059m | 4.9m/s | -25.8°C | 75.7% | 416.5hPa | 2.9V | 18:12:15 | 00:47:27 | 00:00:00 | |
| SONDE2-11 | 2026-09-03 11:06:47 | 54.09661 | 13.70379 | 107° | 73km/h | 7020m | 5.7m/s | -25.5°C | 78.2% | 419.0hPa | 2.9V | 00:00:00 | 00:00:00 | 00:00:00 | |
| AA1-15 | 2026-09-03 11:06:43 | 54.09684 | 13.70295 | 120° | 71km/h | 7002m | 6.3m/s | -25.5°C | 78.1% | 420hPa | 2.9V | 18:12:15 | 00:47:17 | 00:00:00 | |
| DG6HD-11 | 2026-09-03 11:06:43 | 54.09684 | 13.70295 | 121° | 64km/h | 7003m | 6.3m/s | -25.4°C | 82.8% | 419.9hPa | 2.9V | 00:00:00 | 00:00:00 | 00:00:00 | |
| S3001 | 2026-09-03 11:06:42 | 54.09692 | 13.70269 | 120° | 66km/h | 6996m | 8.1m/s | -25.4°C | -1.0% | 420.3hPa | 2.9V | 00:00:00 | 00:00:00 | 00:00:00 | |
| DB0DAN | 2026-09-03 11:06:40 | 54.09706 | 13.70221 | 111° | 57km/h | 6983m | 5.6m/s | -25.4°C | 79.8% | 420.94hPa | 2.9V | 00:00:00 | 00:00:00 | 00:00:00 | |
| AA1-15 | 2026-09-03 11:06:32 | 54.09745 | 13.70018 | 112° | 68km/h | 6934m | 8.9m/s | -25.3°C | 75.2% | 423.9hPa | 2.9V | 18:12:15 | 00:47:06 | 00:00:00 | |
| AM1SDL-15 | 2026-09-03 11:06:30 | 54.09756 | 13.69962 | 109° | 62km/h | 6919m | 7.4m/s | -25.1°C | 79.2% | 424.8hPa | 2.9V | 00:00:00 | 00:47:04 | 00:00:00 | |
| DL1XH-15 | 2026-09-03 11:06:23 | 54.09823 | 13.69661 | 119° | 68km/h | 6841m | 7.1m/s | -24.7°C | 79.3% | 429hPa | 2.9V | 08:30:00 | 00:46:52 | 00:00:00 | |
| AA1-15 | 2026-09-03 11:06:23 | 54.09797 | 13.69767 | 104° | 62km/h | 6868m | 6.1m/s | -24.9°C | 76.6% | 427.6hPa | 2.9V | 18:12:15 | 00:46:56 | 00:00:00 | |
| AM1SDL-15 | 2026-09-03 11:06:18 | 54.09823 | 13.69661 | 120° | 64km/h | 6841m | 7.1m/s | -24.7°C | 79.3% | 428.9hPa | 2.9V | 00:00:00 | 00:46:52 | 00:00:00 | |
| SONDE2-11 | 2026-09-03 11:06:16 | 54.09849 | 13.69590 | 122° | 60km/h | 6822m | 5.8m/s | -24.6°C | 76.0% | 430.2hPa | 2.9V | 00:00:00 | 00:00:00 | 00:00:00 | |
| MECKS9 | 2026-09-03 11:06:14 | 54.09849 | 13.69590 | 123° | 62km/h | 6823m | 5.8m/s | -24.6°C | 76.0% | 430.2hPa | 2.9V | 00:00:00 | 00:00:00 | 00:00:00 | |
| DL1XH-15 | 2026-09-03 11:06:13 | 54.09901 | 13.69391 | 111° | 58km/h | 6784m | 3.4m/s | -24.3°C | 81.3% | 432.4hPa | 2.9V | 08:30:00 | 00:46:41 | 00:00:00 | |
| AA1-15 | 2026-09-03 11:06:12 | 54.09872 | 13.69520 | 115° | 62km/h | 6807m | 5.7m/s | -24.5°C | 73.1% | 431.1hPa | 2.9V | 18:12:15 | 00:46:46 | 00:00:00 | |
| S3001 | 2026-09-03 11:06:11 | 54.09878 | 13.69495 | 113° | 66km/h | 6801m | 5.6m/s | 0°C | -1.0% | 431.4hPa | 2.8V | 00:00:00 | 00:00:00 | 00:00:00 | |
| AM1SDL-15 | 2026-09-03 11:06:06 | 54.09907 | 13.69368 | 114° | 62km/h | 6780m | 4.7m/s | -24.3°C | 81.5% | 432.6hPa | 2.8V | 00:00:00 | 00:46:40 | 00:00:00 | |
| MECKS9 | 2026-09-03 11:06:03 | 54.09917 | 13.69324 | 110° | 55km/h | 6768m | 7.1m/s | -24.4°C | 79.2% | 433.2hPa | 2.8V | 00:00:00 | 00:00:00 | 00:00:00 | |
| DL1XH-15 | 2026-09-03 11:06:02 | 54.09957 | 13.69145 | 121° | 64km/h | 6722m | 5.4m/s | -24.1°C | 81.5% | 436hPa | 2.8V | 08:30:00 | 00:46:31 | 00:00:00 | |
| AA1-15 | 2026-09-03 11:06:01 | 54.09930 | 13.69246 | 105° | 68km/h | 6750m | 8.5m/s | -24.2°C | 77.6% | 434.6hPa | 2.9V | 18:12:15 | 00:46:35 | 00:00:00 | |
| AM1SDL-15 | 2026-09-03 11:05:54 | 54.09983 | 13.69077 | 121° | 58km/h | 6705m | 7.9m/s | -23.9°C | 81.0% | 437.2hPa | 2.9V | 00:00:00 | 00:46:28 | 08:30:00 | |
| DL1XH-15 | 2026-09-03 11:05:52 | 54.10027 | 13.68928 | 119° | 57km/h | 6668m | 3.3m/s | -23.7°C | 80.1% | 439.4hPa | 2.9V | 08:30:00 | 00:46:21 | 00:00:00 | |
| AA1-15 | 2026-09-03 11:05:50 | 54.10008 | 13.68993 | 114° | 55km/h | 6680m | 3.4m/s | -23.8°C | 75.7% | 438.6hPa | 2.9V | 18:12:15 | 00:46:24 | 00:00:00 | |
| SONDE2-11 | 2026-09-03 11:05:45 | 54.10050 | 13.68861 | 118° | 64km/h | 6656m | 4.8m/s | -23.6°C | 78.3% | 440.2hPa | 2.9V | 00:00:00 | 00:00:00 | 00:00:00 | |
| DG6HD-11 | 2026-09-03 11:05:43 | 54.10058 | 13.68836 | 117° | 66km/h | 6652m | 3.4m/s | -23.5°C | 81.5% | 440.4hPa | 2.9V | 00:00:00 | 00:00:00 | 08:30:00 | |
| DL1XH-15 | 2026-09-03 11:05:42 | 54.10112 | 13.68684 | 118° | 68km/h | 6626m | 4.9m/s | -23.3°C | 81.2% | 442hPa | 2.9V | 08:30:00 | 00:46:11 | 00:00:00 | |
| AA1-15 | 2026-09-03 11:05:40 | 54.10083 | 13.68760 | 123° | 71km/h | 6639m | 4.5m/s | -23.5°C | 71.2% | 441.2hPa | 2.8V | 18:12:15 | 00:46:14 | 00:00:00 | |
| MECKS9 | 2026-09-03 11:05:34 | 54.10126 | 13.68635 | 116° | 62km/h | 6617m | 5.0m/s | -23.3°C | 76.9% | 442.6hPa | 2.9V | 00:00:00 | 00:00:00 | 00:00:00 | |
| DL1XH-15 | 2026-09-03 11:05:32 | 54.10186 | 13.68468 | 115° | 62km/h | 6569m | 6.5m/s | -22.8°C | 74.7% | 445.6hPa | 2.9V | 08:30:00 | 00:46:01 | 00:00:00 | |
| AA1-15 | 2026-09-03 11:05:30 | 54.10165 | 13.68533 | 127° | 55km/h | 6584m | 6.4m/s | -23°C | 69.4% | 444.6hPa | 2.9V | 18:12:15 | 00:46:04 | 00:00:00 | |
| MECKS9 | 2026-09-03 11:05:23 | 54.10210 | 13.68389 | 120° | 77km/h | 6548m | 6.5m/s | -22.6°C | 71.6% | 446.8hPa | 2.9V | 00:00:00 | 00:00:00 | 00:00:00 | |
| DL1XH-15 | 2026-09-03 11:05:22 | 54.10262 | 13.68190 | 122° | 62km/h | 6501m | 7.6m/s | -22.2°C | 73.5% | 449.7hPa | 2.9V | 08:30:00 | 00:45:51 | 00:00:00 | |
| AA1-15 | 2026-09-03 11:05:19 | 54.10248 | 13.68238 | 113° | 66km/h | 6515m | 6.7m/s | -22.3°C | 65.9% | 448.9hPa | 2.9V | 18:12:15 | 00:45:53 | 00:00:00 | |
| AM1SDL-15 | 2026-09-03 11:05:18 | 54.10254 | 13.68213 | 117° | 69km/h | 6508m | 6.6m/s | -22.2°C | 71.9% | 449.3hPa | 2.9V | 00:00:00 | 00:45:52 | 00:00:00 | |
| DG6HD-11 | 2026-09-03 11:05:13 | 54.10301 | 13.68084 | 119° | 73km/h | 6478m | 6.7m/s | -21.9°C | 71.3% | 451.0hPa | 2.9V | 00:00:00 | 00:00:00 | 00:00:00 | |
| DL1XH-15 | 2026-09-03 11:05:12 | 54.10334 | 13.67912 | 110° | 53km/h | 6443m | 4.1m/s | -21.6°C | 59.4% | 453.3hPa | 2.9V | 08:30:00 | 00:45:41 | 00:00:00 | |
| DB0DAN | 2026-09-03 11:05:10 | 54.10321 | 13.67988 | 104° | 69km/h | 6460m | 6.9m/s | -21.8°C | 57.6% | 452.26hPa | 2.9V | 00:00:00 | 00:00:00 | 00:00:00 | |
| AA1-15 | 2026-09-03 11:05:08 | 54.10329 | 13.67934 | 107° | 57km/h | 6447m | 5.2m/s | -21.7°C | 58.4% | 452.9hPa | 2.9V | 18:12:15 | 00:45:42 | 00:00:00 | |
| AM1SDL-15 | 2026-09-03 11:05:06 | 54.10339 | 13.67891 | 118° | 78km/h | 6438m | 5.3m/s | -21.6°C | 58.7% | 453.5hPa | 2.9V | 00:00:00 | 00:45:40 | 00:00:00 | |
| DL1XH-15 | 2026-09-03 11:05:02 | 54.10410 | 13.67607 | 108° | 86km/h | 6391m | 5m/s | -21.2°C | 54.7% | 456.6hPa | 2.9V | 08:30:00 | 00:45:31 | 00:00:00 | |
| AA1-15 | 2026-09-03 11:04:57 | 54.10410 | 13.67607 | 108° | 86km/h | 6391m | 5m/s | -21.2°C | 53.3% | 456.6hPa | 2.9V | 18:12:15 | 00:45:31 | 00:00:00 | |
| DB0DAN | 2026-09-03 11:04:55 | 54.10424 | 13.67541 | 112° | 73km/h | 6377m | 7.8m/s | -21.1°C | 49.4% | 457.43hPa | 2.9V | 00:00:00 | 00:00:00 | 00:00:00 | |
| AM1SDL-15 | 2026-09-03 11:04:54 | 54.10431 | 13.67511 | 115° | 71km/h | 6370m | 7.4m/s | -21.1°C | 47.4% | 457.9hPa | 2.9V | 00:00:00 | 00:45:28 | 00:00:00 | |
| DL1XH-15 | 2026-09-03 11:04:52 | 54.10482 | 13.67338 | 115° | 77km/h | 6329m | 5.5m/s | -20.8°C | 45.8% | 460.4hPa | 2.9V | 08:30:00 | 00:45:21 | 00:00:00 | |
| AA1-15 | 2026-09-03 11:04:47 | 54.10482 | 13.67338 | 115° | 77km/h | 6329m | 5.5m/s | -20.8°C | 45.1% | 460.4hPa | 2.9V | 18:12:15 | 00:45:21 | 00:00:00 | |
| DL1XH-15 | 2026-09-03 11:04:42 | 54.10551 | 13.67046 | 115° | 62km/h | 6263m | 6m/s | -20.2°C | 47.4% | 464hPa | 2.9V | 08:30:00 | 00:45:11 | 00:00:00 | |
| AA1-15 | 2026-09-03 11:04:37 | 54.10551 | 13.67046 | 116° | 62km/h | 6263m | 6m/s | -20.2°C | 46.8% | 464hPa | 2.9V | 18:12:15 | 00:45:11 | 00:00:00 | |
| MECKS9 | 2026-09-03 11:04:35 | 54.10557 | 13.67021 | 111° | 64km/h | 6258m | 5.2m/s | -20.2°C | 45.5% | 464.7hPa | 2.9V | 00:00:00 | 00:00:00 | 00:00:00 | |
| DL1XH-15 | 2026-09-03 11:04:32 | 54.10614 | 13.66767 | 108° | 66km/h | 6217m | 4.4m/s | -19.8°C | 45.6% | 467.3hPa | 2.9V | 08:30:00 | 00:45:01 | 00:00:00 | |
| AA1-15 | 2026-09-03 11:04:26 | 54.10620 | 13.66739 | 110° | 69km/h | 6213m | 4.4m/s | -19.7°C | 43.8% | 467.5hPa | 2.9V | 18:12:15 | 00:45:00 | 00:00:00 | |
| MECKS9 | 2026-09-03 11:04:24 | 54.10626 | 13.66710 | 113° | 73km/h | 6208m | 5.0m/s | -19.7°C | 43.6% | 467.8hPa | 2.9V | 00:00:00 | 00:00:00 | 00:00:00 | |
| SP3BTT-10 | 2026-09-03 11:04:21 | 54.10658 | 13.66601 | 121° | 64km/h | 6191m | 3.4m/s | 0°C | 0% | 0hPa | 2.9V | 00:00:00 | 00:00:00 | 00:00:00 | |
| DL1XH-15 | 2026-09-03 11:04:20 | 54.10685 | 13.66506 | 110° | 64km/h | 6172m | 5.5m/s | -19.4°C | 44.6% | 470.3hPa | 2.9V | 08:30:00 | 00:44:51 | 00:00:00 | |
| AA1-15 | 2026-09-03 11:04:15 | 54.10698 | 13.66453 | 114° | 71km/h | 6159m | 8.2m/s | -19.3°C | 44.1% | 471hPa | 2.9V | 18:12:15 | 00:44:49 | 00:00:00 | |
| DB0DAN | 2026-09-03 11:04:10 | 54.10743 | 13.66307 | 112° | 75km/h | 6131m | 3.7m/s | -19°C | 42.1% | 472.68hPa | 2.9V | 00:00:00 | 00:00:00 | 00:00:00 | |
| DL1XH-15 | 2026-09-03 11:04:10 | 54.10759 | 13.66217 | 102° | 66km/h | 6116m | 5.8m/s | -18.9°C | 46% | 473.7hPa | 2.9V | 08:30:00 | 00:44:41 | 00:00:00 | |
| AA1-15 | 2026-09-03 11:04:05 | 54.10766 | 13.66166 | 109° | 58km/h | 6105m | 5.3m/s | -18.9°C | 46.9% | 474.5hPa | 2.9V | 18:12:15 | 00:44:39 | 00:00:00 | |
| DL1XH-15 | 2026-09-03 11:03:59 | 54.10804 | 13.65938 | 104° | 68km/h | 6063m | 4.1m/s | -18.6°C | 51.6% | 477.1hPa | 2.9V | 08:30:00 | 00:44:31 | 00:00:00 | |
| DB0DAN | 2026-09-03 11:03:55 | 54.10815 | 13.65885 | 115° | 62km/h | 6052m | 4.6m/s | -18.5°C | 50.1% | 477.75hPa | 2.9V | 00:00:00 | 00:00:00 | 00:00:00 | |
| AA1-15 | 2026-09-03 11:03:54 | 54.10822 | 13.65860 | 119° | 64km/h | 6048m | 5.8m/s | -18.5°C | 50.9% | 478hPa | 2.9V | 18:12:15 | 00:44:28 | 00:00:00 | |
| DL1XH-15 | 2026-09-03 11:03:49 | 54.10859 | 13.65694 | 105° | 57km/h | 6005m | 6.9m/s | -18.2°C | 53.3% | 480.6hPa | 2.8V | 08:30:00 | 00:44:21 | 00:00:00 | |
| AA1-15 | 2026-09-03 11:03:43 | 54.10875 | 13.65615 | 114° | 47km/h | 5983m | 3.4m/s | -18°C | 51.8% | 481.9hPa | 2.9V | 18:12:15 | 00:44:17 | 00:00:00 | |
| AM1SDL-15 | 2026-09-03 11:03:42 | 54.10880 | 13.65595 | 112° | 62km/h | 5979m | 3.1m/s | -17.9°C | 55.0% | 482.2hPa | 2.9V | 00:00:00 | 00:44:16 | 00:00:00 | |
| SONDE2-11 | 2026-09-03 11:03:40 | 54.10896 | 13.65523 | 108° | 68km/h | 5963m | 6.6m/s | -17.9°C | 51.3% | 483.2hPa | 2.9V | 00:00:00 | 00:00:00 | 00:00:00 | |
| DL1XH-15 | 2026-09-03 11:03:39 | 54.10906 | 13.65465 | 101° | 69km/h | 5951m | 4.1m/s | -17.8°C | 52.4% | 484.1hPa | 2.9V | 08:30:00 | 00:44:11 | 00:00:00 | |
| AA1-15 | 2026-09-03 11:03:33 | 54.10917 | 13.65357 | 102° | 58km/h | 5930m | 6.5m/s | -17.6°C | 51.3% | 485.4hPa | 2.9V | 18:12:15 | 00:44:07 | 00:00:00 | |
| AA1-15 | 2026-09-03 11:03:22 | 54.10960 | 13.65091 | 99° | 55km/h | 5869m | 6m/s | -17°C | 46.6% | 489.5hPa | 2.8V | 18:12:15 | 00:43:56 | 00:00:00 | |
| DL1XH-15 | 2026-09-03 11:03:19 | 54.10980 | 13.64976 | 106° | 64km/h | 5839m | 5.7m/s | -16.8°C | 49.1% | 491.5hPa | 2.9V | 08:30:00 | 00:43:51 | 00:00:00 | |
| AA1-15 | 2026-09-03 11:03:11 | 54.11004 | 13.64811 | 104° | 66km/h | 5814m | 5.9m/s | -16.6°C | 52.9% | 493.1hPa | 2.9V | 18:12:15 | 00:43:45 | 00:00:00 | |
| DB0DAN | 2026-09-03 11:03:10 | 54.11007 | 13.64783 | 103° | 60km/h | 5809m | 4.3m/s | -16.6°C | 52.8% | 493.43hPa | 2.9V | 00:00:00 | 00:00:00 | 00:00:00 | |
| SONDE2-11 | 2026-09-03 11:03:09 | 54.11011 | 13.64758 | 100° | 58km/h | 5805m | 4.2m/s | -16.6°C | 53.6% | -1.0hPa | 2.9V | 00:00:00 | 00:00:00 | 00:00:00 | |
| DL1XH-15 | 2026-09-03 11:03:08 | 54.11017 | 13.64713 | 107° | 53km/h | 5796m | 5.9m/s | -16.5°C | 55.4% | 494.4hPa | 2.9V | 08:30:00 | 00:43:41 | 00:00:00 | |
| AA1-15 | 2026-09-03 11:03:00 | 54.11055 | 13.64553 | 104° | 55km/h | 5749m | 5.8m/s | -16.2°C | 54% | 497.6hPa | 2.9V | 18:12:15 | 00:43:34 | 00:00:00 | |
| DL1XH-15 | 2026-09-03 11:02:58 | 54.11060 | 13.64487 | 94° | 55km/h | 5735m | 4.7m/s | -16.1°C | 55.3% | 498.6hPa | 2.9V | 08:30:00 | 00:43:31 | 00:00:00 | |
| DB0DAN | 2026-09-03 11:02:55 | 54.11064 | 13.64439 | 104° | 55km/h | 5727m | 3.7m/s | -16°C | 53.9% | 498.78hPa | 2.9V | 00:00:00 | 00:00:00 | 00:00:00 | |
| AA1-15 | 2026-09-03 11:02:49 | 54.11099 | 13.64298 | 111° | 62km/h | 5692m | 5.3m/s | -15.6°C | 51.3% | 501.3hPa | 2.9V | 18:12:15 | 00:43:23 | 00:00:00 | |
| DL1XH-15 | 2026-09-03 11:02:48 | 54.11110 | 13.64247 | 109° | 64km/h | 5682m | 7m/s | -15.6°C | 51.9% | 502hPa | 2.9V | 08:30:00 | 00:43:21 | 00:00:00 | |
| DL1XH-15 | 2026-09-03 11:02:43 | 54.11144 | 13.63995 | 104° | 49km/h | 5628m | 6.2m/s | -14.9°C | 48.9% | 506hPa | 2.9V | 08:30:00 | 00:43:11 | 00:00:00 | |
| AM1SDL-15 | 2026-09-03 11:02:42 | 54.11134 | 13.64117 | 101° | 57km/h | 5651m | 5.8m/s | -15.2°C | 51.1% | 503.9hPa | 2.9V | 00:00:00 | 00:43:16 | 00:00:00 | |
| DB0DAN | 2026-09-03 11:02:40 | 54.11138 | 13.64065 | 96° | 57km/h | 5641m | 4.1m/s | -15.1°C | 49% | 504.65hPa | 2.9V | 00:00:00 | 00:00:00 | 00:00:00 | |
| AA1-15 | 2026-09-03 11:02:39 | 54.11139 | 13.64040 | 96° | 57km/h | 5638m | 3.5m/s | -15°C | 49.5% | 505hPa | 2.9V | 18:12:15 | 00:43:13 | 00:00:00 | |
| SONDE2-11 | 2026-09-03 11:02:38 | 54.11141 | 13.64017 | 100° | 53km/h | 5634m | 4.4m/s | 0°C | -1.0% | -1.0hPa | 2.9V | 00:00:00 | 00:00:00 | 00:00:00 | |
| DL1XH-15 | 2026-09-03 11:02:32 | 54.11206 | 13.63667 | 92° | 49km/h | 5530m | 6.1m/s | -14.2°C | 46.1% | 512.1hPa | 2.9V | 08:30:00 | 00:42:55 | 00:00:00 | |
| AA1-15 | 2026-09-03 11:02:31 | 54.11208 | 13.63595 | 96° | 62km/h | 5515m | 3.7m/s | -14.1°C | 47% | 513.1hPa | 2.9V | 18:12:15 | 00:42:52 | 00:00:00 | |
| DB0DAN | 2026-09-03 11:02:25 | 54.11203 | 13.63746 | 96° | 46km/h | 5553m | 6.4m/s | -14.4°C | 43.8% | 510.55hPa | 2.9V | 00:00:00 | 00:00:00 | 00:00:00 | |
| AM1SDL-15 | 2026-09-03 11:02:22 | 54.11208 | 13.63595 | 97° | 57km/h | 5515m | 3.6m/s | -14.1°C | 46.6% | 513.0hPa | 2.9V | 00:00:00 | 00:42:52 | 08:30:00 | |
| DL1XH-15 | 2026-09-03 11:02:15 | 54.11226 | 13.63494 | 115° | 60km/h | 5495m | 5m/s | -13.9°C | 46.5% | 514.4hPa | 2.9V | 08:30:00 | 00:42:48 | 00:00:00 | |
| AA1-15 | 2026-09-03 11:02:14 | 54.11226 | 13.63494 | 116° | 60km/h | 5495m | 5m/s | -14°C | 46.9% | 514.4hPa | 2.9V | 18:12:15 | 00:42:48 | 00:00:00 | |
| DB0DAN | 2026-09-03 11:02:10 | 54.11244 | 13.63405 | 99° | 49km/h | 5475m | 5.3m/s | -13.7°C | 44.2% | 515.82hPa | 2.9V | 00:00:00 | 00:00:00 | 00:00:00 | |
| AM1SDL-15 | 2026-09-03 11:02:06 | 54.11249 | 13.63318 | 97° | 58km/h | 5455m | 4.0m/s | -13.5°C | 45.7% | 517.2hPa | 2.8V | 00:00:00 | 00:42:40 | 00:00:00 | |
| DL1XH-15 | 2026-09-03 11:02:05 | 54.11255 | 13.63273 | 104° | 55km/h | 5445m | 6.9m/s | -13.5°C | 45.8% | 518hPa | 2.8V | 08:30:00 | 00:42:38 | 00:00:00 | |
| AA1-15 | 2026-09-03 11:02:03 | 54.11259 | 13.63250 | 107° | 53km/h | 5438m | 7.6m/s | -13.4°C | 45.8% | 518.5hPa | 2.9V | 18:12:15 | 00:42:37 | 00:00:00 | |
| DL1XH-15 | 2026-09-03 11:01:55 | 54.11283 | 13.63014 | 103° | 69km/h | 5387m | 5.8m/s | -13°C | 40.9% | 522hPa | 2.9V | 08:30:00 | 00:42:28 | 00:00:00 | |
| AA1-15 | 2026-09-03 11:01:53 | 54.11289 | 13.62986 | 109° | 66km/h | 5381m | 6.2m/s | -12.9°C | 39.9% | 522.4hPa | 2.9V | 18:12:15 | 00:42:27 | 00:00:00 | |
| MECKS9 | 2026-09-03 11:01:52 | 54.11288 | 13.62986 | 110° | 66km/h | 5381m | 6.2m/s | -12.9°C | 38.1% | 522.4hPa | 2.9V | 00:00:00 | 00:00:00 | 00:00:00 | |
| DL1XH-15 | 2026-09-03 11:01:45 | 54.11332 | 13.62774 | 97° | 64km/h | 5324m | 6.4m/s | -12.4°C | 45.2% | 526.1hPa | 2.9V | 08:30:00 | 00:42:18 | 00:00:00 | |
| AA1-15 | 2026-09-03 11:01:43 | 54.11334 | 13.62747 | 95° | 66km/h | 5317m | 7.9m/s | -12.4°C | 45.6% | 526.7hPa | 2.9V | 18:12:15 | 00:42:17 | 00:00:00 | |
| AM1SDL-15 | 2026-09-03 11:01:42 | 54.11335 | 13.62720 | 94° | 60km/h | 5310m | 5.8m/s | -12.3°C | 45.1% | 527.2hPa | 2.9V | 00:00:00 | 00:42:16 | 00:00:00 | |
| DB0DAN | 2026-09-03 11:01:40 | 54.11338 | 13.62669 | 98° | 57km/h | 5300m | 5m/s | -12.2°C | 44.4% | 527.91hPa | 2.9V | 00:00:00 | 00:00:00 | 00:00:00 | |
| DL1XH-15 | 2026-09-03 11:01:35 | 54.11354 | 13.62515 | 113° | 55km/h | 5263m | 4.7m/s | -11.8°C | 42% | 530.5hPa | 2.9V | 08:30:00 | 00:42:08 | 00:00:00 | |
| AA1-15 | 2026-09-03 11:01:33 | 54.11360 | 13.62493 | 117° | 57km/h | 5259m | 4.4m/s | -11.8°C | 44.1% | 530.8hPa | 2.9V | 18:12:15 | 00:42:07 | 00:00:00 | |
| AM1SDL-15 | 2026-09-03 11:01:30 | 54.11380 | 13.62421 | 109° | 62km/h | 5236m | 7.6m/s | -11.7°C | 53.2% | 532.2hPa | 2.8V | 00:00:00 | 00:42:04 | 00:00:00 | |
| DL1XH-15 | 2026-09-03 11:01:25 | 54.11398 | 13.62241 | 102° | 66km/h | 5203m | 4.8m/s | -11.6°C | 37.1% | 534.6hPa | 2.8V | 08:30:00 | 00:41:58 | 00:00:00 | |
| AA1-15 | 2026-09-03 11:01:22 | 54.11405 | 13.62189 | 104° | 58km/h | 5192m | 7.8m/s | -11.6°C | 41.2% | 535.3hPa | 2.9V | 18:12:15 | 00:41:56 | 00:00:00 | |
| AM1SDL-15 | 2026-09-03 11:01:18 | 54.11422 | 13.62103 | 114° | 58km/h | 5166m | 5.3m/s | -11.3°C | 46.4% | 537.1hPa | 2.9V | 00:00:00 | 00:41:52 | 00:00:00 | |
| DL1XH-15 | 2026-09-03 11:01:15 | 54.11438 | 13.62015 | 102° | 55km/h | 5142m | 7.8m/s | -11.2°C | 49.6% | 538.8hPa | 2.9V | 08:30:00 | 00:41:48 | 00:00:00 | |
| AA1-15 | 2026-09-03 11:01:11 | 54.11445 | 13.61944 | 101° | 58km/h | 5123m | 5.3m/s | -11°C | 51.3% | 540.3hPa | 3V | 18:12:15 | 00:41:45 | 00:00:00 | |
| DL1XH-15 | 2026-09-03 11:01:05 | 54.11471 | 13.61761 | 104° | 66km/h | 5088m | 5.4m/s | -10.8°C | 50.5% | 542.5hPa | 2.9V | 08:30:00 | 00:41:38 | 00:00:00 | |
| AA1-15 | 2026-09-03 11:01:00 | 54.11491 | 13.61651 | 104° | 66km/h | 5069m | 5.8m/s | -10.7°C | 59.6% | 543.9hPa | 2.8V | 18:12:15 | 00:41:34 | 00:00:00 | |
| DL1XH-15 | 2026-09-03 11:00:55 | 54.11507 | 13.61491 | 111° | 62km/h | 5037m | 6.4m/s | -10.6°C | 69.7% | 546.4hPa | 3V | 08:30:00 | 00:41:28 | 00:00:00 | |
| DB0DAN | 2026-09-03 11:00:55 | 54.11502 | 13.61517 | 105° | 58km/h | 5042m | 5m/s | -10.6°C | 69.1% | 546.01hPa | 2.9V | 00:00:00 | 00:00:00 | 00:00:00 | |
| AA1-15 | 2026-09-03 11:00:50 | 54.11535 | 13.61363 | 102° | 64km/h | 5007m | 5.4m/s | -10.4°C | 63.9% | 548.4hPa | 2.9V | 18:12:15 | 00:41:23 | 00:00:00 | |
| MECKS9 | 2026-09-03 11:00:48 | 54.11534 | 13.61363 | 103° | 64km/h | 5007m | 5.4m/s | -10.4°C | 62.6% | 548.4hPa | 2.9V | 00:00:00 | 00:00:00 | 00:00:00 | |
| DL1XH-15 | 2026-09-03 11:00:44 | 54.11585 | 13.61103 | 115° | 57km/h | 4956m | 3.7m/s | -10°C | 28.6% | 551.9hPa | 2.9V | 08:30:00 | 00:41:13 | 00:00:00 | |
| DB0DAN | 2026-09-03 11:00:40 | 54.11578 | 13.61126 | 116° | 60km/h | 4961m | 5.2m/s | -10.1°C | 36.7% | 551.68hPa | 2.9V | 00:00:00 | 00:00:00 | 00:00:00 | |
| DL1XH-15 | 2026-09-03 11:00:39 | 54.11605 | 13.60987 | 100° | 60km/h | 4927m | 6.9m/s | -10°C | 63.8% | 554hPa | 2.9V | 08:30:00 | 00:41:08 | 00:00:00 | |
| AA1-15 | 2026-09-03 11:00:39 | 54.11585 | 13.61103 | 116° | 57km/h | 4956m | 3.7m/s | -10°C | 30.5% | 552hPa | 2.9V | 18:12:15 | 00:41:13 | 00:00:00 | |
| AM1SDL-15 | 2026-09-03 11:00:38 | 54.11591 | 13.61081 | 114° | 55km/h | 4951m | 6.0m/s | -10.0°C | 25.6% | 552.1hPa | 2.9V | 00:00:00 | 00:41:12 | 00:00:00 | |
| MECKS9 | 2026-09-03 11:00:37 | 54.11590 | 13.61081 | 115° | 55km/h | 4951m | 6.1m/s | -10.0°C | 24.9% | 552.2hPa | 2.9V | 00:00:00 | 00:00:00 | 00:00:00 | |
| DL1XH-15 | 2026-09-03 11:00:34 | 54.11614 | 13.60871 | 99° | 49km/h | 4890m | 6.8m/s | -9.7°C | 38.3% | 556.3hPa | 2.9V | 08:30:00 | 00:41:03 | 00:00:00 | |
| DL1XH-15 | 2026-09-03 11:00:29 | 54.11625 | 13.60759 | 100° | 55km/h | 4862m | 3.7m/s | -9.5°C | 40.7% | 558.6hPa | 2.9V | 08:30:00 | 00:40:58 | 00:00:00 | |
| AA1-15 | 2026-09-03 11:00:28 | 54.11616 | 13.60850 | 101° | 51km/h | 4884m | 6m/s | -9.7°C | 40.1% | 557hPa | 2.9V | 18:12:15 | 00:41:02 | 00:00:00 | |
| DL1XH-15 | 2026-09-03 11:00:24 | 54.11646 | 13.60637 | 106° | 57km/h | 4837m | 3.7m/s | -9.4°C | 43.5% | 560.4hPa | 2.9V | 08:30:00 | 00:40:53 | 00:00:00 | |
| AM1SDL-15 | 2026-09-03 11:00:24 | 54.11625 | 13.60759 | 101° | 57km/h | 4862m | 3.7m/s | -9.5°C | 40.7% | 558.6hPa | 2.9V | 00:00:00 | 00:40:58 | 08:30:00 | |
| DL1XH-15 | 2026-09-03 11:00:19 | 54.11659 | 13.60521 | 99° | 49km/h | 4812m | 3.9m/s | -9.2°C | 41.1% | 562.3hPa | 3V | 08:30:00 | 00:40:48 | 00:00:00 | |
| AA1-15 | 2026-09-03 11:00:17 | 54.11655 | 13.60565 | 99° | 57km/h | 4822m | 5.2m/s | -9.3°C | 44.3% | 561.3hPa | 3V | 18:12:15 | 00:40:50 | 00:00:00 | |
| DL1XH-15 | 2026-09-03 11:00:14 | 54.11673 | 13.60407 | 106° | 60km/h | 4788m | 5.3m/s | -9°C | 34.7% | 564.1hPa | 3V | 08:30:00 | 00:40:43 | 00:00:00 | |
| AM1SDL-15 | 2026-09-03 11:00:12 | 54.11664 | 13.60479 | 101° | 57km/h | 4803m | 5.5m/s | -9.1°C | 35.9% | 562.9hPa | 3V | 00:00:00 | 00:40:46 | 00:00:00 | |
| DL1XH-15 | 2026-09-03 11:00:09 | 54.11692 | 13.60289 | 104° | 58km/h | 4764m | 4.9m/s | -8.7°C | 34% | 565.8hPa | 3V | 08:30:00 | 00:40:38 | 00:00:00 | |
| AA1-15 | 2026-09-03 11:00:07 | 54.11681 | 13.60359 | 105° | 57km/h | 4777m | 5.7m/s | -8.9°C | 36.6% | 564.7hPa | 3V | 18:12:15 | 00:40:41 | 00:00:00 | |
| AA1-15 | 2026-09-03 10:59:56 | 54.11724 | 13.60081 | 102° | 62km/h | 4729m | 5.3m/s | -8.6°C | 38.2% | 568.4hPa | 2.9V | 18:12:15 | 00:40:30 | 00:00:00 | |
| DB0DAN | 2026-09-03 10:59:55 | 54.11727 | 13.60055 | 102° | 57km/h | 4723m | 5.7m/s | -8.6°C | 36% | 568.83hPa | 3V | 00:00:00 | 00:00:00 | 00:00:00 | |
| DL1XH-15 | 2026-09-03 10:59:53 | 54.11748 | 13.59889 | 99° | 53km/h | 4693m | 4.1m/s | -8.4°C | 43% | 571hPa | 3V | 08:30:00 | 00:40:22 | 00:00:00 | |
| MECKS9 | 2026-09-03 10:59:49 | 54.11743 | 13.59934 | 99° | 57km/h | 4701m | 4.1m/s | -8.5°C | 42.4% | 570.6hPa | 2.9V | 00:00:00 | 00:00:00 | 00:00:00 | |
| DL1XH-15 | 2026-09-03 10:59:48 | 54.11762 | 13.59765 | 103° | 60km/h | 4670m | 4.5m/s | -8.2°C | 39.6% | 572.8hPa | 2.9V | 08:30:00 | 00:40:17 | 00:00:00 | |
| AA1-15 | 2026-09-03 10:59:46 | 54.11753 | 13.59842 | 102° | 58km/h | 4683m | 4.4m/s | -8.3°C | 42.4% | 571.7hPa | 3V | 18:12:15 | 00:40:20 | 00:00:00 | |
| DL1XH-15 | 2026-09-03 10:59:43 | 54.11790 | 13.59635 | 109° | 64km/h | 4647m | 3.9m/s | -8°C | 32.7% | 574.3hPa | 2.9V | 08:30:00 | 00:40:12 | 00:00:00 | |
| DB0DAN | 2026-09-03 10:59:40 | 54.11778 | 13.59687 | 114° | 62km/h | 4656m | 4m/s | -8.1°C | 35.4% | 573.8hPa | 2.9V | 00:00:00 | 00:00:00 | 00:00:00 | |
| DL1XH-15 | 2026-09-03 10:59:38 | 54.11806 | 13.59498 | 97° | 49km/h | 4615m | 5.6m/s | -7.9°C | 21.5% | 576.9hPa | 3V | 08:30:00 | 00:40:06 | 00:00:00 | |
| AA1-15 | 2026-09-03 10:59:35 | 54.11802 | 13.59562 | 99° | 53km/h | 4631m | 5.4m/s | -7.9°C | 27.2% | 575.6hPa | 3V | 18:12:15 | 00:40:09 | 00:00:00 | |
| DL1XH-15 | 2026-09-03 10:59:33 | 54.11825 | 13.59356 | 101° | 62km/h | 4580m | 7m/s | -7.7°C | 19.5% | 579.6hPa | 3V | 08:30:00 | 00:40:00 | 00:00:00 | |
| DG6HD-11 | 2026-09-03 10:59:29 | 54.11814 | 13.59431 | 106° | 66km/h | 4600m | 6.5m/s | -7.8°C | 21.4% | 577.9hPa | 2.9V | 00:00:00 | 00:00:00 | 00:00:00 | |
| DL1XH-15 | 2026-09-03 10:59:27 | 54.11837 | 13.59242 | 101° | 73km/h | 4557m | 4.4m/s | -7.5°C | 15.5% | 581.5hPa | 2.9V | 08:30:00 | 00:39:56 | 00:00:00 | |
| DB0DAN | 2026-09-03 10:59:25 | 54.11828 | 13.59330 | 100° | 62km/h | 4573m | 6.9m/s | -7.6°C | 17.6% | 579.99hPa | 3V | 00:00:00 | 00:00:00 | 00:00:00 | |
| AA1-15 | 2026-09-03 10:59:25 | 54.11828 | 13.59330 | 100° | 64km/h | 4573m | 6.9m/s | -7.6°C | 19.7% | 580hPa | 3V | 18:12:15 | 00:39:59 | 00:00:00 | |
| AM1SDL-15 | 2026-09-03 10:59:24 | 54.11831 | 13.59301 | 100° | 64km/h | 4568m | 4.6m/s | -7.5°C | 17.3% | 580.5hPa | 3V | 00:00:00 | 00:39:58 | 00:00:00 | |
| DL1XH-15 | 2026-09-03 10:59:21 | 54.11860 | 13.59100 | 98° | 62km/h | 4527m | 7.8m/s | -7.3°C | 16.5% | 583.6hPa | 3V | 08:30:00 | 00:39:51 | 00:00:00 | |
| DL1XH-15 | 2026-09-03 10:59:16 | 54.11868 | 13.58968 | 95° | 69km/h | 4497m | 7m/s | -7.1°C | 18.9% | 585.8hPa | 3V | 08:30:00 | 00:39:46 | 00:00:00 | |
| AA1-15 | 2026-09-03 10:59:14 | 54.11865 | 13.59024 | 95° | 60km/h | 4508m | 6.4m/s | -7.2°C | 19.6% | 585hPa | 2.9V | 18:12:15 | 00:39:48 | 00:00:00 | |
| DL1XH-15 | 2026-09-03 10:59:10 | 54.11888 | 13.58825 | 110° | 58km/h | 4471m | 5.1m/s | -7°C | 33.5% | 587.8hPa | 3V | 08:30:00 | 00:39:41 | 00:00:00 | |
| AM1SDL-15 | 2026-09-03 10:59:10 | 54.11873 | 13.58906 | 102° | 64km/h | 4486m | 5.1m/s | -7.0°C | 22.0% | 586.5hPa | 3.0V | 00:00:00 | 00:39:44 | 00:00:00 | |
| DL1XH-15 | 2026-09-03 10:59:05 | 54.11909 | 13.58707 | 103° | 68km/h | 4440m | 6.9m/s | -7°C | 70.9% | 590hPa | 3V | 08:30:00 | 00:39:36 | 00:00:00 | |
| AA1-15 | 2026-09-03 10:59:04 | 54.11902 | 13.58758 | 106° | 57km/h | 4454m | 5.9m/s | -7°C | 59.9% | 589.1hPa | 3V | 18:12:15 | 00:39:38 | 00:00:00 | |
| DL1XH-15 | 2026-09-03 10:59:00 | 54.11927 | 13.58556 | 101° | 71km/h | 4407m | 6.5m/s | -7°C | 85.8% | 592.4hPa | 2.9V | 08:30:00 | 00:39:31 | 00:00:00 | |
| DG6HD-11 | 2026-09-03 10:58:59 | 54.11920 | 13.58617 | 100° | 64km/h | 4419m | 6.3m/s | -6.9°C | 83.3% | 591.3hPa | 2.9V | 00:00:00 | 00:00:00 | 00:00:00 | |
| AM1SDL-15 | 2026-09-03 10:58:58 | 54.11923 | 13.58586 | 100° | 69km/h | 4413m | 4.9m/s | -7.0°C | 85.4% | 592.0hPa | 2.9V | 00:00:00 | 00:39:32 | 00:00:00 | |
| DL1XH-15 | 2026-09-03 10:58:55 | 54.11949 | 13.58403 | 98° | 68km/h | 4379m | 4.7m/s | -7.5°C | 0% | 594.6hPa | 2.9V | 08:30:00 | 00:39:26 | 00:00:00 | |
| AA1-15 | 2026-09-03 10:58:54 | 54.11941 | 13.58463 | 106° | 75km/h | 4389m | 5.4m/s | -7.5°C | 89.3% | 593.7hPa | 2.9V | 18:12:15 | 00:39:28 | 00:00:00 | |
| MECKS9 | 2026-09-03 10:58:51 | 54.11949 | 13.58403 | 100° | 68km/h | 4379m | 4.7m/s | -7.6°C | 89.7% | 594.6hPa | 3V | 00:00:00 | 00:00:00 | 00:00:00 | |
| DL1XH-15 | 2026-09-03 10:58:50 | 54.11961 | 13.58264 | 105° | 66km/h | 4347m | 6m/s | -7.3°C | 0% | 596.9hPa | 3V | 08:30:00 | 00:39:21 | 00:00:00 | |
| AM1SDL-15 | 2026-09-03 10:58:46 | 54.11966 | 13.58237 | 110° | 57km/h | 4341m | 6.7m/s | -7.3°C | 78.7% | 597.3hPa | 3V | 00:00:00 | 00:39:20 | 00:00:00 | |
| DL1XH-15 | 2026-09-03 10:58:45 | 54.11985 | 13.58131 | 102° | 64km/h | 4319m | 5.8m/s | -7.1°C | 0% | 599hPa | 3V | 08:30:00 | 00:39:16 | 00:00:00 | |
| AA1-15 | 2026-09-03 10:58:43 | 54.11981 | 13.58157 | 104° | 64km/h | 4324m | 4.5m/s | -7.2°C | 79.1% | 598.6hPa | 3V | 18:12:15 | 00:39:17 | 00:00:00 | |
| DB0DAN | 2026-09-03 10:58:40 | 54.11991 | 13.58081 | 103° | 53km/h | 4306m | 6.5m/s | -7.1°C | 74% | 600.07hPa | 3V | 00:00:00 | 00:00:00 | 00:00:00 | |
| DL1XH-15 | 2026-09-03 10:58:35 | 54.12004 | 13.57868 | 93° | 69km/h | 4257m | 5.5m/s | 0°C | 0% | 0hPa | 3V | 00:00:00 | 00:39:05 | 00:00:00 | |
| AA1-15 | 2026-09-03 10:58:32 | 54.12004 | 13.57898 | 91° | 68km/h | 4263m | 6.4m/s | -6.8°C | 74.8% | 603.5hPa | 3V | 18:12:15 | 00:39:06 | 00:00:00 | |
| DG6HD-11 | 2026-09-03 10:58:29 | 54.12006 | 13.57813 | 94° | 60km/h | 4247m | 5.4m/s | -6.7°C | 76.4% | 604.7hPa | 2.9V | 00:00:00 | 00:00:00 | 00:00:00 | |
| DL1XH-15 | 2026-09-03 10:58:25 | 54.12012 | 13.57629 | 93° | 66km/h | 4204m | 6.5m/s | 0°C | 0% | 0hPa | 2.9V | 00:00:00 | 00:38:55 | 00:00:00 | |
| AA1-15 | 2026-09-03 10:58:21 | 54.12012 | 13.57629 | 94° | 66km/h | 4204m | 6.5m/s | -6.4°C | 68.9% | 607.9hPa | 2.9V | 18:12:15 | 00:38:55 | 00:00:00 | |
| DL1XH-15 | 2026-09-03 10:58:20 | 54.12012 | 13.57489 | 93° | 66km/h | 4172m | 6.7m/s | 0°C | 0% | 0hPa | 2.9V | 00:00:00 | 00:38:50 | 00:00:00 | |
| DL1XH-15 | 2026-09-03 10:58:14 | 54.12014 | 13.57352 | 86° | 58km/h | 4144m | 4.6m/s | 0°C | 0% | 0hPa | 3V | 00:00:00 | 00:38:45 | 00:00:00 | |
| AA1-15 | 2026-09-03 10:58:11 | 54.12015 | 13.57352 | 86° | 58km/h | 4144m | 4.6m/s | -5.8°C | 64.4% | 612.7hPa | 3V | 18:12:15 | 00:38:45 | 00:00:00 | |
| DB0DAN | 2026-09-03 10:58:10 | 54.12014 | 13.57328 | 87° | 53km/h | 4138m | 7m/s | -5.8°C | 61.9% | 613.13hPa | 3V | 00:00:00 | 00:00:00 | 00:00:00 | |
| AM1SDL-15 | 2026-09-03 10:58:10 | 54.12014 | 13.57327 | 88° | 62km/h | 4138m | 7.0m/s | -5.8°C | 63.0% | 613.1hPa | 3V | 00:00:00 | 00:38:44 | 00:00:00 | |
| DL1XH-15 | 2026-09-03 10:58:09 | 54.12015 | 13.57234 | 88° | 53km/h | 4108m | 8.4m/s | 0°C | 0% | 0hPa | 3V | 00:00:00 | 00:38:40 | 00:00:00 | |
| AA1-15 | 2026-09-03 10:58:00 | 54.12007 | 13.57078 | 90° | 71km/h | 4079m | 3.5m/s | -5.3°C | 66.1% | 617.7hPa | 3V | 18:12:15 | 00:38:34 | 00:00:00 | |
| DG6HD-11 | 2026-09-03 10:57:59 | 54.12008 | 13.57047 | 93° | 58km/h | 4075m | 4.5m/s | 0°C | 0% | 0hPa | 3V | 00:00:00 | 00:00:00 | 00:00:00 | |
| DL1XH-15 | 2026-09-03 10:57:57 | 54.12008 | 13.56855 | 84° | 53km/h | 4040m | 7.7m/s | 0°C | 0% | 0hPa | 3V | 00:00:00 | 00:38:26 | 00:00:00 | |
| DB0DAN | 2026-09-03 10:57:55 | 54.12012 | 13.56931 | 91° | 62km/h | 4057m | 6.6m/s | -5.2°C | 65.8% | 619.57hPa | 2.9V | 00:00:00 | 00:00:00 | 00:00:00 | |
| MECKS9 | 2026-09-03 10:57:54 | 54.12012 | 13.56931 | 92° | 64km/h | 4057m | 6.6m/s | -5.2°C | 0% | 619.6hPa | 3V | 00:00:00 | 00:00:00 | 00:00:00 | |
| DL1XH-15 | 2026-09-03 10:57:52 | 54.12004 | 13.56749 | 92° | 57km/h | 4009m | 4.4m/s | 0°C | 0% | 0hPa | 3V | 00:00:00 | 00:38:21 | 00:00:00 | |
| AA1-15 | 2026-09-03 10:57:49 | 54.12005 | 13.56793 | 84° | 47km/h | 4020m | 6.9m/s | -4.9°C | 63.9% | 622.2hPa | 3V | 18:12:15 | 00:38:23 | 00:00:00 | |
| DL1XH-15 | 2026-09-03 10:57:46 | 54.12015 | 13.56596 | 98° | 57km/h | 3980m | 3.2m/s | 0°C | 0% | 0hPa | 3V | 00:00:00 | 00:38:15 | 00:00:00 | |
| AM1SDL-15 | 2026-09-03 10:57:44 | 54.12008 | 13.56672 | 98° | 60km/h | 3994m | 5.7m/s | -4.6°C | 55.3% | 624.2hPa | 2.9V | 00:00:00 | 00:38:18 | 00:00:00 | |
| MECKS9 | 2026-09-03 10:57:43 | 54.12008 | 13.56672 | 99° | 62km/h | 3994m | 5.8m/s | -4.6°C | 0% | 624.3hPa | 2.9V | 00:00:00 | 00:00:00 | 00:00:00 | |
| DL1XH-15 | 2026-09-03 10:57:41 | 54.12019 | 13.56465 | 86° | 64km/h | 3959m | 5.7m/s | 0°C | 0% | 0hPa | 2.9V | 00:00:00 | 00:38:10 | 00:00:00 | |
| DB0DAN | 2026-09-03 10:57:40 | 54.12017 | 13.56572 | 98° | 53km/h | 3976m | 4.2m/s | -4.4°C | 55.1% | 625.89hPa | 3V | 00:00:00 | 00:00:00 | 00:00:00 | |
| AA1-15 | 2026-09-03 10:57:39 | 54.12019 | 13.56547 | 94° | 60km/h | 3972m | 4m/s | -4.4°C | 57.8% | 626.3hPa | 3V | 18:12:15 | 00:38:13 | 00:00:00 | |
| DL1XH-15 | 2026-09-03 10:57:36 | 54.12015 | 13.56342 | 91° | 58km/h | 3934m | 5.7m/s | 0°C | 0% | 0hPa | 3V | 00:00:00 | 00:38:05 | 00:00:00 | |
| AA1-15 | 2026-09-03 10:57:28 | 54.12013 | 13.56255 | 84° | 73km/h | 3915m | 6.1m/s | -4.1°C | 71.7% | 630.9hPa | 3V | 18:12:15 | 00:38:02 | 00:00:00 | |
| DB0DAN | 2026-09-03 10:57:25 | 54.12009 | 13.56166 | 88° | 58km/h | 3898m | 5.3m/s | -3.9°C | 68.2% | 632.28hPa | 3V | 00:00:00 | 00:00:00 | 00:00:00 | |
| AA1-15 | 2026-09-03 10:57:17 | 54.12000 | 13.55963 | 93° | 69km/h | 3859m | 5.7m/s | -3.6°C | 67.6% | 635.6hPa | 2.9V | 18:12:15 | 00:37:51 | 00:00:00 | |
| DB0DAN | 2026-09-03 10:57:10 | 54.11993 | 13.55773 | 88° | 58km/h | 3815m | 6m/s | -3.4°C | 55.2% | 638.93hPa | 2.9V | 00:00:00 | 00:00:00 | 00:00:00 | |
| AA1-15 | 2026-09-03 10:57:07 | 54.11994 | 13.55690 | 92° | 66km/h | 3799m | 4.9m/s | -3.3°C | 53.2% | 640.1hPa | 3V | 18:12:15 | 00:37:41 | 00:00:00 | |
| AA1-15 | 2026-09-03 10:56:56 | 54.12003 | 13.55425 | 80° | 66km/h | 3739m | 5.4m/s | -3.1°C | 51.8% | 644.8hPa | 3V | 18:12:15 | 00:37:30 | 00:00:00 | |
| DB0DAN | 2026-09-03 10:56:55 | 54.12000 | 13.55398 | 81° | 58km/h | 3733m | 5.8m/s | -3.1°C | 47.1% | 644.91hPa | 3V | 00:00:00 | 00:00:00 | 00:00:00 | |
| AA1-15 | 2026-09-03 10:56:46 | 54.11978 | 13.55196 | 74° | 51km/h | 3695m | 4m/s | -3°C | 57.3% | 648.5hPa | 3V | 18:12:15 | 00:37:20 | 00:00:00 | |
| AM1SDL-15 | 2026-09-03 10:56:44 | 54.11972 | 13.55153 | 79° | 57km/h | 3687m | 4.4m/s | 0°C | 0% | 0hPa | 3V | 00:00:00 | 00:37:18 | 00:00:00 | |
| DB0DAN | 2026-09-03 10:56:40 | 54.11965 | 13.55054 | 84° | 62km/h | 3664m | 6.2m/s | -2.9°C | 66.5% | 651.08hPa | 3V | 00:00:00 | 00:00:00 | 00:00:00 | |
| AA1-15 | 2026-09-03 10:56:36 | 54.11953 | 13.54921 | 85° | 53km/h | 3642m | 5.2m/s | -2.9°C | 76.6% | 652.8hPa | 3V | 18:12:15 | 00:37:09 | 00:00:00 | |
| AM1SDL-15 | 2026-09-03 10:56:32 | 54.11953 | 13.54856 | 92° | 60km/h | 3625m | 5.1m/s | 0°C | 0% | 0hPa | 3V | 00:00:00 | 00:37:06 | 00:00:00 | |
| DB0DAN | 2026-09-03 10:56:25 | 54.11958 | 13.54677 | 93° | 64km/h | 3597m | 4.3m/s | -2.5°C | 74.8% | 656.61hPa | 3V | 00:00:00 | 00:00:00 | 00:00:00 | |
| AA1-15 | 2026-09-03 10:56:25 | 54.11958 | 13.54677 | 93° | 66km/h | 3597m | 4.3m/s | -2.5°C | 75.7% | 656.6hPa | 3V | 18:12:15 | 00:36:59 | 00:00:00 | |
| AA1-15 | 2026-09-03 10:56:14 | 54.11953 | 13.54407 | 91° | 66km/h | 3539m | 6.3m/s | -2.1°C | 66.9% | 661.7hPa | 3V | 18:12:15 | 00:36:48 | 00:00:00 | |
| DB0DAN | 2026-09-03 10:56:10 | 54.11947 | 13.54299 | 81° | 62km/h | 3518m | 7m/s | -2.2°C | 64.9% | 663.7hPa | 3V | 00:00:00 | 00:00:00 | 00:00:00 | |
| AA1-15 | 2026-09-03 10:56:04 | 54.11934 | 13.54137 | 81° | 60km/h | 3480m | 5m/s | -2.2°C | 77% | 666.4hPa | 3V | 18:12:15 | 00:36:38 | 00:00:00 | |
| MECKS9 | 2026-09-03 10:56:00 | 54.11923 | 13.54068 | 71° | 53km/h | 3466m | 5.3m/s | -2.1°C | 0% | 667.6hPa | 3V | 00:00:00 | 00:00:00 | 00:00:00 | |
| DB0DAN | 2026-09-03 10:55:55 | 54.11900 | 13.53925 | 84° | 58km/h | 3434m | 4.5m/s | -1.9°C | 93.4% | 670.45hPa | 3V | 00:00:00 | 00:00:00 | 00:00:00 | |
| AA1-15 | 2026-09-03 10:55:53 | 54.11899 | 13.53877 | 91° | 53km/h | 3424m | 5.6m/s | -1.9°C | 93.8% | 671hPa | 3V | 18:12:15 | 00:36:27 | 00:00:00 | |
| AA1-15 | 2026-09-03 10:55:43 | 54.11906 | 13.53646 | 91° | 64km/h | 3379m | 4.6m/s | -1.6°C | 99.3% | 674.9hPa | 3V | 18:12:15 | 00:36:17 | 00:00:00 | |
| DB0DAN | 2026-09-03 10:55:40 | 54.11903 | 13.53572 | 80° | 46km/h | 3364m | 5.1m/s | -1.5°C | 100% | 676.23hPa | 3V | 00:00:00 | 00:00:00 | 00:00:00 | |
| AA1-15 | 2026-09-03 10:55:32 | 54.11893 | 13.53424 | 85° | 47km/h | 3315m | 8.3m/s | -1.1°C | 100% | 680.4hPa | 3V | 18:12:15 | 00:36:06 | 00:00:00 | |
| DB0DAN | 2026-09-03 10:55:25 | 54.11885 | 13.53297 | 77° | 44km/h | 3268m | 4.5m/s | -0.7°C | 100% | 684.64hPa | 3V | 00:00:00 | 00:00:00 | 00:00:00 | |
| AA1-15 | 2026-09-03 10:55:22 | 54.11877 | 13.53231 | 83° | 57km/h | 3254m | 5.3m/s | -0.7°C | 100% | 685.7hPa | 3V | 18:12:15 | 00:35:56 | 00:00:00 | |
| AA1-15 | 2026-09-03 10:55:11 | 54.11875 | 13.53005 | 79° | 44km/h | 3196m | 7.2m/s | -0.4°C | 99.8% | 690.9hPa | 2.9V | 18:12:15 | 00:35:45 | 00:00:00 | |
| DB0DAN | 2026-09-03 10:55:10 | 54.11873 | 13.52986 | 81° | 44km/h | 3189m | 6.9m/s | -0.4°C | 100% | 691.33hPa | 3V | 00:00:00 | 00:00:00 | 00:00:00 | |
| AA1-15 | 2026-09-03 10:55:01 | 54.11854 | 13.52813 | 67° | 44km/h | 3126m | 7.9m/s | -0.1°C | 100% | 696.8hPa | 3V | 18:12:15 | 00:35:35 | 00:00:00 | |
| DB0DAN | 2026-09-03 10:54:55 | 54.11848 | 13.52708 | 98° | 38km/h | 3091m | 5.4m/s | 0.2°C | 100% | 699.78hPa | 2.9V | 00:00:00 | 00:00:00 | 00:00:00 | |
| AA1-15 | 2026-09-03 10:54:51 | 54.11852 | 13.52642 | 98° | 40km/h | 3072m | 5.5m/s | 0.3°C | 100% | 701.1hPa | 3V | 18:12:15 | 00:35:25 | 00:00:00 | |
| AA1-15 | 2026-09-03 10:54:41 | 54.11837 | 13.52416 | 76° | 55km/h | 3013m | 5.2m/s | 0.6°C | 99.3% | 706.5hPa | 3V | 18:12:15 | 00:35:14 | 00:00:00 | |
| DB0DAN | 2026-09-03 10:54:40 | 54.11837 | 13.52416 | 76° | 51km/h | 3013m | 5.2m/s | 0.6°C | 100% | 706.51hPa | 3V | 00:00:00 | 00:00:00 | 00:00:00 | |
| AA1-15 | 2026-09-03 10:54:29 | 54.11801 | 13.52215 | 95° | 44km/h | 2961m | 5.5m/s | 1°C | 99.4% | 711.2hPa | 3V | 18:12:15 | 00:35:03 | 00:00:00 | |
| DB0DAN | 2026-09-03 10:54:25 | 54.11802 | 13.52129 | 89° | 51km/h | 2944m | 4.3m/s | 1.1°C | 100% | 712.48hPa | 3V | 00:00:00 | 00:00:00 | 00:00:00 | |
| AA1-15 | 2026-09-03 10:54:18 | 54.11785 | 13.51940 | 75° | 53km/h | 2895m | 4m/s | 1.5°C | 97% | 716.8hPa | 2.9V | 18:12:15 | 00:34:50 | 00:00:00 | |
| AA1-15 | 2026-09-03 10:54:08 | 54.11763 | 13.51759 | 82° | 57km/h | 2858m | 7.3m/s | 1.8°C | 97.3% | 720.1hPa | 2.9V | 18:12:15 | 00:34:42 | 00:00:00 | |
| AA1-15 | 2026-09-03 10:53:57 | 54.11729 | 13.51541 | 74° | 46km/h | 2804m | 4.7m/s | 2.2°C | 97.5% | 725hPa | 2.9V | 18:12:15 | 00:34:31 | 00:00:00 | |
| DB0DAN | 2026-09-03 10:53:55 | 54.11722 | 13.51502 | 73° | 46km/h | 2795m | 6m/s | 2.3°C | 97.9% | 725.92hPa | 3V | 00:00:00 | 00:00:00 | 00:00:00 | |
| AA1-15 | 2026-09-03 10:53:49 | 54.11703 | 13.51329 | 85° | 62km/h | 2755m | 4.4m/s | 2.6°C | 94.2% | 729.6hPa | 3V | 18:12:15 | 00:34:21 | 00:00:00 | |
| MECKS9 | 2026-09-03 10:53:49 | 54.11704 | 13.51355 | 88° | 58km/h | 2759m | 5.2m/s | 2.6°C | 0% | 729.2hPa | 3V | 00:00:00 | 00:00:00 | 00:00:00 | |
| DB0DAN | 2026-09-03 10:53:40 | 54.11700 | 13.51163 | 92° | 38km/h | 2726m | 4.9m/s | 2.9°C | 94.5% | 732.34hPa | 3V | 00:00:00 | 00:00:00 | 00:00:00 | |
| AA1-15 | 2026-09-03 10:53:37 | 54.11699 | 13.51109 | 85° | 46km/h | 2713m | 4.1m/s | 3°C | 94.6% | 733.6hPa | 3V | 18:12:15 | 00:34:11 | 00:00:00 | |
| AA1-15 | 2026-09-03 10:53:26 | 54.11678 | 13.50838 | 87° | 60km/h | 2663m | 3.4m/s | 3.4°C | 91.6% | 738.1hPa | 3V | 18:12:15 | 00:34:00 | 00:00:00 | |
| DB0DAN | 2026-09-03 10:53:25 | 54.11677 | 13.50813 | 87° | 53km/h | 2659m | 4m/s | 3.4°C | 92.6% | 738.44hPa | 3V | 00:00:00 | 00:00:00 | 00:00:00 | |
| AA1-15 | 2026-09-03 10:53:16 | 54.11666 | 13.50605 | 96° | 57km/h | 2615m | 5.4m/s | 3.6°C | 91.2% | 742.6hPa | 3V | 18:12:15 | 00:33:50 | 00:00:00 | |
| DB0DAN | 2026-09-03 10:53:10 | 54.11656 | 13.50468 | 72° | 58km/h | 2586m | 4.8m/s | 3.7°C | 92.8% | 745.2hPa | 2.9V | 00:00:00 | 00:00:00 | 00:00:00 | |
| AA1-15 | 2026-09-03 10:53:06 | 54.11640 | 13.50362 | 82° | 62km/h | 2569m | 5.6m/s | 3.7°C | 95.8% | 746.5hPa | 3V | 18:12:15 | 00:33:40 | 00:00:00 | |
| AA1-15 | 2026-09-03 10:52:56 | 54.11629 | 13.50129 | 88° | 58km/h | 2514m | 7.3m/s | 4.1°C | 94.2% | 751.6hPa | 3V | 18:12:15 | 00:33:30 | 00:00:00 | |
| DB0DAN | 2026-09-03 10:52:55 | 54.11628 | 13.50104 | 88° | 51km/h | 2508m | 5m/s | 4.1°C | 94.7% | 752.35hPa | 3V | 00:00:00 | 00:00:00 | 00:00:00 | |
| AA1-15 | 2026-09-03 10:52:45 | 54.11612 | 13.49899 | 80° | 46km/h | 2455m | 4.4m/s | 4.4°C | 94.1% | 757.2hPa | 3V | 18:12:15 | 00:33:19 | 00:00:00 | |
| DB0DAN | 2026-09-03 10:52:40 | 54.11609 | 13.49779 | 88° | 57km/h | 2427m | 6.5m/s | 4.6°C | 96.1% | 759.66hPa | 3V | 00:00:00 | 00:00:00 | 00:00:00 | |
| AA1-15 | 2026-09-03 10:52:34 | 54.11610 | 13.49643 | 94° | 49km/h | 2396m | 4.8m/s | 4.7°C | 99.7% | 762.5hPa | 2.9V | 18:12:15 | 00:33:08 | 00:00:00 | |
| MECKS9 | 2026-09-03 10:52:27 | 54.11612 | 13.49507 | 87° | 47km/h | 2367m | 5.6m/s | 4.8°C | 0% | 765.6hPa | 3V | 00:00:00 | 00:00:00 | 00:00:00 | |
| DB0DAN | 2026-09-03 10:52:25 | 54.11605 | 13.49447 | 77° | 47km/h | 2350m | 4.7m/s | 4.9°C | 99% | 766.98hPa | 3V | 00:00:00 | 00:00:00 | 00:00:00 | |
| AA1-15 | 2026-09-03 10:52:24 | 54.11602 | 13.49426 | 77° | 51km/h | 2345m | 5.4m/s | 5°C | 97.2% | 767.4hPa | 3V | 18:12:15 | 00:32:58 | 00:00:00 | |
| AA1-15 | 2026-09-03 10:52:15 | 54.11596 | 13.49186 | 84° | 44km/h | 2303m | 3.7m/s | 5.2°C | 98.3% | 771.3hPa | 3V | 18:12:15 | 00:32:47 | 00:00:00 | |
| DB0DAN | 2026-09-03 10:52:10 | 54.11589 | 13.49124 | 78° | 53km/h | 2287m | 5.2m/s | 5.2°C | 100% | 772.65hPa | 3V | 00:00:00 | 00:00:00 | 00:00:00 | |
| AA1-15 | 2026-09-03 10:52:03 | 54.11578 | 13.48976 | 73° | 42km/h | 2253m | 5.8m/s | 5.5°C | 99.5% | 776.1hPa | 3V | 18:12:15 | 00:32:37 | 00:00:00 | |
| DB0DAN | 2026-09-03 10:51:55 | 54.11560 | 13.48793 | 91° | 46km/h | 2215m | 4.5m/s | 5.7°C | 100% | 779.22hPa | 3V | 00:00:00 | 00:00:00 | 00:00:00 | |
| AA1-15 | 2026-09-03 10:51:53 | 54.11560 | 13.48731 | 85° | 51km/h | 2201m | 5.4m/s | 5.8°C | 99% | 781.3hPa | 2.9V | 18:12:15 | 00:32:26 | 00:00:00 | |
| AA1-15 | 2026-09-03 10:51:42 | 54.11543 | 13.48495 | 74° | 57km/h | 2147m | 7m/s | 6.1°C | 100% | 785.9hPa | 2.9V | 18:12:15 | 00:32:16 | 00:00:00 | |
| DB0DAN | 2026-09-03 10:51:40 | 54.11539 | 13.48448 | 88° | 53km/h | 2133m | 6.2m/s | 6.2°C | 99.6% | 787.59hPa | 3V | 00:00:00 | 00:00:00 | 00:00:00 | |
| AA1-15 | 2026-09-03 10:51:31 | 54.11542 | 13.48271 | 93° | 42km/h | 2093m | 5m/s | 6.5°C | 98.4% | 791.2hPa | 3V | 18:12:15 | 00:32:05 | 00:00:00 | |
| DB0DAN | 2026-09-03 10:51:25 | 54.11551 | 13.48139 | 100° | 46km/h | 2067m | 3.8m/s | 6.7°C | 98.4% | 793.65hPa | 3V | 00:00:00 | 00:00:00 | 00:00:00 | |
| AA1-15 | 2026-09-03 10:51:21 | 54.11550 | 13.48065 | 78° | 44km/h | 2049m | 4.9m/s | 6.7°C | 97.2% | 795.4hPa | 3V | 18:12:15 | 00:31:55 | 00:00:00 | |
| AA1-15 | 2026-09-03 10:51:11 | 54.11529 | 13.47856 | 76° | 47km/h | 1999m | 4.4m/s | 7.1°C | 95.8% | 800.3hPa | 2.9V | 18:12:15 | 00:31:45 | 00:00:00 | |
| AA1-15 | 2026-09-03 10:51:10 | 54.11527 | 13.47835 | 80° | 51km/h | 1994m | 4.6m/s | 7.1°C | 96.8% | 800.7hPa | 2.9V | 18:12:15 | 00:31:44 | 00:00:00 | |
| DB0DAN | 2026-09-03 10:51:10 | 54.11527 | 13.47835 | 80° | 47km/h | 1994m | 4.6m/s | 7.1°C | 99% | 800.74hPa | 2.9V | 00:00:00 | 00:00:00 | 00:00:00 | |
| AA1-15 | 2026-09-03 10:51:09 | 54.11525 | 13.47774 | 91° | 42km/h | 1978m | 5.9m/s | 7.2°C | 99.4% | 802.3hPa | 3V | 18:12:15 | 00:31:41 | 00:00:00 | |
| AA1-15 | 2026-09-03 10:51:06 | 54.11525 | 13.47756 | 88° | 40km/h | 1971m | 6.2m/s | 7.2°C | 99.4% | 802.9hPa | 3V | 18:12:15 | 00:31:40 | 00:00:00 | |
| AA1-15 | 2026-09-03 10:51:04 | 54.11525 | 13.47723 | 91° | 40km/h | 1962m | 5.7m/s | 7.2°C | 100% | 803.9hPa | 2.9V | 18:12:15 | 00:31:38 | 00:00:00 | |
| AA1-15 | 2026-09-03 10:51:02 | 54.11526 | 13.47687 | 93° | 46km/h | 1951m | 4.1m/s | 7.3°C | 99.9% | 804.8hPa | 3V | 18:12:15 | 00:31:36 | 00:00:00 | |
| AA1-15 | 2026-09-03 10:51:00 | 54.11527 | 13.47645 | 89° | 53km/h | 1942m | 5m/s | 7.3°C | 99.3% | 805.8hPa | 2.9V | 18:12:15 | 00:31:34 | 00:00:00 | |
| AA1-15 | 2026-09-03 10:50:59 | 54.11526 | 13.47621 | 86° | 57km/h | 1937m | 4.6m/s | 7.4°C | 98.7% | 806.3hPa | 2.9V | 18:12:15 | 00:31:33 | 00:00:00 | |
| AA1-15 | 2026-09-03 10:50:57 | 54.11521 | 13.47572 | 77° | 58km/h | 1927m | 5m/s | 7.4°C | 100% | 807.2hPa | 2.9V | 18:12:15 | 00:31:31 | 00:00:00 | |
| DB0DAN | 2026-09-03 10:50:55 | 54.11514 | 13.47525 | 74° | 53km/h | 1917m | 5.2m/s | 7.5°C | 100% | 807.84hPa | 2.9V | 00:00:00 | 00:00:00 | 00:00:00 | |
| AA1-15 | 2026-09-03 10:50:55 | 54.11514 | 13.47525 | 74° | 55km/h | 1917m | 5.2m/s | 7.5°C | 100% | 807.8hPa | 2.9V | 18:12:15 | 00:31:29 | 00:00:00 | |
| AA1-15 | 2026-09-03 10:50:53 | 54.11509 | 13.47479 | 85° | 57km/h | 1906m | 6.6m/s | 7.5°C | 100% | 809.5hPa | 2.9V | 18:12:15 | 00:31:27 | 00:00:00 | |
| AA1-15 | 2026-09-03 10:50:52 | 54.11508 | 13.47454 | 89° | 60km/h | 1899m | 6.4m/s | 7.6°C | 100% | 809.8hPa | 2.9V | 18:12:15 | 00:31:26 | 00:00:00 | |
| AA1-15 | 2026-09-03 10:50:51 | 54.11508 | 13.47428 | 90° | 62km/h | 1893m | 5.7m/s | 7.6°C | 100% | 810.8hPa | 3V | 18:12:15 | 00:31:25 | 00:00:00 | |
| AA1-15 | 2026-09-03 10:50:49 | 54.11508 | 13.47376 | 88° | 57km/h | 1882m | 4.4m/s | 7.7°C | 99.8% | 811.6hPa | 2.9V | 18:12:15 | 00:31:23 | 00:00:00 | |
| AA1-15 | 2026-09-03 10:50:48 | 54.11496 | 13.47263 | 72° | 53km/h | 1858m | 3.2m/s | 7.8°C | 99.4% | 813.1hPa | 2.9V | 18:12:15 | 00:31:18 | 00:00:00 | |
| AA1-15 | 2026-09-03 10:50:46 | 54.11492 | 13.47242 | 73° | 51km/h | 1853m | 7.5m/s | 7.9°C | 99.7% | 814.6hPa | 2.9V | 18:12:15 | 00:31:17 | 00:00:00 | |
| AA1-15 | 2026-09-03 10:50:41 | 54.11486 | 13.47201 | 80° | 49km/h | 1841m | 4.4m/s | 8°C | 98.6% | 815.5hPa | 2.9V | 18:12:15 | 00:31:15 | 00:00:00 | |
| AA1-15 | 2026-09-03 10:50:40 | 54.11484 | 13.47179 | 81° | 53km/h | 1836m | 5.6m/s | 8°C | 99.1% | 816hPa | 2.9V | 18:12:15 | 00:31:14 | 00:00:00 | |
| DB0DAN | 2026-09-03 10:50:40 | 54.11484 | 13.47179 | 81° | 51km/h | 1836m | 5.6m/s | 8°C | 0% | 0hPa | 2.9V | 00:00:00 | 00:00:00 | 00:00:00 | |
| AA1-15 | 2026-09-03 10:50:39 | 54.11481 | 13.47154 | 81° | 60km/h | 1831m | 5.5m/s | 8°C | 99.7% | 816.9hPa | 2.9V | 18:12:15 | 00:31:13 | 00:00:00 | |
| AA1-15 | 2026-09-03 10:50:37 | 54.11475 | 13.47101 | 75° | 66km/h | 1818m | 5.5m/s | 8.1°C | 99.4% | 817.6hPa | 2.9V | 18:12:15 | 00:31:11 | 00:00:00 | |
| AA1-15 | 2026-09-03 10:50:36 | 54.11470 | 13.47075 | 74° | 62km/h | 1812m | 7m/s | 8.1°C | 99.1% | 818.6hPa | 3V | 18:12:15 | 00:31:10 | 00:00:00 | |
| AA1-15 | 2026-09-03 10:50:34 | 54.11463 | 13.47029 | 77° | 49km/h | 1801m | 4.2m/s | 8.2°C | 100% | 819.7hPa | 2.9V | 18:12:15 | 00:31:08 | 00:00:00 | |
| AA1-15 | 2026-09-03 10:50:32 | 54.11460 | 13.46990 | 89° | 46km/h | 1791m | 6.5m/s | 8.2°C | 100% | 820.6hPa | 3V | 18:12:15 | 00:31:06 | 00:00:00 | |
| AA1-15 | 2026-09-03 10:50:30 | 54.11460 | 13.46949 | 89° | 51km/h | 1778m | 5.9m/s | 8.3°C | 100% | 822hPa | 2.9V | 18:12:15 | 00:31:04 | 00:00:00 | |
| AA1-15 | 2026-09-03 10:50:28 | 54.11458 | 13.46903 | 82° | 55km/h | 1767m | 4.7m/s | 8.4°C | 100% | 823.1hPa | 2.9V | 18:12:15 | 00:31:02 | 00:00:00 | |
| AA1-15 | 2026-09-03 10:50:27 | 54.11456 | 13.46879 | 77° | 57km/h | 1763m | 4.4m/s | 8.4°C | 100% | 823.4hPa | 3V | 18:12:15 | 00:31:01 | 00:00:00 | |
| AA1-15 | 2026-09-03 10:50:25 | 54.11448 | 13.46833 | 68° | 55km/h | 1754m | 4.4m/s | 8.5°C | 100% | 824.6hPa | 2.9V | 18:12:15 | 00:30:59 | 00:00:00 | |
| AA1-15 | 2026-09-03 10:50:24 | 54.11443 | 13.46812 | 69° | 53km/h | 1750m | 4.8m/s | 8.5°C | 100% | 824.9hPa | 3V | 18:12:15 | 00:30:58 | 00:00:00 | |
| AA1-15 | 2026-09-03 10:50:22 | 54.11434 | 13.46768 | 72° | 57km/h | 1739m | 5.4m/s | 8.5°C | 100% | 825.7hPa | 2.9V | 18:12:15 | 00:30:56 | 00:00:00 | |
| AA1-15 | 2026-09-03 10:50:20 | 54.11428 | 13.46718 | 84° | 60km/h | 1729m | 4.5m/s | 8.6°C | 100% | 827hPa | 2.9V | 18:12:15 | 00:30:54 | 00:00:00 | |
| AA1-15 | 2026-09-03 10:50:19 | 54.11419 | 13.46563 | 75° | 57km/h | 1693m | 4.8m/s | 8.8°C | 100% | 830.6hPa | 2.9V | 18:12:15 | 00:30:47 | 00:00:00 | |
| AA1-15 | 2026-09-03 10:50:18 | 54.11415 | 13.46539 | 76° | 62km/h | 1688m | 3.9m/s | 8.8°C | 100% | 831hPa | 2.9V | 18:12:15 | 00:30:46 | 00:00:00 | |
| AA1-15 | 2026-09-03 10:50:13 | 54.11411 | 13.46512 | 77° | 68km/h | 1684m | 4.8m/s | 8.8°C | 100% | 831.5hPa | 2.9V | 18:12:15 | 00:30:45 | 00:00:00 | |
| AA1-15 | 2026-09-03 10:50:10 | 54.11408 | 13.46483 | 82° | 69km/h | 1679m | 4.6m/s | 8.9°C | 100% | 832.1hPa | 2.9V | 18:12:15 | 00:30:44 | 00:00:00 | |
| DB0DAN | 2026-09-03 10:50:10 | 54.11408 | 13.46483 | 82° | 68km/h | 1679m | 4.6m/s | 8.9°C | 0% | 0hPa | 2.9V | 00:00:00 | 00:00:00 | 00:00:00 | |
| AA1-15 | 2026-09-03 10:50:07 | 54.11406 | 13.46395 | 93° | 64km/h | 1665m | 5m/s | 8.9°C | 100% | 833.4hPa | 3V | 18:12:15 | 00:30:41 | 00:00:00 | |
| AA1-15 | 2026-09-03 10:50:05 | 54.11406 | 13.46344 | 88° | 55km/h | 1654m | 5.2m/s | 9°C | 100% | 834.5hPa | 3V | 18:12:15 | 00:30:39 | 00:00:00 | |
| AA1-15 | 2026-09-03 10:50:04 | 54.11405 | 13.46321 | 83° | 51km/h | 1649m | 3.6m/s | 9.1°C | 100% | 834.6hPa | 2.9V | 18:12:15 | 00:30:38 | 00:00:00 | |
| AA1-15 | 2026-09-03 10:50:02 | 54.11400 | 13.46276 | 77° | 55km/h | 1641m | 5.5m/s | 9.1°C | 100% | 835.8hPa | 2.9V | 18:12:15 | 00:30:36 | 00:00:00 | |
| AA1-15 | 2026-09-03 10:50:00 | 54.11394 | 13.46226 | 81° | 64km/h | 1630m | 4.9m/s | 9.2°C | 100% | 836.8hPa | 2.9V | 18:12:15 | 00:30:34 | 00:00:00 | |
| AA1-15 | 2026-09-03 10:49:58 | 54.11392 | 13.46171 | 90° | 64km/h | 1619m | 4.9m/s | 9.3°C | 100% | 838.1hPa | 2.9V | 18:12:15 | 00:30:32 | 00:00:00 | |
| AA1-15 | 2026-09-03 10:49:56 | 54.11392 | 13.46117 | 88° | 60km/h | 1609m | 5.2m/s | 9.3°C | 100% | 839.3hPa | 2.9V | 18:12:15 | 00:30:30 | 00:00:00 | |
| AA1-15 | 2026-09-03 10:49:53 | 54.11384 | 13.46039 | 74° | 64km/h | 1592m | 5.2m/s | 9.4°C | 100% | 840.6hPa | 2.9V | 18:12:15 | 00:30:27 | 00:00:00 | |
| AA1-15 | 2026-09-03 10:49:51 | 54.11376 | 13.45987 | 77° | 62km/h | 1581m | 4.6m/s | 9.4°C | 98.2% | 841.8hPa | 2.9V | 18:12:15 | 00:30:25 | 00:00:00 | |
| AA1-15 | 2026-09-03 10:49:49 | 54.11370 | 13.45938 | 84° | 53km/h | 1573m | 4m/s | 9.5°C | 100% | 842.5hPa | 2.9V | 18:12:15 | 00:30:23 | 00:00:00 | |
| AA1-15 | 2026-09-03 10:49:48 | 54.11370 | 13.45915 | 90° | 53km/h | 1569m | 4.3m/s | 9.5°C | 100% | 843.2hPa | 2.9V | 18:12:15 | 00:30:22 | 00:00:00 | |
| AA1-15 | 2026-09-03 10:49:46 | 54.11370 | 13.45872 | 90° | 49km/h | 1557m | 7.2m/s | 9.6°C | 100% | 844hPa | 2.9V | 18:12:15 | 00:30:20 | 00:00:00 | |
| AA1-15 | 2026-09-03 10:49:41 | 54.11348 | 13.45697 | 78° | 69km/h | 1520m | 4.8m/s | 9.9°C | 100% | 847.2hPa | 2.9V | 18:12:15 | 00:30:13 | 00:00:00 | |
| AA1-15 | 2026-09-03 10:49:40 | 54.11344 | 13.45667 | 76° | 71km/h | 1514m | 7m/s | 9.9°C | 100% | 848.1hPa | 2.9V | 18:12:15 | 00:30:12 | 00:00:00 | |
| AA1-15 | 2026-09-03 10:49:37 | 54.11339 | 13.45638 | 74° | 68km/h | 1508m | 5.3m/s | 9.9°C | 100% | 849.3hPa | 2.9V | 18:12:15 | 00:30:11 | 00:00:00 | |
| AA1-15 | 2026-09-03 10:49:35 | 54.11329 | 13.45583 | 74° | 66km/h | 1499m | 4.4m/s | 9.9°C | 100% | 850.2hPa | 2.9V | 18:12:15 | 00:30:09 | 00:00:00 | |
| AA1-15 | 2026-09-03 10:49:34 | 54.11325 | 13.45556 | 78° | 64km/h | 1495m | 5.2m/s | 10°C | 100% | 850.7hPa | 2.9V | 18:12:15 | 00:30:08 | 00:00:00 | |
| AA1-15 | 2026-09-03 10:49:33 | 54.11323 | 13.45529 | 83° | 64km/h | 1490m | 5.2m/s | 10°C | 100% | 850.9hPa | 2.9V | 18:12:15 | 00:30:07 | 00:00:00 | |
| AA1-15 | 2026-09-03 10:49:31 | 54.11321 | 13.45477 | 89° | 58km/h | 1480m | 4.6m/s | 10°C | 100% | 851.9hPa | 2.9V | 18:12:15 | 00:30:05 | 00:00:00 | |
| AA1-15 | 2026-09-03 10:49:29 | 54.11321 | 13.45428 | 91° | 55km/h | 1470m | 5m/s | 10°C | 100% | 852.8hPa | 2.9V | 18:12:15 | 00:30:03 | 00:00:00 | |
| AA1-15 | 2026-09-03 10:49:27 | 54.11320 | 13.45380 | 83° | 58km/h | 1459m | 4.8m/s | 10.1°C | 98.2% | 854hPa | 2.9V | 18:12:15 | 00:30:01 | 00:00:00 | |
| AA1-15 | 2026-09-03 10:49:25 | 54.11315 | 13.45331 | 75° | 57km/h | 1450m | 4.8m/s | 10.2°C | 100% | 854.6hPa | 2.9V | 18:12:15 | 00:29:59 | 00:00:00 | |
| AA1-15 | 2026-09-03 10:49:24 | 54.11311 | 13.45308 | 71° | 51km/h | 1445m | 6m/s | 10.2°C | 100% | 855.7hPa | 2.9V | 18:12:15 | 00:29:58 | 00:00:00 | |
| AA1-15 | 2026-09-03 10:49:23 | 54.11307 | 13.45288 | 70° | 47km/h | 1440m | 4.7m/s | 10.2°C | 100% | 856.2hPa | 2.9V | 18:12:15 | 00:29:57 | 00:00:00 | |
| AA1-15 | 2026-09-03 10:49:21 | 54.11301 | 13.45251 | 82° | 42km/h | 1430m | 5.6m/s | 10.2°C | 100% | 857.6hPa | 2.9V | 18:12:15 | 00:29:55 | 00:00:00 | |
| AA1-15 | 2026-09-03 10:49:19 | 54.11299 | 13.45210 | 90° | 53km/h | 1421m | 5m/s | 10.3°C | 100% | 858.2hPa | 2.9V | 18:12:15 | 00:29:53 | 00:00:00 | |
| AA1-15 | 2026-09-03 10:49:18 | 54.11300 | 13.45187 | 93° | 55km/h | 1416m | 5m/s | 10.3°C | 100% | 858.6hPa | 2.9V | 18:12:15 | 00:29:52 | 00:00:00 | |
| AA1-15 | 2026-09-03 10:49:16 | 54.11302 | 13.45137 | 93° | 60km/h | 1405m | 5.7m/s | 0°C | 0% | 860hPa | 2.9V | 18:12:15 | 00:29:50 | 00:00:00 | |
| AA1-15 | 2026-09-03 10:49:14 | 54.11301 | 13.45082 | 84° | 66km/h | 1396m | 3.5m/s | 0°C | 0% | 860.9hPa | 2.9V | 18:12:15 | 00:29:48 | 00:00:00 | |
| AA1-15 | 2026-09-03 10:49:12 | 54.11295 | 13.45026 | 74° | 66km/h | 1387m | 4.7m/s | 0°C | 0% | 861.3hPa | 2.9V | 18:12:15 | 00:29:46 | 00:00:00 | |
| AA1-15 | 2026-09-03 10:49:11 | 54.11290 | 13.45000 | 72° | 64km/h | 1383m | 4.2m/s | 0°C | 0% | 862.2hPa | 2.9V | 18:12:15 | 00:29:45 | 00:00:00 | |
| AA1-15 | 2026-09-03 10:49:09 | 54.11279 | 13.44951 | 68° | 58km/h | 1376m | 3.9m/s | 0°C | 0% | 863.2hPa | 2.9V | 18:12:15 | 00:29:43 | 00:00:00 | |
| AA1-15 | 2026-09-03 10:49:08 | 54.11264 | 13.44883 | 74° | 57km/h | 1363m | 3.8m/s | 0°C | 0% | 864.3hPa | 2.9V | 18:12:15 | 00:29:40 | 00:00:00 | |
| AA1-15 | 2026-09-03 10:49:07 | 54.11260 | 13.44859 | 77° | 58km/h | 1360m | 3.5m/s | 0°C | 0% | 864.6hPa | 2.9V | 18:12:15 | 00:29:39 | 00:00:00 | |
| AA1-15 | 2026-09-03 10:49:03 | 54.11255 | 13.44807 | 82° | 64km/h | 1350m | 6.7m/s | 0°C | 0% | 865.6hPa | 2.9V | 18:12:15 | 00:29:37 | 00:00:00 | |
| AA1-15 | 2026-09-03 10:49:02 | 54.11253 | 13.44779 | 82° | 66km/h | 1344m | 6.4m/s | 0°C | 0% | 0hPa | 2.9V | 18:12:15 | 00:29:36 | 00:00:00 | |
| AA1-15 | 2026-09-03 10:49:00 | 54.11250 | 13.44725 | 85° | 60km/h | 1330m | 5.7m/s | 0°C | 0% | 0hPa | 2.9V | 18:12:15 | 00:29:34 | 00:00:00 | |
| AA1-15 | 2026-09-03 10:48:59 | 54.11249 | 13.44700 | 87° | 58km/h | 1325m | 4.3m/s | 0°C | 0% | 0hPa | 2.9V | 18:12:15 | 00:29:33 | 00:00:00 | |
| AA1-15 | 2026-09-03 10:48:58 | 54.11248 | 13.44675 | 88° | 57km/h | 1320m | 5.1m/s | 0°C | 0% | 0hPa | 2.9V | 18:12:15 | 00:29:32 | 00:00:00 | |
| AA1-15 | 2026-09-03 10:48:56 | 54.11246 | 13.44624 | 81° | 62km/h | 1312m | 3.3m/s | 0°C | 0% | 0hPa | 2.9V | 18:12:15 | 00:29:30 | 00:00:00 | |
| AA1-15 | 2026-09-03 10:48:55 | 54.11243 | 13.44597 | 78° | 66km/h | 1309m | 3.8m/s | 0°C | 0% | 0hPa | 2.9V | 18:12:15 | 00:29:29 | 00:00:00 | |
| AA1-15 | 2026-09-03 10:48:54 | 54.11239 | 13.44569 | 76° | 66km/h | 1305m | 4.2m/s | 0°C | 0% | 0hPa | 2.9V | 18:12:15 | 00:29:28 | 00:00:00 | |
| AA1-15 | 2026-09-03 10:48:53 | 54.11235 | 13.44543 | 75° | 62km/h | 1300m | 4.8m/s | 0°C | 0% | 0hPa | 2.9V | 18:12:15 | 00:29:27 | 00:00:00 | |
| AA1-15 | 2026-09-03 10:48:51 | 54.11229 | 13.44492 | 80° | 58km/h | 1289m | 5.8m/s | 0°C | 0% | 0hPa | 2.9V | 18:12:15 | 00:29:25 | 00:00:00 | |
| AA1-15 | 2026-09-03 10:48:49 | 54.11226 | 13.44443 | 83° | 57km/h | 1280m | 3.7m/s | 0°C | 0% | 0hPa | 2.9V | 18:12:15 | 00:29:23 | 00:00:00 | |
| AA1-15 | 2026-09-03 10:48:47 | 54.11222 | 13.44395 | 81° | 53km/h | 1271m | 3.7m/s | 0°C | 0% | 0hPa | 2.9V | 18:12:15 | 00:29:21 | 00:00:00 | |
| AA1-15 | 2026-09-03 10:48:45 | 54.11218 | 13.44353 | 81° | 46km/h | 1263m | 3.9m/s | 0°C | 0% | 0hPa | 2.9V | 18:12:15 | 00:29:19 | 00:00:00 | |
| AA1-15 | 2026-09-03 10:48:43 | 54.11214 | 13.44313 | 78° | 49km/h | 1256m | 3.1m/s | 0°C | 0% | 0hPa | 2.9V | 18:12:15 | 00:29:17 | 00:00:00 | |
| AA1-15 | 2026-09-03 10:48:41 | 54.11207 | 13.44269 | 72° | 57km/h | 1248m | 5.3m/s | 0°C | 0% | 0hPa | 2.9V | 18:12:15 | 00:29:15 | 00:00:00 | |
| AA1-15 | 2026-09-03 10:48:40 | 54.11202 | 13.44246 | 70° | 60km/h | 1242m | 5.4m/s | 0°C | 0% | 0hPa | 2.9V | 18:12:15 | 00:29:14 | 00:00:00 | |
| AA1-15 | 2026-09-03 10:48:38 | 54.11192 | 13.44196 | 72° | 62km/h | 1231m | 6.2m/s | 0°C | 0% | 0hPa | 2.9V | 18:12:15 | 00:29:12 | 00:00:00 | |
| AA1-15 | 2026-09-03 10:48:36 | 54.11185 | 13.44147 | 79° | 55km/h | 1220m | 5.7m/s | 0°C | 0% | 0hPa | 2.9V | 18:12:15 | 00:29:10 | 00:00:00 | |
| AA1-15 | 2026-09-03 10:48:35 | 54.11182 | 13.44125 | 76° | 49km/h | 1214m | 6.9m/s | 0°C | 0% | 0hPa | 2.9V | 18:12:15 | 00:29:09 | 00:00:00 | |
| AA1-15 | 2026-09-03 10:48:33 | 54.11176 | 13.44084 | 73° | 49km/h | 1202m | 5.2m/s | 0°C | 0% | 0hPa | 2.9V | 18:12:15 | 00:29:07 | 00:00:00 | |
| AA1-15 | 2026-09-03 10:48:31 | 54.11169 | 13.44040 | 77° | 57km/h | 1191m | 3.9m/s | 0°C | 0% | 0hPa | 2.9V | 18:12:15 | 00:29:05 | 00:00:00 | |
| AA1-15 | 2026-09-03 10:48:30 | 54.11166 | 13.44015 | 78° | 58km/h | 1188m | 3.7m/s | 0°C | 0% | 0hPa | 2.9V | 18:12:15 | 00:29:04 | 00:00:00 | |
| AA1-15 | 2026-09-03 10:48:28 | 54.11159 | 13.43965 | 75° | 60km/h | 1178m | 7.2m/s | 0°C | 0% | 0hPa | 2.9V | 18:12:15 | 00:29:02 | 00:00:00 | |
| AA1-15 | 2026-09-03 10:48:23 | 54.11135 | 13.43863 | 72° | 46km/h | 1147m | 4.6m/s | 0°C | 0% | 0hPa | 2.9V | 18:12:15 | 00:28:57 | 00:00:00 | |
| AA1-15 | 2026-09-03 10:48:21 | 54.11128 | 13.43826 | 72° | 44km/h | 1138m | 6.8m/s | 0°C | 0% | 0hPa | 2.9V | 18:12:15 | 00:28:55 | 00:00:00 | |
| AA1-15 | 2026-09-03 10:48:19 | 54.11119 | 13.43787 | 66° | 55km/h | 1124m | 6m/s | 0°C | 0% | 0hPa | 2.9V | 18:12:15 | 00:28:53 | 00:00:00 | |
| AA1-15 | 2026-09-03 10:48:17 | 54.11108 | 13.43739 | 71° | 64km/h | 1113m | 5.6m/s | 0°C | 0% | 0hPa | 2.9V | 18:12:15 | 00:28:51 | 00:00:00 | |
| AA1-15 | 2026-09-03 10:48:15 | 54.11100 | 13.43685 | 80° | 62km/h | 1102m | 4.2m/s | 0°C | 0% | 0hPa | 2.9V | 18:12:15 | 00:28:49 | 00:00:00 | |
| MECKS9 | 2026-09-03 10:48:14 | 54.11100 | 13.43685 | 81° | 62km/h | 1102m | 4.2m/s | 0°C | 0% | 0hPa | 2.9V | 00:00:00 | 00:00:00 | 00:00:00 | |
| AA1-15 | 2026-09-03 10:47:54 | 54.11026 | 13.43205 | 71° | 60km/h | 988m | 5.8m/s | 0°C | 0% | 0hPa | 2.9V | 18:12:15 | 00:28:28 | 00:00:00 | |
| AA1-15 | 2026-09-03 10:47:52 | 54.11018 | 13.43159 | 70° | 53km/h | 978m | 4.8m/s | 0°C | 0% | 0hPa | 2.9V | 18:12:15 | 00:28:26 | 00:00:00 | |
| AA1-15 | 2026-09-03 10:47:49 | 54.11001 | 13.43094 | 65° | 60km/h | 962m | 5.9m/s | 0°C | 0% | 0hPa | 2.9V | 18:12:15 | 00:28:23 | 00:00:00 | |
| AA1-15 | 2026-09-03 10:47:47 | 54.10990 | 13.43043 | 73° | 64km/h | 952m | 5.4m/s | 0°C | 0% | 0hPa | 2.9V | 18:12:15 | 00:28:21 | 00:00:00 | |
| AA1-15 | 2026-09-03 10:47:46 | 54.10986 | 13.43017 | 75° | 64km/h | 948m | 3.1m/s | 0°C | 0% | 0hPa | 2.9V | 18:12:15 | 00:28:20 | 00:00:00 | |
| AA1-15 | 2026-09-03 10:47:45 | 54.10981 | 13.42990 | 75° | 64km/h | 943m | 6.1m/s | 0°C | 0% | 0hPa | 2.9V | 18:12:15 | 00:28:19 | 00:00:00 |